<?xml version="1.0" encoding="utf-8"?>
<gpx xmlns:xsd="http://www.w3.org/2001/XMLSchema" xmlns:xsi="http://www.w3.org/2001/XMLSchema-instance" creator="eT4 META" version="1.1" xsi:schemaLocation="http://www.topografix.com/GPX/1/1 http://www.topografix.com/GPX/1/1/gpx.xsd" xmlns="http://www.topografix.com/GPX/1/1">
  <trk>
    <name>Monheimer Alb-Runde</name>
    <trkseg>
      <trkpt lat="48.718656" lon="10.781646">
        <ele>415.15</ele>
        <time>2026-09-01T00:00:00.0000000+00:00</time>
      </trkpt>
      <trkpt lat="48.718836" lon="10.781516">
        <ele>415.41</ele>
        <time>2026-09-01T00:00:00.0000000+00:00</time>
      </trkpt>
      <trkpt lat="48.719233" lon="10.781162">
        <ele>415.19</ele>
        <time>2026-09-01T00:00:00.0000000+00:00</time>
      </trkpt>
      <trkpt lat="48.71947" lon="10.780976">
        <ele>415.17</ele>
        <time>2026-09-01T00:00:00.0000000+00:00</time>
      </trkpt>
      <trkpt lat="48.719724" lon="10.780801">
        <ele>415.45</ele>
        <time>2026-09-01T00:00:00.0000000+00:00</time>
      </trkpt>
      <trkpt lat="48.720032" lon="10.780608">
        <ele>415.6</ele>
        <time>2026-09-01T00:00:00.0000000+00:00</time>
      </trkpt>
      <trkpt lat="48.72008" lon="10.780578">
        <ele>415.59</ele>
        <time>2026-09-01T00:00:00.0000000+00:00</time>
      </trkpt>
      <trkpt lat="48.720123" lon="10.780551">
        <ele>415.58</ele>
        <time>2026-09-01T00:00:00.0000000+00:00</time>
      </trkpt>
      <trkpt lat="48.720294" lon="10.780442">
        <ele>415.15</ele>
        <time>2026-09-01T00:00:00.0000000+00:00</time>
      </trkpt>
      <trkpt lat="48.720294" lon="10.780442">
        <ele>415.15</ele>
        <time>2026-09-01T00:00:00.0000000+00:00</time>
      </trkpt>
      <trkpt lat="48.720449" lon="10.780367">
        <ele>414.49</ele>
        <time>2026-09-01T00:00:00.0000000+00:00</time>
      </trkpt>
      <trkpt lat="48.720712" lon="10.7802">
        <ele>413.13</ele>
        <time>2026-09-01T00:00:00.0000000+00:00</time>
      </trkpt>
      <trkpt lat="48.720878" lon="10.780091">
        <ele>413.06</ele>
        <time>2026-09-01T00:00:00.0000000+00:00</time>
      </trkpt>
      <trkpt lat="48.720939" lon="10.78005">
        <ele>413.11</ele>
        <time>2026-09-01T00:00:00.0000000+00:00</time>
      </trkpt>
      <trkpt lat="48.720939" lon="10.78005">
        <ele>413.11</ele>
        <time>2026-09-01T00:00:00.0000000+00:00</time>
      </trkpt>
      <trkpt lat="48.720939" lon="10.78005">
        <ele>413.11</ele>
        <time>2026-09-01T00:00:00.0000000+00:00</time>
      </trkpt>
      <trkpt lat="48.720939" lon="10.78005">
        <ele>413.11</ele>
        <time>2026-09-01T00:00:00.0000000+00:00</time>
      </trkpt>
      <trkpt lat="48.720939" lon="10.78005">
        <ele>413.11</ele>
        <time>2026-09-01T00:00:00.0000000+00:00</time>
      </trkpt>
      <trkpt lat="48.720996" lon="10.780013">
        <ele>413.17</ele>
        <time>2026-09-01T00:00:00.0000000+00:00</time>
      </trkpt>
      <trkpt lat="48.720996" lon="10.780013">
        <ele>413.17</ele>
        <time>2026-09-01T00:00:00.0000000+00:00</time>
      </trkpt>
      <trkpt lat="48.720996" lon="10.780013">
        <ele>413.17</ele>
        <time>2026-09-01T00:00:00.0000000+00:00</time>
      </trkpt>
      <trkpt lat="48.721142" lon="10.780224">
        <ele>413.2</ele>
        <time>2026-09-01T00:00:00.0000000+00:00</time>
      </trkpt>
      <trkpt lat="48.721142" lon="10.780224">
        <ele>413.2</ele>
        <time>2026-09-01T00:00:00.0000000+00:00</time>
      </trkpt>
      <trkpt lat="48.721142" lon="10.780224">
        <ele>413.2</ele>
        <time>2026-09-01T00:00:00.0000000+00:00</time>
      </trkpt>
      <trkpt lat="48.721172" lon="10.780267">
        <ele>413.48</ele>
        <time>2026-09-01T00:00:00.0000000+00:00</time>
      </trkpt>
      <trkpt lat="48.721332" lon="10.780499">
        <ele>414.96</ele>
        <time>2026-09-01T00:00:00.0000000+00:00</time>
      </trkpt>
      <trkpt lat="48.721388" lon="10.780587">
        <ele>415.52</ele>
        <time>2026-09-01T00:00:00.0000000+00:00</time>
      </trkpt>
      <trkpt lat="48.721393" lon="10.780732">
        <ele>416.56</ele>
        <time>2026-09-01T00:00:00.0000000+00:00</time>
      </trkpt>
      <trkpt lat="48.721379" lon="10.78095">
        <ele>418.15</ele>
        <time>2026-09-01T00:00:00.0000000+00:00</time>
      </trkpt>
      <trkpt lat="48.721448" lon="10.780958">
        <ele>418.12</ele>
        <time>2026-09-01T00:00:00.0000000+00:00</time>
      </trkpt>
      <trkpt lat="48.721882" lon="10.781043">
        <ele>418.38</ele>
        <time>2026-09-01T00:00:00.0000000+00:00</time>
      </trkpt>
      <trkpt lat="48.721882" lon="10.781043">
        <ele>418.38</ele>
        <time>2026-09-01T00:00:00.0000000+00:00</time>
      </trkpt>
      <trkpt lat="48.721955" lon="10.781059">
        <ele>418.42</ele>
        <time>2026-09-01T00:00:00.0000000+00:00</time>
      </trkpt>
      <trkpt lat="48.721955" lon="10.781059">
        <ele>418.42</ele>
        <time>2026-09-01T00:00:00.0000000+00:00</time>
      </trkpt>
      <trkpt lat="48.721955" lon="10.781059">
        <ele>418.42</ele>
        <time>2026-09-01T00:00:00.0000000+00:00</time>
      </trkpt>
      <trkpt lat="48.722284" lon="10.781069">
        <ele>417.69</ele>
        <time>2026-09-01T00:00:00.0000000+00:00</time>
      </trkpt>
      <trkpt lat="48.722284" lon="10.781069">
        <ele>417.69</ele>
        <time>2026-09-01T00:00:00.0000000+00:00</time>
      </trkpt>
      <trkpt lat="48.722284" lon="10.781069">
        <ele>417.69</ele>
        <time>2026-09-01T00:00:00.0000000+00:00</time>
      </trkpt>
      <trkpt lat="48.722284" lon="10.781069">
        <ele>417.69</ele>
        <time>2026-09-01T00:00:00.0000000+00:00</time>
      </trkpt>
      <trkpt lat="48.722284" lon="10.781069">
        <ele>417.69</ele>
        <time>2026-09-01T00:00:00.0000000+00:00</time>
      </trkpt>
      <trkpt lat="48.722284" lon="10.781069">
        <ele>417.69</ele>
        <time>2026-09-01T00:00:00.0000000+00:00</time>
      </trkpt>
      <trkpt lat="48.722284" lon="10.781069">
        <ele>417.69</ele>
        <time>2026-09-01T00:00:00.0000000+00:00</time>
      </trkpt>
      <trkpt lat="48.722404" lon="10.781057">
        <ele>417.24</ele>
        <time>2026-09-01T00:00:00.0000000+00:00</time>
      </trkpt>
      <trkpt lat="48.722404" lon="10.781057">
        <ele>417.24</ele>
        <time>2026-09-01T00:00:00.0000000+00:00</time>
      </trkpt>
      <trkpt lat="48.722404" lon="10.781057">
        <ele>417.24</ele>
        <time>2026-09-01T00:00:00.0000000+00:00</time>
      </trkpt>
      <trkpt lat="48.722404" lon="10.781057">
        <ele>417.24</ele>
        <time>2026-09-01T00:00:00.0000000+00:00</time>
      </trkpt>
      <trkpt lat="48.722404" lon="10.781057">
        <ele>417.24</ele>
        <time>2026-09-01T00:00:00.0000000+00:00</time>
      </trkpt>
      <trkpt lat="48.722663" lon="10.781024">
        <ele>416.24</ele>
        <time>2026-09-01T00:00:00.0000000+00:00</time>
      </trkpt>
      <trkpt lat="48.722708" lon="10.781015">
        <ele>416.05</ele>
        <time>2026-09-01T00:00:00.0000000+00:00</time>
      </trkpt>
      <trkpt lat="48.723207" lon="10.780912">
        <ele>418.84</ele>
        <time>2026-09-01T00:00:00.0000000+00:00</time>
      </trkpt>
      <trkpt lat="48.723469" lon="10.78082">
        <ele>419.99</ele>
        <time>2026-09-01T00:00:00.0000000+00:00</time>
      </trkpt>
      <trkpt lat="48.723813" lon="10.780686">
        <ele>419.86</ele>
        <time>2026-09-01T00:00:00.0000000+00:00</time>
      </trkpt>
      <trkpt lat="48.724294" lon="10.780547">
        <ele>419.61</ele>
        <time>2026-09-01T00:00:00.0000000+00:00</time>
      </trkpt>
      <trkpt lat="48.724873" lon="10.780452">
        <ele>416.23</ele>
        <time>2026-09-01T00:00:00.0000000+00:00</time>
      </trkpt>
      <trkpt lat="48.724968" lon="10.780241">
        <ele>414.25</ele>
        <time>2026-09-01T00:00:00.0000000+00:00</time>
      </trkpt>
      <trkpt lat="48.724968" lon="10.780241">
        <ele>414.25</ele>
        <time>2026-09-01T00:00:00.0000000+00:00</time>
      </trkpt>
      <trkpt lat="48.724968" lon="10.780241">
        <ele>414.25</ele>
        <time>2026-09-01T00:00:00.0000000+00:00</time>
      </trkpt>
      <trkpt lat="48.725143" lon="10.780495">
        <ele>414.79</ele>
        <time>2026-09-01T00:00:00.0000000+00:00</time>
      </trkpt>
      <trkpt lat="48.725577" lon="10.780825">
        <ele>415.01</ele>
        <time>2026-09-01T00:00:00.0000000+00:00</time>
      </trkpt>
      <trkpt lat="48.726105" lon="10.781175">
        <ele>414.88</ele>
        <time>2026-09-01T00:00:00.0000000+00:00</time>
      </trkpt>
      <trkpt lat="48.726341" lon="10.781332">
        <ele>416.42</ele>
        <time>2026-09-01T00:00:00.0000000+00:00</time>
      </trkpt>
      <trkpt lat="48.726341" lon="10.781332">
        <ele>416.42</ele>
        <time>2026-09-01T00:00:00.0000000+00:00</time>
      </trkpt>
      <trkpt lat="48.72646" lon="10.781414">
        <ele>417.1</ele>
        <time>2026-09-01T00:00:00.0000000+00:00</time>
      </trkpt>
      <trkpt lat="48.726528" lon="10.781475">
        <ele>417.59</ele>
        <time>2026-09-01T00:00:00.0000000+00:00</time>
      </trkpt>
      <trkpt lat="48.726605" lon="10.781547">
        <ele>418.13</ele>
        <time>2026-09-01T00:00:00.0000000+00:00</time>
      </trkpt>
      <trkpt lat="48.726775" lon="10.781691">
        <ele>419.02</ele>
        <time>2026-09-01T00:00:00.0000000+00:00</time>
      </trkpt>
      <trkpt lat="48.726971" lon="10.781783">
        <ele>419.46</ele>
        <time>2026-09-01T00:00:00.0000000+00:00</time>
      </trkpt>
      <trkpt lat="48.72734" lon="10.781685">
        <ele>418.73</ele>
        <time>2026-09-01T00:00:00.0000000+00:00</time>
      </trkpt>
      <trkpt lat="48.72751" lon="10.781738">
        <ele>419.17</ele>
        <time>2026-09-01T00:00:00.0000000+00:00</time>
      </trkpt>
      <trkpt lat="48.72751" lon="10.781738">
        <ele>419.17</ele>
        <time>2026-09-01T00:00:00.0000000+00:00</time>
      </trkpt>
      <trkpt lat="48.72761" lon="10.781713">
        <ele>419</ele>
        <time>2026-09-01T00:00:00.0000000+00:00</time>
      </trkpt>
      <trkpt lat="48.72761" lon="10.781713">
        <ele>419</ele>
        <time>2026-09-01T00:00:00.0000000+00:00</time>
      </trkpt>
      <trkpt lat="48.72761" lon="10.781713">
        <ele>419</ele>
        <time>2026-09-01T00:00:00.0000000+00:00</time>
      </trkpt>
      <trkpt lat="48.72761" lon="10.781713">
        <ele>419</ele>
        <time>2026-09-01T00:00:00.0000000+00:00</time>
      </trkpt>
      <trkpt lat="48.72772" lon="10.781685">
        <ele>418.82</ele>
        <time>2026-09-01T00:00:00.0000000+00:00</time>
      </trkpt>
      <trkpt lat="48.727867" lon="10.781694">
        <ele>419.09</ele>
        <time>2026-09-01T00:00:00.0000000+00:00</time>
      </trkpt>
      <trkpt lat="48.728457" lon="10.781722">
        <ele>420.1</ele>
        <time>2026-09-01T00:00:00.0000000+00:00</time>
      </trkpt>
      <trkpt lat="48.728672" lon="10.781913">
        <ele>422.01</ele>
        <time>2026-09-01T00:00:00.0000000+00:00</time>
      </trkpt>
      <trkpt lat="48.729001" lon="10.781776">
        <ele>421.63</ele>
        <time>2026-09-01T00:00:00.0000000+00:00</time>
      </trkpt>
      <trkpt lat="48.72921" lon="10.781783">
        <ele>422.17</ele>
        <time>2026-09-01T00:00:00.0000000+00:00</time>
      </trkpt>
      <trkpt lat="48.729289" lon="10.781962">
        <ele>424.46</ele>
        <time>2026-09-01T00:00:00.0000000+00:00</time>
      </trkpt>
      <trkpt lat="48.72945" lon="10.782201">
        <ele>428.85</ele>
        <time>2026-09-01T00:00:00.0000000+00:00</time>
      </trkpt>
      <trkpt lat="48.72963" lon="10.782278">
        <ele>431.13</ele>
        <time>2026-09-01T00:00:00.0000000+00:00</time>
      </trkpt>
      <trkpt lat="48.729998" lon="10.782181">
        <ele>431.83</ele>
        <time>2026-09-01T00:00:00.0000000+00:00</time>
      </trkpt>
      <trkpt lat="48.730047" lon="10.782169">
        <ele>431.94</ele>
        <time>2026-09-01T00:00:00.0000000+00:00</time>
      </trkpt>
      <trkpt lat="48.730631" lon="10.782148">
        <ele>432.01</ele>
        <time>2026-09-01T00:00:00.0000000+00:00</time>
      </trkpt>
      <trkpt lat="48.730631" lon="10.782148">
        <ele>432.01</ele>
        <time>2026-09-01T00:00:00.0000000+00:00</time>
      </trkpt>
      <trkpt lat="48.730631" lon="10.782148">
        <ele>432.01</ele>
        <time>2026-09-01T00:00:00.0000000+00:00</time>
      </trkpt>
      <trkpt lat="48.730936" lon="10.782203">
        <ele>432.32</ele>
        <time>2026-09-01T00:00:00.0000000+00:00</time>
      </trkpt>
      <trkpt lat="48.731038" lon="10.78214">
        <ele>431.23</ele>
        <time>2026-09-01T00:00:00.0000000+00:00</time>
      </trkpt>
      <trkpt lat="48.731095" lon="10.782075">
        <ele>430.36</ele>
        <time>2026-09-01T00:00:00.0000000+00:00</time>
      </trkpt>
      <trkpt lat="48.731095" lon="10.782075">
        <ele>430.36</ele>
        <time>2026-09-01T00:00:00.0000000+00:00</time>
      </trkpt>
      <trkpt lat="48.731127" lon="10.782039">
        <ele>429.94</ele>
        <time>2026-09-01T00:00:00.0000000+00:00</time>
      </trkpt>
      <trkpt lat="48.731218" lon="10.781916">
        <ele>428.5</ele>
        <time>2026-09-01T00:00:00.0000000+00:00</time>
      </trkpt>
      <trkpt lat="48.731327" lon="10.781822">
        <ele>427.75</ele>
        <time>2026-09-01T00:00:00.0000000+00:00</time>
      </trkpt>
      <trkpt lat="48.731402" lon="10.781819">
        <ele>427.99</ele>
        <time>2026-09-01T00:00:00.0000000+00:00</time>
      </trkpt>
      <trkpt lat="48.731421" lon="10.78182">
        <ele>428.06</ele>
        <time>2026-09-01T00:00:00.0000000+00:00</time>
      </trkpt>
      <trkpt lat="48.731437" lon="10.781821">
        <ele>428.12</ele>
        <time>2026-09-01T00:00:00.0000000+00:00</time>
      </trkpt>
      <trkpt lat="48.731665" lon="10.781834">
        <ele>429.05</ele>
        <time>2026-09-01T00:00:00.0000000+00:00</time>
      </trkpt>
      <trkpt lat="48.73183" lon="10.782008">
        <ele>431.55</ele>
        <time>2026-09-01T00:00:00.0000000+00:00</time>
      </trkpt>
      <trkpt lat="48.732064" lon="10.782244">
        <ele>433.84</ele>
        <time>2026-09-01T00:00:00.0000000+00:00</time>
      </trkpt>
      <trkpt lat="48.732212" lon="10.782299">
        <ele>434.16</ele>
        <time>2026-09-01T00:00:00.0000000+00:00</time>
      </trkpt>
      <trkpt lat="48.732365" lon="10.782318">
        <ele>434.08</ele>
        <time>2026-09-01T00:00:00.0000000+00:00</time>
      </trkpt>
      <trkpt lat="48.73263" lon="10.782164">
        <ele>431.2</ele>
        <time>2026-09-01T00:00:00.0000000+00:00</time>
      </trkpt>
      <trkpt lat="48.732849" lon="10.782292">
        <ele>432.85</ele>
        <time>2026-09-01T00:00:00.0000000+00:00</time>
      </trkpt>
      <trkpt lat="48.733227" lon="10.782553">
        <ele>436.91</ele>
        <time>2026-09-01T00:00:00.0000000+00:00</time>
      </trkpt>
      <trkpt lat="48.733375" lon="10.782635">
        <ele>438.24</ele>
        <time>2026-09-01T00:00:00.0000000+00:00</time>
      </trkpt>
      <trkpt lat="48.733519" lon="10.782694">
        <ele>439.16</ele>
        <time>2026-09-01T00:00:00.0000000+00:00</time>
      </trkpt>
      <trkpt lat="48.733726" lon="10.782691">
        <ele>440.14</ele>
        <time>2026-09-01T00:00:00.0000000+00:00</time>
      </trkpt>
      <trkpt lat="48.733871" lon="10.782647">
        <ele>440.34</ele>
        <time>2026-09-01T00:00:00.0000000+00:00</time>
      </trkpt>
      <trkpt lat="48.734121" lon="10.782566">
        <ele>440.56</ele>
        <time>2026-09-01T00:00:00.0000000+00:00</time>
      </trkpt>
      <trkpt lat="48.734587" lon="10.782289">
        <ele>438.57</ele>
        <time>2026-09-01T00:00:00.0000000+00:00</time>
      </trkpt>
      <trkpt lat="48.734885" lon="10.782043">
        <ele>436.46</ele>
        <time>2026-09-01T00:00:00.0000000+00:00</time>
      </trkpt>
      <trkpt lat="48.734935" lon="10.781996">
        <ele>436.12</ele>
        <time>2026-09-01T00:00:00.0000000+00:00</time>
      </trkpt>
      <trkpt lat="48.735192" lon="10.781722">
        <ele>434.47</ele>
        <time>2026-09-01T00:00:00.0000000+00:00</time>
      </trkpt>
      <trkpt lat="48.735253" lon="10.781649">
        <ele>434.04</ele>
        <time>2026-09-01T00:00:00.0000000+00:00</time>
      </trkpt>
      <trkpt lat="48.735282" lon="10.781614">
        <ele>433.84</ele>
        <time>2026-09-01T00:00:00.0000000+00:00</time>
      </trkpt>
      <trkpt lat="48.735296" lon="10.781597">
        <ele>433.75</ele>
        <time>2026-09-01T00:00:00.0000000+00:00</time>
      </trkpt>
      <trkpt lat="48.735503" lon="10.78133">
        <ele>432.6</ele>
        <time>2026-09-01T00:00:00.0000000+00:00</time>
      </trkpt>
      <trkpt lat="48.735788" lon="10.78091">
        <ele>431.43</ele>
        <time>2026-09-01T00:00:00.0000000+00:00</time>
      </trkpt>
      <trkpt lat="48.735885" lon="10.780737">
        <ele>430.57</ele>
        <time>2026-09-01T00:00:00.0000000+00:00</time>
      </trkpt>
      <trkpt lat="48.735902" lon="10.780709">
        <ele>430.43</ele>
        <time>2026-09-01T00:00:00.0000000+00:00</time>
      </trkpt>
      <trkpt lat="48.735944" lon="10.780611">
        <ele>429.77</ele>
        <time>2026-09-01T00:00:00.0000000+00:00</time>
      </trkpt>
      <trkpt lat="48.735974" lon="10.78054">
        <ele>429.26</ele>
        <time>2026-09-01T00:00:00.0000000+00:00</time>
      </trkpt>
      <trkpt lat="48.735986" lon="10.780511">
        <ele>429.04</ele>
        <time>2026-09-01T00:00:00.0000000+00:00</time>
      </trkpt>
      <trkpt lat="48.735986" lon="10.780511">
        <ele>429.04</ele>
        <time>2026-09-01T00:00:00.0000000+00:00</time>
      </trkpt>
      <trkpt lat="48.735986" lon="10.780511">
        <ele>429.04</ele>
        <time>2026-09-01T00:00:00.0000000+00:00</time>
      </trkpt>
      <trkpt lat="48.736006" lon="10.780463">
        <ele>428.68</ele>
        <time>2026-09-01T00:00:00.0000000+00:00</time>
      </trkpt>
      <trkpt lat="48.736006" lon="10.780463">
        <ele>428.68</ele>
        <time>2026-09-01T00:00:00.0000000+00:00</time>
      </trkpt>
      <trkpt lat="48.736006" lon="10.780463">
        <ele>428.68</ele>
        <time>2026-09-01T00:00:00.0000000+00:00</time>
      </trkpt>
      <trkpt lat="48.736006" lon="10.780463">
        <ele>428.68</ele>
        <time>2026-09-01T00:00:00.0000000+00:00</time>
      </trkpt>
      <trkpt lat="48.736006" lon="10.780463">
        <ele>428.68</ele>
        <time>2026-09-01T00:00:00.0000000+00:00</time>
      </trkpt>
      <trkpt lat="48.736006" lon="10.780463">
        <ele>428.68</ele>
        <time>2026-09-01T00:00:00.0000000+00:00</time>
      </trkpt>
      <trkpt lat="48.736248" lon="10.780651">
        <ele>432.25</ele>
        <time>2026-09-01T00:00:00.0000000+00:00</time>
      </trkpt>
      <trkpt lat="48.736329" lon="10.780707">
        <ele>433.4</ele>
        <time>2026-09-01T00:00:00.0000000+00:00</time>
      </trkpt>
      <trkpt lat="48.736373" lon="10.780745">
        <ele>434.13</ele>
        <time>2026-09-01T00:00:00.0000000+00:00</time>
      </trkpt>
      <trkpt lat="48.736453" lon="10.780811">
        <ele>435.43</ele>
        <time>2026-09-01T00:00:00.0000000+00:00</time>
      </trkpt>
      <trkpt lat="48.736595" lon="10.780865">
        <ele>437.04</ele>
        <time>2026-09-01T00:00:00.0000000+00:00</time>
      </trkpt>
      <trkpt lat="48.736737" lon="10.780659">
        <ele>435.37</ele>
        <time>2026-09-01T00:00:00.0000000+00:00</time>
      </trkpt>
      <trkpt lat="48.736809" lon="10.780611">
        <ele>435.19</ele>
        <time>2026-09-01T00:00:00.0000000+00:00</time>
      </trkpt>
      <trkpt lat="48.736906" lon="10.780628">
        <ele>436</ele>
        <time>2026-09-01T00:00:00.0000000+00:00</time>
      </trkpt>
      <trkpt lat="48.736941" lon="10.780606">
        <ele>435.92</ele>
        <time>2026-09-01T00:00:00.0000000+00:00</time>
      </trkpt>
      <trkpt lat="48.737046" lon="10.780517">
        <ele>435.37</ele>
        <time>2026-09-01T00:00:00.0000000+00:00</time>
      </trkpt>
      <trkpt lat="48.737074" lon="10.780493">
        <ele>435.22</ele>
        <time>2026-09-01T00:00:00.0000000+00:00</time>
      </trkpt>
      <trkpt lat="48.737135" lon="10.780426">
        <ele>434.7</ele>
        <time>2026-09-01T00:00:00.0000000+00:00</time>
      </trkpt>
      <trkpt lat="48.737271" lon="10.780266">
        <ele>433.41</ele>
        <time>2026-09-01T00:00:00.0000000+00:00</time>
      </trkpt>
      <trkpt lat="48.737508" lon="10.780072">
        <ele>432.77</ele>
        <time>2026-09-01T00:00:00.0000000+00:00</time>
      </trkpt>
      <trkpt lat="48.73811" lon="10.779918">
        <ele>433.09</ele>
        <time>2026-09-01T00:00:00.0000000+00:00</time>
      </trkpt>
      <trkpt lat="48.738488" lon="10.779681">
        <ele>430.91</ele>
        <time>2026-09-01T00:00:00.0000000+00:00</time>
      </trkpt>
      <trkpt lat="48.73866" lon="10.779657">
        <ele>430.98</ele>
        <time>2026-09-01T00:00:00.0000000+00:00</time>
      </trkpt>
      <trkpt lat="48.73927" lon="10.779825">
        <ele>434.3</ele>
        <time>2026-09-01T00:00:00.0000000+00:00</time>
      </trkpt>
      <trkpt lat="48.739348" lon="10.779854">
        <ele>434.76</ele>
        <time>2026-09-01T00:00:00.0000000+00:00</time>
      </trkpt>
      <trkpt lat="48.739874" lon="10.780045">
        <ele>436.87</ele>
        <time>2026-09-01T00:00:00.0000000+00:00</time>
      </trkpt>
      <trkpt lat="48.740075" lon="10.780041">
        <ele>436.92</ele>
        <time>2026-09-01T00:00:00.0000000+00:00</time>
      </trkpt>
      <trkpt lat="48.74041" lon="10.779903">
        <ele>437.84</ele>
        <time>2026-09-01T00:00:00.0000000+00:00</time>
      </trkpt>
      <trkpt lat="48.74055" lon="10.779838">
        <ele>438.52</ele>
        <time>2026-09-01T00:00:00.0000000+00:00</time>
      </trkpt>
      <trkpt lat="48.740683" lon="10.779776">
        <ele>439.02</ele>
        <time>2026-09-01T00:00:00.0000000+00:00</time>
      </trkpt>
      <trkpt lat="48.741189" lon="10.779641">
        <ele>441.44</ele>
        <time>2026-09-01T00:00:00.0000000+00:00</time>
      </trkpt>
      <trkpt lat="48.741457" lon="10.779608">
        <ele>443.22</ele>
        <time>2026-09-01T00:00:00.0000000+00:00</time>
      </trkpt>
      <trkpt lat="48.741723" lon="10.779578">
        <ele>444.87</ele>
        <time>2026-09-01T00:00:00.0000000+00:00</time>
      </trkpt>
      <trkpt lat="48.74191" lon="10.779551">
        <ele>445.75</ele>
        <time>2026-09-01T00:00:00.0000000+00:00</time>
      </trkpt>
      <trkpt lat="48.742146" lon="10.779496">
        <ele>446.06</ele>
        <time>2026-09-01T00:00:00.0000000+00:00</time>
      </trkpt>
      <trkpt lat="48.742406" lon="10.77943">
        <ele>446.41</ele>
        <time>2026-09-01T00:00:00.0000000+00:00</time>
      </trkpt>
      <trkpt lat="48.742478" lon="10.779236">
        <ele>443.29</ele>
        <time>2026-09-01T00:00:00.0000000+00:00</time>
      </trkpt>
      <trkpt lat="48.742508" lon="10.779085">
        <ele>440.81</ele>
        <time>2026-09-01T00:00:00.0000000+00:00</time>
      </trkpt>
      <trkpt lat="48.742572" lon="10.778715">
        <ele>434.41</ele>
        <time>2026-09-01T00:00:00.0000000+00:00</time>
      </trkpt>
      <trkpt lat="48.742692" lon="10.778636">
        <ele>433.22</ele>
        <time>2026-09-01T00:00:00.0000000+00:00</time>
      </trkpt>
      <trkpt lat="48.742973" lon="10.778497">
        <ele>432.84</ele>
        <time>2026-09-01T00:00:00.0000000+00:00</time>
      </trkpt>
      <trkpt lat="48.74335" lon="10.778503">
        <ele>435.54</ele>
        <time>2026-09-01T00:00:00.0000000+00:00</time>
      </trkpt>
      <trkpt lat="48.74342" lon="10.778587">
        <ele>437.27</ele>
        <time>2026-09-01T00:00:00.0000000+00:00</time>
      </trkpt>
      <trkpt lat="48.743559" lon="10.778738">
        <ele>440.84</ele>
        <time>2026-09-01T00:00:00.0000000+00:00</time>
      </trkpt>
      <trkpt lat="48.743818" lon="10.778747">
        <ele>443.98</ele>
        <time>2026-09-01T00:00:00.0000000+00:00</time>
      </trkpt>
      <trkpt lat="48.74403" lon="10.778693">
        <ele>445.71</ele>
        <time>2026-09-01T00:00:00.0000000+00:00</time>
      </trkpt>
      <trkpt lat="48.744067" lon="10.77868">
        <ele>445.99</ele>
        <time>2026-09-01T00:00:00.0000000+00:00</time>
      </trkpt>
      <trkpt lat="48.744403" lon="10.778518">
        <ele>448.31</ele>
        <time>2026-09-01T00:00:00.0000000+00:00</time>
      </trkpt>
      <trkpt lat="48.744577" lon="10.778428">
        <ele>449.85</ele>
        <time>2026-09-01T00:00:00.0000000+00:00</time>
      </trkpt>
      <trkpt lat="48.744981" lon="10.778042">
        <ele>451.94</ele>
        <time>2026-09-01T00:00:00.0000000+00:00</time>
      </trkpt>
      <trkpt lat="48.745224" lon="10.777771">
        <ele>452.75</ele>
        <time>2026-09-01T00:00:00.0000000+00:00</time>
      </trkpt>
      <trkpt lat="48.745412" lon="10.777631">
        <ele>451.55</ele>
        <time>2026-09-01T00:00:00.0000000+00:00</time>
      </trkpt>
      <trkpt lat="48.745412" lon="10.777631">
        <ele>451.55</ele>
        <time>2026-09-01T00:00:00.0000000+00:00</time>
      </trkpt>
      <trkpt lat="48.745546" lon="10.777552">
        <ele>450.59</ele>
        <time>2026-09-01T00:00:00.0000000+00:00</time>
      </trkpt>
      <trkpt lat="48.745611" lon="10.777511">
        <ele>450.12</ele>
        <time>2026-09-01T00:00:00.0000000+00:00</time>
      </trkpt>
      <trkpt lat="48.745611" lon="10.777511">
        <ele>450.12</ele>
        <time>2026-09-01T00:00:00.0000000+00:00</time>
      </trkpt>
      <trkpt lat="48.745683" lon="10.777462">
        <ele>449.56</ele>
        <time>2026-09-01T00:00:00.0000000+00:00</time>
      </trkpt>
      <trkpt lat="48.745723" lon="10.777449">
        <ele>449.49</ele>
        <time>2026-09-01T00:00:00.0000000+00:00</time>
      </trkpt>
      <trkpt lat="48.745722" lon="10.777583">
        <ele>451.61</ele>
        <time>2026-09-01T00:00:00.0000000+00:00</time>
      </trkpt>
      <trkpt lat="48.745723" lon="10.777965">
        <ele>456.4</ele>
        <time>2026-09-01T00:00:00.0000000+00:00</time>
      </trkpt>
      <trkpt lat="48.745983" lon="10.778095">
        <ele>459.12</ele>
        <time>2026-09-01T00:00:00.0000000+00:00</time>
      </trkpt>
      <trkpt lat="48.746163" lon="10.778094">
        <ele>459.61</ele>
        <time>2026-09-01T00:00:00.0000000+00:00</time>
      </trkpt>
      <trkpt lat="48.746292" lon="10.77805">
        <ele>459.25</ele>
        <time>2026-09-01T00:00:00.0000000+00:00</time>
      </trkpt>
      <trkpt lat="48.746641" lon="10.777913">
        <ele>457.92</ele>
        <time>2026-09-01T00:00:00.0000000+00:00</time>
      </trkpt>
      <trkpt lat="48.747354" lon="10.777605">
        <ele>453.86</ele>
        <time>2026-09-01T00:00:00.0000000+00:00</time>
      </trkpt>
      <trkpt lat="48.7476" lon="10.777561">
        <ele>453.32</ele>
        <time>2026-09-01T00:00:00.0000000+00:00</time>
      </trkpt>
      <trkpt lat="48.747867" lon="10.777636">
        <ele>455.86</ele>
        <time>2026-09-01T00:00:00.0000000+00:00</time>
      </trkpt>
      <trkpt lat="48.747963" lon="10.777663">
        <ele>457.13</ele>
        <time>2026-09-01T00:00:00.0000000+00:00</time>
      </trkpt>
      <trkpt lat="48.748062" lon="10.777605">
        <ele>457.32</ele>
        <time>2026-09-01T00:00:00.0000000+00:00</time>
      </trkpt>
      <trkpt lat="48.748236" lon="10.777407">
        <ele>456.38</ele>
        <time>2026-09-01T00:00:00.0000000+00:00</time>
      </trkpt>
      <trkpt lat="48.748551" lon="10.777186">
        <ele>456.37</ele>
        <time>2026-09-01T00:00:00.0000000+00:00</time>
      </trkpt>
      <trkpt lat="48.748905" lon="10.777081">
        <ele>453.05</ele>
        <time>2026-09-01T00:00:00.0000000+00:00</time>
      </trkpt>
      <trkpt lat="48.748964" lon="10.776995">
        <ele>451.12</ele>
        <time>2026-09-01T00:00:00.0000000+00:00</time>
      </trkpt>
      <trkpt lat="48.749287" lon="10.777121">
        <ele>451.88</ele>
        <time>2026-09-01T00:00:00.0000000+00:00</time>
      </trkpt>
      <trkpt lat="48.74936" lon="10.777115">
        <ele>451.38</ele>
        <time>2026-09-01T00:00:00.0000000+00:00</time>
      </trkpt>
      <trkpt lat="48.749634" lon="10.777092">
        <ele>450.79</ele>
        <time>2026-09-01T00:00:00.0000000+00:00</time>
      </trkpt>
      <trkpt lat="48.749775" lon="10.77708">
        <ele>450.55</ele>
        <time>2026-09-01T00:00:00.0000000+00:00</time>
      </trkpt>
      <trkpt lat="48.749919" lon="10.777066">
        <ele>450.28</ele>
        <time>2026-09-01T00:00:00.0000000+00:00</time>
      </trkpt>
      <trkpt lat="48.750153" lon="10.777217">
        <ele>453.46</ele>
        <time>2026-09-01T00:00:00.0000000+00:00</time>
      </trkpt>
      <trkpt lat="48.750302" lon="10.777304">
        <ele>455.25</ele>
        <time>2026-09-01T00:00:00.0000000+00:00</time>
      </trkpt>
      <trkpt lat="48.750735" lon="10.777225">
        <ele>454.09</ele>
        <time>2026-09-01T00:00:00.0000000+00:00</time>
      </trkpt>
      <trkpt lat="48.75127" lon="10.776873">
        <ele>450.95</ele>
        <time>2026-09-01T00:00:00.0000000+00:00</time>
      </trkpt>
      <trkpt lat="48.752019" lon="10.776844">
        <ele>456.33</ele>
        <time>2026-09-01T00:00:00.0000000+00:00</time>
      </trkpt>
      <trkpt lat="48.752735" lon="10.776818">
        <ele>462.85</ele>
        <time>2026-09-01T00:00:00.0000000+00:00</time>
      </trkpt>
      <trkpt lat="48.753416" lon="10.776664">
        <ele>466.2</ele>
        <time>2026-09-01T00:00:00.0000000+00:00</time>
      </trkpt>
      <trkpt lat="48.754036" lon="10.77642">
        <ele>461.04</ele>
        <time>2026-09-01T00:00:00.0000000+00:00</time>
      </trkpt>
      <trkpt lat="48.754314" lon="10.776352">
        <ele>459.48</ele>
        <time>2026-09-01T00:00:00.0000000+00:00</time>
      </trkpt>
      <trkpt lat="48.754345" lon="10.77635">
        <ele>459.4</ele>
        <time>2026-09-01T00:00:00.0000000+00:00</time>
      </trkpt>
      <trkpt lat="48.754345" lon="10.77635">
        <ele>459.4</ele>
        <time>2026-09-01T00:00:00.0000000+00:00</time>
      </trkpt>
      <trkpt lat="48.754245" lon="10.776356">
        <ele>459.65</ele>
        <time>2026-09-01T00:00:00.0000000+00:00</time>
      </trkpt>
      <trkpt lat="48.754245" lon="10.776356">
        <ele>459.65</ele>
        <time>2026-09-01T00:00:00.0000000+00:00</time>
      </trkpt>
      <trkpt lat="48.754276" lon="10.776354">
        <ele>459.57</ele>
        <time>2026-09-01T00:00:00.0000000+00:00</time>
      </trkpt>
      <trkpt lat="48.754431" lon="10.77635">
        <ele>459.33</ele>
        <time>2026-09-01T00:00:00.0000000+00:00</time>
      </trkpt>
      <trkpt lat="48.754658" lon="10.776358">
        <ele>459.33</ele>
        <time>2026-09-01T00:00:00.0000000+00:00</time>
      </trkpt>
      <trkpt lat="48.755355" lon="10.77647">
        <ele>459.54</ele>
        <time>2026-09-01T00:00:00.0000000+00:00</time>
      </trkpt>
      <trkpt lat="48.755885" lon="10.776704">
        <ele>457.69</ele>
        <time>2026-09-01T00:00:00.0000000+00:00</time>
      </trkpt>
      <trkpt lat="48.756129" lon="10.776852">
        <ele>456.67</ele>
        <time>2026-09-01T00:00:00.0000000+00:00</time>
      </trkpt>
      <trkpt lat="48.756533" lon="10.777159">
        <ele>456.33</ele>
        <time>2026-09-01T00:00:00.0000000+00:00</time>
      </trkpt>
      <trkpt lat="48.756777" lon="10.777385">
        <ele>454.4</ele>
        <time>2026-09-01T00:00:00.0000000+00:00</time>
      </trkpt>
      <trkpt lat="48.756851" lon="10.777465">
        <ele>453.49</ele>
        <time>2026-09-01T00:00:00.0000000+00:00</time>
      </trkpt>
      <trkpt lat="48.7572" lon="10.777898">
        <ele>453.16</ele>
        <time>2026-09-01T00:00:00.0000000+00:00</time>
      </trkpt>
      <trkpt lat="48.757268" lon="10.777987">
        <ele>453.05</ele>
        <time>2026-09-01T00:00:00.0000000+00:00</time>
      </trkpt>
      <trkpt lat="48.757572" lon="10.778415">
        <ele>451.19</ele>
        <time>2026-09-01T00:00:00.0000000+00:00</time>
      </trkpt>
      <trkpt lat="48.757601" lon="10.778834">
        <ele>451.38</ele>
        <time>2026-09-01T00:00:00.0000000+00:00</time>
      </trkpt>
      <trkpt lat="48.757677" lon="10.779171">
        <ele>451.1</ele>
        <time>2026-09-01T00:00:00.0000000+00:00</time>
      </trkpt>
      <trkpt lat="48.757936" lon="10.779237">
        <ele>452.18</ele>
        <time>2026-09-01T00:00:00.0000000+00:00</time>
      </trkpt>
      <trkpt lat="48.758191" lon="10.779874">
        <ele>452.98</ele>
        <time>2026-09-01T00:00:00.0000000+00:00</time>
      </trkpt>
      <trkpt lat="48.758319" lon="10.780214">
        <ele>453.36</ele>
        <time>2026-09-01T00:00:00.0000000+00:00</time>
      </trkpt>
      <trkpt lat="48.75849" lon="10.78068">
        <ele>456.19</ele>
        <time>2026-09-01T00:00:00.0000000+00:00</time>
      </trkpt>
      <trkpt lat="48.758613" lon="10.781022">
        <ele>459.51</ele>
        <time>2026-09-01T00:00:00.0000000+00:00</time>
      </trkpt>
      <trkpt lat="48.758687" lon="10.781228">
        <ele>460.98</ele>
        <time>2026-09-01T00:00:00.0000000+00:00</time>
      </trkpt>
      <trkpt lat="48.758736" lon="10.781363">
        <ele>461.97</ele>
        <time>2026-09-01T00:00:00.0000000+00:00</time>
      </trkpt>
      <trkpt lat="48.758772" lon="10.781501">
        <ele>462.73</ele>
        <time>2026-09-01T00:00:00.0000000+00:00</time>
      </trkpt>
      <trkpt lat="48.758824" lon="10.781721">
        <ele>463.86</ele>
        <time>2026-09-01T00:00:00.0000000+00:00</time>
      </trkpt>
      <trkpt lat="48.758824" lon="10.781721">
        <ele>463.86</ele>
        <time>2026-09-01T00:00:00.0000000+00:00</time>
      </trkpt>
      <trkpt lat="48.758824" lon="10.781721">
        <ele>463.86</ele>
        <time>2026-09-01T00:00:00.0000000+00:00</time>
      </trkpt>
      <trkpt lat="48.758923" lon="10.78241">
        <ele>463.37</ele>
        <time>2026-09-01T00:00:00.0000000+00:00</time>
      </trkpt>
      <trkpt lat="48.758929" lon="10.782997">
        <ele>460.35</ele>
        <time>2026-09-01T00:00:00.0000000+00:00</time>
      </trkpt>
      <trkpt lat="48.758957" lon="10.7833">
        <ele>458.84</ele>
        <time>2026-09-01T00:00:00.0000000+00:00</time>
      </trkpt>
      <trkpt lat="48.759027" lon="10.784065">
        <ele>458.53</ele>
        <time>2026-09-01T00:00:00.0000000+00:00</time>
      </trkpt>
      <trkpt lat="48.759054" lon="10.78436">
        <ele>459.02</ele>
        <time>2026-09-01T00:00:00.0000000+00:00</time>
      </trkpt>
      <trkpt lat="48.759079" lon="10.784635">
        <ele>459.82</ele>
        <time>2026-09-01T00:00:00.0000000+00:00</time>
      </trkpt>
      <trkpt lat="48.759084" lon="10.784788">
        <ele>460.17</ele>
        <time>2026-09-01T00:00:00.0000000+00:00</time>
      </trkpt>
      <trkpt lat="48.759094" lon="10.78514">
        <ele>460.95</ele>
        <time>2026-09-01T00:00:00.0000000+00:00</time>
      </trkpt>
      <trkpt lat="48.759107" lon="10.785309">
        <ele>460.6</ele>
        <time>2026-09-01T00:00:00.0000000+00:00</time>
      </trkpt>
      <trkpt lat="48.759152" lon="10.785871">
        <ele>458.55</ele>
        <time>2026-09-01T00:00:00.0000000+00:00</time>
      </trkpt>
      <trkpt lat="48.759324" lon="10.786452">
        <ele>457.29</ele>
        <time>2026-09-01T00:00:00.0000000+00:00</time>
      </trkpt>
      <trkpt lat="48.759597" lon="10.786859">
        <ele>457.37</ele>
        <time>2026-09-01T00:00:00.0000000+00:00</time>
      </trkpt>
      <trkpt lat="48.760044" lon="10.787338">
        <ele>459.1</ele>
        <time>2026-09-01T00:00:00.0000000+00:00</time>
      </trkpt>
      <trkpt lat="48.760185" lon="10.787464">
        <ele>459.45</ele>
        <time>2026-09-01T00:00:00.0000000+00:00</time>
      </trkpt>
      <trkpt lat="48.760564" lon="10.787716">
        <ele>460.64</ele>
        <time>2026-09-01T00:00:00.0000000+00:00</time>
      </trkpt>
      <trkpt lat="48.760564" lon="10.787716">
        <ele>460.64</ele>
        <time>2026-09-01T00:00:00.0000000+00:00</time>
      </trkpt>
      <trkpt lat="48.76066" lon="10.787741">
        <ele>461.01</ele>
        <time>2026-09-01T00:00:00.0000000+00:00</time>
      </trkpt>
      <trkpt lat="48.76066" lon="10.787741">
        <ele>461.01</ele>
        <time>2026-09-01T00:00:00.0000000+00:00</time>
      </trkpt>
      <trkpt lat="48.76066" lon="10.787741">
        <ele>461.01</ele>
        <time>2026-09-01T00:00:00.0000000+00:00</time>
      </trkpt>
      <trkpt lat="48.760703" lon="10.787753">
        <ele>461.16</ele>
        <time>2026-09-01T00:00:00.0000000+00:00</time>
      </trkpt>
      <trkpt lat="48.760813" lon="10.7878">
        <ele>461.47</ele>
        <time>2026-09-01T00:00:00.0000000+00:00</time>
      </trkpt>
      <trkpt lat="48.761129" lon="10.787958">
        <ele>462.08</ele>
        <time>2026-09-01T00:00:00.0000000+00:00</time>
      </trkpt>
      <trkpt lat="48.761463" lon="10.788329">
        <ele>462.23</ele>
        <time>2026-09-01T00:00:00.0000000+00:00</time>
      </trkpt>
      <trkpt lat="48.761745" lon="10.788746">
        <ele>462.95</ele>
        <time>2026-09-01T00:00:00.0000000+00:00</time>
      </trkpt>
      <trkpt lat="48.762115" lon="10.789356">
        <ele>465.4</ele>
        <time>2026-09-01T00:00:00.0000000+00:00</time>
      </trkpt>
      <trkpt lat="48.762168" lon="10.789513">
        <ele>465.91</ele>
        <time>2026-09-01T00:00:00.0000000+00:00</time>
      </trkpt>
      <trkpt lat="48.762455" lon="10.790462">
        <ele>467.45</ele>
        <time>2026-09-01T00:00:00.0000000+00:00</time>
      </trkpt>
      <trkpt lat="48.762642" lon="10.790978">
        <ele>465.96</ele>
        <time>2026-09-01T00:00:00.0000000+00:00</time>
      </trkpt>
      <trkpt lat="48.763115" lon="10.791569">
        <ele>465.99</ele>
        <time>2026-09-01T00:00:00.0000000+00:00</time>
      </trkpt>
      <trkpt lat="48.763317" lon="10.791786">
        <ele>466.77</ele>
        <time>2026-09-01T00:00:00.0000000+00:00</time>
      </trkpt>
      <trkpt lat="48.763318" lon="10.791784">
        <ele>466.78</ele>
        <time>2026-09-01T00:00:00.0000000+00:00</time>
      </trkpt>
      <trkpt lat="48.763413" lon="10.791807">
        <ele>467.31</ele>
        <time>2026-09-01T00:00:00.0000000+00:00</time>
      </trkpt>
      <trkpt lat="48.763557" lon="10.791866">
        <ele>468.29</ele>
        <time>2026-09-01T00:00:00.0000000+00:00</time>
      </trkpt>
      <trkpt lat="48.763616" lon="10.79185">
        <ele>468.93</ele>
        <time>2026-09-01T00:00:00.0000000+00:00</time>
      </trkpt>
      <trkpt lat="48.763665" lon="10.791902">
        <ele>469.45</ele>
        <time>2026-09-01T00:00:00.0000000+00:00</time>
      </trkpt>
      <trkpt lat="48.763683" lon="10.791943">
        <ele>469.65</ele>
        <time>2026-09-01T00:00:00.0000000+00:00</time>
      </trkpt>
      <trkpt lat="48.763791" lon="10.792121">
        <ele>470.82</ele>
        <time>2026-09-01T00:00:00.0000000+00:00</time>
      </trkpt>
      <trkpt lat="48.764067" lon="10.79282">
        <ele>473.4</ele>
        <time>2026-09-01T00:00:00.0000000+00:00</time>
      </trkpt>
      <trkpt lat="48.764355" lon="10.793454">
        <ele>474.12</ele>
        <time>2026-09-01T00:00:00.0000000+00:00</time>
      </trkpt>
      <trkpt lat="48.764545" lon="10.793741">
        <ele>473.4</ele>
        <time>2026-09-01T00:00:00.0000000+00:00</time>
      </trkpt>
      <trkpt lat="48.764627" lon="10.793812">
        <ele>473.31</ele>
        <time>2026-09-01T00:00:00.0000000+00:00</time>
      </trkpt>
      <trkpt lat="48.764695" lon="10.793867">
        <ele>473.25</ele>
        <time>2026-09-01T00:00:00.0000000+00:00</time>
      </trkpt>
      <trkpt lat="48.764499" lon="10.794379">
        <ele>469.47</ele>
        <time>2026-09-01T00:00:00.0000000+00:00</time>
      </trkpt>
      <trkpt lat="48.764499" lon="10.794379">
        <ele>469.47</ele>
        <time>2026-09-01T00:00:00.0000000+00:00</time>
      </trkpt>
      <trkpt lat="48.76447" lon="10.794436">
        <ele>469.36</ele>
        <time>2026-09-01T00:00:00.0000000+00:00</time>
      </trkpt>
      <trkpt lat="48.764319" lon="10.794677">
        <ele>468.88</ele>
        <time>2026-09-01T00:00:00.0000000+00:00</time>
      </trkpt>
      <trkpt lat="48.764105" lon="10.794842">
        <ele>468.45</ele>
        <time>2026-09-01T00:00:00.0000000+00:00</time>
      </trkpt>
      <trkpt lat="48.764105" lon="10.794842">
        <ele>468.45</ele>
        <time>2026-09-01T00:00:00.0000000+00:00</time>
      </trkpt>
      <trkpt lat="48.764105" lon="10.794842">
        <ele>468.45</ele>
        <time>2026-09-01T00:00:00.0000000+00:00</time>
      </trkpt>
      <trkpt lat="48.764196" lon="10.795013">
        <ele>468.72</ele>
        <time>2026-09-01T00:00:00.0000000+00:00</time>
      </trkpt>
      <trkpt lat="48.764312" lon="10.795286">
        <ele>470.17</ele>
        <time>2026-09-01T00:00:00.0000000+00:00</time>
      </trkpt>
      <trkpt lat="48.764524" lon="10.79573">
        <ele>474.85</ele>
        <time>2026-09-01T00:00:00.0000000+00:00</time>
      </trkpt>
      <trkpt lat="48.764788" lon="10.795872">
        <ele>475.8</ele>
        <time>2026-09-01T00:00:00.0000000+00:00</time>
      </trkpt>
      <trkpt lat="48.76516" lon="10.795867">
        <ele>475.08</ele>
        <time>2026-09-01T00:00:00.0000000+00:00</time>
      </trkpt>
      <trkpt lat="48.765453" lon="10.795898">
        <ele>473.97</ele>
        <time>2026-09-01T00:00:00.0000000+00:00</time>
      </trkpt>
      <trkpt lat="48.765745" lon="10.796182">
        <ele>473.35</ele>
        <time>2026-09-01T00:00:00.0000000+00:00</time>
      </trkpt>
      <trkpt lat="48.765897" lon="10.796407">
        <ele>472.99</ele>
        <time>2026-09-01T00:00:00.0000000+00:00</time>
      </trkpt>
      <trkpt lat="48.765967" lon="10.796261">
        <ele>472.06</ele>
        <time>2026-09-01T00:00:00.0000000+00:00</time>
      </trkpt>
      <trkpt lat="48.765992" lon="10.796271">
        <ele>471.9</ele>
        <time>2026-09-01T00:00:00.0000000+00:00</time>
      </trkpt>
      <trkpt lat="48.766098" lon="10.79636">
        <ele>472.12</ele>
        <time>2026-09-01T00:00:00.0000000+00:00</time>
      </trkpt>
      <trkpt lat="48.766204" lon="10.796461">
        <ele>472.71</ele>
        <time>2026-09-01T00:00:00.0000000+00:00</time>
      </trkpt>
      <trkpt lat="48.766295" lon="10.796577">
        <ele>473.22</ele>
        <time>2026-09-01T00:00:00.0000000+00:00</time>
      </trkpt>
      <trkpt lat="48.766381" lon="10.796743">
        <ele>473.72</ele>
        <time>2026-09-01T00:00:00.0000000+00:00</time>
      </trkpt>
      <trkpt lat="48.766414" lon="10.796894">
        <ele>474.1</ele>
        <time>2026-09-01T00:00:00.0000000+00:00</time>
      </trkpt>
      <trkpt lat="48.76644" lon="10.796974">
        <ele>474.4</ele>
        <time>2026-09-01T00:00:00.0000000+00:00</time>
      </trkpt>
      <trkpt lat="48.766487" lon="10.797087">
        <ele>474.84</ele>
        <time>2026-09-01T00:00:00.0000000+00:00</time>
      </trkpt>
      <trkpt lat="48.766597" lon="10.797304">
        <ele>475.67</ele>
        <time>2026-09-01T00:00:00.0000000+00:00</time>
      </trkpt>
      <trkpt lat="48.766597" lon="10.797304">
        <ele>475.67</ele>
        <time>2026-09-01T00:00:00.0000000+00:00</time>
      </trkpt>
      <trkpt lat="48.766745" lon="10.797358">
        <ele>476.06</ele>
        <time>2026-09-01T00:00:00.0000000+00:00</time>
      </trkpt>
      <trkpt lat="48.767227" lon="10.797368">
        <ele>478.76</ele>
        <time>2026-09-01T00:00:00.0000000+00:00</time>
      </trkpt>
      <trkpt lat="48.76748" lon="10.797391">
        <ele>480.55</ele>
        <time>2026-09-01T00:00:00.0000000+00:00</time>
      </trkpt>
      <trkpt lat="48.767412" lon="10.797384">
        <ele>480.06</ele>
        <time>2026-09-01T00:00:00.0000000+00:00</time>
      </trkpt>
      <trkpt lat="48.767412" lon="10.797384">
        <ele>480.06</ele>
        <time>2026-09-01T00:00:00.0000000+00:00</time>
      </trkpt>
      <trkpt lat="48.767412" lon="10.797384">
        <ele>480.06</ele>
        <time>2026-09-01T00:00:00.0000000+00:00</time>
      </trkpt>
      <trkpt lat="48.767412" lon="10.797384">
        <ele>480.06</ele>
        <time>2026-09-01T00:00:00.0000000+00:00</time>
      </trkpt>
      <trkpt lat="48.767412" lon="10.797384">
        <ele>480.06</ele>
        <time>2026-09-01T00:00:00.0000000+00:00</time>
      </trkpt>
      <trkpt lat="48.76756" lon="10.797399">
        <ele>481.12</ele>
        <time>2026-09-01T00:00:00.0000000+00:00</time>
      </trkpt>
      <trkpt lat="48.76756" lon="10.797399">
        <ele>481.12</ele>
        <time>2026-09-01T00:00:00.0000000+00:00</time>
      </trkpt>
      <trkpt lat="48.76756" lon="10.797399">
        <ele>481.12</ele>
        <time>2026-09-01T00:00:00.0000000+00:00</time>
      </trkpt>
      <trkpt lat="48.76756" lon="10.797399">
        <ele>481.12</ele>
        <time>2026-09-01T00:00:00.0000000+00:00</time>
      </trkpt>
      <trkpt lat="48.767558" lon="10.79778">
        <ele>482.27</ele>
        <time>2026-09-01T00:00:00.0000000+00:00</time>
      </trkpt>
      <trkpt lat="48.767558" lon="10.79778">
        <ele>482.27</ele>
        <time>2026-09-01T00:00:00.0000000+00:00</time>
      </trkpt>
      <trkpt lat="48.767556" lon="10.798127">
        <ele>483.02</ele>
        <time>2026-09-01T00:00:00.0000000+00:00</time>
      </trkpt>
      <trkpt lat="48.767553" lon="10.798504">
        <ele>483.81</ele>
        <time>2026-09-01T00:00:00.0000000+00:00</time>
      </trkpt>
      <trkpt lat="48.76755" lon="10.799139">
        <ele>482.13</ele>
        <time>2026-09-01T00:00:00.0000000+00:00</time>
      </trkpt>
      <trkpt lat="48.767529" lon="10.799537">
        <ele>481.47</ele>
        <time>2026-09-01T00:00:00.0000000+00:00</time>
      </trkpt>
      <trkpt lat="48.767487" lon="10.799829">
        <ele>481.16</ele>
        <time>2026-09-01T00:00:00.0000000+00:00</time>
      </trkpt>
      <trkpt lat="48.767481" lon="10.799904">
        <ele>481.13</ele>
        <time>2026-09-01T00:00:00.0000000+00:00</time>
      </trkpt>
      <trkpt lat="48.767473" lon="10.799965">
        <ele>481.08</ele>
        <time>2026-09-01T00:00:00.0000000+00:00</time>
      </trkpt>
      <trkpt lat="48.767489" lon="10.800072">
        <ele>481.25</ele>
        <time>2026-09-01T00:00:00.0000000+00:00</time>
      </trkpt>
      <trkpt lat="48.767518" lon="10.800145">
        <ele>481.52</ele>
        <time>2026-09-01T00:00:00.0000000+00:00</time>
      </trkpt>
      <trkpt lat="48.767518" lon="10.800187">
        <ele>481.5</ele>
        <time>2026-09-01T00:00:00.0000000+00:00</time>
      </trkpt>
      <trkpt lat="48.767494" lon="10.80026">
        <ele>481.24</ele>
        <time>2026-09-01T00:00:00.0000000+00:00</time>
      </trkpt>
      <trkpt lat="48.767468" lon="10.800343">
        <ele>480.95</ele>
        <time>2026-09-01T00:00:00.0000000+00:00</time>
      </trkpt>
      <trkpt lat="48.767446" lon="10.800445">
        <ele>480.68</ele>
        <time>2026-09-01T00:00:00.0000000+00:00</time>
      </trkpt>
      <trkpt lat="48.767439" lon="10.800687">
        <ele>480.43</ele>
        <time>2026-09-01T00:00:00.0000000+00:00</time>
      </trkpt>
      <trkpt lat="48.767433" lon="10.80098">
        <ele>480.14</ele>
        <time>2026-09-01T00:00:00.0000000+00:00</time>
      </trkpt>
      <trkpt lat="48.76746" lon="10.801358">
        <ele>479.89</ele>
        <time>2026-09-01T00:00:00.0000000+00:00</time>
      </trkpt>
      <trkpt lat="48.767473" lon="10.801482">
        <ele>479.83</ele>
        <time>2026-09-01T00:00:00.0000000+00:00</time>
      </trkpt>
      <trkpt lat="48.767502" lon="10.801608">
        <ele>479.89</ele>
        <time>2026-09-01T00:00:00.0000000+00:00</time>
      </trkpt>
      <trkpt lat="48.767514" lon="10.801786">
        <ele>479.76</ele>
        <time>2026-09-01T00:00:00.0000000+00:00</time>
      </trkpt>
      <trkpt lat="48.767539" lon="10.801937">
        <ele>479.91</ele>
        <time>2026-09-01T00:00:00.0000000+00:00</time>
      </trkpt>
      <trkpt lat="48.767626" lon="10.802025">
        <ele>480.53</ele>
        <time>2026-09-01T00:00:00.0000000+00:00</time>
      </trkpt>
      <trkpt lat="48.767689" lon="10.80206">
        <ele>480.97</ele>
        <time>2026-09-01T00:00:00.0000000+00:00</time>
      </trkpt>
      <trkpt lat="48.76771" lon="10.802096">
        <ele>481.12</ele>
        <time>2026-09-01T00:00:00.0000000+00:00</time>
      </trkpt>
      <trkpt lat="48.76771" lon="10.802138">
        <ele>481.12</ele>
        <time>2026-09-01T00:00:00.0000000+00:00</time>
      </trkpt>
      <trkpt lat="48.767736" lon="10.802219">
        <ele>481.31</ele>
        <time>2026-09-01T00:00:00.0000000+00:00</time>
      </trkpt>
      <trkpt lat="48.767853" lon="10.802545">
        <ele>482.15</ele>
        <time>2026-09-01T00:00:00.0000000+00:00</time>
      </trkpt>
      <trkpt lat="48.768132" lon="10.802953">
        <ele>484.36</ele>
        <time>2026-09-01T00:00:00.0000000+00:00</time>
      </trkpt>
      <trkpt lat="48.768357" lon="10.803164">
        <ele>486.61</ele>
        <time>2026-09-01T00:00:00.0000000+00:00</time>
      </trkpt>
      <trkpt lat="48.768914" lon="10.80349">
        <ele>486.67</ele>
        <time>2026-09-01T00:00:00.0000000+00:00</time>
      </trkpt>
      <trkpt lat="48.769724" lon="10.803638">
        <ele>485.72</ele>
        <time>2026-09-01T00:00:00.0000000+00:00</time>
      </trkpt>
      <trkpt lat="48.770403" lon="10.803944">
        <ele>488.07</ele>
        <time>2026-09-01T00:00:00.0000000+00:00</time>
      </trkpt>
      <trkpt lat="48.770849" lon="10.804273">
        <ele>491.36</ele>
        <time>2026-09-01T00:00:00.0000000+00:00</time>
      </trkpt>
      <trkpt lat="48.771312" lon="10.80496">
        <ele>493.92</ele>
        <time>2026-09-01T00:00:00.0000000+00:00</time>
      </trkpt>
      <trkpt lat="48.771459" lon="10.805238">
        <ele>494.52</ele>
        <time>2026-09-01T00:00:00.0000000+00:00</time>
      </trkpt>
      <trkpt lat="48.771751" lon="10.805753">
        <ele>496.44</ele>
        <time>2026-09-01T00:00:00.0000000+00:00</time>
      </trkpt>
      <trkpt lat="48.771844" lon="10.805925">
        <ele>497.03</ele>
        <time>2026-09-01T00:00:00.0000000+00:00</time>
      </trkpt>
      <trkpt lat="48.772433" lon="10.806896">
        <ele>499.55</ele>
        <time>2026-09-01T00:00:00.0000000+00:00</time>
      </trkpt>
      <trkpt lat="48.772523" lon="10.807042">
        <ele>499.71</ele>
        <time>2026-09-01T00:00:00.0000000+00:00</time>
      </trkpt>
      <trkpt lat="48.772557" lon="10.807093">
        <ele>499.75</ele>
        <time>2026-09-01T00:00:00.0000000+00:00</time>
      </trkpt>
      <trkpt lat="48.772651" lon="10.807191">
        <ele>500.02</ele>
        <time>2026-09-01T00:00:00.0000000+00:00</time>
      </trkpt>
      <trkpt lat="48.77275" lon="10.807286">
        <ele>500.13</ele>
        <time>2026-09-01T00:00:00.0000000+00:00</time>
      </trkpt>
      <trkpt lat="48.772806" lon="10.807331">
        <ele>500.18</ele>
        <time>2026-09-01T00:00:00.0000000+00:00</time>
      </trkpt>
      <trkpt lat="48.772791" lon="10.807434">
        <ele>499.31</ele>
        <time>2026-09-01T00:00:00.0000000+00:00</time>
      </trkpt>
      <trkpt lat="48.772756" lon="10.807541">
        <ele>498.28</ele>
        <time>2026-09-01T00:00:00.0000000+00:00</time>
      </trkpt>
      <trkpt lat="48.772756" lon="10.807541">
        <ele>498.28</ele>
        <time>2026-09-01T00:00:00.0000000+00:00</time>
      </trkpt>
      <trkpt lat="48.772756" lon="10.807541">
        <ele>498.28</ele>
        <time>2026-09-01T00:00:00.0000000+00:00</time>
      </trkpt>
      <trkpt lat="48.772747" lon="10.807575">
        <ele>497.97</ele>
        <time>2026-09-01T00:00:00.0000000+00:00</time>
      </trkpt>
      <trkpt lat="48.772704" lon="10.807886">
        <ele>495.73</ele>
        <time>2026-09-01T00:00:00.0000000+00:00</time>
      </trkpt>
      <trkpt lat="48.77285" lon="10.808161">
        <ele>494.84</ele>
        <time>2026-09-01T00:00:00.0000000+00:00</time>
      </trkpt>
      <trkpt lat="48.773072" lon="10.808459">
        <ele>494.06</ele>
        <time>2026-09-01T00:00:00.0000000+00:00</time>
      </trkpt>
      <trkpt lat="48.77313" lon="10.80861">
        <ele>494.1</ele>
        <time>2026-09-01T00:00:00.0000000+00:00</time>
      </trkpt>
      <trkpt lat="48.773294" lon="10.808606">
        <ele>494.78</ele>
        <time>2026-09-01T00:00:00.0000000+00:00</time>
      </trkpt>
      <trkpt lat="48.77343" lon="10.808626">
        <ele>495.31</ele>
        <time>2026-09-01T00:00:00.0000000+00:00</time>
      </trkpt>
      <trkpt lat="48.773579" lon="10.808686">
        <ele>496.33</ele>
        <time>2026-09-01T00:00:00.0000000+00:00</time>
      </trkpt>
      <trkpt lat="48.773821" lon="10.808896">
        <ele>498.66</ele>
        <time>2026-09-01T00:00:00.0000000+00:00</time>
      </trkpt>
      <trkpt lat="48.774037" lon="10.809144">
        <ele>499.57</ele>
        <time>2026-09-01T00:00:00.0000000+00:00</time>
      </trkpt>
      <trkpt lat="48.77436" lon="10.809797">
        <ele>498.19</ele>
        <time>2026-09-01T00:00:00.0000000+00:00</time>
      </trkpt>
      <trkpt lat="48.774604" lon="10.81024">
        <ele>496.97</ele>
        <time>2026-09-01T00:00:00.0000000+00:00</time>
      </trkpt>
      <trkpt lat="48.774939" lon="10.810502">
        <ele>498.23</ele>
        <time>2026-09-01T00:00:00.0000000+00:00</time>
      </trkpt>
      <trkpt lat="48.775544" lon="10.810706">
        <ele>500.58</ele>
        <time>2026-09-01T00:00:00.0000000+00:00</time>
      </trkpt>
      <trkpt lat="48.77605" lon="10.81101">
        <ele>502.16</ele>
        <time>2026-09-01T00:00:00.0000000+00:00</time>
      </trkpt>
      <trkpt lat="48.776193" lon="10.81109">
        <ele>502.94</ele>
        <time>2026-09-01T00:00:00.0000000+00:00</time>
      </trkpt>
      <trkpt lat="48.776193" lon="10.81109">
        <ele>502.94</ele>
        <time>2026-09-01T00:00:00.0000000+00:00</time>
      </trkpt>
      <trkpt lat="48.776346" lon="10.811207">
        <ele>503.8</ele>
        <time>2026-09-01T00:00:00.0000000+00:00</time>
      </trkpt>
      <trkpt lat="48.776346" lon="10.811207">
        <ele>503.8</ele>
        <time>2026-09-01T00:00:00.0000000+00:00</time>
      </trkpt>
      <trkpt lat="48.776441" lon="10.811317">
        <ele>504.33</ele>
        <time>2026-09-01T00:00:00.0000000+00:00</time>
      </trkpt>
      <trkpt lat="48.77664" lon="10.811591">
        <ele>505.54</ele>
        <time>2026-09-01T00:00:00.0000000+00:00</time>
      </trkpt>
      <trkpt lat="48.776996" lon="10.812496">
        <ele>508.41</ele>
        <time>2026-09-01T00:00:00.0000000+00:00</time>
      </trkpt>
      <trkpt lat="48.777093" lon="10.812763">
        <ele>509.4</ele>
        <time>2026-09-01T00:00:00.0000000+00:00</time>
      </trkpt>
      <trkpt lat="48.777356" lon="10.813482">
        <ele>512.23</ele>
        <time>2026-09-01T00:00:00.0000000+00:00</time>
      </trkpt>
      <trkpt lat="48.777557" lon="10.814062">
        <ele>513.82</ele>
        <time>2026-09-01T00:00:00.0000000+00:00</time>
      </trkpt>
      <trkpt lat="48.778034" lon="10.815406">
        <ele>514.53</ele>
        <time>2026-09-01T00:00:00.0000000+00:00</time>
      </trkpt>
      <trkpt lat="48.778475" lon="10.816276">
        <ele>513.17</ele>
        <time>2026-09-01T00:00:00.0000000+00:00</time>
      </trkpt>
      <trkpt lat="48.778503" lon="10.81633">
        <ele>513.13</ele>
        <time>2026-09-01T00:00:00.0000000+00:00</time>
      </trkpt>
      <trkpt lat="48.779193" lon="10.817412">
        <ele>515.67</ele>
        <time>2026-09-01T00:00:00.0000000+00:00</time>
      </trkpt>
      <trkpt lat="48.779705" lon="10.81838">
        <ele>517.73</ele>
        <time>2026-09-01T00:00:00.0000000+00:00</time>
      </trkpt>
      <trkpt lat="48.780056" lon="10.819365">
        <ele>518.49</ele>
        <time>2026-09-01T00:00:00.0000000+00:00</time>
      </trkpt>
      <trkpt lat="48.780308" lon="10.820157">
        <ele>518.31</ele>
        <time>2026-09-01T00:00:00.0000000+00:00</time>
      </trkpt>
      <trkpt lat="48.780398" lon="10.82042">
        <ele>519.01</ele>
        <time>2026-09-01T00:00:00.0000000+00:00</time>
      </trkpt>
      <trkpt lat="48.780398" lon="10.82042">
        <ele>519.01</ele>
        <time>2026-09-01T00:00:00.0000000+00:00</time>
      </trkpt>
      <trkpt lat="48.780433" lon="10.820521">
        <ele>519.31</ele>
        <time>2026-09-01T00:00:00.0000000+00:00</time>
      </trkpt>
      <trkpt lat="48.780462" lon="10.820604">
        <ele>519.58</ele>
        <time>2026-09-01T00:00:00.0000000+00:00</time>
      </trkpt>
      <trkpt lat="48.780462" lon="10.820604">
        <ele>519.58</ele>
        <time>2026-09-01T00:00:00.0000000+00:00</time>
      </trkpt>
      <trkpt lat="48.780551" lon="10.820798">
        <ele>520.35</ele>
        <time>2026-09-01T00:00:00.0000000+00:00</time>
      </trkpt>
      <trkpt lat="48.780648" lon="10.820996">
        <ele>521.26</ele>
        <time>2026-09-01T00:00:00.0000000+00:00</time>
      </trkpt>
      <trkpt lat="48.780648" lon="10.820996">
        <ele>521.26</ele>
        <time>2026-09-01T00:00:00.0000000+00:00</time>
      </trkpt>
      <trkpt lat="48.780745" lon="10.821187">
        <ele>522.02</ele>
        <time>2026-09-01T00:00:00.0000000+00:00</time>
      </trkpt>
      <trkpt lat="48.781054" lon="10.821754">
        <ele>524.12</ele>
        <time>2026-09-01T00:00:00.0000000+00:00</time>
      </trkpt>
      <trkpt lat="48.781133" lon="10.821899">
        <ele>524.87</ele>
        <time>2026-09-01T00:00:00.0000000+00:00</time>
      </trkpt>
      <trkpt lat="48.781151" lon="10.821932">
        <ele>525.07</ele>
        <time>2026-09-01T00:00:00.0000000+00:00</time>
      </trkpt>
      <trkpt lat="48.781266" lon="10.822134">
        <ele>526.35</ele>
        <time>2026-09-01T00:00:00.0000000+00:00</time>
      </trkpt>
      <trkpt lat="48.78133" lon="10.822245">
        <ele>527.06</ele>
        <time>2026-09-01T00:00:00.0000000+00:00</time>
      </trkpt>
      <trkpt lat="48.78133" lon="10.822245">
        <ele>527.06</ele>
        <time>2026-09-01T00:00:00.0000000+00:00</time>
      </trkpt>
      <trkpt lat="48.78133" lon="10.822245">
        <ele>527.06</ele>
        <time>2026-09-01T00:00:00.0000000+00:00</time>
      </trkpt>
      <trkpt lat="48.781462" lon="10.822469">
        <ele>528.5</ele>
        <time>2026-09-01T00:00:00.0000000+00:00</time>
      </trkpt>
      <trkpt lat="48.781766" lon="10.822991">
        <ele>532.13</ele>
        <time>2026-09-01T00:00:00.0000000+00:00</time>
      </trkpt>
      <trkpt lat="48.781796" lon="10.823045">
        <ele>532.57</ele>
        <time>2026-09-01T00:00:00.0000000+00:00</time>
      </trkpt>
      <trkpt lat="48.781796" lon="10.823045">
        <ele>532.57</ele>
        <time>2026-09-01T00:00:00.0000000+00:00</time>
      </trkpt>
      <trkpt lat="48.781824" lon="10.823096">
        <ele>532.99</ele>
        <time>2026-09-01T00:00:00.0000000+00:00</time>
      </trkpt>
      <trkpt lat="48.781975" lon="10.823362">
        <ele>534.78</ele>
        <time>2026-09-01T00:00:00.0000000+00:00</time>
      </trkpt>
      <trkpt lat="48.781975" lon="10.823362">
        <ele>534.78</ele>
        <time>2026-09-01T00:00:00.0000000+00:00</time>
      </trkpt>
      <trkpt lat="48.78212" lon="10.823573">
        <ele>535.91</ele>
        <time>2026-09-01T00:00:00.0000000+00:00</time>
      </trkpt>
      <trkpt lat="48.782195" lon="10.823659">
        <ele>536.35</ele>
        <time>2026-09-01T00:00:00.0000000+00:00</time>
      </trkpt>
      <trkpt lat="48.782268" lon="10.823743">
        <ele>536.8</ele>
        <time>2026-09-01T00:00:00.0000000+00:00</time>
      </trkpt>
      <trkpt lat="48.782506" lon="10.824031">
        <ele>538.42</ele>
        <time>2026-09-01T00:00:00.0000000+00:00</time>
      </trkpt>
      <trkpt lat="48.782679" lon="10.824235">
        <ele>539.71</ele>
        <time>2026-09-01T00:00:00.0000000+00:00</time>
      </trkpt>
      <trkpt lat="48.783021" lon="10.82448">
        <ele>541.05</ele>
        <time>2026-09-01T00:00:00.0000000+00:00</time>
      </trkpt>
      <trkpt lat="48.783021" lon="10.82448">
        <ele>541.05</ele>
        <time>2026-09-01T00:00:00.0000000+00:00</time>
      </trkpt>
      <trkpt lat="48.783021" lon="10.82448">
        <ele>541.05</ele>
        <time>2026-09-01T00:00:00.0000000+00:00</time>
      </trkpt>
      <trkpt lat="48.783021" lon="10.82448">
        <ele>541.05</ele>
        <time>2026-09-01T00:00:00.0000000+00:00</time>
      </trkpt>
      <trkpt lat="48.783021" lon="10.82448">
        <ele>541.05</ele>
        <time>2026-09-01T00:00:00.0000000+00:00</time>
      </trkpt>
      <trkpt lat="48.783116" lon="10.824526">
        <ele>541.29</ele>
        <time>2026-09-01T00:00:00.0000000+00:00</time>
      </trkpt>
      <trkpt lat="48.783136" lon="10.824525">
        <ele>541.32</ele>
        <time>2026-09-01T00:00:00.0000000+00:00</time>
      </trkpt>
      <trkpt lat="48.78328" lon="10.824522">
        <ele>541.58</ele>
        <time>2026-09-01T00:00:00.0000000+00:00</time>
      </trkpt>
      <trkpt lat="48.783476" lon="10.824517">
        <ele>541.93</ele>
        <time>2026-09-01T00:00:00.0000000+00:00</time>
      </trkpt>
      <trkpt lat="48.784064" lon="10.824502">
        <ele>541.34</ele>
        <time>2026-09-01T00:00:00.0000000+00:00</time>
      </trkpt>
      <trkpt lat="48.78435" lon="10.824525">
        <ele>540.98</ele>
        <time>2026-09-01T00:00:00.0000000+00:00</time>
      </trkpt>
      <trkpt lat="48.784758" lon="10.824664">
        <ele>538.81</ele>
        <time>2026-09-01T00:00:00.0000000+00:00</time>
      </trkpt>
      <trkpt lat="48.784827" lon="10.824703">
        <ele>538.42</ele>
        <time>2026-09-01T00:00:00.0000000+00:00</time>
      </trkpt>
      <trkpt lat="48.785072" lon="10.82487">
        <ele>536.93</ele>
        <time>2026-09-01T00:00:00.0000000+00:00</time>
      </trkpt>
      <trkpt lat="48.785072" lon="10.82487">
        <ele>536.93</ele>
        <time>2026-09-01T00:00:00.0000000+00:00</time>
      </trkpt>
      <trkpt lat="48.785072" lon="10.82487">
        <ele>536.93</ele>
        <time>2026-09-01T00:00:00.0000000+00:00</time>
      </trkpt>
      <trkpt lat="48.785072" lon="10.82487">
        <ele>536.93</ele>
        <time>2026-09-01T00:00:00.0000000+00:00</time>
      </trkpt>
      <trkpt lat="48.785148" lon="10.824914">
        <ele>536.45</ele>
        <time>2026-09-01T00:00:00.0000000+00:00</time>
      </trkpt>
      <trkpt lat="48.785226" lon="10.824959">
        <ele>535.93</ele>
        <time>2026-09-01T00:00:00.0000000+00:00</time>
      </trkpt>
      <trkpt lat="48.785388" lon="10.825053">
        <ele>534.83</ele>
        <time>2026-09-01T00:00:00.0000000+00:00</time>
      </trkpt>
      <trkpt lat="48.78568" lon="10.825258">
        <ele>532.91</ele>
        <time>2026-09-01T00:00:00.0000000+00:00</time>
      </trkpt>
      <trkpt lat="48.785754" lon="10.825311">
        <ele>532.41</ele>
        <time>2026-09-01T00:00:00.0000000+00:00</time>
      </trkpt>
      <trkpt lat="48.785939" lon="10.825441">
        <ele>531.11</ele>
        <time>2026-09-01T00:00:00.0000000+00:00</time>
      </trkpt>
      <trkpt lat="48.786114" lon="10.825512">
        <ele>530.01</ele>
        <time>2026-09-01T00:00:00.0000000+00:00</time>
      </trkpt>
      <trkpt lat="48.786209" lon="10.825541">
        <ele>529.46</ele>
        <time>2026-09-01T00:00:00.0000000+00:00</time>
      </trkpt>
      <trkpt lat="48.786312" lon="10.825573">
        <ele>528.86</ele>
        <time>2026-09-01T00:00:00.0000000+00:00</time>
      </trkpt>
      <trkpt lat="48.78685" lon="10.825583">
        <ele>525.93</ele>
        <time>2026-09-01T00:00:00.0000000+00:00</time>
      </trkpt>
      <trkpt lat="48.787071" lon="10.825532">
        <ele>525.11</ele>
        <time>2026-09-01T00:00:00.0000000+00:00</time>
      </trkpt>
      <trkpt lat="48.787436" lon="10.825427">
        <ele>523.72</ele>
        <time>2026-09-01T00:00:00.0000000+00:00</time>
      </trkpt>
      <trkpt lat="48.787649" lon="10.825117">
        <ele>523.13</ele>
        <time>2026-09-01T00:00:00.0000000+00:00</time>
      </trkpt>
      <trkpt lat="48.787831" lon="10.825367">
        <ele>522.36</ele>
        <time>2026-09-01T00:00:00.0000000+00:00</time>
      </trkpt>
      <trkpt lat="48.788284" lon="10.825461">
        <ele>521.16</ele>
        <time>2026-09-01T00:00:00.0000000+00:00</time>
      </trkpt>
      <trkpt lat="48.788942" lon="10.825472">
        <ele>522.69</ele>
        <time>2026-09-01T00:00:00.0000000+00:00</time>
      </trkpt>
      <trkpt lat="48.789427" lon="10.825413">
        <ele>524.44</ele>
        <time>2026-09-01T00:00:00.0000000+00:00</time>
      </trkpt>
      <trkpt lat="48.78991" lon="10.825294">
        <ele>523.34</ele>
        <time>2026-09-01T00:00:00.0000000+00:00</time>
      </trkpt>
      <trkpt lat="48.790318" lon="10.825182999999999">
        <ele>521.89</ele>
        <time>2026-09-01T00:00:00.0000000+00:00</time>
      </trkpt>
      <trkpt lat="48.790657" lon="10.825054">
        <ele>519.86</ele>
        <time>2026-09-01T00:00:00.0000000+00:00</time>
      </trkpt>
      <trkpt lat="48.790905" lon="10.824943">
        <ele>518.47</ele>
        <time>2026-09-01T00:00:00.0000000+00:00</time>
      </trkpt>
      <trkpt lat="48.791198" lon="10.824794">
        <ele>516.7</ele>
        <time>2026-09-01T00:00:00.0000000+00:00</time>
      </trkpt>
      <trkpt lat="48.791255" lon="10.824762">
        <ele>516.33</ele>
        <time>2026-09-01T00:00:00.0000000+00:00</time>
      </trkpt>
      <trkpt lat="48.791527" lon="10.824612">
        <ele>514.38</ele>
        <time>2026-09-01T00:00:00.0000000+00:00</time>
      </trkpt>
      <trkpt lat="48.791915" lon="10.824428">
        <ele>512.05</ele>
        <time>2026-09-01T00:00:00.0000000+00:00</time>
      </trkpt>
      <trkpt lat="48.79261" lon="10.824215">
        <ele>513.98</ele>
        <time>2026-09-01T00:00:00.0000000+00:00</time>
      </trkpt>
      <trkpt lat="48.793485" lon="10.824">
        <ele>519.25</ele>
        <time>2026-09-01T00:00:00.0000000+00:00</time>
      </trkpt>
      <trkpt lat="48.793798" lon="10.823923">
        <ele>520.69</ele>
        <time>2026-09-01T00:00:00.0000000+00:00</time>
      </trkpt>
      <trkpt lat="48.794104" lon="10.823858">
        <ele>522.1</ele>
        <time>2026-09-01T00:00:00.0000000+00:00</time>
      </trkpt>
      <trkpt lat="48.794604" lon="10.823767">
        <ele>522.78</ele>
        <time>2026-09-01T00:00:00.0000000+00:00</time>
      </trkpt>
      <trkpt lat="48.794965" lon="10.823729">
        <ele>522.12</ele>
        <time>2026-09-01T00:00:00.0000000+00:00</time>
      </trkpt>
      <trkpt lat="48.794982" lon="10.823727">
        <ele>522.09</ele>
        <time>2026-09-01T00:00:00.0000000+00:00</time>
      </trkpt>
      <trkpt lat="48.794982" lon="10.823727">
        <ele>522.09</ele>
        <time>2026-09-01T00:00:00.0000000+00:00</time>
      </trkpt>
      <trkpt lat="48.794998" lon="10.823829">
        <ele>521.91</ele>
        <time>2026-09-01T00:00:00.0000000+00:00</time>
      </trkpt>
      <trkpt lat="48.795027" lon="10.824128">
        <ele>521.43</ele>
        <time>2026-09-01T00:00:00.0000000+00:00</time>
      </trkpt>
      <trkpt lat="48.795031" lon="10.824178">
        <ele>521.36</ele>
        <time>2026-09-01T00:00:00.0000000+00:00</time>
      </trkpt>
      <trkpt lat="48.795141" lon="10.824224">
        <ele>521.15</ele>
        <time>2026-09-01T00:00:00.0000000+00:00</time>
      </trkpt>
      <trkpt lat="48.795201" lon="10.824155">
        <ele>521.01</ele>
        <time>2026-09-01T00:00:00.0000000+00:00</time>
      </trkpt>
      <trkpt lat="48.795201" lon="10.824155">
        <ele>521.01</ele>
        <time>2026-09-01T00:00:00.0000000+00:00</time>
      </trkpt>
      <trkpt lat="48.795201" lon="10.824155">
        <ele>521.01</ele>
        <time>2026-09-01T00:00:00.0000000+00:00</time>
      </trkpt>
      <trkpt lat="48.795201" lon="10.824155">
        <ele>521.01</ele>
        <time>2026-09-01T00:00:00.0000000+00:00</time>
      </trkpt>
      <trkpt lat="48.795224" lon="10.82407">
        <ele>520.99</ele>
        <time>2026-09-01T00:00:00.0000000+00:00</time>
      </trkpt>
      <trkpt lat="48.795165" lon="10.823534">
        <ele>521.95</ele>
        <time>2026-09-01T00:00:00.0000000+00:00</time>
      </trkpt>
      <trkpt lat="48.79517" lon="10.823513">
        <ele>521.96</ele>
        <time>2026-09-01T00:00:00.0000000+00:00</time>
      </trkpt>
      <trkpt lat="48.795693" lon="10.823149">
        <ele>520.39</ele>
        <time>2026-09-01T00:00:00.0000000+00:00</time>
      </trkpt>
      <trkpt lat="48.795908" lon="10.822838">
        <ele>520.6</ele>
        <time>2026-09-01T00:00:00.0000000+00:00</time>
      </trkpt>
      <trkpt lat="48.796001" lon="10.822766">
        <ele>520.58</ele>
        <time>2026-09-01T00:00:00.0000000+00:00</time>
      </trkpt>
      <trkpt lat="48.796575" lon="10.822963">
        <ele>519.01</ele>
        <time>2026-09-01T00:00:00.0000000+00:00</time>
      </trkpt>
      <trkpt lat="48.797054" lon="10.823081">
        <ele>518.08</ele>
        <time>2026-09-01T00:00:00.0000000+00:00</time>
      </trkpt>
      <trkpt lat="48.797475" lon="10.823154">
        <ele>517.16</ele>
        <time>2026-09-01T00:00:00.0000000+00:00</time>
      </trkpt>
      <trkpt lat="48.798115" lon="10.823128">
        <ele>516.08</ele>
        <time>2026-09-01T00:00:00.0000000+00:00</time>
      </trkpt>
      <trkpt lat="48.798688" lon="10.82298">
        <ele>516.41</ele>
        <time>2026-09-01T00:00:00.0000000+00:00</time>
      </trkpt>
      <trkpt lat="48.798914" lon="10.822963">
        <ele>517.42</ele>
        <time>2026-09-01T00:00:00.0000000+00:00</time>
      </trkpt>
      <trkpt lat="48.800472" lon="10.822969">
        <ele>516.27</ele>
        <time>2026-09-01T00:00:00.0000000+00:00</time>
      </trkpt>
      <trkpt lat="48.800855" lon="10.822951">
        <ele>515.09</ele>
        <time>2026-09-01T00:00:00.0000000+00:00</time>
      </trkpt>
      <trkpt lat="48.801131" lon="10.822949">
        <ele>514.22</ele>
        <time>2026-09-01T00:00:00.0000000+00:00</time>
      </trkpt>
      <trkpt lat="48.80147" lon="10.823059">
        <ele>513.09</ele>
        <time>2026-09-01T00:00:00.0000000+00:00</time>
      </trkpt>
      <trkpt lat="48.801909" lon="10.823064">
        <ele>511.72</ele>
        <time>2026-09-01T00:00:00.0000000+00:00</time>
      </trkpt>
      <trkpt lat="48.802226" lon="10.822932">
        <ele>510.58</ele>
        <time>2026-09-01T00:00:00.0000000+00:00</time>
      </trkpt>
      <trkpt lat="48.80249" lon="10.822826">
        <ele>509.63</ele>
        <time>2026-09-01T00:00:00.0000000+00:00</time>
      </trkpt>
      <trkpt lat="48.80278" lon="10.822828">
        <ele>508.44</ele>
        <time>2026-09-01T00:00:00.0000000+00:00</time>
      </trkpt>
      <trkpt lat="48.80326" lon="10.822841">
        <ele>506.14</ele>
        <time>2026-09-01T00:00:00.0000000+00:00</time>
      </trkpt>
      <trkpt lat="48.803816" lon="10.822859">
        <ele>505.67</ele>
        <time>2026-09-01T00:00:00.0000000+00:00</time>
      </trkpt>
      <trkpt lat="48.804248" lon="10.82289">
        <ele>506.54</ele>
        <time>2026-09-01T00:00:00.0000000+00:00</time>
      </trkpt>
      <trkpt lat="48.804491" lon="10.823153">
        <ele>505.04</ele>
        <time>2026-09-01T00:00:00.0000000+00:00</time>
      </trkpt>
      <trkpt lat="48.804491" lon="10.823153">
        <ele>505.04</ele>
        <time>2026-09-01T00:00:00.0000000+00:00</time>
      </trkpt>
      <trkpt lat="48.804491" lon="10.823153">
        <ele>505.04</ele>
        <time>2026-09-01T00:00:00.0000000+00:00</time>
      </trkpt>
      <trkpt lat="48.804491" lon="10.823153">
        <ele>505.04</ele>
        <time>2026-09-01T00:00:00.0000000+00:00</time>
      </trkpt>
      <trkpt lat="48.804511" lon="10.823197">
        <ele>504.82</ele>
        <time>2026-09-01T00:00:00.0000000+00:00</time>
      </trkpt>
      <trkpt lat="48.804696" lon="10.823602">
        <ele>502.97</ele>
        <time>2026-09-01T00:00:00.0000000+00:00</time>
      </trkpt>
      <trkpt lat="48.804901" lon="10.824025">
        <ele>501.89</ele>
        <time>2026-09-01T00:00:00.0000000+00:00</time>
      </trkpt>
      <trkpt lat="48.80512" lon="10.824444">
        <ele>500.74</ele>
        <time>2026-09-01T00:00:00.0000000+00:00</time>
      </trkpt>
      <trkpt lat="48.805228" lon="10.82465">
        <ele>498.87</ele>
        <time>2026-09-01T00:00:00.0000000+00:00</time>
      </trkpt>
      <trkpt lat="48.805379" lon="10.824938">
        <ele>496.28</ele>
        <time>2026-09-01T00:00:00.0000000+00:00</time>
      </trkpt>
      <trkpt lat="48.805539" lon="10.825315">
        <ele>494.73</ele>
        <time>2026-09-01T00:00:00.0000000+00:00</time>
      </trkpt>
      <trkpt lat="48.805708" lon="10.825719">
        <ele>494.78</ele>
        <time>2026-09-01T00:00:00.0000000+00:00</time>
      </trkpt>
      <trkpt lat="48.805929" lon="10.82601">
        <ele>495.24</ele>
        <time>2026-09-01T00:00:00.0000000+00:00</time>
      </trkpt>
      <trkpt lat="48.806222" lon="10.826031">
        <ele>494</ele>
        <time>2026-09-01T00:00:00.0000000+00:00</time>
      </trkpt>
      <trkpt lat="48.806482" lon="10.825864">
        <ele>492.46</ele>
        <time>2026-09-01T00:00:00.0000000+00:00</time>
      </trkpt>
      <trkpt lat="48.806656" lon="10.825547">
        <ele>491.7</ele>
        <time>2026-09-01T00:00:00.0000000+00:00</time>
      </trkpt>
      <trkpt lat="48.806756" lon="10.824783">
        <ele>490.12</ele>
        <time>2026-09-01T00:00:00.0000000+00:00</time>
      </trkpt>
      <trkpt lat="48.806916" lon="10.824013">
        <ele>485.57</ele>
        <time>2026-09-01T00:00:00.0000000+00:00</time>
      </trkpt>
      <trkpt lat="48.807138" lon="10.823615">
        <ele>482.14</ele>
        <time>2026-09-01T00:00:00.0000000+00:00</time>
      </trkpt>
      <trkpt lat="48.807492" lon="10.823731">
        <ele>480.59</ele>
        <time>2026-09-01T00:00:00.0000000+00:00</time>
      </trkpt>
      <trkpt lat="48.807878" lon="10.823918">
        <ele>478.61</ele>
        <time>2026-09-01T00:00:00.0000000+00:00</time>
      </trkpt>
      <trkpt lat="48.808162" lon="10.824063">
        <ele>476.96</ele>
        <time>2026-09-01T00:00:00.0000000+00:00</time>
      </trkpt>
      <trkpt lat="48.808456" lon="10.824219">
        <ele>475.15</ele>
        <time>2026-09-01T00:00:00.0000000+00:00</time>
      </trkpt>
      <trkpt lat="48.809069" lon="10.824591">
        <ele>473.97</ele>
        <time>2026-09-01T00:00:00.0000000+00:00</time>
      </trkpt>
      <trkpt lat="48.80971" lon="10.825026">
        <ele>474.13</ele>
        <time>2026-09-01T00:00:00.0000000+00:00</time>
      </trkpt>
      <trkpt lat="48.810094" lon="10.825325">
        <ele>474.43</ele>
        <time>2026-09-01T00:00:00.0000000+00:00</time>
      </trkpt>
      <trkpt lat="48.810353" lon="10.825538">
        <ele>473.81</ele>
        <time>2026-09-01T00:00:00.0000000+00:00</time>
      </trkpt>
      <trkpt lat="48.810753" lon="10.82588">
        <ele>473.07</ele>
        <time>2026-09-01T00:00:00.0000000+00:00</time>
      </trkpt>
      <trkpt lat="48.811075" lon="10.826173">
        <ele>472.19</ele>
        <time>2026-09-01T00:00:00.0000000+00:00</time>
      </trkpt>
      <trkpt lat="48.811562" lon="10.826663">
        <ele>470.96</ele>
        <time>2026-09-01T00:00:00.0000000+00:00</time>
      </trkpt>
      <trkpt lat="48.812181" lon="10.82728">
        <ele>471.46</ele>
        <time>2026-09-01T00:00:00.0000000+00:00</time>
      </trkpt>
      <trkpt lat="48.812736" lon="10.827828">
        <ele>471.29</ele>
        <time>2026-09-01T00:00:00.0000000+00:00</time>
      </trkpt>
      <trkpt lat="48.813365" lon="10.82846">
        <ele>472.89</ele>
        <time>2026-09-01T00:00:00.0000000+00:00</time>
      </trkpt>
      <trkpt lat="48.813915" lon="10.829037">
        <ele>469.98</ele>
        <time>2026-09-01T00:00:00.0000000+00:00</time>
      </trkpt>
      <trkpt lat="48.814209" lon="10.829336">
        <ele>468.61</ele>
        <time>2026-09-01T00:00:00.0000000+00:00</time>
      </trkpt>
      <trkpt lat="48.814418" lon="10.829524">
        <ele>468</ele>
        <time>2026-09-01T00:00:00.0000000+00:00</time>
      </trkpt>
      <trkpt lat="48.814624" lon="10.829688">
        <ele>467.94</ele>
        <time>2026-09-01T00:00:00.0000000+00:00</time>
      </trkpt>
      <trkpt lat="48.814823" lon="10.829835">
        <ele>468.69</ele>
        <time>2026-09-01T00:00:00.0000000+00:00</time>
      </trkpt>
      <trkpt lat="48.814899" lon="10.829887">
        <ele>469.17</ele>
        <time>2026-09-01T00:00:00.0000000+00:00</time>
      </trkpt>
      <trkpt lat="48.815121" lon="10.830029">
        <ele>471.09</ele>
        <time>2026-09-01T00:00:00.0000000+00:00</time>
      </trkpt>
      <trkpt lat="48.815492" lon="10.830245">
        <ele>473.92</ele>
        <time>2026-09-01T00:00:00.0000000+00:00</time>
      </trkpt>
      <trkpt lat="48.815585" lon="10.829884">
        <ele>471.21</ele>
        <time>2026-09-01T00:00:00.0000000+00:00</time>
      </trkpt>
      <trkpt lat="48.815684" lon="10.829655">
        <ele>469.13</ele>
        <time>2026-09-01T00:00:00.0000000+00:00</time>
      </trkpt>
      <trkpt lat="48.815909" lon="10.829551">
        <ele>467.96</ele>
        <time>2026-09-01T00:00:00.0000000+00:00</time>
      </trkpt>
      <trkpt lat="48.815942" lon="10.829749">
        <ele>470.25</ele>
        <time>2026-09-01T00:00:00.0000000+00:00</time>
      </trkpt>
      <trkpt lat="48.816199" lon="10.829702">
        <ele>469.72</ele>
        <time>2026-09-01T00:00:00.0000000+00:00</time>
      </trkpt>
      <trkpt lat="48.816712" lon="10.829606">
        <ele>468.57</ele>
        <time>2026-09-01T00:00:00.0000000+00:00</time>
      </trkpt>
      <trkpt lat="48.817103" lon="10.829488">
        <ele>466.18</ele>
        <time>2026-09-01T00:00:00.0000000+00:00</time>
      </trkpt>
      <trkpt lat="48.817591" lon="10.82927">
        <ele>463.19</ele>
        <time>2026-09-01T00:00:00.0000000+00:00</time>
      </trkpt>
      <trkpt lat="48.818208" lon="10.828781">
        <ele>463.21</ele>
        <time>2026-09-01T00:00:00.0000000+00:00</time>
      </trkpt>
      <trkpt lat="48.818793" lon="10.828246">
        <ele>463.54</ele>
        <time>2026-09-01T00:00:00.0000000+00:00</time>
      </trkpt>
      <trkpt lat="48.819491" lon="10.827783">
        <ele>464.28</ele>
        <time>2026-09-01T00:00:00.0000000+00:00</time>
      </trkpt>
      <trkpt lat="48.820031" lon="10.827423">
        <ele>464.67</ele>
        <time>2026-09-01T00:00:00.0000000+00:00</time>
      </trkpt>
      <trkpt lat="48.820517" lon="10.827003">
        <ele>464.67</ele>
        <time>2026-09-01T00:00:00.0000000+00:00</time>
      </trkpt>
      <trkpt lat="48.820669" lon="10.826838">
        <ele>464.66</ele>
        <time>2026-09-01T00:00:00.0000000+00:00</time>
      </trkpt>
      <trkpt lat="48.820772" lon="10.826974">
        <ele>464.94</ele>
        <time>2026-09-01T00:00:00.0000000+00:00</time>
      </trkpt>
      <trkpt lat="48.82092" lon="10.827193">
        <ele>465.38</ele>
        <time>2026-09-01T00:00:00.0000000+00:00</time>
      </trkpt>
      <trkpt lat="48.82092" lon="10.827193">
        <ele>465.38</ele>
        <time>2026-09-01T00:00:00.0000000+00:00</time>
      </trkpt>
      <trkpt lat="48.82092" lon="10.827193">
        <ele>465.38</ele>
        <time>2026-09-01T00:00:00.0000000+00:00</time>
      </trkpt>
      <trkpt lat="48.820932" lon="10.827211">
        <ele>465.42</ele>
        <time>2026-09-01T00:00:00.0000000+00:00</time>
      </trkpt>
      <trkpt lat="48.821533" lon="10.828042">
        <ele>469.6</ele>
        <time>2026-09-01T00:00:00.0000000+00:00</time>
      </trkpt>
      <trkpt lat="48.821759" lon="10.828616">
        <ele>472.22</ele>
        <time>2026-09-01T00:00:00.0000000+00:00</time>
      </trkpt>
      <trkpt lat="48.821943" lon="10.829543">
        <ele>476.18</ele>
        <time>2026-09-01T00:00:00.0000000+00:00</time>
      </trkpt>
      <trkpt lat="48.821965" lon="10.829662">
        <ele>476.57</ele>
        <time>2026-09-01T00:00:00.0000000+00:00</time>
      </trkpt>
      <trkpt lat="48.822035" lon="10.830093">
        <ele>477.94</ele>
        <time>2026-09-01T00:00:00.0000000+00:00</time>
      </trkpt>
      <trkpt lat="48.822259" lon="10.830025">
        <ele>478.85</ele>
        <time>2026-09-01T00:00:00.0000000+00:00</time>
      </trkpt>
      <trkpt lat="48.822348" lon="10.829997">
        <ele>479.21</ele>
        <time>2026-09-01T00:00:00.0000000+00:00</time>
      </trkpt>
      <trkpt lat="48.82244" lon="10.829967">
        <ele>479.58</ele>
        <time>2026-09-01T00:00:00.0000000+00:00</time>
      </trkpt>
      <trkpt lat="48.822593" lon="10.829918">
        <ele>480.2</ele>
        <time>2026-09-01T00:00:00.0000000+00:00</time>
      </trkpt>
      <trkpt lat="48.82295" lon="10.829798">
        <ele>481.33</ele>
        <time>2026-09-01T00:00:00.0000000+00:00</time>
      </trkpt>
      <trkpt lat="48.823306" lon="10.829668">
        <ele>482.13</ele>
        <time>2026-09-01T00:00:00.0000000+00:00</time>
      </trkpt>
      <trkpt lat="48.823622" lon="10.829344">
        <ele>481.86</ele>
        <time>2026-09-01T00:00:00.0000000+00:00</time>
      </trkpt>
      <trkpt lat="48.823797" lon="10.829294">
        <ele>482.46</ele>
        <time>2026-09-01T00:00:00.0000000+00:00</time>
      </trkpt>
      <trkpt lat="48.824755" lon="10.828974">
        <ele>483.82</ele>
        <time>2026-09-01T00:00:00.0000000+00:00</time>
      </trkpt>
      <trkpt lat="48.824869" lon="10.828952">
        <ele>483.86</ele>
        <time>2026-09-01T00:00:00.0000000+00:00</time>
      </trkpt>
      <trkpt lat="48.825275" lon="10.828991">
        <ele>483.52</ele>
        <time>2026-09-01T00:00:00.0000000+00:00</time>
      </trkpt>
      <trkpt lat="48.825745" lon="10.829238">
        <ele>481.29</ele>
        <time>2026-09-01T00:00:00.0000000+00:00</time>
      </trkpt>
      <trkpt lat="48.826197" lon="10.829497">
        <ele>480.02</ele>
        <time>2026-09-01T00:00:00.0000000+00:00</time>
      </trkpt>
      <trkpt lat="48.826493" lon="10.82973">
        <ele>480.2</ele>
        <time>2026-09-01T00:00:00.0000000+00:00</time>
      </trkpt>
      <trkpt lat="48.827157" lon="10.830933">
        <ele>486.85</ele>
        <time>2026-09-01T00:00:00.0000000+00:00</time>
      </trkpt>
      <trkpt lat="48.827342" lon="10.83108">
        <ele>487.33</ele>
        <time>2026-09-01T00:00:00.0000000+00:00</time>
      </trkpt>
      <trkpt lat="48.82782" lon="10.831998">
        <ele>489.89</ele>
        <time>2026-09-01T00:00:00.0000000+00:00</time>
      </trkpt>
      <trkpt lat="48.828298" lon="10.832899">
        <ele>493.02</ele>
        <time>2026-09-01T00:00:00.0000000+00:00</time>
      </trkpt>
      <trkpt lat="48.828491" lon="10.833309">
        <ele>492.25</ele>
        <time>2026-09-01T00:00:00.0000000+00:00</time>
      </trkpt>
      <trkpt lat="48.828915" lon="10.834047">
        <ele>495.16</ele>
        <time>2026-09-01T00:00:00.0000000+00:00</time>
      </trkpt>
      <trkpt lat="48.829373" lon="10.83477">
        <ele>497.36</ele>
        <time>2026-09-01T00:00:00.0000000+00:00</time>
      </trkpt>
      <trkpt lat="48.829448" lon="10.83487">
        <ele>497.76</ele>
        <time>2026-09-01T00:00:00.0000000+00:00</time>
      </trkpt>
      <trkpt lat="48.829864" lon="10.835494">
        <ele>501.33</ele>
        <time>2026-09-01T00:00:00.0000000+00:00</time>
      </trkpt>
      <trkpt lat="48.830317" lon="10.836155">
        <ele>503.89</ele>
        <time>2026-09-01T00:00:00.0000000+00:00</time>
      </trkpt>
      <trkpt lat="48.830382" lon="10.836244">
        <ele>504.25</ele>
        <time>2026-09-01T00:00:00.0000000+00:00</time>
      </trkpt>
      <trkpt lat="48.830909" lon="10.836976">
        <ele>508.04</ele>
        <time>2026-09-01T00:00:00.0000000+00:00</time>
      </trkpt>
      <trkpt lat="48.83137" lon="10.837597">
        <ele>511.31</ele>
        <time>2026-09-01T00:00:00.0000000+00:00</time>
      </trkpt>
      <trkpt lat="48.83196" lon="10.838574">
        <ele>512.47</ele>
        <time>2026-09-01T00:00:00.0000000+00:00</time>
      </trkpt>
      <trkpt lat="48.832479" lon="10.839622">
        <ele>512.01</ele>
        <time>2026-09-01T00:00:00.0000000+00:00</time>
      </trkpt>
      <trkpt lat="48.833009" lon="10.840544">
        <ele>513.37</ele>
        <time>2026-09-01T00:00:00.0000000+00:00</time>
      </trkpt>
      <trkpt lat="48.833616" lon="10.841298">
        <ele>513.8</ele>
        <time>2026-09-01T00:00:00.0000000+00:00</time>
      </trkpt>
      <trkpt lat="48.834368" lon="10.842199">
        <ele>515.89</ele>
        <time>2026-09-01T00:00:00.0000000+00:00</time>
      </trkpt>
      <trkpt lat="48.834936" lon="10.842923">
        <ele>517.38</ele>
        <time>2026-09-01T00:00:00.0000000+00:00</time>
      </trkpt>
      <trkpt lat="48.835273" lon="10.84335">
        <ele>518.92</ele>
        <time>2026-09-01T00:00:00.0000000+00:00</time>
      </trkpt>
      <trkpt lat="48.83597" lon="10.844122">
        <ele>520.21</ele>
        <time>2026-09-01T00:00:00.0000000+00:00</time>
      </trkpt>
      <trkpt lat="48.836394" lon="10.844637">
        <ele>521.32</ele>
        <time>2026-09-01T00:00:00.0000000+00:00</time>
      </trkpt>
      <trkpt lat="48.83666" lon="10.844895">
        <ele>521.79</ele>
        <time>2026-09-01T00:00:00.0000000+00:00</time>
      </trkpt>
      <trkpt lat="48.837007" lon="10.845303">
        <ele>520.79</ele>
        <time>2026-09-01T00:00:00.0000000+00:00</time>
      </trkpt>
      <trkpt lat="48.837494" lon="10.845991">
        <ele>516.67</ele>
        <time>2026-09-01T00:00:00.0000000+00:00</time>
      </trkpt>
      <trkpt lat="48.837967" lon="10.846786">
        <ele>514.41</ele>
        <time>2026-09-01T00:00:00.0000000+00:00</time>
      </trkpt>
      <trkpt lat="48.838204" lon="10.847189">
        <ele>512.79</ele>
        <time>2026-09-01T00:00:00.0000000+00:00</time>
      </trkpt>
      <trkpt lat="48.838459" lon="10.847632">
        <ele>511.04</ele>
        <time>2026-09-01T00:00:00.0000000+00:00</time>
      </trkpt>
      <trkpt lat="48.838698" lon="10.848064">
        <ele>511.29</ele>
        <time>2026-09-01T00:00:00.0000000+00:00</time>
      </trkpt>
      <trkpt lat="48.838947" lon="10.848683">
        <ele>511.11</ele>
        <time>2026-09-01T00:00:00.0000000+00:00</time>
      </trkpt>
      <trkpt lat="48.839099" lon="10.849504">
        <ele>511.07</ele>
        <time>2026-09-01T00:00:00.0000000+00:00</time>
      </trkpt>
      <trkpt lat="48.839183" lon="10.850259">
        <ele>511.23</ele>
        <time>2026-09-01T00:00:00.0000000+00:00</time>
      </trkpt>
      <trkpt lat="48.839224" lon="10.850764">
        <ele>510.12</ele>
        <time>2026-09-01T00:00:00.0000000+00:00</time>
      </trkpt>
      <trkpt lat="48.839284" lon="10.851803">
        <ele>505.95</ele>
        <time>2026-09-01T00:00:00.0000000+00:00</time>
      </trkpt>
      <trkpt lat="48.839343" lon="10.852358">
        <ele>504.72</ele>
        <time>2026-09-01T00:00:00.0000000+00:00</time>
      </trkpt>
      <trkpt lat="48.839468" lon="10.852842">
        <ele>503.46</ele>
        <time>2026-09-01T00:00:00.0000000+00:00</time>
      </trkpt>
      <trkpt lat="48.839661" lon="10.853218">
        <ele>501.77</ele>
        <time>2026-09-01T00:00:00.0000000+00:00</time>
      </trkpt>
      <trkpt lat="48.839712" lon="10.853272">
        <ele>501.39</ele>
        <time>2026-09-01T00:00:00.0000000+00:00</time>
      </trkpt>
      <trkpt lat="48.839929" lon="10.853379">
        <ele>500.2</ele>
        <time>2026-09-01T00:00:00.0000000+00:00</time>
      </trkpt>
      <trkpt lat="48.840016" lon="10.853389">
        <ele>499.86</ele>
        <time>2026-09-01T00:00:00.0000000+00:00</time>
      </trkpt>
      <trkpt lat="48.840175" lon="10.853392">
        <ele>499.8</ele>
        <time>2026-09-01T00:00:00.0000000+00:00</time>
      </trkpt>
      <trkpt lat="48.840175" lon="10.853392">
        <ele>499.8</ele>
        <time>2026-09-01T00:00:00.0000000+00:00</time>
      </trkpt>
      <trkpt lat="48.840391" lon="10.853501">
        <ele>501.1</ele>
        <time>2026-09-01T00:00:00.0000000+00:00</time>
      </trkpt>
      <trkpt lat="48.840536" lon="10.853895">
        <ele>501.36</ele>
        <time>2026-09-01T00:00:00.0000000+00:00</time>
      </trkpt>
      <trkpt lat="48.840692" lon="10.854542">
        <ele>500.91</ele>
        <time>2026-09-01T00:00:00.0000000+00:00</time>
      </trkpt>
      <trkpt lat="48.840899" lon="10.854942">
        <ele>501.1</ele>
        <time>2026-09-01T00:00:00.0000000+00:00</time>
      </trkpt>
      <trkpt lat="48.84108" lon="10.85516">
        <ele>500.99</ele>
        <time>2026-09-01T00:00:00.0000000+00:00</time>
      </trkpt>
      <trkpt lat="48.841304" lon="10.85534">
        <ele>500.89</ele>
        <time>2026-09-01T00:00:00.0000000+00:00</time>
      </trkpt>
      <trkpt lat="48.841289" lon="10.855474">
        <ele>500.84</ele>
        <time>2026-09-01T00:00:00.0000000+00:00</time>
      </trkpt>
      <trkpt lat="48.841264" lon="10.855762">
        <ele>500.72</ele>
        <time>2026-09-01T00:00:00.0000000+00:00</time>
      </trkpt>
      <trkpt lat="48.841264" lon="10.855762">
        <ele>500.72</ele>
        <time>2026-09-01T00:00:00.0000000+00:00</time>
      </trkpt>
      <trkpt lat="48.841357" lon="10.855815">
        <ele>500.61</ele>
        <time>2026-09-01T00:00:00.0000000+00:00</time>
      </trkpt>
      <trkpt lat="48.841357" lon="10.855815">
        <ele>500.61</ele>
        <time>2026-09-01T00:00:00.0000000+00:00</time>
      </trkpt>
      <trkpt lat="48.841455" lon="10.855871">
        <ele>500.47</ele>
        <time>2026-09-01T00:00:00.0000000+00:00</time>
      </trkpt>
      <trkpt lat="48.841551" lon="10.855925">
        <ele>500.32</ele>
        <time>2026-09-01T00:00:00.0000000+00:00</time>
      </trkpt>
      <trkpt lat="48.841551" lon="10.855925">
        <ele>500.32</ele>
        <time>2026-09-01T00:00:00.0000000+00:00</time>
      </trkpt>
      <trkpt lat="48.841551" lon="10.855925">
        <ele>500.32</ele>
        <time>2026-09-01T00:00:00.0000000+00:00</time>
      </trkpt>
      <trkpt lat="48.841641" lon="10.855976">
        <ele>500.15</ele>
        <time>2026-09-01T00:00:00.0000000+00:00</time>
      </trkpt>
      <trkpt lat="48.841817" lon="10.856071">
        <ele>499.79</ele>
        <time>2026-09-01T00:00:00.0000000+00:00</time>
      </trkpt>
      <trkpt lat="48.842144" lon="10.856247">
        <ele>498.26</ele>
        <time>2026-09-01T00:00:00.0000000+00:00</time>
      </trkpt>
      <trkpt lat="48.842396" lon="10.856416">
        <ele>496.89</ele>
        <time>2026-09-01T00:00:00.0000000+00:00</time>
      </trkpt>
      <trkpt lat="48.842618" lon="10.856584">
        <ele>495.54</ele>
        <time>2026-09-01T00:00:00.0000000+00:00</time>
      </trkpt>
      <trkpt lat="48.842879" lon="10.856812">
        <ele>495.02</ele>
        <time>2026-09-01T00:00:00.0000000+00:00</time>
      </trkpt>
      <trkpt lat="48.843124" lon="10.857055">
        <ele>495.38</ele>
        <time>2026-09-01T00:00:00.0000000+00:00</time>
      </trkpt>
      <trkpt lat="48.84331" lon="10.857271">
        <ele>495.95</ele>
        <time>2026-09-01T00:00:00.0000000+00:00</time>
      </trkpt>
      <trkpt lat="48.84331" lon="10.857271">
        <ele>495.95</ele>
        <time>2026-09-01T00:00:00.0000000+00:00</time>
      </trkpt>
      <trkpt lat="48.84331" lon="10.857271">
        <ele>495.95</ele>
        <time>2026-09-01T00:00:00.0000000+00:00</time>
      </trkpt>
      <trkpt lat="48.84331" lon="10.857271">
        <ele>495.95</ele>
        <time>2026-09-01T00:00:00.0000000+00:00</time>
      </trkpt>
      <trkpt lat="48.843455" lon="10.857201">
        <ele>495.99</ele>
        <time>2026-09-01T00:00:00.0000000+00:00</time>
      </trkpt>
      <trkpt lat="48.843455" lon="10.857201">
        <ele>495.99</ele>
        <time>2026-09-01T00:00:00.0000000+00:00</time>
      </trkpt>
      <trkpt lat="48.843455" lon="10.857201">
        <ele>495.99</ele>
        <time>2026-09-01T00:00:00.0000000+00:00</time>
      </trkpt>
      <trkpt lat="48.84331" lon="10.857271">
        <ele>495.95</ele>
        <time>2026-09-01T00:00:00.0000000+00:00</time>
      </trkpt>
      <trkpt lat="48.84331" lon="10.857271">
        <ele>495.95</ele>
        <time>2026-09-01T00:00:00.0000000+00:00</time>
      </trkpt>
      <trkpt lat="48.84331" lon="10.857271">
        <ele>495.95</ele>
        <time>2026-09-01T00:00:00.0000000+00:00</time>
      </trkpt>
      <trkpt lat="48.843455" lon="10.857201">
        <ele>495.99</ele>
        <time>2026-09-01T00:00:00.0000000+00:00</time>
      </trkpt>
      <trkpt lat="48.843455" lon="10.857201">
        <ele>495.99</ele>
        <time>2026-09-01T00:00:00.0000000+00:00</time>
      </trkpt>
      <trkpt lat="48.843455" lon="10.857201">
        <ele>495.99</ele>
        <time>2026-09-01T00:00:00.0000000+00:00</time>
      </trkpt>
      <trkpt lat="48.843455" lon="10.857201">
        <ele>495.99</ele>
        <time>2026-09-01T00:00:00.0000000+00:00</time>
      </trkpt>
      <trkpt lat="48.843455" lon="10.857201">
        <ele>495.99</ele>
        <time>2026-09-01T00:00:00.0000000+00:00</time>
      </trkpt>
      <trkpt lat="48.843478" lon="10.856647">
        <ele>494.69</ele>
        <time>2026-09-01T00:00:00.0000000+00:00</time>
      </trkpt>
      <trkpt lat="48.843403" lon="10.856193">
        <ele>493.78</ele>
        <time>2026-09-01T00:00:00.0000000+00:00</time>
      </trkpt>
      <trkpt lat="48.843818" lon="10.855691">
        <ele>495.2</ele>
        <time>2026-09-01T00:00:00.0000000+00:00</time>
      </trkpt>
      <trkpt lat="48.844145" lon="10.855966">
        <ele>496.27</ele>
        <time>2026-09-01T00:00:00.0000000+00:00</time>
      </trkpt>
      <trkpt lat="48.844539" lon="10.856296">
        <ele>497.24</ele>
        <time>2026-09-01T00:00:00.0000000+00:00</time>
      </trkpt>
      <trkpt lat="48.844993" lon="10.856556">
        <ele>498.93</ele>
        <time>2026-09-01T00:00:00.0000000+00:00</time>
      </trkpt>
      <trkpt lat="48.845287" lon="10.856684">
        <ele>500.89</ele>
        <time>2026-09-01T00:00:00.0000000+00:00</time>
      </trkpt>
      <trkpt lat="48.845335" lon="10.856458">
        <ele>500.7</ele>
        <time>2026-09-01T00:00:00.0000000+00:00</time>
      </trkpt>
      <trkpt lat="48.84539" lon="10.856305">
        <ele>500.72</ele>
        <time>2026-09-01T00:00:00.0000000+00:00</time>
      </trkpt>
      <trkpt lat="48.845403" lon="10.856268">
        <ele>500.73</ele>
        <time>2026-09-01T00:00:00.0000000+00:00</time>
      </trkpt>
      <trkpt lat="48.845436" lon="10.856177">
        <ele>500.75</ele>
        <time>2026-09-01T00:00:00.0000000+00:00</time>
      </trkpt>
      <trkpt lat="48.845508" lon="10.855937">
        <ele>500.72</ele>
        <time>2026-09-01T00:00:00.0000000+00:00</time>
      </trkpt>
      <trkpt lat="48.84561" lon="10.855568">
        <ele>501.13</ele>
        <time>2026-09-01T00:00:00.0000000+00:00</time>
      </trkpt>
      <trkpt lat="48.845669" lon="10.855369">
        <ele>501.23</ele>
        <time>2026-09-01T00:00:00.0000000+00:00</time>
      </trkpt>
      <trkpt lat="48.845821" lon="10.854944">
        <ele>500.89</ele>
        <time>2026-09-01T00:00:00.0000000+00:00</time>
      </trkpt>
      <trkpt lat="48.845906" lon="10.854736">
        <ele>500.44</ele>
        <time>2026-09-01T00:00:00.0000000+00:00</time>
      </trkpt>
      <trkpt lat="48.84608" lon="10.854399">
        <ele>500.13</ele>
        <time>2026-09-01T00:00:00.0000000+00:00</time>
      </trkpt>
      <trkpt lat="48.846207" lon="10.854174">
        <ele>500.12</ele>
        <time>2026-09-01T00:00:00.0000000+00:00</time>
      </trkpt>
      <trkpt lat="48.846405" lon="10.853819">
        <ele>499.94</ele>
        <time>2026-09-01T00:00:00.0000000+00:00</time>
      </trkpt>
      <trkpt lat="48.846775" lon="10.853117">
        <ele>499.53</ele>
        <time>2026-09-01T00:00:00.0000000+00:00</time>
      </trkpt>
      <trkpt lat="48.847023" lon="10.85257">
        <ele>499.36</ele>
        <time>2026-09-01T00:00:00.0000000+00:00</time>
      </trkpt>
      <trkpt lat="48.847167" lon="10.852406">
        <ele>499.11</ele>
        <time>2026-09-01T00:00:00.0000000+00:00</time>
      </trkpt>
      <trkpt lat="48.847619" lon="10.851682">
        <ele>497.85</ele>
        <time>2026-09-01T00:00:00.0000000+00:00</time>
      </trkpt>
      <trkpt lat="48.848154" lon="10.850214">
        <ele>498.33</ele>
        <time>2026-09-01T00:00:00.0000000+00:00</time>
      </trkpt>
      <trkpt lat="48.848377" lon="10.849593">
        <ele>498.29</ele>
        <time>2026-09-01T00:00:00.0000000+00:00</time>
      </trkpt>
      <trkpt lat="48.848509" lon="10.849285">
        <ele>498.3</ele>
        <time>2026-09-01T00:00:00.0000000+00:00</time>
      </trkpt>
      <trkpt lat="48.848544" lon="10.849212">
        <ele>498.57</ele>
        <time>2026-09-01T00:00:00.0000000+00:00</time>
      </trkpt>
      <trkpt lat="48.848558" lon="10.849182">
        <ele>498.68</ele>
        <time>2026-09-01T00:00:00.0000000+00:00</time>
      </trkpt>
      <trkpt lat="48.848696" lon="10.848892">
        <ele>499.49</ele>
        <time>2026-09-01T00:00:00.0000000+00:00</time>
      </trkpt>
      <trkpt lat="48.848945" lon="10.848722">
        <ele>500.4</ele>
        <time>2026-09-01T00:00:00.0000000+00:00</time>
      </trkpt>
      <trkpt lat="48.848989" lon="10.848673">
        <ele>500.5</ele>
        <time>2026-09-01T00:00:00.0000000+00:00</time>
      </trkpt>
      <trkpt lat="48.848989" lon="10.848673">
        <ele>500.5</ele>
        <time>2026-09-01T00:00:00.0000000+00:00</time>
      </trkpt>
      <trkpt lat="48.849377" lon="10.848198">
        <ele>500.71</ele>
        <time>2026-09-01T00:00:00.0000000+00:00</time>
      </trkpt>
      <trkpt lat="48.849557" lon="10.84786">
        <ele>500.74</ele>
        <time>2026-09-01T00:00:00.0000000+00:00</time>
      </trkpt>
      <trkpt lat="48.84961" lon="10.847695">
        <ele>500.66</ele>
        <time>2026-09-01T00:00:00.0000000+00:00</time>
      </trkpt>
      <trkpt lat="48.849909" lon="10.846875">
        <ele>500.86</ele>
        <time>2026-09-01T00:00:00.0000000+00:00</time>
      </trkpt>
      <trkpt lat="48.850262" lon="10.846131">
        <ele>501.56</ele>
        <time>2026-09-01T00:00:00.0000000+00:00</time>
      </trkpt>
      <trkpt lat="48.850393" lon="10.845919">
        <ele>501.97</ele>
        <time>2026-09-01T00:00:00.0000000+00:00</time>
      </trkpt>
      <trkpt lat="48.850628" lon="10.845651">
        <ele>502.51</ele>
        <time>2026-09-01T00:00:00.0000000+00:00</time>
      </trkpt>
      <trkpt lat="48.850678" lon="10.845624">
        <ele>502.59</ele>
        <time>2026-09-01T00:00:00.0000000+00:00</time>
      </trkpt>
      <trkpt lat="48.850767" lon="10.845596">
        <ele>502.74</ele>
        <time>2026-09-01T00:00:00.0000000+00:00</time>
      </trkpt>
      <trkpt lat="48.85091" lon="10.845632">
        <ele>503.1</ele>
        <time>2026-09-01T00:00:00.0000000+00:00</time>
      </trkpt>
      <trkpt lat="48.851389" lon="10.845973">
        <ele>504.56</ele>
        <time>2026-09-01T00:00:00.0000000+00:00</time>
      </trkpt>
      <trkpt lat="48.851389" lon="10.845973">
        <ele>504.56</ele>
        <time>2026-09-01T00:00:00.0000000+00:00</time>
      </trkpt>
      <trkpt lat="48.851389" lon="10.845973">
        <ele>504.56</ele>
        <time>2026-09-01T00:00:00.0000000+00:00</time>
      </trkpt>
      <trkpt lat="48.851389" lon="10.845973">
        <ele>504.56</ele>
        <time>2026-09-01T00:00:00.0000000+00:00</time>
      </trkpt>
      <trkpt lat="48.851389" lon="10.845973">
        <ele>504.56</ele>
        <time>2026-09-01T00:00:00.0000000+00:00</time>
      </trkpt>
      <trkpt lat="48.851389" lon="10.845973">
        <ele>504.56</ele>
        <time>2026-09-01T00:00:00.0000000+00:00</time>
      </trkpt>
      <trkpt lat="48.851456" lon="10.84587">
        <ele>504.51</ele>
        <time>2026-09-01T00:00:00.0000000+00:00</time>
      </trkpt>
      <trkpt lat="48.851504" lon="10.845795">
        <ele>504.52</ele>
        <time>2026-09-01T00:00:00.0000000+00:00</time>
      </trkpt>
      <trkpt lat="48.851523" lon="10.845765">
        <ele>504.53</ele>
        <time>2026-09-01T00:00:00.0000000+00:00</time>
      </trkpt>
      <trkpt lat="48.851797" lon="10.845301">
        <ele>505.03</ele>
        <time>2026-09-01T00:00:00.0000000+00:00</time>
      </trkpt>
      <trkpt lat="48.85215" lon="10.844565">
        <ele>507.41</ele>
        <time>2026-09-01T00:00:00.0000000+00:00</time>
      </trkpt>
      <trkpt lat="48.852316" lon="10.843916">
        <ele>508.81</ele>
        <time>2026-09-01T00:00:00.0000000+00:00</time>
      </trkpt>
      <trkpt lat="48.852378" lon="10.843562">
        <ele>509.45</ele>
        <time>2026-09-01T00:00:00.0000000+00:00</time>
      </trkpt>
      <trkpt lat="48.852378" lon="10.843562">
        <ele>509.45</ele>
        <time>2026-09-01T00:00:00.0000000+00:00</time>
      </trkpt>
      <trkpt lat="48.852378" lon="10.843562">
        <ele>509.45</ele>
        <time>2026-09-01T00:00:00.0000000+00:00</time>
      </trkpt>
      <trkpt lat="48.852388" lon="10.843427">
        <ele>509.6</ele>
        <time>2026-09-01T00:00:00.0000000+00:00</time>
      </trkpt>
      <trkpt lat="48.852388" lon="10.843427">
        <ele>509.6</ele>
        <time>2026-09-01T00:00:00.0000000+00:00</time>
      </trkpt>
      <trkpt lat="48.852391" lon="10.843389">
        <ele>509.63</ele>
        <time>2026-09-01T00:00:00.0000000+00:00</time>
      </trkpt>
      <trkpt lat="48.852402" lon="10.84323">
        <ele>509.75</ele>
        <time>2026-09-01T00:00:00.0000000+00:00</time>
      </trkpt>
      <trkpt lat="48.852402" lon="10.84323">
        <ele>509.75</ele>
        <time>2026-09-01T00:00:00.0000000+00:00</time>
      </trkpt>
      <trkpt lat="48.852402" lon="10.84323">
        <ele>509.75</ele>
        <time>2026-09-01T00:00:00.0000000+00:00</time>
      </trkpt>
      <trkpt lat="48.852402" lon="10.84323">
        <ele>509.75</ele>
        <time>2026-09-01T00:00:00.0000000+00:00</time>
      </trkpt>
      <trkpt lat="48.852405" lon="10.843165">
        <ele>509.79</ele>
        <time>2026-09-01T00:00:00.0000000+00:00</time>
      </trkpt>
      <trkpt lat="48.852411" lon="10.843032">
        <ele>509.86</ele>
        <time>2026-09-01T00:00:00.0000000+00:00</time>
      </trkpt>
      <trkpt lat="48.852416" lon="10.842913">
        <ele>509.92</ele>
        <time>2026-09-01T00:00:00.0000000+00:00</time>
      </trkpt>
      <trkpt lat="48.852422" lon="10.842778">
        <ele>509.99</ele>
        <time>2026-09-01T00:00:00.0000000+00:00</time>
      </trkpt>
      <trkpt lat="48.852425" lon="10.842725">
        <ele>510.02</ele>
        <time>2026-09-01T00:00:00.0000000+00:00</time>
      </trkpt>
      <trkpt lat="48.852485" lon="10.84173">
        <ele>510.12</ele>
        <time>2026-09-01T00:00:00.0000000+00:00</time>
      </trkpt>
      <trkpt lat="48.852501" lon="10.841464">
        <ele>509.98</ele>
        <time>2026-09-01T00:00:00.0000000+00:00</time>
      </trkpt>
      <trkpt lat="48.852512" lon="10.841053">
        <ele>509.68</ele>
        <time>2026-09-01T00:00:00.0000000+00:00</time>
      </trkpt>
      <trkpt lat="48.852517" lon="10.840872">
        <ele>509.62</ele>
        <time>2026-09-01T00:00:00.0000000+00:00</time>
      </trkpt>
      <trkpt lat="48.852565" lon="10.839983">
        <ele>509.8</ele>
        <time>2026-09-01T00:00:00.0000000+00:00</time>
      </trkpt>
      <trkpt lat="48.852618" lon="10.839712">
        <ele>509.99</ele>
        <time>2026-09-01T00:00:00.0000000+00:00</time>
      </trkpt>
      <trkpt lat="48.852768" lon="10.838986">
        <ele>512.23</ele>
        <time>2026-09-01T00:00:00.0000000+00:00</time>
      </trkpt>
      <trkpt lat="48.852817" lon="10.838623">
        <ele>513.19</ele>
        <time>2026-09-01T00:00:00.0000000+00:00</time>
      </trkpt>
      <trkpt lat="48.852965" lon="10.837411">
        <ele>515.3</ele>
        <time>2026-09-01T00:00:00.0000000+00:00</time>
      </trkpt>
      <trkpt lat="48.853073" lon="10.836449">
        <ele>515.64</ele>
        <time>2026-09-01T00:00:00.0000000+00:00</time>
      </trkpt>
      <trkpt lat="48.853144" lon="10.836075">
        <ele>516.09</ele>
        <time>2026-09-01T00:00:00.0000000+00:00</time>
      </trkpt>
      <trkpt lat="48.853267" lon="10.8353">
        <ele>516.75</ele>
        <time>2026-09-01T00:00:00.0000000+00:00</time>
      </trkpt>
      <trkpt lat="48.853407" lon="10.834661">
        <ele>517.68</ele>
        <time>2026-09-01T00:00:00.0000000+00:00</time>
      </trkpt>
      <trkpt lat="48.853598" lon="10.833761">
        <ele>518.43</ele>
        <time>2026-09-01T00:00:00.0000000+00:00</time>
      </trkpt>
      <trkpt lat="48.85396" lon="10.832275">
        <ele>522.38</ele>
        <time>2026-09-01T00:00:00.0000000+00:00</time>
      </trkpt>
      <trkpt lat="48.854165" lon="10.831241">
        <ele>523.07</ele>
        <time>2026-09-01T00:00:00.0000000+00:00</time>
      </trkpt>
      <trkpt lat="48.854391" lon="10.830034">
        <ele>524.08</ele>
        <time>2026-09-01T00:00:00.0000000+00:00</time>
      </trkpt>
      <trkpt lat="48.85456" lon="10.829207">
        <ele>525.21</ele>
        <time>2026-09-01T00:00:00.0000000+00:00</time>
      </trkpt>
      <trkpt lat="48.854761" lon="10.828434">
        <ele>525.69</ele>
        <time>2026-09-01T00:00:00.0000000+00:00</time>
      </trkpt>
      <trkpt lat="48.854863" lon="10.828168">
        <ele>525.48</ele>
        <time>2026-09-01T00:00:00.0000000+00:00</time>
      </trkpt>
      <trkpt lat="48.854961" lon="10.827894">
        <ele>525.37</ele>
        <time>2026-09-01T00:00:00.0000000+00:00</time>
      </trkpt>
      <trkpt lat="48.854998" lon="10.82768">
        <ele>525.07</ele>
        <time>2026-09-01T00:00:00.0000000+00:00</time>
      </trkpt>
      <trkpt lat="48.855014" lon="10.827402">
        <ele>524.85</ele>
        <time>2026-09-01T00:00:00.0000000+00:00</time>
      </trkpt>
      <trkpt lat="48.855014" lon="10.827402">
        <ele>524.85</ele>
        <time>2026-09-01T00:00:00.0000000+00:00</time>
      </trkpt>
      <trkpt lat="48.855014" lon="10.827402">
        <ele>524.85</ele>
        <time>2026-09-01T00:00:00.0000000+00:00</time>
      </trkpt>
      <trkpt lat="48.855005" lon="10.82733">
        <ele>524.7</ele>
        <time>2026-09-01T00:00:00.0000000+00:00</time>
      </trkpt>
      <trkpt lat="48.854999" lon="10.8273">
        <ele>524.62</ele>
        <time>2026-09-01T00:00:00.0000000+00:00</time>
      </trkpt>
      <trkpt lat="48.854973" lon="10.82717">
        <ele>524.29</ele>
        <time>2026-09-01T00:00:00.0000000+00:00</time>
      </trkpt>
      <trkpt lat="48.854849" lon="10.827162">
        <ele>523.33</ele>
        <time>2026-09-01T00:00:00.0000000+00:00</time>
      </trkpt>
      <trkpt lat="48.854715" lon="10.827085">
        <ele>522.25</ele>
        <time>2026-09-01T00:00:00.0000000+00:00</time>
      </trkpt>
      <trkpt lat="48.854715" lon="10.827085">
        <ele>522.25</ele>
        <time>2026-09-01T00:00:00.0000000+00:00</time>
      </trkpt>
      <trkpt lat="48.854715" lon="10.827085">
        <ele>522.25</ele>
        <time>2026-09-01T00:00:00.0000000+00:00</time>
      </trkpt>
      <trkpt lat="48.854715" lon="10.827085">
        <ele>522.25</ele>
        <time>2026-09-01T00:00:00.0000000+00:00</time>
      </trkpt>
      <trkpt lat="48.85468" lon="10.827061">
        <ele>521.97</ele>
        <time>2026-09-01T00:00:00.0000000+00:00</time>
      </trkpt>
      <trkpt lat="48.854565" lon="10.826833">
        <ele>521</ele>
        <time>2026-09-01T00:00:00.0000000+00:00</time>
      </trkpt>
      <trkpt lat="48.854335" lon="10.826331">
        <ele>520.97</ele>
        <time>2026-09-01T00:00:00.0000000+00:00</time>
      </trkpt>
      <trkpt lat="48.854217" lon="10.826088">
        <ele>521.63</ele>
        <time>2026-09-01T00:00:00.0000000+00:00</time>
      </trkpt>
      <trkpt lat="48.854217" lon="10.826088">
        <ele>521.63</ele>
        <time>2026-09-01T00:00:00.0000000+00:00</time>
      </trkpt>
      <trkpt lat="48.854165" lon="10.82594">
        <ele>522.05</ele>
        <time>2026-09-01T00:00:00.0000000+00:00</time>
      </trkpt>
      <trkpt lat="48.854158" lon="10.825871">
        <ele>522.13</ele>
        <time>2026-09-01T00:00:00.0000000+00:00</time>
      </trkpt>
      <trkpt lat="48.854152" lon="10.825772">
        <ele>522.25</ele>
        <time>2026-09-01T00:00:00.0000000+00:00</time>
      </trkpt>
      <trkpt lat="48.854145" lon="10.825675">
        <ele>522.36</ele>
        <time>2026-09-01T00:00:00.0000000+00:00</time>
      </trkpt>
      <trkpt lat="48.854143" lon="10.825645">
        <ele>522.4</ele>
        <time>2026-09-01T00:00:00.0000000+00:00</time>
      </trkpt>
      <trkpt lat="48.85418" lon="10.825396">
        <ele>522.7</ele>
        <time>2026-09-01T00:00:00.0000000+00:00</time>
      </trkpt>
      <trkpt lat="48.854196" lon="10.825306">
        <ele>522.81</ele>
        <time>2026-09-01T00:00:00.0000000+00:00</time>
      </trkpt>
      <trkpt lat="48.854196" lon="10.825306">
        <ele>522.81</ele>
        <time>2026-09-01T00:00:00.0000000+00:00</time>
      </trkpt>
      <trkpt lat="48.854269" lon="10.82485">
        <ele>523.38</ele>
        <time>2026-09-01T00:00:00.0000000+00:00</time>
      </trkpt>
      <trkpt lat="48.854345" lon="10.824008">
        <ele>523.89</ele>
        <time>2026-09-01T00:00:00.0000000+00:00</time>
      </trkpt>
      <trkpt lat="48.854322" lon="10.823332">
        <ele>523.8</ele>
        <time>2026-09-01T00:00:00.0000000+00:00</time>
      </trkpt>
      <trkpt lat="48.854264" lon="10.823001">
        <ele>523.53</ele>
        <time>2026-09-01T00:00:00.0000000+00:00</time>
      </trkpt>
      <trkpt lat="48.854264" lon="10.823001">
        <ele>523.53</ele>
        <time>2026-09-01T00:00:00.0000000+00:00</time>
      </trkpt>
      <trkpt lat="48.854244" lon="10.822927">
        <ele>523.55</ele>
        <time>2026-09-01T00:00:00.0000000+00:00</time>
      </trkpt>
      <trkpt lat="48.85421" lon="10.822841">
        <ele>523.64</ele>
        <time>2026-09-01T00:00:00.0000000+00:00</time>
      </trkpt>
      <trkpt lat="48.85421" lon="10.822841">
        <ele>523.64</ele>
        <time>2026-09-01T00:00:00.0000000+00:00</time>
      </trkpt>
      <trkpt lat="48.854168" lon="10.82274">
        <ele>523.78</ele>
        <time>2026-09-01T00:00:00.0000000+00:00</time>
      </trkpt>
      <trkpt lat="48.854168" lon="10.82274">
        <ele>523.78</ele>
        <time>2026-09-01T00:00:00.0000000+00:00</time>
      </trkpt>
      <trkpt lat="48.854209" lon="10.822641">
        <ele>523.47</ele>
        <time>2026-09-01T00:00:00.0000000+00:00</time>
      </trkpt>
      <trkpt lat="48.854257" lon="10.822505">
        <ele>523.18</ele>
        <time>2026-09-01T00:00:00.0000000+00:00</time>
      </trkpt>
      <trkpt lat="48.854257" lon="10.822505">
        <ele>523.18</ele>
        <time>2026-09-01T00:00:00.0000000+00:00</time>
      </trkpt>
      <trkpt lat="48.854257" lon="10.822505">
        <ele>523.18</ele>
        <time>2026-09-01T00:00:00.0000000+00:00</time>
      </trkpt>
      <trkpt lat="48.854297" lon="10.822021">
        <ele>523.02</ele>
        <time>2026-09-01T00:00:00.0000000+00:00</time>
      </trkpt>
      <trkpt lat="48.854297" lon="10.822021">
        <ele>523.02</ele>
        <time>2026-09-01T00:00:00.0000000+00:00</time>
      </trkpt>
      <trkpt lat="48.854297" lon="10.822021">
        <ele>523.02</ele>
        <time>2026-09-01T00:00:00.0000000+00:00</time>
      </trkpt>
      <trkpt lat="48.854345" lon="10.82135">
        <ele>524.22</ele>
        <time>2026-09-01T00:00:00.0000000+00:00</time>
      </trkpt>
      <trkpt lat="48.854542" lon="10.819713">
        <ele>528.48</ele>
        <time>2026-09-01T00:00:00.0000000+00:00</time>
      </trkpt>
      <trkpt lat="48.854725" lon="10.818551">
        <ele>529.97</ele>
        <time>2026-09-01T00:00:00.0000000+00:00</time>
      </trkpt>
      <trkpt lat="48.855003" lon="10.817389">
        <ele>532.09</ele>
        <time>2026-09-01T00:00:00.0000000+00:00</time>
      </trkpt>
      <trkpt lat="48.855206" lon="10.816679">
        <ele>533.19</ele>
        <time>2026-09-01T00:00:00.0000000+00:00</time>
      </trkpt>
      <trkpt lat="48.855426" lon="10.815868">
        <ele>533.46</ele>
        <time>2026-09-01T00:00:00.0000000+00:00</time>
      </trkpt>
      <trkpt lat="48.855743" lon="10.814671">
        <ele>533.71</ele>
        <time>2026-09-01T00:00:00.0000000+00:00</time>
      </trkpt>
      <trkpt lat="48.85599" lon="10.813542">
        <ele>532.96</ele>
        <time>2026-09-01T00:00:00.0000000+00:00</time>
      </trkpt>
      <trkpt lat="48.856208" lon="10.812196">
        <ele>531.28</ele>
        <time>2026-09-01T00:00:00.0000000+00:00</time>
      </trkpt>
      <trkpt lat="48.856268" lon="10.811421">
        <ele>530.06</ele>
        <time>2026-09-01T00:00:00.0000000+00:00</time>
      </trkpt>
      <trkpt lat="48.856257" lon="10.811186">
        <ele>529.99</ele>
        <time>2026-09-01T00:00:00.0000000+00:00</time>
      </trkpt>
      <trkpt lat="48.856138" lon="10.810336">
        <ele>530.51</ele>
        <time>2026-09-01T00:00:00.0000000+00:00</time>
      </trkpt>
      <trkpt lat="48.856049" lon="10.809939">
        <ele>530.77</ele>
        <time>2026-09-01T00:00:00.0000000+00:00</time>
      </trkpt>
      <trkpt lat="48.856019" lon="10.809494">
        <ele>530.84</ele>
        <time>2026-09-01T00:00:00.0000000+00:00</time>
      </trkpt>
      <trkpt lat="48.856" lon="10.809011">
        <ele>530.89</ele>
        <time>2026-09-01T00:00:00.0000000+00:00</time>
      </trkpt>
      <trkpt lat="48.855953" lon="10.808465">
        <ele>531</ele>
        <time>2026-09-01T00:00:00.0000000+00:00</time>
      </trkpt>
      <trkpt lat="48.855816" lon="10.807325">
        <ele>530.5</ele>
        <time>2026-09-01T00:00:00.0000000+00:00</time>
      </trkpt>
      <trkpt lat="48.855705" lon="10.80671">
        <ele>529.86</ele>
        <time>2026-09-01T00:00:00.0000000+00:00</time>
      </trkpt>
      <trkpt lat="48.855629" lon="10.805776">
        <ele>528.9</ele>
        <time>2026-09-01T00:00:00.0000000+00:00</time>
      </trkpt>
      <trkpt lat="48.855651" lon="10.805052">
        <ele>528.72</ele>
        <time>2026-09-01T00:00:00.0000000+00:00</time>
      </trkpt>
      <trkpt lat="48.85566" lon="10.804752">
        <ele>528.97</ele>
        <time>2026-09-01T00:00:00.0000000+00:00</time>
      </trkpt>
      <trkpt lat="48.85566" lon="10.804752">
        <ele>528.97</ele>
        <time>2026-09-01T00:00:00.0000000+00:00</time>
      </trkpt>
      <trkpt lat="48.855663" lon="10.804629">
        <ele>529.07</ele>
        <time>2026-09-01T00:00:00.0000000+00:00</time>
      </trkpt>
      <trkpt lat="48.85567" lon="10.804576">
        <ele>529.12</ele>
        <time>2026-09-01T00:00:00.0000000+00:00</time>
      </trkpt>
      <trkpt lat="48.855719" lon="10.804569">
        <ele>529.23</ele>
        <time>2026-09-01T00:00:00.0000000+00:00</time>
      </trkpt>
      <trkpt lat="48.855719" lon="10.804569">
        <ele>529.23</ele>
        <time>2026-09-01T00:00:00.0000000+00:00</time>
      </trkpt>
      <trkpt lat="48.855892" lon="10.804536">
        <ele>529.62</ele>
        <time>2026-09-01T00:00:00.0000000+00:00</time>
      </trkpt>
      <trkpt lat="48.855942" lon="10.804533">
        <ele>529.73</ele>
        <time>2026-09-01T00:00:00.0000000+00:00</time>
      </trkpt>
      <trkpt lat="48.85599" lon="10.80453">
        <ele>529.79</ele>
        <time>2026-09-01T00:00:00.0000000+00:00</time>
      </trkpt>
      <trkpt lat="48.856179" lon="10.804499">
        <ele>530.01</ele>
        <time>2026-09-01T00:00:00.0000000+00:00</time>
      </trkpt>
      <trkpt lat="48.856744" lon="10.80442">
        <ele>530.74</ele>
        <time>2026-09-01T00:00:00.0000000+00:00</time>
      </trkpt>
      <trkpt lat="48.857128" lon="10.804395">
        <ele>529.26</ele>
        <time>2026-09-01T00:00:00.0000000+00:00</time>
      </trkpt>
      <trkpt lat="48.857229" lon="10.804388">
        <ele>528.81</ele>
        <time>2026-09-01T00:00:00.0000000+00:00</time>
      </trkpt>
      <trkpt lat="48.857229" lon="10.804388">
        <ele>528.81</ele>
        <time>2026-09-01T00:00:00.0000000+00:00</time>
      </trkpt>
      <trkpt lat="48.857229" lon="10.804388">
        <ele>528.81</ele>
        <time>2026-09-01T00:00:00.0000000+00:00</time>
      </trkpt>
      <trkpt lat="48.857229" lon="10.804388">
        <ele>528.81</ele>
        <time>2026-09-01T00:00:00.0000000+00:00</time>
      </trkpt>
      <trkpt lat="48.857229" lon="10.804388">
        <ele>528.81</ele>
        <time>2026-09-01T00:00:00.0000000+00:00</time>
      </trkpt>
      <trkpt lat="48.857539" lon="10.804356">
        <ele>527.38</ele>
        <time>2026-09-01T00:00:00.0000000+00:00</time>
      </trkpt>
      <trkpt lat="48.858047" lon="10.804305">
        <ele>528.54</ele>
        <time>2026-09-01T00:00:00.0000000+00:00</time>
      </trkpt>
      <trkpt lat="48.858634" lon="10.804265">
        <ele>530.68</ele>
        <time>2026-09-01T00:00:00.0000000+00:00</time>
      </trkpt>
      <trkpt lat="48.859095" lon="10.804212">
        <ele>532.19</ele>
        <time>2026-09-01T00:00:00.0000000+00:00</time>
      </trkpt>
      <trkpt lat="48.859304" lon="10.804161">
        <ele>532.38</ele>
        <time>2026-09-01T00:00:00.0000000+00:00</time>
      </trkpt>
      <trkpt lat="48.859362" lon="10.804143">
        <ele>532.23</ele>
        <time>2026-09-01T00:00:00.0000000+00:00</time>
      </trkpt>
      <trkpt lat="48.859362" lon="10.804143">
        <ele>532.23</ele>
        <time>2026-09-01T00:00:00.0000000+00:00</time>
      </trkpt>
      <trkpt lat="48.859619" lon="10.804066">
        <ele>531.59</ele>
        <time>2026-09-01T00:00:00.0000000+00:00</time>
      </trkpt>
      <trkpt lat="48.859826" lon="10.804013">
        <ele>531.2</ele>
        <time>2026-09-01T00:00:00.0000000+00:00</time>
      </trkpt>
      <trkpt lat="48.860228" lon="10.803914">
        <ele>529.84</ele>
        <time>2026-09-01T00:00:00.0000000+00:00</time>
      </trkpt>
      <trkpt lat="48.860703" lon="10.803783">
        <ele>526.32</ele>
        <time>2026-09-01T00:00:00.0000000+00:00</time>
      </trkpt>
      <trkpt lat="48.861137" lon="10.80368">
        <ele>524.24</ele>
        <time>2026-09-01T00:00:00.0000000+00:00</time>
      </trkpt>
      <trkpt lat="48.861333" lon="10.803728">
        <ele>523.86</ele>
        <time>2026-09-01T00:00:00.0000000+00:00</time>
      </trkpt>
      <trkpt lat="48.861407" lon="10.803779">
        <ele>523.72</ele>
        <time>2026-09-01T00:00:00.0000000+00:00</time>
      </trkpt>
      <trkpt lat="48.861641" lon="10.803907">
        <ele>523.01</ele>
        <time>2026-09-01T00:00:00.0000000+00:00</time>
      </trkpt>
      <trkpt lat="48.861942" lon="10.803932">
        <ele>522.46</ele>
        <time>2026-09-01T00:00:00.0000000+00:00</time>
      </trkpt>
      <trkpt lat="48.862168" lon="10.803986">
        <ele>522.25</ele>
        <time>2026-09-01T00:00:00.0000000+00:00</time>
      </trkpt>
      <trkpt lat="48.862385" lon="10.804036">
        <ele>521.93</ele>
        <time>2026-09-01T00:00:00.0000000+00:00</time>
      </trkpt>
      <trkpt lat="48.862556" lon="10.804087">
        <ele>521.52</ele>
        <time>2026-09-01T00:00:00.0000000+00:00</time>
      </trkpt>
      <trkpt lat="48.862866" lon="10.804208">
        <ele>519.31</ele>
        <time>2026-09-01T00:00:00.0000000+00:00</time>
      </trkpt>
      <trkpt lat="48.863051" lon="10.804302">
        <ele>517.58</ele>
        <time>2026-09-01T00:00:00.0000000+00:00</time>
      </trkpt>
      <trkpt lat="48.863117" lon="10.80434">
        <ele>517.03</ele>
        <time>2026-09-01T00:00:00.0000000+00:00</time>
      </trkpt>
      <trkpt lat="48.863229" lon="10.804419">
        <ele>516.86</ele>
        <time>2026-09-01T00:00:00.0000000+00:00</time>
      </trkpt>
      <trkpt lat="48.863519" lon="10.804659">
        <ele>517.13</ele>
        <time>2026-09-01T00:00:00.0000000+00:00</time>
      </trkpt>
      <trkpt lat="48.863738" lon="10.80488">
        <ele>516.49</ele>
        <time>2026-09-01T00:00:00.0000000+00:00</time>
      </trkpt>
      <trkpt lat="48.863965" lon="10.805177">
        <ele>515.14</ele>
        <time>2026-09-01T00:00:00.0000000+00:00</time>
      </trkpt>
      <trkpt lat="48.864199" lon="10.805384">
        <ele>511.8</ele>
        <time>2026-09-01T00:00:00.0000000+00:00</time>
      </trkpt>
      <trkpt lat="48.864327" lon="10.805475">
        <ele>510.21</ele>
        <time>2026-09-01T00:00:00.0000000+00:00</time>
      </trkpt>
      <trkpt lat="48.86448" lon="10.80559">
        <ele>508.68</ele>
        <time>2026-09-01T00:00:00.0000000+00:00</time>
      </trkpt>
      <trkpt lat="48.864592" lon="10.805769">
        <ele>507.37</ele>
        <time>2026-09-01T00:00:00.0000000+00:00</time>
      </trkpt>
      <trkpt lat="48.864683" lon="10.805961">
        <ele>506.19</ele>
        <time>2026-09-01T00:00:00.0000000+00:00</time>
      </trkpt>
      <trkpt lat="48.864773" lon="10.806188">
        <ele>505.02</ele>
        <time>2026-09-01T00:00:00.0000000+00:00</time>
      </trkpt>
      <trkpt lat="48.864885" lon="10.806477">
        <ele>503.97</ele>
        <time>2026-09-01T00:00:00.0000000+00:00</time>
      </trkpt>
      <trkpt lat="48.86502" lon="10.806842">
        <ele>503.37</ele>
        <time>2026-09-01T00:00:00.0000000+00:00</time>
      </trkpt>
      <trkpt lat="48.865189" lon="10.807269">
        <ele>504.11</ele>
        <time>2026-09-01T00:00:00.0000000+00:00</time>
      </trkpt>
      <trkpt lat="48.865231" lon="10.807402">
        <ele>504.48</ele>
        <time>2026-09-01T00:00:00.0000000+00:00</time>
      </trkpt>
      <trkpt lat="48.865231" lon="10.807402">
        <ele>504.48</ele>
        <time>2026-09-01T00:00:00.0000000+00:00</time>
      </trkpt>
      <trkpt lat="48.865329" lon="10.807642">
        <ele>505.21</ele>
        <time>2026-09-01T00:00:00.0000000+00:00</time>
      </trkpt>
      <trkpt lat="48.865329" lon="10.807642">
        <ele>505.21</ele>
        <time>2026-09-01T00:00:00.0000000+00:00</time>
      </trkpt>
      <trkpt lat="48.865448" lon="10.807579">
        <ele>505.17</ele>
        <time>2026-09-01T00:00:00.0000000+00:00</time>
      </trkpt>
      <trkpt lat="48.865514" lon="10.807543">
        <ele>505.13</ele>
        <time>2026-09-01T00:00:00.0000000+00:00</time>
      </trkpt>
      <trkpt lat="48.865571" lon="10.807518">
        <ele>505.11</ele>
        <time>2026-09-01T00:00:00.0000000+00:00</time>
      </trkpt>
      <trkpt lat="48.865869" lon="10.807387">
        <ele>504.95</ele>
        <time>2026-09-01T00:00:00.0000000+00:00</time>
      </trkpt>
      <trkpt lat="48.866269" lon="10.807178">
        <ele>503.87</ele>
        <time>2026-09-01T00:00:00.0000000+00:00</time>
      </trkpt>
      <trkpt lat="48.866874" lon="10.80692">
        <ele>502.02</ele>
        <time>2026-09-01T00:00:00.0000000+00:00</time>
      </trkpt>
      <trkpt lat="48.867365" lon="10.806716">
        <ele>499.58</ele>
        <time>2026-09-01T00:00:00.0000000+00:00</time>
      </trkpt>
      <trkpt lat="48.867792" lon="10.806456">
        <ele>498.47</ele>
        <time>2026-09-01T00:00:00.0000000+00:00</time>
      </trkpt>
      <trkpt lat="48.867907" lon="10.806374">
        <ele>498.4</ele>
        <time>2026-09-01T00:00:00.0000000+00:00</time>
      </trkpt>
      <trkpt lat="48.868066" lon="10.806259">
        <ele>498.15</ele>
        <time>2026-09-01T00:00:00.0000000+00:00</time>
      </trkpt>
      <trkpt lat="48.868571" lon="10.80586">
        <ele>497.48</ele>
        <time>2026-09-01T00:00:00.0000000+00:00</time>
      </trkpt>
      <trkpt lat="48.868987" lon="10.80548">
        <ele>497.63</ele>
        <time>2026-09-01T00:00:00.0000000+00:00</time>
      </trkpt>
      <trkpt lat="48.869528" lon="10.804884">
        <ele>496.88</ele>
        <time>2026-09-01T00:00:00.0000000+00:00</time>
      </trkpt>
      <trkpt lat="48.869826" lon="10.8046">
        <ele>497.29</ele>
        <time>2026-09-01T00:00:00.0000000+00:00</time>
      </trkpt>
      <trkpt lat="48.87023" lon="10.804195">
        <ele>496.61</ele>
        <time>2026-09-01T00:00:00.0000000+00:00</time>
      </trkpt>
      <trkpt lat="48.870469" lon="10.803974">
        <ele>495.78</ele>
        <time>2026-09-01T00:00:00.0000000+00:00</time>
      </trkpt>
      <trkpt lat="48.87072" lon="10.803778">
        <ele>494.77</ele>
        <time>2026-09-01T00:00:00.0000000+00:00</time>
      </trkpt>
      <trkpt lat="48.870846" lon="10.803639">
        <ele>493.93</ele>
        <time>2026-09-01T00:00:00.0000000+00:00</time>
      </trkpt>
      <trkpt lat="48.870855" lon="10.803538">
        <ele>493.34</ele>
        <time>2026-09-01T00:00:00.0000000+00:00</time>
      </trkpt>
      <trkpt lat="48.870814" lon="10.803393">
        <ele>492.83</ele>
        <time>2026-09-01T00:00:00.0000000+00:00</time>
      </trkpt>
      <trkpt lat="48.870889" lon="10.803431">
        <ele>492.84</ele>
        <time>2026-09-01T00:00:00.0000000+00:00</time>
      </trkpt>
      <trkpt lat="48.871047" lon="10.803466">
        <ele>492.64</ele>
        <time>2026-09-01T00:00:00.0000000+00:00</time>
      </trkpt>
      <trkpt lat="48.871283" lon="10.803486">
        <ele>492.15</ele>
        <time>2026-09-01T00:00:00.0000000+00:00</time>
      </trkpt>
      <trkpt lat="48.871649" lon="10.803258">
        <ele>490.93</ele>
        <time>2026-09-01T00:00:00.0000000+00:00</time>
      </trkpt>
      <trkpt lat="48.871806" lon="10.803166">
        <ele>490.55</ele>
        <time>2026-09-01T00:00:00.0000000+00:00</time>
      </trkpt>
      <trkpt lat="48.871806" lon="10.803166">
        <ele>490.55</ele>
        <time>2026-09-01T00:00:00.0000000+00:00</time>
      </trkpt>
      <trkpt lat="48.871806" lon="10.803166">
        <ele>490.55</ele>
        <time>2026-09-01T00:00:00.0000000+00:00</time>
      </trkpt>
      <trkpt lat="48.871897" lon="10.803109">
        <ele>490.32</ele>
        <time>2026-09-01T00:00:00.0000000+00:00</time>
      </trkpt>
      <trkpt lat="48.871989" lon="10.803034">
        <ele>490.04</ele>
        <time>2026-09-01T00:00:00.0000000+00:00</time>
      </trkpt>
      <trkpt lat="48.871989" lon="10.803034">
        <ele>490.04</ele>
        <time>2026-09-01T00:00:00.0000000+00:00</time>
      </trkpt>
      <trkpt lat="48.872066" lon="10.802942">
        <ele>489.75</ele>
        <time>2026-09-01T00:00:00.0000000+00:00</time>
      </trkpt>
      <trkpt lat="48.872106" lon="10.802799">
        <ele>489.43</ele>
        <time>2026-09-01T00:00:00.0000000+00:00</time>
      </trkpt>
      <trkpt lat="48.872111" lon="10.802744">
        <ele>489.32</ele>
        <time>2026-09-01T00:00:00.0000000+00:00</time>
      </trkpt>
      <trkpt lat="48.872115" lon="10.802623">
        <ele>489.14</ele>
        <time>2026-09-01T00:00:00.0000000+00:00</time>
      </trkpt>
      <trkpt lat="48.872132" lon="10.802452">
        <ele>488.96</ele>
        <time>2026-09-01T00:00:00.0000000+00:00</time>
      </trkpt>
      <trkpt lat="48.872246" lon="10.802333">
        <ele>488.75</ele>
        <time>2026-09-01T00:00:00.0000000+00:00</time>
      </trkpt>
      <trkpt lat="48.872246" lon="10.802333">
        <ele>488.75</ele>
        <time>2026-09-01T00:00:00.0000000+00:00</time>
      </trkpt>
      <trkpt lat="48.872246" lon="10.802333">
        <ele>488.75</ele>
        <time>2026-09-01T00:00:00.0000000+00:00</time>
      </trkpt>
      <trkpt lat="48.872493" lon="10.802173">
        <ele>488.62</ele>
        <time>2026-09-01T00:00:00.0000000+00:00</time>
      </trkpt>
      <trkpt lat="48.872482" lon="10.802143">
        <ele>488.64</ele>
        <time>2026-09-01T00:00:00.0000000+00:00</time>
      </trkpt>
      <trkpt lat="48.872455" lon="10.802045">
        <ele>488.7</ele>
        <time>2026-09-01T00:00:00.0000000+00:00</time>
      </trkpt>
      <trkpt lat="48.872455" lon="10.802045">
        <ele>488.7</ele>
        <time>2026-09-01T00:00:00.0000000+00:00</time>
      </trkpt>
      <trkpt lat="48.87245" lon="10.802022">
        <ele>488.71</ele>
        <time>2026-09-01T00:00:00.0000000+00:00</time>
      </trkpt>
      <trkpt lat="48.872402" lon="10.801799">
        <ele>488.84</ele>
        <time>2026-09-01T00:00:00.0000000+00:00</time>
      </trkpt>
      <trkpt lat="48.872386" lon="10.801678">
        <ele>489.14</ele>
        <time>2026-09-01T00:00:00.0000000+00:00</time>
      </trkpt>
      <trkpt lat="48.872381" lon="10.801636">
        <ele>489.24</ele>
        <time>2026-09-01T00:00:00.0000000+00:00</time>
      </trkpt>
      <trkpt lat="48.872357" lon="10.801428">
        <ele>489.72</ele>
        <time>2026-09-01T00:00:00.0000000+00:00</time>
      </trkpt>
      <trkpt lat="48.872355" lon="10.801072">
        <ele>490.61</ele>
        <time>2026-09-01T00:00:00.0000000+00:00</time>
      </trkpt>
      <trkpt lat="48.87232" lon="10.800306">
        <ele>492</ele>
        <time>2026-09-01T00:00:00.0000000+00:00</time>
      </trkpt>
      <trkpt lat="48.872252" lon="10.799615">
        <ele>492.25</ele>
        <time>2026-09-01T00:00:00.0000000+00:00</time>
      </trkpt>
      <trkpt lat="48.872225" lon="10.799435">
        <ele>492.19</ele>
        <time>2026-09-01T00:00:00.0000000+00:00</time>
      </trkpt>
      <trkpt lat="48.872159" lon="10.799007">
        <ele>491.78</ele>
        <time>2026-09-01T00:00:00.0000000+00:00</time>
      </trkpt>
      <trkpt lat="48.872119" lon="10.798735">
        <ele>491.49</ele>
        <time>2026-09-01T00:00:00.0000000+00:00</time>
      </trkpt>
      <trkpt lat="48.872119" lon="10.798735">
        <ele>491.49</ele>
        <time>2026-09-01T00:00:00.0000000+00:00</time>
      </trkpt>
      <trkpt lat="48.872119" lon="10.798735">
        <ele>491.49</ele>
        <time>2026-09-01T00:00:00.0000000+00:00</time>
      </trkpt>
      <trkpt lat="48.87211" lon="10.79867">
        <ele>491.42</ele>
        <time>2026-09-01T00:00:00.0000000+00:00</time>
      </trkpt>
      <trkpt lat="48.872053" lon="10.79823">
        <ele>490.8</ele>
        <time>2026-09-01T00:00:00.0000000+00:00</time>
      </trkpt>
      <trkpt lat="48.872053" lon="10.79823">
        <ele>490.8</ele>
        <time>2026-09-01T00:00:00.0000000+00:00</time>
      </trkpt>
      <trkpt lat="48.872053" lon="10.79823">
        <ele>490.8</ele>
        <time>2026-09-01T00:00:00.0000000+00:00</time>
      </trkpt>
      <trkpt lat="48.872053" lon="10.79823">
        <ele>490.8</ele>
        <time>2026-09-01T00:00:00.0000000+00:00</time>
      </trkpt>
      <trkpt lat="48.872053" lon="10.79823">
        <ele>490.8</ele>
        <time>2026-09-01T00:00:00.0000000+00:00</time>
      </trkpt>
      <trkpt lat="48.872124" lon="10.798195">
        <ele>491.22</ele>
        <time>2026-09-01T00:00:00.0000000+00:00</time>
      </trkpt>
      <trkpt lat="48.872124" lon="10.798195">
        <ele>491.22</ele>
        <time>2026-09-01T00:00:00.0000000+00:00</time>
      </trkpt>
      <trkpt lat="48.87227" lon="10.798118">
        <ele>492.03</ele>
        <time>2026-09-01T00:00:00.0000000+00:00</time>
      </trkpt>
      <trkpt lat="48.872346" lon="10.798069">
        <ele>492.41</ele>
        <time>2026-09-01T00:00:00.0000000+00:00</time>
      </trkpt>
      <trkpt lat="48.872535" lon="10.797909">
        <ele>493.19</ele>
        <time>2026-09-01T00:00:00.0000000+00:00</time>
      </trkpt>
      <trkpt lat="48.872855" lon="10.79755">
        <ele>494.91</ele>
        <time>2026-09-01T00:00:00.0000000+00:00</time>
      </trkpt>
      <trkpt lat="48.872919" lon="10.797444">
        <ele>495.26</ele>
        <time>2026-09-01T00:00:00.0000000+00:00</time>
      </trkpt>
      <trkpt lat="48.873166" lon="10.796979">
        <ele>496.32</ele>
        <time>2026-09-01T00:00:00.0000000+00:00</time>
      </trkpt>
      <trkpt lat="48.873437" lon="10.796406">
        <ele>498.5</ele>
        <time>2026-09-01T00:00:00.0000000+00:00</time>
      </trkpt>
      <trkpt lat="48.873528" lon="10.796204">
        <ele>499.11</ele>
        <time>2026-09-01T00:00:00.0000000+00:00</time>
      </trkpt>
      <trkpt lat="48.873528" lon="10.796204">
        <ele>499.11</ele>
        <time>2026-09-01T00:00:00.0000000+00:00</time>
      </trkpt>
      <trkpt lat="48.873528" lon="10.796204">
        <ele>499.11</ele>
        <time>2026-09-01T00:00:00.0000000+00:00</time>
      </trkpt>
      <trkpt lat="48.873544" lon="10.796168">
        <ele>499.21</ele>
        <time>2026-09-01T00:00:00.0000000+00:00</time>
      </trkpt>
      <trkpt lat="48.873608" lon="10.796036">
        <ele>499.58</ele>
        <time>2026-09-01T00:00:00.0000000+00:00</time>
      </trkpt>
      <trkpt lat="48.873596" lon="10.795937">
        <ele>499.5</ele>
        <time>2026-09-01T00:00:00.0000000+00:00</time>
      </trkpt>
      <trkpt lat="48.873588" lon="10.795702">
        <ele>499.24</ele>
        <time>2026-09-01T00:00:00.0000000+00:00</time>
      </trkpt>
      <trkpt lat="48.873588" lon="10.795702">
        <ele>499.24</ele>
        <time>2026-09-01T00:00:00.0000000+00:00</time>
      </trkpt>
      <trkpt lat="48.873588" lon="10.795702">
        <ele>499.24</ele>
        <time>2026-09-01T00:00:00.0000000+00:00</time>
      </trkpt>
      <trkpt lat="48.873588" lon="10.795702">
        <ele>499.24</ele>
        <time>2026-09-01T00:00:00.0000000+00:00</time>
      </trkpt>
      <trkpt lat="48.873612" lon="10.795449">
        <ele>499.1</ele>
        <time>2026-09-01T00:00:00.0000000+00:00</time>
      </trkpt>
      <trkpt lat="48.873623" lon="10.795345">
        <ele>499.05</ele>
        <time>2026-09-01T00:00:00.0000000+00:00</time>
      </trkpt>
      <trkpt lat="48.87364" lon="10.795238">
        <ele>499.03</ele>
        <time>2026-09-01T00:00:00.0000000+00:00</time>
      </trkpt>
      <trkpt lat="48.873799" lon="10.794631">
        <ele>500.75</ele>
        <time>2026-09-01T00:00:00.0000000+00:00</time>
      </trkpt>
      <trkpt lat="48.873865" lon="10.794411">
        <ele>501.41</ele>
        <time>2026-09-01T00:00:00.0000000+00:00</time>
      </trkpt>
      <trkpt lat="48.87363" lon="10.79433">
        <ele>500.68</ele>
        <time>2026-09-01T00:00:00.0000000+00:00</time>
      </trkpt>
      <trkpt lat="48.873485" lon="10.794243">
        <ele>500.05</ele>
        <time>2026-09-01T00:00:00.0000000+00:00</time>
      </trkpt>
      <trkpt lat="48.873391" lon="10.794108">
        <ele>499.4</ele>
        <time>2026-09-01T00:00:00.0000000+00:00</time>
      </trkpt>
      <trkpt lat="48.873393" lon="10.793983">
        <ele>499.27</ele>
        <time>2026-09-01T00:00:00.0000000+00:00</time>
      </trkpt>
      <trkpt lat="48.873449" lon="10.793851">
        <ele>499.44</ele>
        <time>2026-09-01T00:00:00.0000000+00:00</time>
      </trkpt>
      <trkpt lat="48.873595" lon="10.793618">
        <ele>499.54</ele>
        <time>2026-09-01T00:00:00.0000000+00:00</time>
      </trkpt>
      <trkpt lat="48.873758" lon="10.793384">
        <ele>499.57</ele>
        <time>2026-09-01T00:00:00.0000000+00:00</time>
      </trkpt>
      <trkpt lat="48.873898" lon="10.793123">
        <ele>499.39</ele>
        <time>2026-09-01T00:00:00.0000000+00:00</time>
      </trkpt>
      <trkpt lat="48.874035" lon="10.792777">
        <ele>498.93</ele>
        <time>2026-09-01T00:00:00.0000000+00:00</time>
      </trkpt>
      <trkpt lat="48.874137" lon="10.792545">
        <ele>498.43</ele>
        <time>2026-09-01T00:00:00.0000000+00:00</time>
      </trkpt>
      <trkpt lat="48.87422" lon="10.792389">
        <ele>497.96</ele>
        <time>2026-09-01T00:00:00.0000000+00:00</time>
      </trkpt>
      <trkpt lat="48.874336" lon="10.79226">
        <ele>497.71</ele>
        <time>2026-09-01T00:00:00.0000000+00:00</time>
      </trkpt>
      <trkpt lat="48.874762" lon="10.791963">
        <ele>498.54</ele>
        <time>2026-09-01T00:00:00.0000000+00:00</time>
      </trkpt>
      <trkpt lat="48.874853" lon="10.791873">
        <ele>498.83</ele>
        <time>2026-09-01T00:00:00.0000000+00:00</time>
      </trkpt>
      <trkpt lat="48.874968" lon="10.791715">
        <ele>499.35</ele>
        <time>2026-09-01T00:00:00.0000000+00:00</time>
      </trkpt>
      <trkpt lat="48.875025" lon="10.791546">
        <ele>499.62</ele>
        <time>2026-09-01T00:00:00.0000000+00:00</time>
      </trkpt>
      <trkpt lat="48.875139" lon="10.790943">
        <ele>500</ele>
        <time>2026-09-01T00:00:00.0000000+00:00</time>
      </trkpt>
      <trkpt lat="48.875286" lon="10.789881">
        <ele>501.23</ele>
        <time>2026-09-01T00:00:00.0000000+00:00</time>
      </trkpt>
      <trkpt lat="48.875443" lon="10.788737">
        <ele>502.52</ele>
        <time>2026-09-01T00:00:00.0000000+00:00</time>
      </trkpt>
      <trkpt lat="48.875458" lon="10.788621">
        <ele>502.64</ele>
        <time>2026-09-01T00:00:00.0000000+00:00</time>
      </trkpt>
      <trkpt lat="48.875496" lon="10.788509">
        <ele>502.88</ele>
        <time>2026-09-01T00:00:00.0000000+00:00</time>
      </trkpt>
      <trkpt lat="48.875564" lon="10.78847">
        <ele>503.33</ele>
        <time>2026-09-01T00:00:00.0000000+00:00</time>
      </trkpt>
      <trkpt lat="48.875805" lon="10.788379">
        <ele>504.81</ele>
        <time>2026-09-01T00:00:00.0000000+00:00</time>
      </trkpt>
      <trkpt lat="48.875912" lon="10.78834">
        <ele>505.49</ele>
        <time>2026-09-01T00:00:00.0000000+00:00</time>
      </trkpt>
      <trkpt lat="48.875976" lon="10.78832">
        <ele>505.7</ele>
        <time>2026-09-01T00:00:00.0000000+00:00</time>
      </trkpt>
      <trkpt lat="48.875976" lon="10.78832">
        <ele>505.7</ele>
        <time>2026-09-01T00:00:00.0000000+00:00</time>
      </trkpt>
      <trkpt lat="48.876029" lon="10.788307">
        <ele>505.78</ele>
        <time>2026-09-01T00:00:00.0000000+00:00</time>
      </trkpt>
      <trkpt lat="48.876029" lon="10.788307">
        <ele>505.78</ele>
        <time>2026-09-01T00:00:00.0000000+00:00</time>
      </trkpt>
      <trkpt lat="48.876029" lon="10.788307">
        <ele>505.78</ele>
        <time>2026-09-01T00:00:00.0000000+00:00</time>
      </trkpt>
      <trkpt lat="48.876029" lon="10.788307">
        <ele>505.78</ele>
        <time>2026-09-01T00:00:00.0000000+00:00</time>
      </trkpt>
      <trkpt lat="48.876134" lon="10.788273">
        <ele>505.99</ele>
        <time>2026-09-01T00:00:00.0000000+00:00</time>
      </trkpt>
      <trkpt lat="48.876113" lon="10.788191">
        <ele>506.31</ele>
        <time>2026-09-01T00:00:00.0000000+00:00</time>
      </trkpt>
      <trkpt lat="48.876113" lon="10.788191">
        <ele>506.31</ele>
        <time>2026-09-01T00:00:00.0000000+00:00</time>
      </trkpt>
      <trkpt lat="48.876113" lon="10.788191">
        <ele>506.31</ele>
        <time>2026-09-01T00:00:00.0000000+00:00</time>
      </trkpt>
      <trkpt lat="48.876113" lon="10.788191">
        <ele>506.31</ele>
        <time>2026-09-01T00:00:00.0000000+00:00</time>
      </trkpt>
      <trkpt lat="48.876113" lon="10.788191">
        <ele>506.31</ele>
        <time>2026-09-01T00:00:00.0000000+00:00</time>
      </trkpt>
      <trkpt lat="48.876113" lon="10.788191">
        <ele>506.31</ele>
        <time>2026-09-01T00:00:00.0000000+00:00</time>
      </trkpt>
      <trkpt lat="48.876102" lon="10.788147">
        <ele>506.48</ele>
        <time>2026-09-01T00:00:00.0000000+00:00</time>
      </trkpt>
      <trkpt lat="48.876025" lon="10.787836">
        <ele>507.6</ele>
        <time>2026-09-01T00:00:00.0000000+00:00</time>
      </trkpt>
      <trkpt lat="48.875905" lon="10.787357">
        <ele>511.17</ele>
        <time>2026-09-01T00:00:00.0000000+00:00</time>
      </trkpt>
      <trkpt lat="48.875822" lon="10.787021">
        <ele>513.64</ele>
        <time>2026-09-01T00:00:00.0000000+00:00</time>
      </trkpt>
      <trkpt lat="48.875758" lon="10.786741">
        <ele>514.89</ele>
        <time>2026-09-01T00:00:00.0000000+00:00</time>
      </trkpt>
      <trkpt lat="48.875717" lon="10.786689">
        <ele>514.53</ele>
        <time>2026-09-01T00:00:00.0000000+00:00</time>
      </trkpt>
      <trkpt lat="48.875679" lon="10.786642">
        <ele>514.18</ele>
        <time>2026-09-01T00:00:00.0000000+00:00</time>
      </trkpt>
      <trkpt lat="48.875609" lon="10.78661">
        <ele>513.29</ele>
        <time>2026-09-01T00:00:00.0000000+00:00</time>
      </trkpt>
      <trkpt lat="48.875604" lon="10.786464">
        <ele>513.85</ele>
        <time>2026-09-01T00:00:00.0000000+00:00</time>
      </trkpt>
      <trkpt lat="48.875604" lon="10.786464">
        <ele>513.85</ele>
        <time>2026-09-01T00:00:00.0000000+00:00</time>
      </trkpt>
      <trkpt lat="48.875604" lon="10.786464">
        <ele>513.85</ele>
        <time>2026-09-01T00:00:00.0000000+00:00</time>
      </trkpt>
      <trkpt lat="48.875604" lon="10.786464">
        <ele>513.85</ele>
        <time>2026-09-01T00:00:00.0000000+00:00</time>
      </trkpt>
      <trkpt lat="48.875604" lon="10.786464">
        <ele>513.85</ele>
        <time>2026-09-01T00:00:00.0000000+00:00</time>
      </trkpt>
      <trkpt lat="48.875604" lon="10.786464">
        <ele>513.85</ele>
        <time>2026-09-01T00:00:00.0000000+00:00</time>
      </trkpt>
      <trkpt lat="48.875604" lon="10.786464">
        <ele>513.85</ele>
        <time>2026-09-01T00:00:00.0000000+00:00</time>
      </trkpt>
      <trkpt lat="48.875604" lon="10.786464">
        <ele>513.85</ele>
        <time>2026-09-01T00:00:00.0000000+00:00</time>
      </trkpt>
      <trkpt lat="48.875601" lon="10.786394">
        <ele>514.11</ele>
        <time>2026-09-01T00:00:00.0000000+00:00</time>
      </trkpt>
      <trkpt lat="48.875601" lon="10.786394">
        <ele>514.11</ele>
        <time>2026-09-01T00:00:00.0000000+00:00</time>
      </trkpt>
      <trkpt lat="48.875598" lon="10.786307">
        <ele>514.44</ele>
        <time>2026-09-01T00:00:00.0000000+00:00</time>
      </trkpt>
      <trkpt lat="48.875597" lon="10.786268">
        <ele>514.59</ele>
        <time>2026-09-01T00:00:00.0000000+00:00</time>
      </trkpt>
      <trkpt lat="48.875577" lon="10.785603">
        <ele>516.51</ele>
        <time>2026-09-01T00:00:00.0000000+00:00</time>
      </trkpt>
      <trkpt lat="48.875562" lon="10.785062">
        <ele>518.22</ele>
        <time>2026-09-01T00:00:00.0000000+00:00</time>
      </trkpt>
      <trkpt lat="48.875549" lon="10.784629">
        <ele>520.69</ele>
        <time>2026-09-01T00:00:00.0000000+00:00</time>
      </trkpt>
      <trkpt lat="48.87553" lon="10.784261">
        <ele>522.34</ele>
        <time>2026-09-01T00:00:00.0000000+00:00</time>
      </trkpt>
      <trkpt lat="48.875504" lon="10.783988">
        <ele>522.62</ele>
        <time>2026-09-01T00:00:00.0000000+00:00</time>
      </trkpt>
      <trkpt lat="48.875504" lon="10.783988">
        <ele>522.62</ele>
        <time>2026-09-01T00:00:00.0000000+00:00</time>
      </trkpt>
      <trkpt lat="48.875504" lon="10.783988">
        <ele>522.62</ele>
        <time>2026-09-01T00:00:00.0000000+00:00</time>
      </trkpt>
      <trkpt lat="48.875502" lon="10.783821">
        <ele>523</ele>
        <time>2026-09-01T00:00:00.0000000+00:00</time>
      </trkpt>
      <trkpt lat="48.875502" lon="10.783821">
        <ele>523</ele>
        <time>2026-09-01T00:00:00.0000000+00:00</time>
      </trkpt>
      <trkpt lat="48.875502" lon="10.783821">
        <ele>523</ele>
        <time>2026-09-01T00:00:00.0000000+00:00</time>
      </trkpt>
      <trkpt lat="48.875501" lon="10.783844">
        <ele>522.93</ele>
        <time>2026-09-01T00:00:00.0000000+00:00</time>
      </trkpt>
      <trkpt lat="48.875502" lon="10.78384">
        <ele>522.95</ele>
        <time>2026-09-01T00:00:00.0000000+00:00</time>
      </trkpt>
      <trkpt lat="48.875502" lon="10.78384">
        <ele>522.95</ele>
        <time>2026-09-01T00:00:00.0000000+00:00</time>
      </trkpt>
      <trkpt lat="48.875574" lon="10.783541">
        <ele>524.71</ele>
        <time>2026-09-01T00:00:00.0000000+00:00</time>
      </trkpt>
      <trkpt lat="48.875574" lon="10.783541">
        <ele>524.71</ele>
        <time>2026-09-01T00:00:00.0000000+00:00</time>
      </trkpt>
      <trkpt lat="48.875574" lon="10.783541">
        <ele>524.71</ele>
        <time>2026-09-01T00:00:00.0000000+00:00</time>
      </trkpt>
      <trkpt lat="48.875594" lon="10.783467">
        <ele>524.95</ele>
        <time>2026-09-01T00:00:00.0000000+00:00</time>
      </trkpt>
      <trkpt lat="48.875617" lon="10.783369">
        <ele>525.04</ele>
        <time>2026-09-01T00:00:00.0000000+00:00</time>
      </trkpt>
      <trkpt lat="48.875717" lon="10.782922">
        <ele>525.41</ele>
        <time>2026-09-01T00:00:00.0000000+00:00</time>
      </trkpt>
      <trkpt lat="48.875759" lon="10.782758">
        <ele>525.62</ele>
        <time>2026-09-01T00:00:00.0000000+00:00</time>
      </trkpt>
      <trkpt lat="48.87586" lon="10.782407">
        <ele>525.61</ele>
        <time>2026-09-01T00:00:00.0000000+00:00</time>
      </trkpt>
      <trkpt lat="48.875904" lon="10.782261">
        <ele>525.53</ele>
        <time>2026-09-01T00:00:00.0000000+00:00</time>
      </trkpt>
      <trkpt lat="48.876008" lon="10.781996">
        <ele>525.32</ele>
        <time>2026-09-01T00:00:00.0000000+00:00</time>
      </trkpt>
      <trkpt lat="48.876052" lon="10.781892">
        <ele>525.28</ele>
        <time>2026-09-01T00:00:00.0000000+00:00</time>
      </trkpt>
      <trkpt lat="48.876227" lon="10.781547">
        <ele>525.45</ele>
        <time>2026-09-01T00:00:00.0000000+00:00</time>
      </trkpt>
      <trkpt lat="48.876343" lon="10.781255">
        <ele>525.07</ele>
        <time>2026-09-01T00:00:00.0000000+00:00</time>
      </trkpt>
      <trkpt lat="48.87636" lon="10.781212">
        <ele>525</ele>
        <time>2026-09-01T00:00:00.0000000+00:00</time>
      </trkpt>
      <trkpt lat="48.876426" lon="10.780946">
        <ele>524.53</ele>
        <time>2026-09-01T00:00:00.0000000+00:00</time>
      </trkpt>
      <trkpt lat="48.876444" lon="10.780868">
        <ele>524.66</ele>
        <time>2026-09-01T00:00:00.0000000+00:00</time>
      </trkpt>
      <trkpt lat="48.876467" lon="10.78075">
        <ele>524.82</ele>
        <time>2026-09-01T00:00:00.0000000+00:00</time>
      </trkpt>
      <trkpt lat="48.876495" lon="10.780528">
        <ele>525.02</ele>
        <time>2026-09-01T00:00:00.0000000+00:00</time>
      </trkpt>
      <trkpt lat="48.876486" lon="10.780357">
        <ele>524.96</ele>
        <time>2026-09-01T00:00:00.0000000+00:00</time>
      </trkpt>
      <trkpt lat="48.87644" lon="10.780072">
        <ele>524.87</ele>
        <time>2026-09-01T00:00:00.0000000+00:00</time>
      </trkpt>
      <trkpt lat="48.876352" lon="10.779681">
        <ele>525.2</ele>
        <time>2026-09-01T00:00:00.0000000+00:00</time>
      </trkpt>
      <trkpt lat="48.87622" lon="10.779185">
        <ele>525.76</ele>
        <time>2026-09-01T00:00:00.0000000+00:00</time>
      </trkpt>
      <trkpt lat="48.876197" lon="10.779065">
        <ele>525.94</ele>
        <time>2026-09-01T00:00:00.0000000+00:00</time>
      </trkpt>
      <trkpt lat="48.876205" lon="10.778735">
        <ele>526.77</ele>
        <time>2026-09-01T00:00:00.0000000+00:00</time>
      </trkpt>
      <trkpt lat="48.876238" lon="10.778329">
        <ele>527.67</ele>
        <time>2026-09-01T00:00:00.0000000+00:00</time>
      </trkpt>
      <trkpt lat="48.876274" lon="10.778015">
        <ele>528.22</ele>
        <time>2026-09-01T00:00:00.0000000+00:00</time>
      </trkpt>
      <trkpt lat="48.876336" lon="10.777589">
        <ele>528.87</ele>
        <time>2026-09-01T00:00:00.0000000+00:00</time>
      </trkpt>
      <trkpt lat="48.876377" lon="10.777308">
        <ele>528.82</ele>
        <time>2026-09-01T00:00:00.0000000+00:00</time>
      </trkpt>
      <trkpt lat="48.8764" lon="10.777147">
        <ele>528.72</ele>
        <time>2026-09-01T00:00:00.0000000+00:00</time>
      </trkpt>
      <trkpt lat="48.876481" lon="10.77659">
        <ele>527.41</ele>
        <time>2026-09-01T00:00:00.0000000+00:00</time>
      </trkpt>
      <trkpt lat="48.876499" lon="10.776466">
        <ele>526.92</ele>
        <time>2026-09-01T00:00:00.0000000+00:00</time>
      </trkpt>
      <trkpt lat="48.876549" lon="10.776089">
        <ele>525.32</ele>
        <time>2026-09-01T00:00:00.0000000+00:00</time>
      </trkpt>
      <trkpt lat="48.876555" lon="10.776014">
        <ele>525.03</ele>
        <time>2026-09-01T00:00:00.0000000+00:00</time>
      </trkpt>
      <trkpt lat="48.876565" lon="10.775903">
        <ele>524.95</ele>
        <time>2026-09-01T00:00:00.0000000+00:00</time>
      </trkpt>
      <trkpt lat="48.876542" lon="10.775804">
        <ele>525</ele>
        <time>2026-09-01T00:00:00.0000000+00:00</time>
      </trkpt>
      <trkpt lat="48.876478" lon="10.775697">
        <ele>525.11</ele>
        <time>2026-09-01T00:00:00.0000000+00:00</time>
      </trkpt>
      <trkpt lat="48.876242" lon="10.775214">
        <ele>524.44</ele>
        <time>2026-09-01T00:00:00.0000000+00:00</time>
      </trkpt>
      <trkpt lat="48.876184" lon="10.775069">
        <ele>524.31</ele>
        <time>2026-09-01T00:00:00.0000000+00:00</time>
      </trkpt>
      <trkpt lat="48.876107" lon="10.774657">
        <ele>524.45</ele>
        <time>2026-09-01T00:00:00.0000000+00:00</time>
      </trkpt>
      <trkpt lat="48.875995" lon="10.774012">
        <ele>526.04</ele>
        <time>2026-09-01T00:00:00.0000000+00:00</time>
      </trkpt>
      <trkpt lat="48.875978" lon="10.773932">
        <ele>526.37</ele>
        <time>2026-09-01T00:00:00.0000000+00:00</time>
      </trkpt>
      <trkpt lat="48.875817" lon="10.773131">
        <ele>529.19</ele>
        <time>2026-09-01T00:00:00.0000000+00:00</time>
      </trkpt>
      <trkpt lat="48.87572" lon="10.772645">
        <ele>530.3</ele>
        <time>2026-09-01T00:00:00.0000000+00:00</time>
      </trkpt>
      <trkpt lat="48.875596" lon="10.771928">
        <ele>531.05</ele>
        <time>2026-09-01T00:00:00.0000000+00:00</time>
      </trkpt>
      <trkpt lat="48.875571" lon="10.771764">
        <ele>531.61</ele>
        <time>2026-09-01T00:00:00.0000000+00:00</time>
      </trkpt>
      <trkpt lat="48.875541" lon="10.771111">
        <ele>534.58</ele>
        <time>2026-09-01T00:00:00.0000000+00:00</time>
      </trkpt>
      <trkpt lat="48.875565" lon="10.770874">
        <ele>536.16</ele>
        <time>2026-09-01T00:00:00.0000000+00:00</time>
      </trkpt>
      <trkpt lat="48.875678" lon="10.770225">
        <ele>540.18</ele>
        <time>2026-09-01T00:00:00.0000000+00:00</time>
      </trkpt>
      <trkpt lat="48.875713" lon="10.769904">
        <ele>540.23</ele>
        <time>2026-09-01T00:00:00.0000000+00:00</time>
      </trkpt>
      <trkpt lat="48.875742" lon="10.7696">
        <ele>540.07</ele>
        <time>2026-09-01T00:00:00.0000000+00:00</time>
      </trkpt>
      <trkpt lat="48.875801" lon="10.76919">
        <ele>540.54</ele>
        <time>2026-09-01T00:00:00.0000000+00:00</time>
      </trkpt>
      <trkpt lat="48.87585" lon="10.768954">
        <ele>541.61</ele>
        <time>2026-09-01T00:00:00.0000000+00:00</time>
      </trkpt>
      <trkpt lat="48.875882" lon="10.768801">
        <ele>542.39</ele>
        <time>2026-09-01T00:00:00.0000000+00:00</time>
      </trkpt>
      <trkpt lat="48.876086" lon="10.767976">
        <ele>549.3</ele>
        <time>2026-09-01T00:00:00.0000000+00:00</time>
      </trkpt>
      <trkpt lat="48.876173" lon="10.767562">
        <ele>552.14</ele>
        <time>2026-09-01T00:00:00.0000000+00:00</time>
      </trkpt>
      <trkpt lat="48.876213" lon="10.767431">
        <ele>552.47</ele>
        <time>2026-09-01T00:00:00.0000000+00:00</time>
      </trkpt>
      <trkpt lat="48.876255" lon="10.767299">
        <ele>552.9</ele>
        <time>2026-09-01T00:00:00.0000000+00:00</time>
      </trkpt>
      <trkpt lat="48.876291" lon="10.767271">
        <ele>552.72</ele>
        <time>2026-09-01T00:00:00.0000000+00:00</time>
      </trkpt>
      <trkpt lat="48.876291" lon="10.767271">
        <ele>552.72</ele>
        <time>2026-09-01T00:00:00.0000000+00:00</time>
      </trkpt>
      <trkpt lat="48.876339" lon="10.767235">
        <ele>552.5</ele>
        <time>2026-09-01T00:00:00.0000000+00:00</time>
      </trkpt>
      <trkpt lat="48.876399" lon="10.767192">
        <ele>552.27</ele>
        <time>2026-09-01T00:00:00.0000000+00:00</time>
      </trkpt>
      <trkpt lat="48.876399" lon="10.767192">
        <ele>552.27</ele>
        <time>2026-09-01T00:00:00.0000000+00:00</time>
      </trkpt>
      <trkpt lat="48.876607" lon="10.767069">
        <ele>551.62</ele>
        <time>2026-09-01T00:00:00.0000000+00:00</time>
      </trkpt>
      <trkpt lat="48.876612" lon="10.767063">
        <ele>551.64</ele>
        <time>2026-09-01T00:00:00.0000000+00:00</time>
      </trkpt>
      <trkpt lat="48.876587" lon="10.767004">
        <ele>552.51</ele>
        <time>2026-09-01T00:00:00.0000000+00:00</time>
      </trkpt>
      <trkpt lat="48.876587" lon="10.767004">
        <ele>552.51</ele>
        <time>2026-09-01T00:00:00.0000000+00:00</time>
      </trkpt>
      <trkpt lat="48.876529" lon="10.766882">
        <ele>554.22</ele>
        <time>2026-09-01T00:00:00.0000000+00:00</time>
      </trkpt>
      <trkpt lat="48.876529" lon="10.766882">
        <ele>554.22</ele>
        <time>2026-09-01T00:00:00.0000000+00:00</time>
      </trkpt>
      <trkpt lat="48.876505" lon="10.766832">
        <ele>554.66</ele>
        <time>2026-09-01T00:00:00.0000000+00:00</time>
      </trkpt>
      <trkpt lat="48.876462" lon="10.766743">
        <ele>555.1</ele>
        <time>2026-09-01T00:00:00.0000000+00:00</time>
      </trkpt>
      <trkpt lat="48.876446" lon="10.766709">
        <ele>555.25</ele>
        <time>2026-09-01T00:00:00.0000000+00:00</time>
      </trkpt>
      <trkpt lat="48.876309" lon="10.766422">
        <ele>556.12</ele>
        <time>2026-09-01T00:00:00.0000000+00:00</time>
      </trkpt>
      <trkpt lat="48.876207" lon="10.766208">
        <ele>556.34</ele>
        <time>2026-09-01T00:00:00.0000000+00:00</time>
      </trkpt>
      <trkpt lat="48.876158" lon="10.766107">
        <ele>556.3</ele>
        <time>2026-09-01T00:00:00.0000000+00:00</time>
      </trkpt>
      <trkpt lat="48.876158" lon="10.766107">
        <ele>556.3</ele>
        <time>2026-09-01T00:00:00.0000000+00:00</time>
      </trkpt>
      <trkpt lat="48.876258" lon="10.765722">
        <ele>556.16</ele>
        <time>2026-09-01T00:00:00.0000000+00:00</time>
      </trkpt>
      <trkpt lat="48.876258" lon="10.765722">
        <ele>556.16</ele>
        <time>2026-09-01T00:00:00.0000000+00:00</time>
      </trkpt>
      <trkpt lat="48.876258" lon="10.765722">
        <ele>556.16</ele>
        <time>2026-09-01T00:00:00.0000000+00:00</time>
      </trkpt>
      <trkpt lat="48.876258" lon="10.765722">
        <ele>556.16</ele>
        <time>2026-09-01T00:00:00.0000000+00:00</time>
      </trkpt>
      <trkpt lat="48.876258" lon="10.765722">
        <ele>556.16</ele>
        <time>2026-09-01T00:00:00.0000000+00:00</time>
      </trkpt>
      <trkpt lat="48.876258" lon="10.765722">
        <ele>556.16</ele>
        <time>2026-09-01T00:00:00.0000000+00:00</time>
      </trkpt>
      <trkpt lat="48.876286" lon="10.76557">
        <ele>556.1</ele>
        <time>2026-09-01T00:00:00.0000000+00:00</time>
      </trkpt>
      <trkpt lat="48.876305" lon="10.765367">
        <ele>556</ele>
        <time>2026-09-01T00:00:00.0000000+00:00</time>
      </trkpt>
      <trkpt lat="48.876312" lon="10.765287">
        <ele>555.96</ele>
        <time>2026-09-01T00:00:00.0000000+00:00</time>
      </trkpt>
      <trkpt lat="48.876314" lon="10.765112">
        <ele>555.66</ele>
        <time>2026-09-01T00:00:00.0000000+00:00</time>
      </trkpt>
      <trkpt lat="48.876317" lon="10.764745">
        <ele>554.58</ele>
        <time>2026-09-01T00:00:00.0000000+00:00</time>
      </trkpt>
      <trkpt lat="48.876293" lon="10.764432">
        <ele>553.63</ele>
        <time>2026-09-01T00:00:00.0000000+00:00</time>
      </trkpt>
      <trkpt lat="48.876253" lon="10.764148">
        <ele>553.02</ele>
        <time>2026-09-01T00:00:00.0000000+00:00</time>
      </trkpt>
      <trkpt lat="48.876211" lon="10.763898">
        <ele>552.59</ele>
        <time>2026-09-01T00:00:00.0000000+00:00</time>
      </trkpt>
      <trkpt lat="48.876161" lon="10.763647">
        <ele>552.18</ele>
        <time>2026-09-01T00:00:00.0000000+00:00</time>
      </trkpt>
      <trkpt lat="48.876086" lon="10.763254">
        <ele>552</ele>
        <time>2026-09-01T00:00:00.0000000+00:00</time>
      </trkpt>
      <trkpt lat="48.87603" lon="10.762915">
        <ele>552</ele>
        <time>2026-09-01T00:00:00.0000000+00:00</time>
      </trkpt>
      <trkpt lat="48.87603" lon="10.762849">
        <ele>552</ele>
        <time>2026-09-01T00:00:00.0000000+00:00</time>
      </trkpt>
      <trkpt lat="48.876031" lon="10.762759">
        <ele>552</ele>
        <time>2026-09-01T00:00:00.0000000+00:00</time>
      </trkpt>
      <trkpt lat="48.876055" lon="10.762591">
        <ele>552</ele>
        <time>2026-09-01T00:00:00.0000000+00:00</time>
      </trkpt>
      <trkpt lat="48.876066" lon="10.762411">
        <ele>552</ele>
        <time>2026-09-01T00:00:00.0000000+00:00</time>
      </trkpt>
      <trkpt lat="48.876077" lon="10.762351">
        <ele>552</ele>
        <time>2026-09-01T00:00:00.0000000+00:00</time>
      </trkpt>
      <trkpt lat="48.876077" lon="10.762351">
        <ele>552</ele>
        <time>2026-09-01T00:00:00.0000000+00:00</time>
      </trkpt>
      <trkpt lat="48.876077" lon="10.762351">
        <ele>552</ele>
        <time>2026-09-01T00:00:00.0000000+00:00</time>
      </trkpt>
      <trkpt lat="48.876077" lon="10.762351">
        <ele>552</ele>
        <time>2026-09-01T00:00:00.0000000+00:00</time>
      </trkpt>
      <trkpt lat="48.876077" lon="10.762351">
        <ele>552</ele>
        <time>2026-09-01T00:00:00.0000000+00:00</time>
      </trkpt>
      <trkpt lat="48.876297" lon="10.761935">
        <ele>552</ele>
        <time>2026-09-01T00:00:00.0000000+00:00</time>
      </trkpt>
      <trkpt lat="48.876297" lon="10.761935">
        <ele>552</ele>
        <time>2026-09-01T00:00:00.0000000+00:00</time>
      </trkpt>
      <trkpt lat="48.876297" lon="10.761935">
        <ele>552</ele>
        <time>2026-09-01T00:00:00.0000000+00:00</time>
      </trkpt>
      <trkpt lat="48.876311" lon="10.761906">
        <ele>552</ele>
        <time>2026-09-01T00:00:00.0000000+00:00</time>
      </trkpt>
      <trkpt lat="48.87646" lon="10.761613">
        <ele>551.78</ele>
        <time>2026-09-01T00:00:00.0000000+00:00</time>
      </trkpt>
      <trkpt lat="48.876566" lon="10.761404">
        <ele>551.73</ele>
        <time>2026-09-01T00:00:00.0000000+00:00</time>
      </trkpt>
      <trkpt lat="48.876678" lon="10.761183">
        <ele>551.82</ele>
        <time>2026-09-01T00:00:00.0000000+00:00</time>
      </trkpt>
      <trkpt lat="48.876787" lon="10.760968">
        <ele>552.2</ele>
        <time>2026-09-01T00:00:00.0000000+00:00</time>
      </trkpt>
      <trkpt lat="48.876866" lon="10.760786">
        <ele>552.89</ele>
        <time>2026-09-01T00:00:00.0000000+00:00</time>
      </trkpt>
      <trkpt lat="48.876943" lon="10.760583">
        <ele>553.45</ele>
        <time>2026-09-01T00:00:00.0000000+00:00</time>
      </trkpt>
      <trkpt lat="48.876943" lon="10.760583">
        <ele>553.45</ele>
        <time>2026-09-01T00:00:00.0000000+00:00</time>
      </trkpt>
      <trkpt lat="48.876955" lon="10.760549">
        <ele>553.53</ele>
        <time>2026-09-01T00:00:00.0000000+00:00</time>
      </trkpt>
      <trkpt lat="48.877045" lon="10.760198">
        <ele>553.98</ele>
        <time>2026-09-01T00:00:00.0000000+00:00</time>
      </trkpt>
      <trkpt lat="48.877024" lon="10.760042">
        <ele>552.65</ele>
        <time>2026-09-01T00:00:00.0000000+00:00</time>
      </trkpt>
      <trkpt lat="48.877003" lon="10.759969">
        <ele>551.98</ele>
        <time>2026-09-01T00:00:00.0000000+00:00</time>
      </trkpt>
      <trkpt lat="48.876986" lon="10.759915">
        <ele>551.47</ele>
        <time>2026-09-01T00:00:00.0000000+00:00</time>
      </trkpt>
      <trkpt lat="48.876965" lon="10.759848">
        <ele>550.85</ele>
        <time>2026-09-01T00:00:00.0000000+00:00</time>
      </trkpt>
      <trkpt lat="48.876864" lon="10.759527">
        <ele>547.78</ele>
        <time>2026-09-01T00:00:00.0000000+00:00</time>
      </trkpt>
      <trkpt lat="48.876792" lon="10.7593">
        <ele>545.22</ele>
        <time>2026-09-01T00:00:00.0000000+00:00</time>
      </trkpt>
      <trkpt lat="48.876752" lon="10.759173">
        <ele>543.5</ele>
        <time>2026-09-01T00:00:00.0000000+00:00</time>
      </trkpt>
      <trkpt lat="48.876681" lon="10.758858">
        <ele>540.03</ele>
        <time>2026-09-01T00:00:00.0000000+00:00</time>
      </trkpt>
      <trkpt lat="48.876624" lon="10.75845">
        <ele>536.6</ele>
        <time>2026-09-01T00:00:00.0000000+00:00</time>
      </trkpt>
      <trkpt lat="48.876555" lon="10.75801">
        <ele>536.12</ele>
        <time>2026-09-01T00:00:00.0000000+00:00</time>
      </trkpt>
      <trkpt lat="48.876514" lon="10.75767">
        <ele>535.91</ele>
        <time>2026-09-01T00:00:00.0000000+00:00</time>
      </trkpt>
      <trkpt lat="48.876436" lon="10.757157">
        <ele>537.14</ele>
        <time>2026-09-01T00:00:00.0000000+00:00</time>
      </trkpt>
      <trkpt lat="48.876373" lon="10.756759">
        <ele>537.46</ele>
        <time>2026-09-01T00:00:00.0000000+00:00</time>
      </trkpt>
      <trkpt lat="48.876334" lon="10.756507">
        <ele>537.05</ele>
        <time>2026-09-01T00:00:00.0000000+00:00</time>
      </trkpt>
      <trkpt lat="48.876463" lon="10.756426">
        <ele>535.98</ele>
        <time>2026-09-01T00:00:00.0000000+00:00</time>
      </trkpt>
      <trkpt lat="48.876463" lon="10.756426">
        <ele>535.98</ele>
        <time>2026-09-01T00:00:00.0000000+00:00</time>
      </trkpt>
      <trkpt lat="48.876463" lon="10.756426">
        <ele>535.98</ele>
        <time>2026-09-01T00:00:00.0000000+00:00</time>
      </trkpt>
      <trkpt lat="48.876463" lon="10.756426">
        <ele>535.98</ele>
        <time>2026-09-01T00:00:00.0000000+00:00</time>
      </trkpt>
      <trkpt lat="48.876463" lon="10.756426">
        <ele>535.98</ele>
        <time>2026-09-01T00:00:00.0000000+00:00</time>
      </trkpt>
      <trkpt lat="48.876597" lon="10.756265">
        <ele>535.17</ele>
        <time>2026-09-01T00:00:00.0000000+00:00</time>
      </trkpt>
      <trkpt lat="48.876597" lon="10.756265">
        <ele>535.17</ele>
        <time>2026-09-01T00:00:00.0000000+00:00</time>
      </trkpt>
      <trkpt lat="48.876662" lon="10.75615">
        <ele>535.01</ele>
        <time>2026-09-01T00:00:00.0000000+00:00</time>
      </trkpt>
      <trkpt lat="48.876767" lon="10.75597">
        <ele>535.32</ele>
        <time>2026-09-01T00:00:00.0000000+00:00</time>
      </trkpt>
      <trkpt lat="48.87687" lon="10.755905">
        <ele>537.08</ele>
        <time>2026-09-01T00:00:00.0000000+00:00</time>
      </trkpt>
      <trkpt lat="48.877148" lon="10.755864">
        <ele>541.29</ele>
        <time>2026-09-01T00:00:00.0000000+00:00</time>
      </trkpt>
      <trkpt lat="48.877293" lon="10.755872">
        <ele>543.34</ele>
        <time>2026-09-01T00:00:00.0000000+00:00</time>
      </trkpt>
      <trkpt lat="48.877369" lon="10.755819">
        <ele>544.69</ele>
        <time>2026-09-01T00:00:00.0000000+00:00</time>
      </trkpt>
      <trkpt lat="48.877422" lon="10.755623">
        <ele>546.39</ele>
        <time>2026-09-01T00:00:00.0000000+00:00</time>
      </trkpt>
      <trkpt lat="48.877469" lon="10.755433">
        <ele>547.98</ele>
        <time>2026-09-01T00:00:00.0000000+00:00</time>
      </trkpt>
      <trkpt lat="48.877542" lon="10.755133">
        <ele>549.89</ele>
        <time>2026-09-01T00:00:00.0000000+00:00</time>
      </trkpt>
      <trkpt lat="48.877608" lon="10.754824">
        <ele>549.71</ele>
        <time>2026-09-01T00:00:00.0000000+00:00</time>
      </trkpt>
      <trkpt lat="48.877672" lon="10.754515">
        <ele>549.37</ele>
        <time>2026-09-01T00:00:00.0000000+00:00</time>
      </trkpt>
      <trkpt lat="48.877749" lon="10.754141">
        <ele>548.33</ele>
        <time>2026-09-01T00:00:00.0000000+00:00</time>
      </trkpt>
      <trkpt lat="48.877818" lon="10.753807">
        <ele>547.03</ele>
        <time>2026-09-01T00:00:00.0000000+00:00</time>
      </trkpt>
      <trkpt lat="48.877875" lon="10.753531">
        <ele>545.91</ele>
        <time>2026-09-01T00:00:00.0000000+00:00</time>
      </trkpt>
      <trkpt lat="48.877946" lon="10.753189">
        <ele>544.76</ele>
        <time>2026-09-01T00:00:00.0000000+00:00</time>
      </trkpt>
      <trkpt lat="48.878031" lon="10.752773">
        <ele>542.98</ele>
        <time>2026-09-01T00:00:00.0000000+00:00</time>
      </trkpt>
      <trkpt lat="48.878063" lon="10.752603">
        <ele>541.88</ele>
        <time>2026-09-01T00:00:00.0000000+00:00</time>
      </trkpt>
      <trkpt lat="48.878091" lon="10.752461">
        <ele>540.77</ele>
        <time>2026-09-01T00:00:00.0000000+00:00</time>
      </trkpt>
      <trkpt lat="48.878125" lon="10.752294">
        <ele>539.42</ele>
        <time>2026-09-01T00:00:00.0000000+00:00</time>
      </trkpt>
      <trkpt lat="48.878182" lon="10.752026">
        <ele>537.12</ele>
        <time>2026-09-01T00:00:00.0000000+00:00</time>
      </trkpt>
      <trkpt lat="48.878263" lon="10.751672">
        <ele>534.58</ele>
        <time>2026-09-01T00:00:00.0000000+00:00</time>
      </trkpt>
      <trkpt lat="48.878371" lon="10.751272">
        <ele>532.31</ele>
        <time>2026-09-01T00:00:00.0000000+00:00</time>
      </trkpt>
      <trkpt lat="48.878545" lon="10.750793">
        <ele>530.35</ele>
        <time>2026-09-01T00:00:00.0000000+00:00</time>
      </trkpt>
      <trkpt lat="48.8787" lon="10.750508">
        <ele>529.42</ele>
        <time>2026-09-01T00:00:00.0000000+00:00</time>
      </trkpt>
      <trkpt lat="48.878829" lon="10.750311">
        <ele>528.62</ele>
        <time>2026-09-01T00:00:00.0000000+00:00</time>
      </trkpt>
      <trkpt lat="48.878993" lon="10.750068">
        <ele>528.23</ele>
        <time>2026-09-01T00:00:00.0000000+00:00</time>
      </trkpt>
      <trkpt lat="48.879124" lon="10.749873">
        <ele>528.13</ele>
        <time>2026-09-01T00:00:00.0000000+00:00</time>
      </trkpt>
      <trkpt lat="48.879177" lon="10.749795">
        <ele>528.01</ele>
        <time>2026-09-01T00:00:00.0000000+00:00</time>
      </trkpt>
      <trkpt lat="48.879318" lon="10.749585">
        <ele>527.88</ele>
        <time>2026-09-01T00:00:00.0000000+00:00</time>
      </trkpt>
      <trkpt lat="48.879406" lon="10.749429">
        <ele>528.26</ele>
        <time>2026-09-01T00:00:00.0000000+00:00</time>
      </trkpt>
      <trkpt lat="48.879565" lon="10.749137">
        <ele>529.77</ele>
        <time>2026-09-01T00:00:00.0000000+00:00</time>
      </trkpt>
      <trkpt lat="48.879713" lon="10.748785">
        <ele>531.03</ele>
        <time>2026-09-01T00:00:00.0000000+00:00</time>
      </trkpt>
      <trkpt lat="48.879789" lon="10.748581">
        <ele>531.5</ele>
        <time>2026-09-01T00:00:00.0000000+00:00</time>
      </trkpt>
      <trkpt lat="48.879789" lon="10.748581">
        <ele>531.5</ele>
        <time>2026-09-01T00:00:00.0000000+00:00</time>
      </trkpt>
      <trkpt lat="48.879789" lon="10.748581">
        <ele>531.5</ele>
        <time>2026-09-01T00:00:00.0000000+00:00</time>
      </trkpt>
      <trkpt lat="48.879796" lon="10.748561">
        <ele>531.54</ele>
        <time>2026-09-01T00:00:00.0000000+00:00</time>
      </trkpt>
      <trkpt lat="48.879868" lon="10.748301">
        <ele>531.6</ele>
        <time>2026-09-01T00:00:00.0000000+00:00</time>
      </trkpt>
      <trkpt lat="48.879869" lon="10.748289">
        <ele>531.59</ele>
        <time>2026-09-01T00:00:00.0000000+00:00</time>
      </trkpt>
      <trkpt lat="48.879869" lon="10.748094">
        <ele>531.35</ele>
        <time>2026-09-01T00:00:00.0000000+00:00</time>
      </trkpt>
      <trkpt lat="48.879869" lon="10.748094">
        <ele>531.35</ele>
        <time>2026-09-01T00:00:00.0000000+00:00</time>
      </trkpt>
      <trkpt lat="48.879869" lon="10.748094">
        <ele>531.35</ele>
        <time>2026-09-01T00:00:00.0000000+00:00</time>
      </trkpt>
      <trkpt lat="48.879852" lon="10.747953">
        <ele>531.1</ele>
        <time>2026-09-01T00:00:00.0000000+00:00</time>
      </trkpt>
      <trkpt lat="48.879815" lon="10.747652">
        <ele>530.56</ele>
        <time>2026-09-01T00:00:00.0000000+00:00</time>
      </trkpt>
      <trkpt lat="48.879783" lon="10.747382">
        <ele>530.08</ele>
        <time>2026-09-01T00:00:00.0000000+00:00</time>
      </trkpt>
      <trkpt lat="48.879769" lon="10.747241">
        <ele>529.85</ele>
        <time>2026-09-01T00:00:00.0000000+00:00</time>
      </trkpt>
      <trkpt lat="48.879791" lon="10.747003">
        <ele>529.67</ele>
        <time>2026-09-01T00:00:00.0000000+00:00</time>
      </trkpt>
      <trkpt lat="48.879821" lon="10.746731">
        <ele>529.13</ele>
        <time>2026-09-01T00:00:00.0000000+00:00</time>
      </trkpt>
      <trkpt lat="48.879872" lon="10.746569">
        <ele>528.86</ele>
        <time>2026-09-01T00:00:00.0000000+00:00</time>
      </trkpt>
      <trkpt lat="48.879872" lon="10.746569">
        <ele>528.86</ele>
        <time>2026-09-01T00:00:00.0000000+00:00</time>
      </trkpt>
      <trkpt lat="48.879947" lon="10.746344">
        <ele>528.63</ele>
        <time>2026-09-01T00:00:00.0000000+00:00</time>
      </trkpt>
      <trkpt lat="48.879974" lon="10.746256">
        <ele>528.56</ele>
        <time>2026-09-01T00:00:00.0000000+00:00</time>
      </trkpt>
      <trkpt lat="48.880043" lon="10.746028">
        <ele>528.48</ele>
        <time>2026-09-01T00:00:00.0000000+00:00</time>
      </trkpt>
      <trkpt lat="48.880043" lon="10.746028">
        <ele>528.48</ele>
        <time>2026-09-01T00:00:00.0000000+00:00</time>
      </trkpt>
      <trkpt lat="48.880043" lon="10.746028">
        <ele>528.48</ele>
        <time>2026-09-01T00:00:00.0000000+00:00</time>
      </trkpt>
      <trkpt lat="48.880083" lon="10.745896">
        <ele>528.5</ele>
        <time>2026-09-01T00:00:00.0000000+00:00</time>
      </trkpt>
      <trkpt lat="48.880189" lon="10.745646">
        <ele>528.09</ele>
        <time>2026-09-01T00:00:00.0000000+00:00</time>
      </trkpt>
      <trkpt lat="48.880334" lon="10.745401">
        <ele>527.67</ele>
        <time>2026-09-01T00:00:00.0000000+00:00</time>
      </trkpt>
      <trkpt lat="48.880487" lon="10.745234">
        <ele>527.5</ele>
        <time>2026-09-01T00:00:00.0000000+00:00</time>
      </trkpt>
      <trkpt lat="48.880568" lon="10.745158">
        <ele>527.34</ele>
        <time>2026-09-01T00:00:00.0000000+00:00</time>
      </trkpt>
      <trkpt lat="48.880568" lon="10.745158">
        <ele>527.34</ele>
        <time>2026-09-01T00:00:00.0000000+00:00</time>
      </trkpt>
      <trkpt lat="48.880704" lon="10.745041">
        <ele>527.05</ele>
        <time>2026-09-01T00:00:00.0000000+00:00</time>
      </trkpt>
      <trkpt lat="48.880822" lon="10.744939">
        <ele>526.84</ele>
        <time>2026-09-01T00:00:00.0000000+00:00</time>
      </trkpt>
      <trkpt lat="48.880955" lon="10.744825">
        <ele>526.5</ele>
        <time>2026-09-01T00:00:00.0000000+00:00</time>
      </trkpt>
      <trkpt lat="48.881084" lon="10.744687">
        <ele>525.38</ele>
        <time>2026-09-01T00:00:00.0000000+00:00</time>
      </trkpt>
      <trkpt lat="48.881236" lon="10.744463">
        <ele>523.84</ele>
        <time>2026-09-01T00:00:00.0000000+00:00</time>
      </trkpt>
      <trkpt lat="48.881236" lon="10.744463">
        <ele>523.84</ele>
        <time>2026-09-01T00:00:00.0000000+00:00</time>
      </trkpt>
      <trkpt lat="48.881236" lon="10.744463">
        <ele>523.84</ele>
        <time>2026-09-01T00:00:00.0000000+00:00</time>
      </trkpt>
      <trkpt lat="48.881236" lon="10.744463">
        <ele>523.84</ele>
        <time>2026-09-01T00:00:00.0000000+00:00</time>
      </trkpt>
      <trkpt lat="48.881319" lon="10.744328">
        <ele>522.94</ele>
        <time>2026-09-01T00:00:00.0000000+00:00</time>
      </trkpt>
      <trkpt lat="48.881355" lon="10.744257">
        <ele>522.54</ele>
        <time>2026-09-01T00:00:00.0000000+00:00</time>
      </trkpt>
      <trkpt lat="48.881404" lon="10.744178">
        <ele>522.14</ele>
        <time>2026-09-01T00:00:00.0000000+00:00</time>
      </trkpt>
      <trkpt lat="48.881434" lon="10.744139">
        <ele>521.96</ele>
        <time>2026-09-01T00:00:00.0000000+00:00</time>
      </trkpt>
      <trkpt lat="48.881428" lon="10.744048">
        <ele>521.73</ele>
        <time>2026-09-01T00:00:00.0000000+00:00</time>
      </trkpt>
      <trkpt lat="48.881405" lon="10.743803">
        <ele>521.03</ele>
        <time>2026-09-01T00:00:00.0000000+00:00</time>
      </trkpt>
      <trkpt lat="48.881405" lon="10.743803">
        <ele>521.03</ele>
        <time>2026-09-01T00:00:00.0000000+00:00</time>
      </trkpt>
      <trkpt lat="48.881405" lon="10.743803">
        <ele>521.03</ele>
        <time>2026-09-01T00:00:00.0000000+00:00</time>
      </trkpt>
      <trkpt lat="48.881405" lon="10.743803">
        <ele>521.03</ele>
        <time>2026-09-01T00:00:00.0000000+00:00</time>
      </trkpt>
      <trkpt lat="48.881398" lon="10.743731">
        <ele>520.79</ele>
        <time>2026-09-01T00:00:00.0000000+00:00</time>
      </trkpt>
      <trkpt lat="48.881381" lon="10.743475">
        <ele>519.55</ele>
        <time>2026-09-01T00:00:00.0000000+00:00</time>
      </trkpt>
      <trkpt lat="48.88137" lon="10.743056">
        <ele>515.97</ele>
        <time>2026-09-01T00:00:00.0000000+00:00</time>
      </trkpt>
      <trkpt lat="48.881345" lon="10.742772">
        <ele>513.47</ele>
        <time>2026-09-01T00:00:00.0000000+00:00</time>
      </trkpt>
      <trkpt lat="48.881296" lon="10.742481">
        <ele>511.36</ele>
        <time>2026-09-01T00:00:00.0000000+00:00</time>
      </trkpt>
      <trkpt lat="48.881219" lon="10.742107">
        <ele>509.39</ele>
        <time>2026-09-01T00:00:00.0000000+00:00</time>
      </trkpt>
      <trkpt lat="48.881207" lon="10.742048">
        <ele>509.14</ele>
        <time>2026-09-01T00:00:00.0000000+00:00</time>
      </trkpt>
      <trkpt lat="48.881124" lon="10.741716">
        <ele>508.58</ele>
        <time>2026-09-01T00:00:00.0000000+00:00</time>
      </trkpt>
      <trkpt lat="48.881044" lon="10.741454">
        <ele>508.92</ele>
        <time>2026-09-01T00:00:00.0000000+00:00</time>
      </trkpt>
      <trkpt lat="48.880987" lon="10.741211">
        <ele>509.36</ele>
        <time>2026-09-01T00:00:00.0000000+00:00</time>
      </trkpt>
      <trkpt lat="48.880971" lon="10.741132">
        <ele>509.52</ele>
        <time>2026-09-01T00:00:00.0000000+00:00</time>
      </trkpt>
      <trkpt lat="48.88096" lon="10.740964">
        <ele>509.13</ele>
        <time>2026-09-01T00:00:00.0000000+00:00</time>
      </trkpt>
      <trkpt lat="48.880972" lon="10.740735">
        <ele>507.61</ele>
        <time>2026-09-01T00:00:00.0000000+00:00</time>
      </trkpt>
      <trkpt lat="48.880996" lon="10.740585">
        <ele>506.42</ele>
        <time>2026-09-01T00:00:00.0000000+00:00</time>
      </trkpt>
      <trkpt lat="48.881066" lon="10.740499">
        <ele>505.04</ele>
        <time>2026-09-01T00:00:00.0000000+00:00</time>
      </trkpt>
      <trkpt lat="48.881164" lon="10.740375">
        <ele>503.12</ele>
        <time>2026-09-01T00:00:00.0000000+00:00</time>
      </trkpt>
      <trkpt lat="48.881375" lon="10.74011">
        <ele>499.07</ele>
        <time>2026-09-01T00:00:00.0000000+00:00</time>
      </trkpt>
      <trkpt lat="48.881409" lon="10.740071">
        <ele>498.48</ele>
        <time>2026-09-01T00:00:00.0000000+00:00</time>
      </trkpt>
      <trkpt lat="48.881632" lon="10.739927">
        <ele>495.57</ele>
        <time>2026-09-01T00:00:00.0000000+00:00</time>
      </trkpt>
      <trkpt lat="48.881779" lon="10.739837">
        <ele>494.07</ele>
        <time>2026-09-01T00:00:00.0000000+00:00</time>
      </trkpt>
      <trkpt lat="48.881924" lon="10.739654">
        <ele>493.53</ele>
        <time>2026-09-01T00:00:00.0000000+00:00</time>
      </trkpt>
      <trkpt lat="48.882063" lon="10.739437">
        <ele>493.08</ele>
        <time>2026-09-01T00:00:00.0000000+00:00</time>
      </trkpt>
      <trkpt lat="48.882205" lon="10.739207">
        <ele>493.4</ele>
        <time>2026-09-01T00:00:00.0000000+00:00</time>
      </trkpt>
      <trkpt lat="48.882429" lon="10.738672">
        <ele>493.69</ele>
        <time>2026-09-01T00:00:00.0000000+00:00</time>
      </trkpt>
      <trkpt lat="48.882498" lon="10.738419">
        <ele>493.14</ele>
        <time>2026-09-01T00:00:00.0000000+00:00</time>
      </trkpt>
      <trkpt lat="48.882524" lon="10.738059">
        <ele>491.95</ele>
        <time>2026-09-01T00:00:00.0000000+00:00</time>
      </trkpt>
      <trkpt lat="48.882532" lon="10.737897">
        <ele>491.39</ele>
        <time>2026-09-01T00:00:00.0000000+00:00</time>
      </trkpt>
      <trkpt lat="48.882558" lon="10.737669">
        <ele>490.65</ele>
        <time>2026-09-01T00:00:00.0000000+00:00</time>
      </trkpt>
      <trkpt lat="48.882558" lon="10.737669">
        <ele>490.65</ele>
        <time>2026-09-01T00:00:00.0000000+00:00</time>
      </trkpt>
      <trkpt lat="48.882568" lon="10.737638">
        <ele>490.6</ele>
        <time>2026-09-01T00:00:00.0000000+00:00</time>
      </trkpt>
      <trkpt lat="48.882568" lon="10.737638">
        <ele>490.6</ele>
        <time>2026-09-01T00:00:00.0000000+00:00</time>
      </trkpt>
      <trkpt lat="48.882568" lon="10.737638">
        <ele>490.6</ele>
        <time>2026-09-01T00:00:00.0000000+00:00</time>
      </trkpt>
      <trkpt lat="48.882568" lon="10.737638">
        <ele>490.6</ele>
        <time>2026-09-01T00:00:00.0000000+00:00</time>
      </trkpt>
      <trkpt lat="48.882568" lon="10.737638">
        <ele>490.6</ele>
        <time>2026-09-01T00:00:00.0000000+00:00</time>
      </trkpt>
      <trkpt lat="48.882618" lon="10.737478">
        <ele>490.71</ele>
        <time>2026-09-01T00:00:00.0000000+00:00</time>
      </trkpt>
      <trkpt lat="48.88272" lon="10.737311">
        <ele>491.58</ele>
        <time>2026-09-01T00:00:00.0000000+00:00</time>
      </trkpt>
      <trkpt lat="48.88272" lon="10.737311">
        <ele>491.58</ele>
        <time>2026-09-01T00:00:00.0000000+00:00</time>
      </trkpt>
      <trkpt lat="48.88272" lon="10.737311">
        <ele>491.58</ele>
        <time>2026-09-01T00:00:00.0000000+00:00</time>
      </trkpt>
      <trkpt lat="48.88272" lon="10.737311">
        <ele>491.58</ele>
        <time>2026-09-01T00:00:00.0000000+00:00</time>
      </trkpt>
      <trkpt lat="48.88272" lon="10.737311">
        <ele>491.58</ele>
        <time>2026-09-01T00:00:00.0000000+00:00</time>
      </trkpt>
      <trkpt lat="48.882773" lon="10.737224">
        <ele>491.91</ele>
        <time>2026-09-01T00:00:00.0000000+00:00</time>
      </trkpt>
      <trkpt lat="48.882812" lon="10.73716">
        <ele>492.11</ele>
        <time>2026-09-01T00:00:00.0000000+00:00</time>
      </trkpt>
      <trkpt lat="48.882906" lon="10.737001">
        <ele>492.4</ele>
        <time>2026-09-01T00:00:00.0000000+00:00</time>
      </trkpt>
      <trkpt lat="48.883195" lon="10.736513">
        <ele>492.52</ele>
        <time>2026-09-01T00:00:00.0000000+00:00</time>
      </trkpt>
      <trkpt lat="48.883083" lon="10.736703">
        <ele>492.55</ele>
        <time>2026-09-01T00:00:00.0000000+00:00</time>
      </trkpt>
      <trkpt lat="48.8832" lon="10.736504">
        <ele>492.52</ele>
        <time>2026-09-01T00:00:00.0000000+00:00</time>
      </trkpt>
      <trkpt lat="48.883402" lon="10.73617">
        <ele>492.16</ele>
        <time>2026-09-01T00:00:00.0000000+00:00</time>
      </trkpt>
      <trkpt lat="48.883528" lon="10.735923">
        <ele>492.67</ele>
        <time>2026-09-01T00:00:00.0000000+00:00</time>
      </trkpt>
      <trkpt lat="48.883472" lon="10.735527">
        <ele>492.24</ele>
        <time>2026-09-01T00:00:00.0000000+00:00</time>
      </trkpt>
      <trkpt lat="48.883364" lon="10.735003">
        <ele>491.76</ele>
        <time>2026-09-01T00:00:00.0000000+00:00</time>
      </trkpt>
      <trkpt lat="48.883188" lon="10.734478">
        <ele>490.62</ele>
        <time>2026-09-01T00:00:00.0000000+00:00</time>
      </trkpt>
      <trkpt lat="48.883143" lon="10.734306">
        <ele>490.37</ele>
        <time>2026-09-01T00:00:00.0000000+00:00</time>
      </trkpt>
      <trkpt lat="48.883168" lon="10.734151">
        <ele>490.56</ele>
        <time>2026-09-01T00:00:00.0000000+00:00</time>
      </trkpt>
      <trkpt lat="48.883218" lon="10.733608">
        <ele>491.19</ele>
        <time>2026-09-01T00:00:00.0000000+00:00</time>
      </trkpt>
      <trkpt lat="48.883251" lon="10.733102">
        <ele>489.95</ele>
        <time>2026-09-01T00:00:00.0000000+00:00</time>
      </trkpt>
      <trkpt lat="48.883288" lon="10.732565">
        <ele>488.61</ele>
        <time>2026-09-01T00:00:00.0000000+00:00</time>
      </trkpt>
      <trkpt lat="48.883353" lon="10.73225">
        <ele>488.29</ele>
        <time>2026-09-01T00:00:00.0000000+00:00</time>
      </trkpt>
      <trkpt lat="48.883353" lon="10.73225">
        <ele>488.29</ele>
        <time>2026-09-01T00:00:00.0000000+00:00</time>
      </trkpt>
      <trkpt lat="48.883353" lon="10.73225">
        <ele>488.29</ele>
        <time>2026-09-01T00:00:00.0000000+00:00</time>
      </trkpt>
      <trkpt lat="48.883353" lon="10.73225">
        <ele>488.29</ele>
        <time>2026-09-01T00:00:00.0000000+00:00</time>
      </trkpt>
      <trkpt lat="48.883295" lon="10.732205">
        <ele>488.11</ele>
        <time>2026-09-01T00:00:00.0000000+00:00</time>
      </trkpt>
      <trkpt lat="48.883295" lon="10.732205">
        <ele>488.11</ele>
        <time>2026-09-01T00:00:00.0000000+00:00</time>
      </trkpt>
      <trkpt lat="48.883282" lon="10.732194">
        <ele>488.07</ele>
        <time>2026-09-01T00:00:00.0000000+00:00</time>
      </trkpt>
      <trkpt lat="48.883156" lon="10.732086">
        <ele>487.65</ele>
        <time>2026-09-01T00:00:00.0000000+00:00</time>
      </trkpt>
      <trkpt lat="48.883084" lon="10.732024">
        <ele>487.4</ele>
        <time>2026-09-01T00:00:00.0000000+00:00</time>
      </trkpt>
      <trkpt lat="48.883084" lon="10.732024">
        <ele>487.4</ele>
        <time>2026-09-01T00:00:00.0000000+00:00</time>
      </trkpt>
      <trkpt lat="48.882894" lon="10.731863">
        <ele>486.98</ele>
        <time>2026-09-01T00:00:00.0000000+00:00</time>
      </trkpt>
      <trkpt lat="48.882654" lon="10.731673">
        <ele>488.45</ele>
        <time>2026-09-01T00:00:00.0000000+00:00</time>
      </trkpt>
      <trkpt lat="48.882448" lon="10.731515">
        <ele>491.11</ele>
        <time>2026-09-01T00:00:00.0000000+00:00</time>
      </trkpt>
      <trkpt lat="48.882233" lon="10.731391">
        <ele>492.8</ele>
        <time>2026-09-01T00:00:00.0000000+00:00</time>
      </trkpt>
      <trkpt lat="48.882034" lon="10.73131">
        <ele>493.26</ele>
        <time>2026-09-01T00:00:00.0000000+00:00</time>
      </trkpt>
      <trkpt lat="48.881902" lon="10.731279">
        <ele>493.27</ele>
        <time>2026-09-01T00:00:00.0000000+00:00</time>
      </trkpt>
      <trkpt lat="48.881725" lon="10.731239">
        <ele>492.94</ele>
        <time>2026-09-01T00:00:00.0000000+00:00</time>
      </trkpt>
      <trkpt lat="48.881303" lon="10.731279">
        <ele>493.32</ele>
        <time>2026-09-01T00:00:00.0000000+00:00</time>
      </trkpt>
      <trkpt lat="48.881012" lon="10.731442">
        <ele>496.27</ele>
        <time>2026-09-01T00:00:00.0000000+00:00</time>
      </trkpt>
      <trkpt lat="48.880748" lon="10.731669">
        <ele>496.58</ele>
        <time>2026-09-01T00:00:00.0000000+00:00</time>
      </trkpt>
      <trkpt lat="48.880467" lon="10.731878">
        <ele>492.56</ele>
        <time>2026-09-01T00:00:00.0000000+00:00</time>
      </trkpt>
      <trkpt lat="48.880261" lon="10.731914">
        <ele>487.52</ele>
        <time>2026-09-01T00:00:00.0000000+00:00</time>
      </trkpt>
      <trkpt lat="48.879898" lon="10.731814">
        <ele>481.05</ele>
        <time>2026-09-01T00:00:00.0000000+00:00</time>
      </trkpt>
      <trkpt lat="48.879656" lon="10.731732">
        <ele>479.01</ele>
        <time>2026-09-01T00:00:00.0000000+00:00</time>
      </trkpt>
      <trkpt lat="48.879629" lon="10.731724">
        <ele>478.81</ele>
        <time>2026-09-01T00:00:00.0000000+00:00</time>
      </trkpt>
      <trkpt lat="48.879606" lon="10.731717">
        <ele>478.63</ele>
        <time>2026-09-01T00:00:00.0000000+00:00</time>
      </trkpt>
      <trkpt lat="48.879431" lon="10.731655">
        <ele>477.38</ele>
        <time>2026-09-01T00:00:00.0000000+00:00</time>
      </trkpt>
      <trkpt lat="48.879326" lon="10.731594">
        <ele>476.72</ele>
        <time>2026-09-01T00:00:00.0000000+00:00</time>
      </trkpt>
      <trkpt lat="48.879014" lon="10.731389">
        <ele>475.62</ele>
        <time>2026-09-01T00:00:00.0000000+00:00</time>
      </trkpt>
      <trkpt lat="48.87868" lon="10.731184">
        <ele>473.37</ele>
        <time>2026-09-01T00:00:00.0000000+00:00</time>
      </trkpt>
      <trkpt lat="48.878452" lon="10.731064">
        <ele>471.17</ele>
        <time>2026-09-01T00:00:00.0000000+00:00</time>
      </trkpt>
      <trkpt lat="48.878095" lon="10.730907">
        <ele>473.3</ele>
        <time>2026-09-01T00:00:00.0000000+00:00</time>
      </trkpt>
      <trkpt lat="48.877713" lon="10.730754">
        <ele>474.27</ele>
        <time>2026-09-01T00:00:00.0000000+00:00</time>
      </trkpt>
      <trkpt lat="48.877407" lon="10.730665">
        <ele>475.24</ele>
        <time>2026-09-01T00:00:00.0000000+00:00</time>
      </trkpt>
      <trkpt lat="48.87707" lon="10.730599">
        <ele>476.49</ele>
        <time>2026-09-01T00:00:00.0000000+00:00</time>
      </trkpt>
      <trkpt lat="48.876844" lon="10.730555">
        <ele>476.9</ele>
        <time>2026-09-01T00:00:00.0000000+00:00</time>
      </trkpt>
      <trkpt lat="48.876575" lon="10.730449">
        <ele>475.42</ele>
        <time>2026-09-01T00:00:00.0000000+00:00</time>
      </trkpt>
      <trkpt lat="48.876267" lon="10.73006">
        <ele>469.9</ele>
        <time>2026-09-01T00:00:00.0000000+00:00</time>
      </trkpt>
      <trkpt lat="48.87601" lon="10.729719">
        <ele>467.8</ele>
        <time>2026-09-01T00:00:00.0000000+00:00</time>
      </trkpt>
      <trkpt lat="48.875788" lon="10.729439">
        <ele>466.31</ele>
        <time>2026-09-01T00:00:00.0000000+00:00</time>
      </trkpt>
      <trkpt lat="48.87554" lon="10.729158">
        <ele>466.58</ele>
        <time>2026-09-01T00:00:00.0000000+00:00</time>
      </trkpt>
      <trkpt lat="48.875231" lon="10.728836">
        <ele>465.84</ele>
        <time>2026-09-01T00:00:00.0000000+00:00</time>
      </trkpt>
      <trkpt lat="48.875118" lon="10.728721">
        <ele>465.16</ele>
        <time>2026-09-01T00:00:00.0000000+00:00</time>
      </trkpt>
      <trkpt lat="48.87508" lon="10.728682">
        <ele>464.96</ele>
        <time>2026-09-01T00:00:00.0000000+00:00</time>
      </trkpt>
      <trkpt lat="48.875062" lon="10.728663">
        <ele>464.88</ele>
        <time>2026-09-01T00:00:00.0000000+00:00</time>
      </trkpt>
      <trkpt lat="48.875043" lon="10.728643">
        <ele>464.81</ele>
        <time>2026-09-01T00:00:00.0000000+00:00</time>
      </trkpt>
      <trkpt lat="48.874937" lon="10.728534">
        <ele>464.56</ele>
        <time>2026-09-01T00:00:00.0000000+00:00</time>
      </trkpt>
      <trkpt lat="48.874898" lon="10.728491">
        <ele>464.62</ele>
        <time>2026-09-01T00:00:00.0000000+00:00</time>
      </trkpt>
      <trkpt lat="48.874895" lon="10.728439">
        <ele>464.54</ele>
        <time>2026-09-01T00:00:00.0000000+00:00</time>
      </trkpt>
      <trkpt lat="48.874891" lon="10.728299">
        <ele>464.29</ele>
        <time>2026-09-01T00:00:00.0000000+00:00</time>
      </trkpt>
      <trkpt lat="48.87489" lon="10.728258">
        <ele>464.22</ele>
        <time>2026-09-01T00:00:00.0000000+00:00</time>
      </trkpt>
      <trkpt lat="48.874883" lon="10.728008">
        <ele>463.78</ele>
        <time>2026-09-01T00:00:00.0000000+00:00</time>
      </trkpt>
      <trkpt lat="48.874883" lon="10.728008">
        <ele>463.78</ele>
        <time>2026-09-01T00:00:00.0000000+00:00</time>
      </trkpt>
      <trkpt lat="48.874883" lon="10.728008">
        <ele>463.78</ele>
        <time>2026-09-01T00:00:00.0000000+00:00</time>
      </trkpt>
      <trkpt lat="48.874877" lon="10.72782">
        <ele>463.45</ele>
        <time>2026-09-01T00:00:00.0000000+00:00</time>
      </trkpt>
      <trkpt lat="48.874874" lon="10.727702">
        <ele>463.22</ele>
        <time>2026-09-01T00:00:00.0000000+00:00</time>
      </trkpt>
      <trkpt lat="48.874869" lon="10.727532">
        <ele>462.81</ele>
        <time>2026-09-01T00:00:00.0000000+00:00</time>
      </trkpt>
      <trkpt lat="48.874869" lon="10.727494">
        <ele>462.72</ele>
        <time>2026-09-01T00:00:00.0000000+00:00</time>
      </trkpt>
      <trkpt lat="48.874869" lon="10.726905">
        <ele>461.31</ele>
        <time>2026-09-01T00:00:00.0000000+00:00</time>
      </trkpt>
      <trkpt lat="48.874869" lon="10.726905">
        <ele>461.31</ele>
        <time>2026-09-01T00:00:00.0000000+00:00</time>
      </trkpt>
      <trkpt lat="48.874869" lon="10.726905">
        <ele>461.31</ele>
        <time>2026-09-01T00:00:00.0000000+00:00</time>
      </trkpt>
      <trkpt lat="48.874869" lon="10.726905">
        <ele>461.31</ele>
        <time>2026-09-01T00:00:00.0000000+00:00</time>
      </trkpt>
      <trkpt lat="48.874869" lon="10.726905">
        <ele>461.31</ele>
        <time>2026-09-01T00:00:00.0000000+00:00</time>
      </trkpt>
      <trkpt lat="48.874869" lon="10.726905">
        <ele>461.31</ele>
        <time>2026-09-01T00:00:00.0000000+00:00</time>
      </trkpt>
      <trkpt lat="48.874869" lon="10.726905">
        <ele>461.31</ele>
        <time>2026-09-01T00:00:00.0000000+00:00</time>
      </trkpt>
      <trkpt lat="48.874869" lon="10.726905">
        <ele>461.31</ele>
        <time>2026-09-01T00:00:00.0000000+00:00</time>
      </trkpt>
      <trkpt lat="48.874869" lon="10.726905">
        <ele>461.31</ele>
        <time>2026-09-01T00:00:00.0000000+00:00</time>
      </trkpt>
      <trkpt lat="48.874869" lon="10.726905">
        <ele>461.31</ele>
        <time>2026-09-01T00:00:00.0000000+00:00</time>
      </trkpt>
      <trkpt lat="48.874869" lon="10.726905">
        <ele>461.31</ele>
        <time>2026-09-01T00:00:00.0000000+00:00</time>
      </trkpt>
      <trkpt lat="48.874854" lon="10.726667">
        <ele>460.92</ele>
        <time>2026-09-01T00:00:00.0000000+00:00</time>
      </trkpt>
      <trkpt lat="48.874854" lon="10.726667">
        <ele>460.92</ele>
        <time>2026-09-01T00:00:00.0000000+00:00</time>
      </trkpt>
      <trkpt lat="48.874854" lon="10.726667">
        <ele>460.92</ele>
        <time>2026-09-01T00:00:00.0000000+00:00</time>
      </trkpt>
      <trkpt lat="48.874854" lon="10.726667">
        <ele>460.92</ele>
        <time>2026-09-01T00:00:00.0000000+00:00</time>
      </trkpt>
      <trkpt lat="48.874828" lon="10.726417">
        <ele>460.57</ele>
        <time>2026-09-01T00:00:00.0000000+00:00</time>
      </trkpt>
      <trkpt lat="48.874828" lon="10.726417">
        <ele>460.57</ele>
        <time>2026-09-01T00:00:00.0000000+00:00</time>
      </trkpt>
      <trkpt lat="48.874806" lon="10.726237">
        <ele>460.34</ele>
        <time>2026-09-01T00:00:00.0000000+00:00</time>
      </trkpt>
      <trkpt lat="48.874778" lon="10.726027">
        <ele>460.08</ele>
        <time>2026-09-01T00:00:00.0000000+00:00</time>
      </trkpt>
      <trkpt lat="48.874752" lon="10.72582">
        <ele>459.64</ele>
        <time>2026-09-01T00:00:00.0000000+00:00</time>
      </trkpt>
      <trkpt lat="48.874733" lon="10.725677">
        <ele>459.36</ele>
        <time>2026-09-01T00:00:00.0000000+00:00</time>
      </trkpt>
      <trkpt lat="48.874733" lon="10.725677">
        <ele>459.36</ele>
        <time>2026-09-01T00:00:00.0000000+00:00</time>
      </trkpt>
      <trkpt lat="48.874733" lon="10.725677">
        <ele>459.36</ele>
        <time>2026-09-01T00:00:00.0000000+00:00</time>
      </trkpt>
      <trkpt lat="48.87471" lon="10.725491">
        <ele>459.01</ele>
        <time>2026-09-01T00:00:00.0000000+00:00</time>
      </trkpt>
      <trkpt lat="48.874694" lon="10.725345">
        <ele>458.74</ele>
        <time>2026-09-01T00:00:00.0000000+00:00</time>
      </trkpt>
      <trkpt lat="48.874682" lon="10.725236">
        <ele>458.55</ele>
        <time>2026-09-01T00:00:00.0000000+00:00</time>
      </trkpt>
      <trkpt lat="48.874672" lon="10.72515">
        <ele>458.5</ele>
        <time>2026-09-01T00:00:00.0000000+00:00</time>
      </trkpt>
      <trkpt lat="48.874664" lon="10.725073">
        <ele>458.46</ele>
        <time>2026-09-01T00:00:00.0000000+00:00</time>
      </trkpt>
      <trkpt lat="48.874647" lon="10.724918">
        <ele>458.37</ele>
        <time>2026-09-01T00:00:00.0000000+00:00</time>
      </trkpt>
      <trkpt lat="48.874643" lon="10.724886">
        <ele>458.36</ele>
        <time>2026-09-01T00:00:00.0000000+00:00</time>
      </trkpt>
      <trkpt lat="48.874629" lon="10.724731">
        <ele>458.25</ele>
        <time>2026-09-01T00:00:00.0000000+00:00</time>
      </trkpt>
      <trkpt lat="48.874639" lon="10.72448">
        <ele>457.89</ele>
        <time>2026-09-01T00:00:00.0000000+00:00</time>
      </trkpt>
      <trkpt lat="48.874651" lon="10.7244">
        <ele>457.73</ele>
        <time>2026-09-01T00:00:00.0000000+00:00</time>
      </trkpt>
      <trkpt lat="48.874694" lon="10.72419">
        <ele>457.22</ele>
        <time>2026-09-01T00:00:00.0000000+00:00</time>
      </trkpt>
      <trkpt lat="48.874763" lon="10.723889">
        <ele>456.55</ele>
        <time>2026-09-01T00:00:00.0000000+00:00</time>
      </trkpt>
      <trkpt lat="48.874791" lon="10.723761">
        <ele>456.31</ele>
        <time>2026-09-01T00:00:00.0000000+00:00</time>
      </trkpt>
      <trkpt lat="48.874791" lon="10.723761">
        <ele>456.31</ele>
        <time>2026-09-01T00:00:00.0000000+00:00</time>
      </trkpt>
      <trkpt lat="48.874687" lon="10.723718">
        <ele>456.69</ele>
        <time>2026-09-01T00:00:00.0000000+00:00</time>
      </trkpt>
      <trkpt lat="48.874687" lon="10.723718">
        <ele>456.69</ele>
        <time>2026-09-01T00:00:00.0000000+00:00</time>
      </trkpt>
      <trkpt lat="48.87448" lon="10.723654">
        <ele>457.41</ele>
        <time>2026-09-01T00:00:00.0000000+00:00</time>
      </trkpt>
      <trkpt lat="48.87448" lon="10.723654">
        <ele>457.41</ele>
        <time>2026-09-01T00:00:00.0000000+00:00</time>
      </trkpt>
      <trkpt lat="48.87448" lon="10.723654">
        <ele>457.41</ele>
        <time>2026-09-01T00:00:00.0000000+00:00</time>
      </trkpt>
      <trkpt lat="48.87448" lon="10.723654">
        <ele>457.41</ele>
        <time>2026-09-01T00:00:00.0000000+00:00</time>
      </trkpt>
      <trkpt lat="48.87448" lon="10.723654">
        <ele>457.41</ele>
        <time>2026-09-01T00:00:00.0000000+00:00</time>
      </trkpt>
      <trkpt lat="48.87448" lon="10.723654">
        <ele>457.41</ele>
        <time>2026-09-01T00:00:00.0000000+00:00</time>
      </trkpt>
      <trkpt lat="48.87448" lon="10.723654">
        <ele>457.41</ele>
        <time>2026-09-01T00:00:00.0000000+00:00</time>
      </trkpt>
      <trkpt lat="48.874421" lon="10.723635">
        <ele>457.6</ele>
        <time>2026-09-01T00:00:00.0000000+00:00</time>
      </trkpt>
      <trkpt lat="48.874381" lon="10.723395">
        <ele>456.67</ele>
        <time>2026-09-01T00:00:00.0000000+00:00</time>
      </trkpt>
      <trkpt lat="48.874356" lon="10.72318">
        <ele>455.53</ele>
        <time>2026-09-01T00:00:00.0000000+00:00</time>
      </trkpt>
      <trkpt lat="48.874356" lon="10.72318">
        <ele>455.53</ele>
        <time>2026-09-01T00:00:00.0000000+00:00</time>
      </trkpt>
      <trkpt lat="48.874356" lon="10.72318">
        <ele>455.53</ele>
        <time>2026-09-01T00:00:00.0000000+00:00</time>
      </trkpt>
      <trkpt lat="48.874356" lon="10.72318">
        <ele>455.53</ele>
        <time>2026-09-01T00:00:00.0000000+00:00</time>
      </trkpt>
      <trkpt lat="48.874318" lon="10.722831">
        <ele>453.58</ele>
        <time>2026-09-01T00:00:00.0000000+00:00</time>
      </trkpt>
      <trkpt lat="48.874313" lon="10.722737">
        <ele>453.03</ele>
        <time>2026-09-01T00:00:00.0000000+00:00</time>
      </trkpt>
      <trkpt lat="48.874316" lon="10.722637">
        <ele>452.79</ele>
        <time>2026-09-01T00:00:00.0000000+00:00</time>
      </trkpt>
      <trkpt lat="48.874316" lon="10.72261">
        <ele>452.73</ele>
        <time>2026-09-01T00:00:00.0000000+00:00</time>
      </trkpt>
      <trkpt lat="48.874317" lon="10.722582">
        <ele>452.67</ele>
        <time>2026-09-01T00:00:00.0000000+00:00</time>
      </trkpt>
      <trkpt lat="48.874317" lon="10.722582">
        <ele>452.67</ele>
        <time>2026-09-01T00:00:00.0000000+00:00</time>
      </trkpt>
      <trkpt lat="48.874317" lon="10.722582">
        <ele>452.67</ele>
        <time>2026-09-01T00:00:00.0000000+00:00</time>
      </trkpt>
      <trkpt lat="48.874267" lon="10.722574">
        <ele>452.65</ele>
        <time>2026-09-01T00:00:00.0000000+00:00</time>
      </trkpt>
      <trkpt lat="48.874232" lon="10.722562">
        <ele>452.79</ele>
        <time>2026-09-01T00:00:00.0000000+00:00</time>
      </trkpt>
      <trkpt lat="48.874176" lon="10.722543">
        <ele>453.03</ele>
        <time>2026-09-01T00:00:00.0000000+00:00</time>
      </trkpt>
      <trkpt lat="48.873973" lon="10.722473">
        <ele>453.92</ele>
        <time>2026-09-01T00:00:00.0000000+00:00</time>
      </trkpt>
      <trkpt lat="48.873767" lon="10.722439">
        <ele>454.93</ele>
        <time>2026-09-01T00:00:00.0000000+00:00</time>
      </trkpt>
      <trkpt lat="48.873593" lon="10.722427">
        <ele>455.83</ele>
        <time>2026-09-01T00:00:00.0000000+00:00</time>
      </trkpt>
      <trkpt lat="48.873573" lon="10.722425">
        <ele>455.93</ele>
        <time>2026-09-01T00:00:00.0000000+00:00</time>
      </trkpt>
      <trkpt lat="48.873501" lon="10.72242">
        <ele>456.3</ele>
        <time>2026-09-01T00:00:00.0000000+00:00</time>
      </trkpt>
      <trkpt lat="48.873298" lon="10.722384">
        <ele>457.02</ele>
        <time>2026-09-01T00:00:00.0000000+00:00</time>
      </trkpt>
      <trkpt lat="48.87311" lon="10.722287">
        <ele>457.44</ele>
        <time>2026-09-01T00:00:00.0000000+00:00</time>
      </trkpt>
      <trkpt lat="48.873012" lon="10.72224">
        <ele>457.65</ele>
        <time>2026-09-01T00:00:00.0000000+00:00</time>
      </trkpt>
      <trkpt lat="48.872978" lon="10.722229">
        <ele>457.72</ele>
        <time>2026-09-01T00:00:00.0000000+00:00</time>
      </trkpt>
      <trkpt lat="48.872978" lon="10.722229">
        <ele>457.72</ele>
        <time>2026-09-01T00:00:00.0000000+00:00</time>
      </trkpt>
      <trkpt lat="48.872978" lon="10.722229">
        <ele>457.72</ele>
        <time>2026-09-01T00:00:00.0000000+00:00</time>
      </trkpt>
      <trkpt lat="48.872978" lon="10.722229">
        <ele>457.72</ele>
        <time>2026-09-01T00:00:00.0000000+00:00</time>
      </trkpt>
      <trkpt lat="48.872845" lon="10.722198">
        <ele>458.04</ele>
        <time>2026-09-01T00:00:00.0000000+00:00</time>
      </trkpt>
      <trkpt lat="48.872776" lon="10.722189">
        <ele>458.22</ele>
        <time>2026-09-01T00:00:00.0000000+00:00</time>
      </trkpt>
      <trkpt lat="48.872472" lon="10.722139">
        <ele>458.58</ele>
        <time>2026-09-01T00:00:00.0000000+00:00</time>
      </trkpt>
      <trkpt lat="48.872472" lon="10.722139">
        <ele>458.58</ele>
        <time>2026-09-01T00:00:00.0000000+00:00</time>
      </trkpt>
      <trkpt lat="48.872424" lon="10.722131">
        <ele>458.56</ele>
        <time>2026-09-01T00:00:00.0000000+00:00</time>
      </trkpt>
      <trkpt lat="48.87244" lon="10.72201">
        <ele>458.27</ele>
        <time>2026-09-01T00:00:00.0000000+00:00</time>
      </trkpt>
      <trkpt lat="48.872543" lon="10.721346">
        <ele>456.62</ele>
        <time>2026-09-01T00:00:00.0000000+00:00</time>
      </trkpt>
      <trkpt lat="48.872701" lon="10.720606">
        <ele>454</ele>
        <time>2026-09-01T00:00:00.0000000+00:00</time>
      </trkpt>
      <trkpt lat="48.872745" lon="10.720417">
        <ele>453.16</ele>
        <time>2026-09-01T00:00:00.0000000+00:00</time>
      </trkpt>
      <trkpt lat="48.872765" lon="10.720333">
        <ele>452.79</ele>
        <time>2026-09-01T00:00:00.0000000+00:00</time>
      </trkpt>
      <trkpt lat="48.872797" lon="10.720196">
        <ele>452.2</ele>
        <time>2026-09-01T00:00:00.0000000+00:00</time>
      </trkpt>
      <trkpt lat="48.872815" lon="10.720119">
        <ele>451.91</ele>
        <time>2026-09-01T00:00:00.0000000+00:00</time>
      </trkpt>
      <trkpt lat="48.872815" lon="10.720119">
        <ele>451.91</ele>
        <time>2026-09-01T00:00:00.0000000+00:00</time>
      </trkpt>
      <trkpt lat="48.872849" lon="10.719963">
        <ele>451.34</ele>
        <time>2026-09-01T00:00:00.0000000+00:00</time>
      </trkpt>
      <trkpt lat="48.872799" lon="10.719945">
        <ele>451.43</ele>
        <time>2026-09-01T00:00:00.0000000+00:00</time>
      </trkpt>
      <trkpt lat="48.872772" lon="10.719938">
        <ele>451.48</ele>
        <time>2026-09-01T00:00:00.0000000+00:00</time>
      </trkpt>
      <trkpt lat="48.872772" lon="10.719938">
        <ele>451.48</ele>
        <time>2026-09-01T00:00:00.0000000+00:00</time>
      </trkpt>
      <trkpt lat="48.872772" lon="10.719938">
        <ele>451.48</ele>
        <time>2026-09-01T00:00:00.0000000+00:00</time>
      </trkpt>
      <trkpt lat="48.872798" lon="10.719944">
        <ele>451.43</ele>
        <time>2026-09-01T00:00:00.0000000+00:00</time>
      </trkpt>
      <trkpt lat="48.872798" lon="10.719944">
        <ele>451.43</ele>
        <time>2026-09-01T00:00:00.0000000+00:00</time>
      </trkpt>
      <trkpt lat="48.872798" lon="10.719944">
        <ele>451.43</ele>
        <time>2026-09-01T00:00:00.0000000+00:00</time>
      </trkpt>
      <trkpt lat="48.872798" lon="10.719944">
        <ele>451.43</ele>
        <time>2026-09-01T00:00:00.0000000+00:00</time>
      </trkpt>
      <trkpt lat="48.872798" lon="10.719944">
        <ele>451.43</ele>
        <time>2026-09-01T00:00:00.0000000+00:00</time>
      </trkpt>
      <trkpt lat="48.872798" lon="10.719944">
        <ele>451.43</ele>
        <time>2026-09-01T00:00:00.0000000+00:00</time>
      </trkpt>
      <trkpt lat="48.872642" lon="10.719905">
        <ele>451.72</ele>
        <time>2026-09-01T00:00:00.0000000+00:00</time>
      </trkpt>
      <trkpt lat="48.872275" lon="10.7198">
        <ele>451.44</ele>
        <time>2026-09-01T00:00:00.0000000+00:00</time>
      </trkpt>
      <trkpt lat="48.872091" lon="10.719744">
        <ele>451.24</ele>
        <time>2026-09-01T00:00:00.0000000+00:00</time>
      </trkpt>
      <trkpt lat="48.871994" lon="10.719679">
        <ele>451</ele>
        <time>2026-09-01T00:00:00.0000000+00:00</time>
      </trkpt>
      <trkpt lat="48.871804" lon="10.719533">
        <ele>450.48</ele>
        <time>2026-09-01T00:00:00.0000000+00:00</time>
      </trkpt>
      <trkpt lat="48.871695" lon="10.719382">
        <ele>450</ele>
        <time>2026-09-01T00:00:00.0000000+00:00</time>
      </trkpt>
      <trkpt lat="48.871683" lon="10.71936">
        <ele>449.99</ele>
        <time>2026-09-01T00:00:00.0000000+00:00</time>
      </trkpt>
      <trkpt lat="48.871683" lon="10.71936">
        <ele>449.99</ele>
        <time>2026-09-01T00:00:00.0000000+00:00</time>
      </trkpt>
      <trkpt lat="48.871683" lon="10.71936">
        <ele>449.99</ele>
        <time>2026-09-01T00:00:00.0000000+00:00</time>
      </trkpt>
      <trkpt lat="48.87164" lon="10.719282">
        <ele>449.98</ele>
        <time>2026-09-01T00:00:00.0000000+00:00</time>
      </trkpt>
      <trkpt lat="48.87164" lon="10.719282">
        <ele>449.98</ele>
        <time>2026-09-01T00:00:00.0000000+00:00</time>
      </trkpt>
      <trkpt lat="48.87161" lon="10.71923">
        <ele>449.96</ele>
        <time>2026-09-01T00:00:00.0000000+00:00</time>
      </trkpt>
      <trkpt lat="48.871537" lon="10.719081">
        <ele>449.89</ele>
        <time>2026-09-01T00:00:00.0000000+00:00</time>
      </trkpt>
      <trkpt lat="48.871537" lon="10.719081">
        <ele>449.89</ele>
        <time>2026-09-01T00:00:00.0000000+00:00</time>
      </trkpt>
      <trkpt lat="48.871537" lon="10.719081">
        <ele>449.89</ele>
        <time>2026-09-01T00:00:00.0000000+00:00</time>
      </trkpt>
      <trkpt lat="48.871454" lon="10.718867">
        <ele>449.75</ele>
        <time>2026-09-01T00:00:00.0000000+00:00</time>
      </trkpt>
      <trkpt lat="48.871254" lon="10.718424">
        <ele>448.86</ele>
        <time>2026-09-01T00:00:00.0000000+00:00</time>
      </trkpt>
      <trkpt lat="48.871254" lon="10.718424">
        <ele>448.86</ele>
        <time>2026-09-01T00:00:00.0000000+00:00</time>
      </trkpt>
      <trkpt lat="48.870738" lon="10.717797">
        <ele>446.2</ele>
        <time>2026-09-01T00:00:00.0000000+00:00</time>
      </trkpt>
      <trkpt lat="48.870738" lon="10.717797">
        <ele>446.2</ele>
        <time>2026-09-01T00:00:00.0000000+00:00</time>
      </trkpt>
      <trkpt lat="48.87068" lon="10.717737">
        <ele>446.01</ele>
        <time>2026-09-01T00:00:00.0000000+00:00</time>
      </trkpt>
      <trkpt lat="48.870583" lon="10.717702">
        <ele>445.91</ele>
        <time>2026-09-01T00:00:00.0000000+00:00</time>
      </trkpt>
      <trkpt lat="48.870562" lon="10.7177">
        <ele>445.9</ele>
        <time>2026-09-01T00:00:00.0000000+00:00</time>
      </trkpt>
      <trkpt lat="48.870562" lon="10.7177">
        <ele>445.9</ele>
        <time>2026-09-01T00:00:00.0000000+00:00</time>
      </trkpt>
      <trkpt lat="48.870556" lon="10.717674">
        <ele>445.82</ele>
        <time>2026-09-01T00:00:00.0000000+00:00</time>
      </trkpt>
      <trkpt lat="48.870545" lon="10.717622">
        <ele>445.67</ele>
        <time>2026-09-01T00:00:00.0000000+00:00</time>
      </trkpt>
      <trkpt lat="48.870469" lon="10.717258">
        <ele>444.45</ele>
        <time>2026-09-01T00:00:00.0000000+00:00</time>
      </trkpt>
      <trkpt lat="48.870469" lon="10.717258">
        <ele>444.45</ele>
        <time>2026-09-01T00:00:00.0000000+00:00</time>
      </trkpt>
      <trkpt lat="48.870421" lon="10.717065">
        <ele>443.69</ele>
        <time>2026-09-01T00:00:00.0000000+00:00</time>
      </trkpt>
      <trkpt lat="48.870339" lon="10.716741">
        <ele>442.78</ele>
        <time>2026-09-01T00:00:00.0000000+00:00</time>
      </trkpt>
      <trkpt lat="48.870209" lon="10.716242">
        <ele>442.27</ele>
        <time>2026-09-01T00:00:00.0000000+00:00</time>
      </trkpt>
      <trkpt lat="48.87005" lon="10.715664">
        <ele>442</ele>
        <time>2026-09-01T00:00:00.0000000+00:00</time>
      </trkpt>
      <trkpt lat="48.869956" lon="10.715324">
        <ele>442</ele>
        <time>2026-09-01T00:00:00.0000000+00:00</time>
      </trkpt>
      <trkpt lat="48.869956" lon="10.715324">
        <ele>442</ele>
        <time>2026-09-01T00:00:00.0000000+00:00</time>
      </trkpt>
      <trkpt lat="48.869934" lon="10.715245">
        <ele>442</ele>
        <time>2026-09-01T00:00:00.0000000+00:00</time>
      </trkpt>
      <trkpt lat="48.869876" lon="10.715036">
        <ele>441.69</ele>
        <time>2026-09-01T00:00:00.0000000+00:00</time>
      </trkpt>
      <trkpt lat="48.869876" lon="10.715036">
        <ele>441.69</ele>
        <time>2026-09-01T00:00:00.0000000+00:00</time>
      </trkpt>
      <trkpt lat="48.869876" lon="10.715036">
        <ele>441.69</ele>
        <time>2026-09-01T00:00:00.0000000+00:00</time>
      </trkpt>
      <trkpt lat="48.869876" lon="10.715036">
        <ele>441.69</ele>
        <time>2026-09-01T00:00:00.0000000+00:00</time>
      </trkpt>
      <trkpt lat="48.869846" lon="10.714925">
        <ele>441.51</ele>
        <time>2026-09-01T00:00:00.0000000+00:00</time>
      </trkpt>
      <trkpt lat="48.869827" lon="10.714856">
        <ele>441.39</ele>
        <time>2026-09-01T00:00:00.0000000+00:00</time>
      </trkpt>
      <trkpt lat="48.869827" lon="10.714856">
        <ele>441.39</ele>
        <time>2026-09-01T00:00:00.0000000+00:00</time>
      </trkpt>
      <trkpt lat="48.869827" lon="10.714856">
        <ele>441.39</ele>
        <time>2026-09-01T00:00:00.0000000+00:00</time>
      </trkpt>
      <trkpt lat="48.869827" lon="10.714856">
        <ele>441.39</ele>
        <time>2026-09-01T00:00:00.0000000+00:00</time>
      </trkpt>
      <trkpt lat="48.869753" lon="10.714549">
        <ele>440.82</ele>
        <time>2026-09-01T00:00:00.0000000+00:00</time>
      </trkpt>
      <trkpt lat="48.869753" lon="10.714549">
        <ele>440.82</ele>
        <time>2026-09-01T00:00:00.0000000+00:00</time>
      </trkpt>
      <trkpt lat="48.869718" lon="10.714404">
        <ele>440.53</ele>
        <time>2026-09-01T00:00:00.0000000+00:00</time>
      </trkpt>
      <trkpt lat="48.869718" lon="10.714404">
        <ele>440.53</ele>
        <time>2026-09-01T00:00:00.0000000+00:00</time>
      </trkpt>
      <trkpt lat="48.869718" lon="10.714404">
        <ele>440.53</ele>
        <time>2026-09-01T00:00:00.0000000+00:00</time>
      </trkpt>
      <trkpt lat="48.8697" lon="10.714328">
        <ele>440.42</ele>
        <time>2026-09-01T00:00:00.0000000+00:00</time>
      </trkpt>
      <trkpt lat="48.869648" lon="10.714112">
        <ele>440.13</ele>
        <time>2026-09-01T00:00:00.0000000+00:00</time>
      </trkpt>
      <trkpt lat="48.869493" lon="10.713595">
        <ele>439.75</ele>
        <time>2026-09-01T00:00:00.0000000+00:00</time>
      </trkpt>
      <trkpt lat="48.869422" lon="10.713362">
        <ele>439.87</ele>
        <time>2026-09-01T00:00:00.0000000+00:00</time>
      </trkpt>
      <trkpt lat="48.869199" lon="10.712522">
        <ele>439.7</ele>
        <time>2026-09-01T00:00:00.0000000+00:00</time>
      </trkpt>
      <trkpt lat="48.868966" lon="10.711666">
        <ele>438.33</ele>
        <time>2026-09-01T00:00:00.0000000+00:00</time>
      </trkpt>
      <trkpt lat="48.868755" lon="10.710875">
        <ele>436.8</ele>
        <time>2026-09-01T00:00:00.0000000+00:00</time>
      </trkpt>
      <trkpt lat="48.868633" lon="10.710423">
        <ele>435.72</ele>
        <time>2026-09-01T00:00:00.0000000+00:00</time>
      </trkpt>
      <trkpt lat="48.868536" lon="10.710062">
        <ele>434.98</ele>
        <time>2026-09-01T00:00:00.0000000+00:00</time>
      </trkpt>
      <trkpt lat="48.868273" lon="10.709079">
        <ele>432.55</ele>
        <time>2026-09-01T00:00:00.0000000+00:00</time>
      </trkpt>
      <trkpt lat="48.868058" lon="10.708216">
        <ele>430.64</ele>
        <time>2026-09-01T00:00:00.0000000+00:00</time>
      </trkpt>
      <trkpt lat="48.867849" lon="10.707415">
        <ele>429.57</ele>
        <time>2026-09-01T00:00:00.0000000+00:00</time>
      </trkpt>
      <trkpt lat="48.867585" lon="10.706462">
        <ele>429.01</ele>
        <time>2026-09-01T00:00:00.0000000+00:00</time>
      </trkpt>
      <trkpt lat="48.86722" lon="10.70509">
        <ele>429.34</ele>
        <time>2026-09-01T00:00:00.0000000+00:00</time>
      </trkpt>
      <trkpt lat="48.866934" lon="10.70412">
        <ele>428.06</ele>
        <time>2026-09-01T00:00:00.0000000+00:00</time>
      </trkpt>
      <trkpt lat="48.866494" lon="10.702779">
        <ele>426.71</ele>
        <time>2026-09-01T00:00:00.0000000+00:00</time>
      </trkpt>
      <trkpt lat="48.866352" lon="10.702417">
        <ele>426.09</ele>
        <time>2026-09-01T00:00:00.0000000+00:00</time>
      </trkpt>
      <trkpt lat="48.866024" lon="10.701492">
        <ele>425.55</ele>
        <time>2026-09-01T00:00:00.0000000+00:00</time>
      </trkpt>
      <trkpt lat="48.865782" lon="10.700473">
        <ele>425.8</ele>
        <time>2026-09-01T00:00:00.0000000+00:00</time>
      </trkpt>
      <trkpt lat="48.865567" lon="10.699581">
        <ele>425.91</ele>
        <time>2026-09-01T00:00:00.0000000+00:00</time>
      </trkpt>
      <trkpt lat="48.865401" lon="10.698809">
        <ele>424.79</ele>
        <time>2026-09-01T00:00:00.0000000+00:00</time>
      </trkpt>
      <trkpt lat="48.86514" lon="10.697752">
        <ele>423</ele>
        <time>2026-09-01T00:00:00.0000000+00:00</time>
      </trkpt>
      <trkpt lat="48.865006" lon="10.697071">
        <ele>423.02</ele>
        <time>2026-09-01T00:00:00.0000000+00:00</time>
      </trkpt>
      <trkpt lat="48.86489" lon="10.696475">
        <ele>422.75</ele>
        <time>2026-09-01T00:00:00.0000000+00:00</time>
      </trkpt>
      <trkpt lat="48.864762" lon="10.695788">
        <ele>422.75</ele>
        <time>2026-09-01T00:00:00.0000000+00:00</time>
      </trkpt>
      <trkpt lat="48.864642" lon="10.695114">
        <ele>422.19</ele>
        <time>2026-09-01T00:00:00.0000000+00:00</time>
      </trkpt>
      <trkpt lat="48.86461" lon="10.694935">
        <ele>421.86</ele>
        <time>2026-09-01T00:00:00.0000000+00:00</time>
      </trkpt>
      <trkpt lat="48.864576" lon="10.694746">
        <ele>421.53</ele>
        <time>2026-09-01T00:00:00.0000000+00:00</time>
      </trkpt>
      <trkpt lat="48.864576" lon="10.694746">
        <ele>421.53</ele>
        <time>2026-09-01T00:00:00.0000000+00:00</time>
      </trkpt>
      <trkpt lat="48.864539" lon="10.694592">
        <ele>421.27</ele>
        <time>2026-09-01T00:00:00.0000000+00:00</time>
      </trkpt>
      <trkpt lat="48.864382" lon="10.69418">
        <ele>420.78</ele>
        <time>2026-09-01T00:00:00.0000000+00:00</time>
      </trkpt>
      <trkpt lat="48.864346" lon="10.694078">
        <ele>420.65</ele>
        <time>2026-09-01T00:00:00.0000000+00:00</time>
      </trkpt>
      <trkpt lat="48.864004" lon="10.693317">
        <ele>420.66</ele>
        <time>2026-09-01T00:00:00.0000000+00:00</time>
      </trkpt>
      <trkpt lat="48.863694" lon="10.692577">
        <ele>420.08</ele>
        <time>2026-09-01T00:00:00.0000000+00:00</time>
      </trkpt>
      <trkpt lat="48.863533" lon="10.692351">
        <ele>419.62</ele>
        <time>2026-09-01T00:00:00.0000000+00:00</time>
      </trkpt>
      <trkpt lat="48.863326" lon="10.692091">
        <ele>419.35</ele>
        <time>2026-09-01T00:00:00.0000000+00:00</time>
      </trkpt>
      <trkpt lat="48.863155" lon="10.691837">
        <ele>419.31</ele>
        <time>2026-09-01T00:00:00.0000000+00:00</time>
      </trkpt>
      <trkpt lat="48.862985" lon="10.691447">
        <ele>419.24</ele>
        <time>2026-09-01T00:00:00.0000000+00:00</time>
      </trkpt>
      <trkpt lat="48.862819" lon="10.691105">
        <ele>419.01</ele>
        <time>2026-09-01T00:00:00.0000000+00:00</time>
      </trkpt>
      <trkpt lat="48.86259" lon="10.690564">
        <ele>419.03</ele>
        <time>2026-09-01T00:00:00.0000000+00:00</time>
      </trkpt>
      <trkpt lat="48.862392" lon="10.690118">
        <ele>419.35</ele>
        <time>2026-09-01T00:00:00.0000000+00:00</time>
      </trkpt>
      <trkpt lat="48.862185" lon="10.689584">
        <ele>419.49</ele>
        <time>2026-09-01T00:00:00.0000000+00:00</time>
      </trkpt>
      <trkpt lat="48.862078" lon="10.689235">
        <ele>419.27</ele>
        <time>2026-09-01T00:00:00.0000000+00:00</time>
      </trkpt>
      <trkpt lat="48.861956" lon="10.688673">
        <ele>419.02</ele>
        <time>2026-09-01T00:00:00.0000000+00:00</time>
      </trkpt>
      <trkpt lat="48.861893" lon="10.688289">
        <ele>419.36</ele>
        <time>2026-09-01T00:00:00.0000000+00:00</time>
      </trkpt>
      <trkpt lat="48.861862" lon="10.687844">
        <ele>419.9</ele>
        <time>2026-09-01T00:00:00.0000000+00:00</time>
      </trkpt>
      <trkpt lat="48.861795" lon="10.68696">
        <ele>419.04</ele>
        <time>2026-09-01T00:00:00.0000000+00:00</time>
      </trkpt>
      <trkpt lat="48.86175" lon="10.686309">
        <ele>419.64</ele>
        <time>2026-09-01T00:00:00.0000000+00:00</time>
      </trkpt>
      <trkpt lat="48.861615" lon="10.685186">
        <ele>418.73</ele>
        <time>2026-09-01T00:00:00.0000000+00:00</time>
      </trkpt>
      <trkpt lat="48.861516" lon="10.68472">
        <ele>418.24</ele>
        <time>2026-09-01T00:00:00.0000000+00:00</time>
      </trkpt>
      <trkpt lat="48.861516" lon="10.684706">
        <ele>418.23</ele>
        <time>2026-09-01T00:00:00.0000000+00:00</time>
      </trkpt>
      <trkpt lat="48.861471" lon="10.684398">
        <ele>418</ele>
        <time>2026-09-01T00:00:00.0000000+00:00</time>
      </trkpt>
      <trkpt lat="48.861283" lon="10.683549">
        <ele>417.39</ele>
        <time>2026-09-01T00:00:00.0000000+00:00</time>
      </trkpt>
      <trkpt lat="48.861134" lon="10.683048">
        <ele>419.01</ele>
        <time>2026-09-01T00:00:00.0000000+00:00</time>
      </trkpt>
      <trkpt lat="48.860937" lon="10.682288">
        <ele>420.51</ele>
        <time>2026-09-01T00:00:00.0000000+00:00</time>
      </trkpt>
      <trkpt lat="48.860766" lon="10.681582">
        <ele>418.62</ele>
        <time>2026-09-01T00:00:00.0000000+00:00</time>
      </trkpt>
      <trkpt lat="48.860595" lon="10.680794">
        <ele>415.94</ele>
        <time>2026-09-01T00:00:00.0000000+00:00</time>
      </trkpt>
      <trkpt lat="48.860402" lon="10.679863">
        <ele>415.66</ele>
        <time>2026-09-01T00:00:00.0000000+00:00</time>
      </trkpt>
      <trkpt lat="48.860182" lon="10.678787">
        <ele>414.51</ele>
        <time>2026-09-01T00:00:00.0000000+00:00</time>
      </trkpt>
      <trkpt lat="48.859976" lon="10.677787">
        <ele>413.19</ele>
        <time>2026-09-01T00:00:00.0000000+00:00</time>
      </trkpt>
      <trkpt lat="48.859702" lon="10.676485">
        <ele>421.29</ele>
        <time>2026-09-01T00:00:00.0000000+00:00</time>
      </trkpt>
      <trkpt lat="48.859576" lon="10.675869">
        <ele>424.7</ele>
        <time>2026-09-01T00:00:00.0000000+00:00</time>
      </trkpt>
      <trkpt lat="48.859576" lon="10.675856">
        <ele>424.73</ele>
        <time>2026-09-01T00:00:00.0000000+00:00</time>
      </trkpt>
      <trkpt lat="48.859522" lon="10.675609">
        <ele>425.3</ele>
        <time>2026-09-01T00:00:00.0000000+00:00</time>
      </trkpt>
      <trkpt lat="48.85945" lon="10.675102">
        <ele>425.88</ele>
        <time>2026-09-01T00:00:00.0000000+00:00</time>
      </trkpt>
      <trkpt lat="48.859432" lon="10.674547">
        <ele>424.85</ele>
        <time>2026-09-01T00:00:00.0000000+00:00</time>
      </trkpt>
      <trkpt lat="48.859437" lon="10.674061">
        <ele>425.12</ele>
        <time>2026-09-01T00:00:00.0000000+00:00</time>
      </trkpt>
      <trkpt lat="48.859468" lon="10.673622">
        <ele>425.43</ele>
        <time>2026-09-01T00:00:00.0000000+00:00</time>
      </trkpt>
      <trkpt lat="48.859455" lon="10.673287">
        <ele>426.09</ele>
        <time>2026-09-01T00:00:00.0000000+00:00</time>
      </trkpt>
      <trkpt lat="48.85936" lon="10.672848">
        <ele>427.93</ele>
        <time>2026-09-01T00:00:00.0000000+00:00</time>
      </trkpt>
      <trkpt lat="48.859239" lon="10.672382">
        <ele>427.93</ele>
        <time>2026-09-01T00:00:00.0000000+00:00</time>
      </trkpt>
      <trkpt lat="48.859145" lon="10.672026">
        <ele>426.53</ele>
        <time>2026-09-01T00:00:00.0000000+00:00</time>
      </trkpt>
      <trkpt lat="48.85901" lon="10.671602">
        <ele>426.12</ele>
        <time>2026-09-01T00:00:00.0000000+00:00</time>
      </trkpt>
      <trkpt lat="48.858916" lon="10.671184">
        <ele>426.64</ele>
        <time>2026-09-01T00:00:00.0000000+00:00</time>
      </trkpt>
      <trkpt lat="48.858889" lon="10.671019">
        <ele>426.78</ele>
        <time>2026-09-01T00:00:00.0000000+00:00</time>
      </trkpt>
      <trkpt lat="48.858875" lon="10.670718">
        <ele>427.01</ele>
        <time>2026-09-01T00:00:00.0000000+00:00</time>
      </trkpt>
      <trkpt lat="48.858934" lon="10.67041">
        <ele>427.63</ele>
        <time>2026-09-01T00:00:00.0000000+00:00</time>
      </trkpt>
      <trkpt lat="48.858952" lon="10.669772">
        <ele>427.8</ele>
        <time>2026-09-01T00:00:00.0000000+00:00</time>
      </trkpt>
      <trkpt lat="48.858862" lon="10.669197">
        <ele>427.72</ele>
        <time>2026-09-01T00:00:00.0000000+00:00</time>
      </trkpt>
      <trkpt lat="48.858768" lon="10.668813">
        <ele>427.3</ele>
        <time>2026-09-01T00:00:00.0000000+00:00</time>
      </trkpt>
      <trkpt lat="48.858543" lon="10.668121">
        <ele>427.46</ele>
        <time>2026-09-01T00:00:00.0000000+00:00</time>
      </trkpt>
      <trkpt lat="48.858435" lon="10.667758">
        <ele>428.11</ele>
        <time>2026-09-01T00:00:00.0000000+00:00</time>
      </trkpt>
      <trkpt lat="48.858157" lon="10.6671">
        <ele>431.03</ele>
        <time>2026-09-01T00:00:00.0000000+00:00</time>
      </trkpt>
      <trkpt lat="48.85795" lon="10.666635">
        <ele>430.58</ele>
        <time>2026-09-01T00:00:00.0000000+00:00</time>
      </trkpt>
      <trkpt lat="48.857883" lon="10.666436">
        <ele>429.87</ele>
        <time>2026-09-01T00:00:00.0000000+00:00</time>
      </trkpt>
      <trkpt lat="48.857838" lon="10.666162">
        <ele>428.94</ele>
        <time>2026-09-01T00:00:00.0000000+00:00</time>
      </trkpt>
      <trkpt lat="48.857806" lon="10.665923">
        <ele>428.15</ele>
        <time>2026-09-01T00:00:00.0000000+00:00</time>
      </trkpt>
      <trkpt lat="48.857815" lon="10.665607">
        <ele>427.32</ele>
        <time>2026-09-01T00:00:00.0000000+00:00</time>
      </trkpt>
      <trkpt lat="48.857829" lon="10.665327">
        <ele>426.65</ele>
        <time>2026-09-01T00:00:00.0000000+00:00</time>
      </trkpt>
      <trkpt lat="48.857806" lon="10.664367">
        <ele>424.17</ele>
        <time>2026-09-01T00:00:00.0000000+00:00</time>
      </trkpt>
      <trkpt lat="48.857761" lon="10.663189">
        <ele>424.11</ele>
        <time>2026-09-01T00:00:00.0000000+00:00</time>
      </trkpt>
      <trkpt lat="48.857761" lon="10.663011">
        <ele>424.85</ele>
        <time>2026-09-01T00:00:00.0000000+00:00</time>
      </trkpt>
      <trkpt lat="48.857829" lon="10.662079">
        <ele>423.54</ele>
        <time>2026-09-01T00:00:00.0000000+00:00</time>
      </trkpt>
      <trkpt lat="48.857878" lon="10.661106">
        <ele>417.45</ele>
        <time>2026-09-01T00:00:00.0000000+00:00</time>
      </trkpt>
      <trkpt lat="48.857883" lon="10.660729">
        <ele>415.09</ele>
        <time>2026-09-01T00:00:00.0000000+00:00</time>
      </trkpt>
      <trkpt lat="48.85786" lon="10.660024">
        <ele>411.85</ele>
        <time>2026-09-01T00:00:00.0000000+00:00</time>
      </trkpt>
      <trkpt lat="48.85782" lon="10.659538">
        <ele>410.7</ele>
        <time>2026-09-01T00:00:00.0000000+00:00</time>
      </trkpt>
      <trkpt lat="48.857708" lon="10.658873">
        <ele>410.83</ele>
        <time>2026-09-01T00:00:00.0000000+00:00</time>
      </trkpt>
      <trkpt lat="48.857636" lon="10.658606">
        <ele>411.02</ele>
        <time>2026-09-01T00:00:00.0000000+00:00</time>
      </trkpt>
      <trkpt lat="48.857317" lon="10.657407">
        <ele>411.16</ele>
        <time>2026-09-01T00:00:00.0000000+00:00</time>
      </trkpt>
      <trkpt lat="48.856998" lon="10.656236">
        <ele>411.1</ele>
        <time>2026-09-01T00:00:00.0000000+00:00</time>
      </trkpt>
      <trkpt lat="48.856881" lon="10.655832">
        <ele>411.04</ele>
        <time>2026-09-01T00:00:00.0000000+00:00</time>
      </trkpt>
      <trkpt lat="48.85672" lon="10.655154">
        <ele>410.97</ele>
        <time>2026-09-01T00:00:00.0000000+00:00</time>
      </trkpt>
      <trkpt lat="48.856544" lon="10.654427">
        <ele>410.41</ele>
        <time>2026-09-01T00:00:00.0000000+00:00</time>
      </trkpt>
      <trkpt lat="48.856419" lon="10.653879">
        <ele>409.81</ele>
        <time>2026-09-01T00:00:00.0000000+00:00</time>
      </trkpt>
      <trkpt lat="48.856136" lon="10.652673">
        <ele>409.33</ele>
        <time>2026-09-01T00:00:00.0000000+00:00</time>
      </trkpt>
      <trkpt lat="48.855844" lon="10.651385">
        <ele>410.64</ele>
        <time>2026-09-01T00:00:00.0000000+00:00</time>
      </trkpt>
      <trkpt lat="48.855646" lon="10.650515">
        <ele>409.9</ele>
        <time>2026-09-01T00:00:00.0000000+00:00</time>
      </trkpt>
      <trkpt lat="48.855363" lon="10.649248">
        <ele>409.29</ele>
        <time>2026-09-01T00:00:00.0000000+00:00</time>
      </trkpt>
      <trkpt lat="48.855058" lon="10.647878">
        <ele>409.83</ele>
        <time>2026-09-01T00:00:00.0000000+00:00</time>
      </trkpt>
      <trkpt lat="48.85495" lon="10.647433">
        <ele>411.01</ele>
        <time>2026-09-01T00:00:00.0000000+00:00</time>
      </trkpt>
      <trkpt lat="48.854802" lon="10.646981">
        <ele>412.17</ele>
        <time>2026-09-01T00:00:00.0000000+00:00</time>
      </trkpt>
      <trkpt lat="48.854716" lon="10.646748">
        <ele>412.03</ele>
        <time>2026-09-01T00:00:00.0000000+00:00</time>
      </trkpt>
      <trkpt lat="48.854636" lon="10.646481">
        <ele>411.84</ele>
        <time>2026-09-01T00:00:00.0000000+00:00</time>
      </trkpt>
      <trkpt lat="48.85442" lon="10.645843">
        <ele>410.69</ele>
        <time>2026-09-01T00:00:00.0000000+00:00</time>
      </trkpt>
      <trkpt lat="48.854213" lon="10.645261">
        <ele>408.88</ele>
        <time>2026-09-01T00:00:00.0000000+00:00</time>
      </trkpt>
      <trkpt lat="48.854083" lon="10.64485">
        <ele>408.48</ele>
        <time>2026-09-01T00:00:00.0000000+00:00</time>
      </trkpt>
      <trkpt lat="48.853935" lon="10.644391">
        <ele>408.49</ele>
        <time>2026-09-01T00:00:00.0000000+00:00</time>
      </trkpt>
      <trkpt lat="48.853845" lon="10.644117">
        <ele>408.7</ele>
        <time>2026-09-01T00:00:00.0000000+00:00</time>
      </trkpt>
      <trkpt lat="48.853782" lon="10.643926">
        <ele>408.72</ele>
        <time>2026-09-01T00:00:00.0000000+00:00</time>
      </trkpt>
      <trkpt lat="48.853687" lon="10.643728">
        <ele>408.58</ele>
        <time>2026-09-01T00:00:00.0000000+00:00</time>
      </trkpt>
      <trkpt lat="48.85363" lon="10.643821">
        <ele>408.5</ele>
        <time>2026-09-01T00:00:00.0000000+00:00</time>
      </trkpt>
      <trkpt lat="48.85363" lon="10.643821">
        <ele>408.5</ele>
        <time>2026-09-01T00:00:00.0000000+00:00</time>
      </trkpt>
      <trkpt lat="48.85363" lon="10.643821">
        <ele>408.5</ele>
        <time>2026-09-01T00:00:00.0000000+00:00</time>
      </trkpt>
      <trkpt lat="48.85363" lon="10.643821">
        <ele>408.5</ele>
        <time>2026-09-01T00:00:00.0000000+00:00</time>
      </trkpt>
      <trkpt lat="48.853524" lon="10.643944">
        <ele>408.45</ele>
        <time>2026-09-01T00:00:00.0000000+00:00</time>
      </trkpt>
      <trkpt lat="48.853386" lon="10.644075">
        <ele>408.5</ele>
        <time>2026-09-01T00:00:00.0000000+00:00</time>
      </trkpt>
      <trkpt lat="48.853386" lon="10.644075">
        <ele>408.5</ele>
        <time>2026-09-01T00:00:00.0000000+00:00</time>
      </trkpt>
      <trkpt lat="48.852765" lon="10.644592">
        <ele>408.85</ele>
        <time>2026-09-01T00:00:00.0000000+00:00</time>
      </trkpt>
      <trkpt lat="48.852457" lon="10.644851">
        <ele>408.64</ele>
        <time>2026-09-01T00:00:00.0000000+00:00</time>
      </trkpt>
      <trkpt lat="48.852457" lon="10.644851">
        <ele>408.64</ele>
        <time>2026-09-01T00:00:00.0000000+00:00</time>
      </trkpt>
      <trkpt lat="48.852457" lon="10.644851">
        <ele>408.64</ele>
        <time>2026-09-01T00:00:00.0000000+00:00</time>
      </trkpt>
      <trkpt lat="48.852457" lon="10.644851">
        <ele>408.64</ele>
        <time>2026-09-01T00:00:00.0000000+00:00</time>
      </trkpt>
      <trkpt lat="48.852325" lon="10.644958">
        <ele>408.55</ele>
        <time>2026-09-01T00:00:00.0000000+00:00</time>
      </trkpt>
      <trkpt lat="48.851601" lon="10.645521">
        <ele>408</ele>
        <time>2026-09-01T00:00:00.0000000+00:00</time>
      </trkpt>
      <trkpt lat="48.851117" lon="10.645891">
        <ele>408</ele>
        <time>2026-09-01T00:00:00.0000000+00:00</time>
      </trkpt>
      <trkpt lat="48.850893" lon="10.646019">
        <ele>407.87</ele>
        <time>2026-09-01T00:00:00.0000000+00:00</time>
      </trkpt>
      <trkpt lat="48.850728" lon="10.646071">
        <ele>407.49</ele>
        <time>2026-09-01T00:00:00.0000000+00:00</time>
      </trkpt>
      <trkpt lat="48.850501" lon="10.646101">
        <ele>406.94</ele>
        <time>2026-09-01T00:00:00.0000000+00:00</time>
      </trkpt>
      <trkpt lat="48.850284" lon="10.64609">
        <ele>406.46</ele>
        <time>2026-09-01T00:00:00.0000000+00:00</time>
      </trkpt>
      <trkpt lat="48.850284" lon="10.64609">
        <ele>406.46</ele>
        <time>2026-09-01T00:00:00.0000000+00:00</time>
      </trkpt>
      <trkpt lat="48.850284" lon="10.64609">
        <ele>406.46</ele>
        <time>2026-09-01T00:00:00.0000000+00:00</time>
      </trkpt>
      <trkpt lat="48.850284" lon="10.64609">
        <ele>406.46</ele>
        <time>2026-09-01T00:00:00.0000000+00:00</time>
      </trkpt>
      <trkpt lat="48.84999" lon="10.646">
        <ele>406.58</ele>
        <time>2026-09-01T00:00:00.0000000+00:00</time>
      </trkpt>
      <trkpt lat="48.84999" lon="10.646">
        <ele>406.58</ele>
        <time>2026-09-01T00:00:00.0000000+00:00</time>
      </trkpt>
      <trkpt lat="48.84999" lon="10.646">
        <ele>406.58</ele>
        <time>2026-09-01T00:00:00.0000000+00:00</time>
      </trkpt>
      <trkpt lat="48.84999" lon="10.646">
        <ele>406.58</ele>
        <time>2026-09-01T00:00:00.0000000+00:00</time>
      </trkpt>
      <trkpt lat="48.849888" lon="10.645952">
        <ele>406.87</ele>
        <time>2026-09-01T00:00:00.0000000+00:00</time>
      </trkpt>
      <trkpt lat="48.849614" lon="10.645749">
        <ele>407.58</ele>
        <time>2026-09-01T00:00:00.0000000+00:00</time>
      </trkpt>
      <trkpt lat="48.849497" lon="10.645601">
        <ele>407.82</ele>
        <time>2026-09-01T00:00:00.0000000+00:00</time>
      </trkpt>
      <trkpt lat="48.849459" lon="10.64554">
        <ele>407.88</ele>
        <time>2026-09-01T00:00:00.0000000+00:00</time>
      </trkpt>
      <trkpt lat="48.849405" lon="10.645418">
        <ele>407.96</ele>
        <time>2026-09-01T00:00:00.0000000+00:00</time>
      </trkpt>
      <trkpt lat="48.849348" lon="10.645264">
        <ele>407.93</ele>
        <time>2026-09-01T00:00:00.0000000+00:00</time>
      </trkpt>
      <trkpt lat="48.849328" lon="10.645192">
        <ele>407.76</ele>
        <time>2026-09-01T00:00:00.0000000+00:00</time>
      </trkpt>
      <trkpt lat="48.84926" lon="10.644813">
        <ele>406.87</ele>
        <time>2026-09-01T00:00:00.0000000+00:00</time>
      </trkpt>
      <trkpt lat="48.849071" lon="10.643958">
        <ele>406.37</ele>
        <time>2026-09-01T00:00:00.0000000+00:00</time>
      </trkpt>
      <trkpt lat="48.848862" lon="10.64308">
        <ele>406.18</ele>
        <time>2026-09-01T00:00:00.0000000+00:00</time>
      </trkpt>
      <trkpt lat="48.848639" lon="10.642152">
        <ele>406</ele>
        <time>2026-09-01T00:00:00.0000000+00:00</time>
      </trkpt>
      <trkpt lat="48.84854" lon="10.641712">
        <ele>405.45</ele>
        <time>2026-09-01T00:00:00.0000000+00:00</time>
      </trkpt>
      <trkpt lat="48.848477" lon="10.641172">
        <ele>404.13</ele>
        <time>2026-09-01T00:00:00.0000000+00:00</time>
      </trkpt>
      <trkpt lat="48.848445" lon="10.640848">
        <ele>404.03</ele>
        <time>2026-09-01T00:00:00.0000000+00:00</time>
      </trkpt>
      <trkpt lat="48.848397" lon="10.64052">
        <ele>404.1</ele>
        <time>2026-09-01T00:00:00.0000000+00:00</time>
      </trkpt>
      <trkpt lat="48.848314" lon="10.640181">
        <ele>404.22</ele>
        <time>2026-09-01T00:00:00.0000000+00:00</time>
      </trkpt>
      <trkpt lat="48.848177" lon="10.639856">
        <ele>404.7</ele>
        <time>2026-09-01T00:00:00.0000000+00:00</time>
      </trkpt>
      <trkpt lat="48.847793" lon="10.639178">
        <ele>406.75</ele>
        <time>2026-09-01T00:00:00.0000000+00:00</time>
      </trkpt>
      <trkpt lat="48.847591" lon="10.638845">
        <ele>407.72</ele>
        <time>2026-09-01T00:00:00.0000000+00:00</time>
      </trkpt>
      <trkpt lat="48.847353" lon="10.638464">
        <ele>407.68</ele>
        <time>2026-09-01T00:00:00.0000000+00:00</time>
      </trkpt>
      <trkpt lat="48.847185" lon="10.638198">
        <ele>407.71</ele>
        <time>2026-09-01T00:00:00.0000000+00:00</time>
      </trkpt>
      <trkpt lat="48.847043" lon="10.637976">
        <ele>407.62</ele>
        <time>2026-09-01T00:00:00.0000000+00:00</time>
      </trkpt>
      <trkpt lat="48.847009" lon="10.637923">
        <ele>407.59</ele>
        <time>2026-09-01T00:00:00.0000000+00:00</time>
      </trkpt>
      <trkpt lat="48.846956" lon="10.637838">
        <ele>407.53</ele>
        <time>2026-09-01T00:00:00.0000000+00:00</time>
      </trkpt>
      <trkpt lat="48.846856" lon="10.637677">
        <ele>407.62</ele>
        <time>2026-09-01T00:00:00.0000000+00:00</time>
      </trkpt>
      <trkpt lat="48.846846" lon="10.63766">
        <ele>407.64</ele>
        <time>2026-09-01T00:00:00.0000000+00:00</time>
      </trkpt>
      <trkpt lat="48.846822" lon="10.637629">
        <ele>407.69</ele>
        <time>2026-09-01T00:00:00.0000000+00:00</time>
      </trkpt>
      <trkpt lat="48.846757" lon="10.637707">
        <ele>407.57</ele>
        <time>2026-09-01T00:00:00.0000000+00:00</time>
      </trkpt>
      <trkpt lat="48.846757" lon="10.637707">
        <ele>407.57</ele>
        <time>2026-09-01T00:00:00.0000000+00:00</time>
      </trkpt>
      <trkpt lat="48.846757" lon="10.637707">
        <ele>407.57</ele>
        <time>2026-09-01T00:00:00.0000000+00:00</time>
      </trkpt>
      <trkpt lat="48.846655" lon="10.637988">
        <ele>407.5</ele>
        <time>2026-09-01T00:00:00.0000000+00:00</time>
      </trkpt>
      <trkpt lat="48.846622" lon="10.638109">
        <ele>407.44</ele>
        <time>2026-09-01T00:00:00.0000000+00:00</time>
      </trkpt>
      <trkpt lat="48.84655" lon="10.638252">
        <ele>407.45</ele>
        <time>2026-09-01T00:00:00.0000000+00:00</time>
      </trkpt>
      <trkpt lat="48.846406" lon="10.638474">
        <ele>407.4</ele>
        <time>2026-09-01T00:00:00.0000000+00:00</time>
      </trkpt>
      <trkpt lat="48.846277" lon="10.638609">
        <ele>407.33</ele>
        <time>2026-09-01T00:00:00.0000000+00:00</time>
      </trkpt>
      <trkpt lat="48.846147" lon="10.63875">
        <ele>407.46</ele>
        <time>2026-09-01T00:00:00.0000000+00:00</time>
      </trkpt>
      <trkpt lat="48.845999" lon="10.638918">
        <ele>407.32</ele>
        <time>2026-09-01T00:00:00.0000000+00:00</time>
      </trkpt>
      <trkpt lat="48.845825" lon="10.639099999999999">
        <ele>407.19</ele>
        <time>2026-09-01T00:00:00.0000000+00:00</time>
      </trkpt>
      <trkpt lat="48.84556" lon="10.639362">
        <ele>406.86</ele>
        <time>2026-09-01T00:00:00.0000000+00:00</time>
      </trkpt>
      <trkpt lat="48.84521" lon="10.639707">
        <ele>406.38</ele>
        <time>2026-09-01T00:00:00.0000000+00:00</time>
      </trkpt>
      <trkpt lat="48.845027" lon="10.639887">
        <ele>406.54</ele>
        <time>2026-09-01T00:00:00.0000000+00:00</time>
      </trkpt>
      <trkpt lat="48.844627" lon="10.640277">
        <ele>406.34</ele>
        <time>2026-09-01T00:00:00.0000000+00:00</time>
      </trkpt>
      <trkpt lat="48.844482" lon="10.640412">
        <ele>406.24</ele>
        <time>2026-09-01T00:00:00.0000000+00:00</time>
      </trkpt>
      <trkpt lat="48.844131" lon="10.640786">
        <ele>406.29</ele>
        <time>2026-09-01T00:00:00.0000000+00:00</time>
      </trkpt>
      <trkpt lat="48.844063" lon="10.640862">
        <ele>406.37</ele>
        <time>2026-09-01T00:00:00.0000000+00:00</time>
      </trkpt>
      <trkpt lat="48.843931" lon="10.641002">
        <ele>406.43</ele>
        <time>2026-09-01T00:00:00.0000000+00:00</time>
      </trkpt>
      <trkpt lat="48.843665" lon="10.641271">
        <ele>406.95</ele>
        <time>2026-09-01T00:00:00.0000000+00:00</time>
      </trkpt>
      <trkpt lat="48.843537" lon="10.641395">
        <ele>407.39</ele>
        <time>2026-09-01T00:00:00.0000000+00:00</time>
      </trkpt>
      <trkpt lat="48.843327" lon="10.641614">
        <ele>408.12</ele>
        <time>2026-09-01T00:00:00.0000000+00:00</time>
      </trkpt>
      <trkpt lat="48.843149" lon="10.641799">
        <ele>408.56</ele>
        <time>2026-09-01T00:00:00.0000000+00:00</time>
      </trkpt>
      <trkpt lat="48.842996" lon="10.641947">
        <ele>408.74</ele>
        <time>2026-09-01T00:00:00.0000000+00:00</time>
      </trkpt>
      <trkpt lat="48.842861" lon="10.642052">
        <ele>408.94</ele>
        <time>2026-09-01T00:00:00.0000000+00:00</time>
      </trkpt>
      <trkpt lat="48.842628" lon="10.642176">
        <ele>409.25</ele>
        <time>2026-09-01T00:00:00.0000000+00:00</time>
      </trkpt>
      <trkpt lat="48.842429" lon="10.642266">
        <ele>409.23</ele>
        <time>2026-09-01T00:00:00.0000000+00:00</time>
      </trkpt>
      <trkpt lat="48.842333" lon="10.642308">
        <ele>409.19</ele>
        <time>2026-09-01T00:00:00.0000000+00:00</time>
      </trkpt>
      <trkpt lat="48.842333" lon="10.642308">
        <ele>409.19</ele>
        <time>2026-09-01T00:00:00.0000000+00:00</time>
      </trkpt>
      <trkpt lat="48.842231" lon="10.642354">
        <ele>409.11</ele>
        <time>2026-09-01T00:00:00.0000000+00:00</time>
      </trkpt>
      <trkpt lat="48.84203" lon="10.64241">
        <ele>409.07</ele>
        <time>2026-09-01T00:00:00.0000000+00:00</time>
      </trkpt>
      <trkpt lat="48.841724" lon="10.642491">
        <ele>408.81</ele>
        <time>2026-09-01T00:00:00.0000000+00:00</time>
      </trkpt>
      <trkpt lat="48.841576" lon="10.642537">
        <ele>408.48</ele>
        <time>2026-09-01T00:00:00.0000000+00:00</time>
      </trkpt>
      <trkpt lat="48.841359" lon="10.642611">
        <ele>408</ele>
        <time>2026-09-01T00:00:00.0000000+00:00</time>
      </trkpt>
      <trkpt lat="48.841209" lon="10.642677">
        <ele>407.62</ele>
        <time>2026-09-01T00:00:00.0000000+00:00</time>
      </trkpt>
      <trkpt lat="48.841003" lon="10.642756">
        <ele>407.2</ele>
        <time>2026-09-01T00:00:00.0000000+00:00</time>
      </trkpt>
      <trkpt lat="48.840837" lon="10.64285">
        <ele>407.34</ele>
        <time>2026-09-01T00:00:00.0000000+00:00</time>
      </trkpt>
      <trkpt lat="48.840837" lon="10.64285">
        <ele>407.34</ele>
        <time>2026-09-01T00:00:00.0000000+00:00</time>
      </trkpt>
      <trkpt lat="48.840837" lon="10.64285">
        <ele>407.34</ele>
        <time>2026-09-01T00:00:00.0000000+00:00</time>
      </trkpt>
      <trkpt lat="48.840535" lon="10.643073">
        <ele>407.89</ele>
        <time>2026-09-01T00:00:00.0000000+00:00</time>
      </trkpt>
      <trkpt lat="48.84051" lon="10.643091">
        <ele>407.94</ele>
        <time>2026-09-01T00:00:00.0000000+00:00</time>
      </trkpt>
      <trkpt lat="48.84051" lon="10.643091">
        <ele>407.94</ele>
        <time>2026-09-01T00:00:00.0000000+00:00</time>
      </trkpt>
      <trkpt lat="48.84051" lon="10.643091">
        <ele>407.94</ele>
        <time>2026-09-01T00:00:00.0000000+00:00</time>
      </trkpt>
      <trkpt lat="48.84036" lon="10.643486">
        <ele>407.53</ele>
        <time>2026-09-01T00:00:00.0000000+00:00</time>
      </trkpt>
      <trkpt lat="48.840147" lon="10.643824">
        <ele>407.49</ele>
        <time>2026-09-01T00:00:00.0000000+00:00</time>
      </trkpt>
      <trkpt lat="48.839923" lon="10.644014">
        <ele>407.47</ele>
        <time>2026-09-01T00:00:00.0000000+00:00</time>
      </trkpt>
      <trkpt lat="48.839812" lon="10.644062">
        <ele>407.53</ele>
        <time>2026-09-01T00:00:00.0000000+00:00</time>
      </trkpt>
      <trkpt lat="48.839603" lon="10.644065">
        <ele>407.9</ele>
        <time>2026-09-01T00:00:00.0000000+00:00</time>
      </trkpt>
      <trkpt lat="48.839511" lon="10.644043">
        <ele>408.13</ele>
        <time>2026-09-01T00:00:00.0000000+00:00</time>
      </trkpt>
      <trkpt lat="48.839071" lon="10.643889">
        <ele>409.24</ele>
        <time>2026-09-01T00:00:00.0000000+00:00</time>
      </trkpt>
      <trkpt lat="48.838669" lon="10.643844">
        <ele>409.62</ele>
        <time>2026-09-01T00:00:00.0000000+00:00</time>
      </trkpt>
      <trkpt lat="48.83834" lon="10.643824">
        <ele>409.58</ele>
        <time>2026-09-01T00:00:00.0000000+00:00</time>
      </trkpt>
      <trkpt lat="48.83829" lon="10.643827">
        <ele>409.5</ele>
        <time>2026-09-01T00:00:00.0000000+00:00</time>
      </trkpt>
      <trkpt lat="48.838128" lon="10.643747">
        <ele>409.39</ele>
        <time>2026-09-01T00:00:00.0000000+00:00</time>
      </trkpt>
      <trkpt lat="48.838071" lon="10.643703">
        <ele>409.39</ele>
        <time>2026-09-01T00:00:00.0000000+00:00</time>
      </trkpt>
      <trkpt lat="48.83798" lon="10.643524">
        <ele>409.69</ele>
        <time>2026-09-01T00:00:00.0000000+00:00</time>
      </trkpt>
      <trkpt lat="48.837935" lon="10.64344">
        <ele>409.88</ele>
        <time>2026-09-01T00:00:00.0000000+00:00</time>
      </trkpt>
      <trkpt lat="48.837834" lon="10.643249">
        <ele>410.39</ele>
        <time>2026-09-01T00:00:00.0000000+00:00</time>
      </trkpt>
      <trkpt lat="48.837723" lon="10.643046">
        <ele>411.06</ele>
        <time>2026-09-01T00:00:00.0000000+00:00</time>
      </trkpt>
      <trkpt lat="48.837597" lon="10.642926">
        <ele>411.45</ele>
        <time>2026-09-01T00:00:00.0000000+00:00</time>
      </trkpt>
      <trkpt lat="48.837501" lon="10.642865">
        <ele>411.45</ele>
        <time>2026-09-01T00:00:00.0000000+00:00</time>
      </trkpt>
      <trkpt lat="48.837439" lon="10.642833">
        <ele>411.41</ele>
        <time>2026-09-01T00:00:00.0000000+00:00</time>
      </trkpt>
      <trkpt lat="48.837418" lon="10.642822">
        <ele>411.4</ele>
        <time>2026-09-01T00:00:00.0000000+00:00</time>
      </trkpt>
      <trkpt lat="48.837172" lon="10.642697">
        <ele>411.26</ele>
        <time>2026-09-01T00:00:00.0000000+00:00</time>
      </trkpt>
      <trkpt lat="48.837038" lon="10.642631">
        <ele>411.25</ele>
        <time>2026-09-01T00:00:00.0000000+00:00</time>
      </trkpt>
      <trkpt lat="48.836964" lon="10.642594">
        <ele>411.27</ele>
        <time>2026-09-01T00:00:00.0000000+00:00</time>
      </trkpt>
      <trkpt lat="48.836828" lon="10.642521">
        <ele>411.37</ele>
        <time>2026-09-01T00:00:00.0000000+00:00</time>
      </trkpt>
      <trkpt lat="48.836813" lon="10.642519">
        <ele>411.36</ele>
        <time>2026-09-01T00:00:00.0000000+00:00</time>
      </trkpt>
      <trkpt lat="48.836813" lon="10.642519">
        <ele>411.36</ele>
        <time>2026-09-01T00:00:00.0000000+00:00</time>
      </trkpt>
      <trkpt lat="48.836813" lon="10.642519">
        <ele>411.36</ele>
        <time>2026-09-01T00:00:00.0000000+00:00</time>
      </trkpt>
      <trkpt lat="48.836712" lon="10.642523">
        <ele>410.99</ele>
        <time>2026-09-01T00:00:00.0000000+00:00</time>
      </trkpt>
      <trkpt lat="48.836712" lon="10.642523">
        <ele>410.99</ele>
        <time>2026-09-01T00:00:00.0000000+00:00</time>
      </trkpt>
      <trkpt lat="48.836712" lon="10.642523">
        <ele>410.99</ele>
        <time>2026-09-01T00:00:00.0000000+00:00</time>
      </trkpt>
      <trkpt lat="48.836686" lon="10.642468">
        <ele>411.16</ele>
        <time>2026-09-01T00:00:00.0000000+00:00</time>
      </trkpt>
      <trkpt lat="48.836645" lon="10.642435">
        <ele>411.17</ele>
        <time>2026-09-01T00:00:00.0000000+00:00</time>
      </trkpt>
      <trkpt lat="48.83649" lon="10.64236">
        <ele>410.98</ele>
        <time>2026-09-01T00:00:00.0000000+00:00</time>
      </trkpt>
      <trkpt lat="48.836429" lon="10.642339">
        <ele>410.86</ele>
        <time>2026-09-01T00:00:00.0000000+00:00</time>
      </trkpt>
      <trkpt lat="48.836429" lon="10.642339">
        <ele>410.86</ele>
        <time>2026-09-01T00:00:00.0000000+00:00</time>
      </trkpt>
      <trkpt lat="48.83636" lon="10.642311">
        <ele>410.74</ele>
        <time>2026-09-01T00:00:00.0000000+00:00</time>
      </trkpt>
      <trkpt lat="48.836275" lon="10.642272">
        <ele>410.62</ele>
        <time>2026-09-01T00:00:00.0000000+00:00</time>
      </trkpt>
      <trkpt lat="48.836145" lon="10.6422">
        <ele>410.5</ele>
        <time>2026-09-01T00:00:00.0000000+00:00</time>
      </trkpt>
      <trkpt lat="48.836125" lon="10.642208">
        <ele>410.39</ele>
        <time>2026-09-01T00:00:00.0000000+00:00</time>
      </trkpt>
      <trkpt lat="48.835971" lon="10.642265">
        <ele>409.56</ele>
        <time>2026-09-01T00:00:00.0000000+00:00</time>
      </trkpt>
      <trkpt lat="48.835971" lon="10.642265">
        <ele>409.56</ele>
        <time>2026-09-01T00:00:00.0000000+00:00</time>
      </trkpt>
      <trkpt lat="48.83585" lon="10.642293">
        <ele>409.39</ele>
        <time>2026-09-01T00:00:00.0000000+00:00</time>
      </trkpt>
      <trkpt lat="48.83552" lon="10.642303">
        <ele>409.27</ele>
        <time>2026-09-01T00:00:00.0000000+00:00</time>
      </trkpt>
      <trkpt lat="48.835178" lon="10.642306">
        <ele>409.19</ele>
        <time>2026-09-01T00:00:00.0000000+00:00</time>
      </trkpt>
      <trkpt lat="48.834945" lon="10.642312">
        <ele>408.94</ele>
        <time>2026-09-01T00:00:00.0000000+00:00</time>
      </trkpt>
      <trkpt lat="48.834766" lon="10.642357">
        <ele>408.61</ele>
        <time>2026-09-01T00:00:00.0000000+00:00</time>
      </trkpt>
      <trkpt lat="48.834231" lon="10.642509">
        <ele>407.6</ele>
        <time>2026-09-01T00:00:00.0000000+00:00</time>
      </trkpt>
      <trkpt lat="48.834059" lon="10.642554">
        <ele>407.29</ele>
        <time>2026-09-01T00:00:00.0000000+00:00</time>
      </trkpt>
      <trkpt lat="48.833923" lon="10.642533">
        <ele>407.18</ele>
        <time>2026-09-01T00:00:00.0000000+00:00</time>
      </trkpt>
      <trkpt lat="48.833816" lon="10.642526">
        <ele>407.07</ele>
        <time>2026-09-01T00:00:00.0000000+00:00</time>
      </trkpt>
      <trkpt lat="48.833486" lon="10.642395">
        <ele>406.98</ele>
        <time>2026-09-01T00:00:00.0000000+00:00</time>
      </trkpt>
      <trkpt lat="48.833295" lon="10.642313">
        <ele>407.59</ele>
        <time>2026-09-01T00:00:00.0000000+00:00</time>
      </trkpt>
      <trkpt lat="48.832983" lon="10.642155">
        <ele>408.72</ele>
        <time>2026-09-01T00:00:00.0000000+00:00</time>
      </trkpt>
      <trkpt lat="48.832668" lon="10.642013">
        <ele>409.82</ele>
        <time>2026-09-01T00:00:00.0000000+00:00</time>
      </trkpt>
      <trkpt lat="48.832511" lon="10.64201">
        <ele>409.59</ele>
        <time>2026-09-01T00:00:00.0000000+00:00</time>
      </trkpt>
      <trkpt lat="48.832313" lon="10.642131">
        <ele>408.9</ele>
        <time>2026-09-01T00:00:00.0000000+00:00</time>
      </trkpt>
      <trkpt lat="48.83226" lon="10.642176">
        <ele>408.7</ele>
        <time>2026-09-01T00:00:00.0000000+00:00</time>
      </trkpt>
      <trkpt lat="48.832203" lon="10.642226">
        <ele>408.49</ele>
        <time>2026-09-01T00:00:00.0000000+00:00</time>
      </trkpt>
      <trkpt lat="48.831977" lon="10.642427">
        <ele>407.74</ele>
        <time>2026-09-01T00:00:00.0000000+00:00</time>
      </trkpt>
      <trkpt lat="48.831781" lon="10.642586">
        <ele>407.2</ele>
        <time>2026-09-01T00:00:00.0000000+00:00</time>
      </trkpt>
      <trkpt lat="48.83149" lon="10.642741">
        <ele>406.33</ele>
        <time>2026-09-01T00:00:00.0000000+00:00</time>
      </trkpt>
      <trkpt lat="48.831229" lon="10.642777">
        <ele>405.65</ele>
        <time>2026-09-01T00:00:00.0000000+00:00</time>
      </trkpt>
      <trkpt lat="48.831196" lon="10.642782">
        <ele>405.57</ele>
        <time>2026-09-01T00:00:00.0000000+00:00</time>
      </trkpt>
      <trkpt lat="48.830771" lon="10.64284">
        <ele>404.79</ele>
        <time>2026-09-01T00:00:00.0000000+00:00</time>
      </trkpt>
      <trkpt lat="48.830398" lon="10.642888">
        <ele>404.34</ele>
        <time>2026-09-01T00:00:00.0000000+00:00</time>
      </trkpt>
      <trkpt lat="48.830065" lon="10.642927">
        <ele>403.82</ele>
        <time>2026-09-01T00:00:00.0000000+00:00</time>
      </trkpt>
      <trkpt lat="48.829606" lon="10.643018">
        <ele>402.71</ele>
        <time>2026-09-01T00:00:00.0000000+00:00</time>
      </trkpt>
      <trkpt lat="48.829186" lon="10.643112">
        <ele>402.28</ele>
        <time>2026-09-01T00:00:00.0000000+00:00</time>
      </trkpt>
      <trkpt lat="48.829105" lon="10.643091">
        <ele>402.48</ele>
        <time>2026-09-01T00:00:00.0000000+00:00</time>
      </trkpt>
      <trkpt lat="48.828987" lon="10.64306">
        <ele>402.79</ele>
        <time>2026-09-01T00:00:00.0000000+00:00</time>
      </trkpt>
      <trkpt lat="48.828886" lon="10.642993">
        <ele>403.17</ele>
        <time>2026-09-01T00:00:00.0000000+00:00</time>
      </trkpt>
      <trkpt lat="48.828562" lon="10.642754">
        <ele>404.76</ele>
        <time>2026-09-01T00:00:00.0000000+00:00</time>
      </trkpt>
      <trkpt lat="48.828077" lon="10.642433">
        <ele>405.23</ele>
        <time>2026-09-01T00:00:00.0000000+00:00</time>
      </trkpt>
      <trkpt lat="48.827776" lon="10.642337">
        <ele>405.09</ele>
        <time>2026-09-01T00:00:00.0000000+00:00</time>
      </trkpt>
      <trkpt lat="48.827447" lon="10.642281">
        <ele>405.2</ele>
        <time>2026-09-01T00:00:00.0000000+00:00</time>
      </trkpt>
      <trkpt lat="48.827019" lon="10.642233">
        <ele>405.78</ele>
        <time>2026-09-01T00:00:00.0000000+00:00</time>
      </trkpt>
      <trkpt lat="48.826717" lon="10.642195">
        <ele>405.81</ele>
        <time>2026-09-01T00:00:00.0000000+00:00</time>
      </trkpt>
      <trkpt lat="48.826199" lon="10.642164">
        <ele>403.87</ele>
        <time>2026-09-01T00:00:00.0000000+00:00</time>
      </trkpt>
      <trkpt lat="48.825695" lon="10.642196">
        <ele>403.49</ele>
        <time>2026-09-01T00:00:00.0000000+00:00</time>
      </trkpt>
      <trkpt lat="48.82506" lon="10.642255">
        <ele>404.58</ele>
        <time>2026-09-01T00:00:00.0000000+00:00</time>
      </trkpt>
      <trkpt lat="48.824716" lon="10.642312">
        <ele>405.63</ele>
        <time>2026-09-01T00:00:00.0000000+00:00</time>
      </trkpt>
      <trkpt lat="48.824274" lon="10.642399">
        <ele>406.83</ele>
        <time>2026-09-01T00:00:00.0000000+00:00</time>
      </trkpt>
      <trkpt lat="48.823898" lon="10.642362">
        <ele>405.29</ele>
        <time>2026-09-01T00:00:00.0000000+00:00</time>
      </trkpt>
      <trkpt lat="48.82347" lon="10.642353">
        <ele>403.62</ele>
        <time>2026-09-01T00:00:00.0000000+00:00</time>
      </trkpt>
      <trkpt lat="48.823103" lon="10.642361">
        <ele>404.26</ele>
        <time>2026-09-01T00:00:00.0000000+00:00</time>
      </trkpt>
      <trkpt lat="48.822788" lon="10.642284">
        <ele>405.2</ele>
        <time>2026-09-01T00:00:00.0000000+00:00</time>
      </trkpt>
      <trkpt lat="48.822621" lon="10.642256">
        <ele>405.71</ele>
        <time>2026-09-01T00:00:00.0000000+00:00</time>
      </trkpt>
      <trkpt lat="48.822306" lon="10.642181">
        <ele>407.3</ele>
        <time>2026-09-01T00:00:00.0000000+00:00</time>
      </trkpt>
      <trkpt lat="48.822133" lon="10.6422">
        <ele>407.9</ele>
        <time>2026-09-01T00:00:00.0000000+00:00</time>
      </trkpt>
      <trkpt lat="48.821885" lon="10.642338">
        <ele>408.37</ele>
        <time>2026-09-01T00:00:00.0000000+00:00</time>
      </trkpt>
      <trkpt lat="48.821737" lon="10.642491">
        <ele>408.55</ele>
        <time>2026-09-01T00:00:00.0000000+00:00</time>
      </trkpt>
      <trkpt lat="48.821613" lon="10.642613">
        <ele>408.74</ele>
        <time>2026-09-01T00:00:00.0000000+00:00</time>
      </trkpt>
      <trkpt lat="48.821516" lon="10.642675">
        <ele>408.98</ele>
        <time>2026-09-01T00:00:00.0000000+00:00</time>
      </trkpt>
      <trkpt lat="48.821359" lon="10.642723">
        <ele>409.56</ele>
        <time>2026-09-01T00:00:00.0000000+00:00</time>
      </trkpt>
      <trkpt lat="48.821257" lon="10.642761">
        <ele>409.87</ele>
        <time>2026-09-01T00:00:00.0000000+00:00</time>
      </trkpt>
      <trkpt lat="48.821143" lon="10.642824">
        <ele>410</ele>
        <time>2026-09-01T00:00:00.0000000+00:00</time>
      </trkpt>
      <trkpt lat="48.821074" lon="10.642897">
        <ele>409.66</ele>
        <time>2026-09-01T00:00:00.0000000+00:00</time>
      </trkpt>
      <trkpt lat="48.820966" lon="10.643155">
        <ele>407.7</ele>
        <time>2026-09-01T00:00:00.0000000+00:00</time>
      </trkpt>
      <trkpt lat="48.820774" lon="10.643613">
        <ele>405.16</ele>
        <time>2026-09-01T00:00:00.0000000+00:00</time>
      </trkpt>
      <trkpt lat="48.820651" lon="10.643883">
        <ele>405.46</ele>
        <time>2026-09-01T00:00:00.0000000+00:00</time>
      </trkpt>
      <trkpt lat="48.820596" lon="10.64398">
        <ele>405.54</ele>
        <time>2026-09-01T00:00:00.0000000+00:00</time>
      </trkpt>
      <trkpt lat="48.820463" lon="10.644117">
        <ele>405.8</ele>
        <time>2026-09-01T00:00:00.0000000+00:00</time>
      </trkpt>
      <trkpt lat="48.820352" lon="10.644205">
        <ele>405.92</ele>
        <time>2026-09-01T00:00:00.0000000+00:00</time>
      </trkpt>
      <trkpt lat="48.819861" lon="10.644586">
        <ele>406.05</ele>
        <time>2026-09-01T00:00:00.0000000+00:00</time>
      </trkpt>
      <trkpt lat="48.819604" lon="10.644797">
        <ele>406.54</ele>
        <time>2026-09-01T00:00:00.0000000+00:00</time>
      </trkpt>
      <trkpt lat="48.81947" lon="10.644899">
        <ele>406.89</ele>
        <time>2026-09-01T00:00:00.0000000+00:00</time>
      </trkpt>
      <trkpt lat="48.819241" lon="10.645026">
        <ele>407.66</ele>
        <time>2026-09-01T00:00:00.0000000+00:00</time>
      </trkpt>
      <trkpt lat="48.819216" lon="10.645042">
        <ele>407.7</ele>
        <time>2026-09-01T00:00:00.0000000+00:00</time>
      </trkpt>
      <trkpt lat="48.819216" lon="10.645042">
        <ele>407.7</ele>
        <time>2026-09-01T00:00:00.0000000+00:00</time>
      </trkpt>
      <trkpt lat="48.819216" lon="10.645042">
        <ele>407.7</ele>
        <time>2026-09-01T00:00:00.0000000+00:00</time>
      </trkpt>
      <trkpt lat="48.819132" lon="10.645086">
        <ele>407.9</ele>
        <time>2026-09-01T00:00:00.0000000+00:00</time>
      </trkpt>
      <trkpt lat="48.819132" lon="10.645086">
        <ele>407.9</ele>
        <time>2026-09-01T00:00:00.0000000+00:00</time>
      </trkpt>
      <trkpt lat="48.819034" lon="10.645141">
        <ele>408.1</ele>
        <time>2026-09-01T00:00:00.0000000+00:00</time>
      </trkpt>
      <trkpt lat="48.819034" lon="10.645141">
        <ele>408.1</ele>
        <time>2026-09-01T00:00:00.0000000+00:00</time>
      </trkpt>
      <trkpt lat="48.818954" lon="10.645206">
        <ele>408.18</ele>
        <time>2026-09-01T00:00:00.0000000+00:00</time>
      </trkpt>
      <trkpt lat="48.818983" lon="10.645312">
        <ele>407.57</ele>
        <time>2026-09-01T00:00:00.0000000+00:00</time>
      </trkpt>
      <trkpt lat="48.818986" lon="10.645371">
        <ele>407.43</ele>
        <time>2026-09-01T00:00:00.0000000+00:00</time>
      </trkpt>
      <trkpt lat="48.818986" lon="10.645371">
        <ele>407.43</ele>
        <time>2026-09-01T00:00:00.0000000+00:00</time>
      </trkpt>
      <trkpt lat="48.818992" lon="10.645443">
        <ele>407.24</ele>
        <time>2026-09-01T00:00:00.0000000+00:00</time>
      </trkpt>
      <trkpt lat="48.818992" lon="10.645443">
        <ele>407.24</ele>
        <time>2026-09-01T00:00:00.0000000+00:00</time>
      </trkpt>
      <trkpt lat="48.819" lon="10.645524">
        <ele>407.01</ele>
        <time>2026-09-01T00:00:00.0000000+00:00</time>
      </trkpt>
      <trkpt lat="48.818997" lon="10.645694">
        <ele>406.66</ele>
        <time>2026-09-01T00:00:00.0000000+00:00</time>
      </trkpt>
      <trkpt lat="48.818923" lon="10.646092">
        <ele>406.38</ele>
        <time>2026-09-01T00:00:00.0000000+00:00</time>
      </trkpt>
      <trkpt lat="48.818923" lon="10.646092">
        <ele>406.38</ele>
        <time>2026-09-01T00:00:00.0000000+00:00</time>
      </trkpt>
      <trkpt lat="48.818885" lon="10.646233">
        <ele>406.44</ele>
        <time>2026-09-01T00:00:00.0000000+00:00</time>
      </trkpt>
      <trkpt lat="48.818761" lon="10.646466">
        <ele>407</ele>
        <time>2026-09-01T00:00:00.0000000+00:00</time>
      </trkpt>
      <trkpt lat="48.818692" lon="10.646532">
        <ele>407.41</ele>
        <time>2026-09-01T00:00:00.0000000+00:00</time>
      </trkpt>
      <trkpt lat="48.818328" lon="10.646768">
        <ele>408.56</ele>
        <time>2026-09-01T00:00:00.0000000+00:00</time>
      </trkpt>
      <trkpt lat="48.818328" lon="10.646768">
        <ele>408.56</ele>
        <time>2026-09-01T00:00:00.0000000+00:00</time>
      </trkpt>
      <trkpt lat="48.818237" lon="10.646797">
        <ele>408.57</ele>
        <time>2026-09-01T00:00:00.0000000+00:00</time>
      </trkpt>
      <trkpt lat="48.818188" lon="10.646805">
        <ele>408.6</ele>
        <time>2026-09-01T00:00:00.0000000+00:00</time>
      </trkpt>
      <trkpt lat="48.818188" lon="10.646805">
        <ele>408.6</ele>
        <time>2026-09-01T00:00:00.0000000+00:00</time>
      </trkpt>
      <trkpt lat="48.817878" lon="10.64684">
        <ele>408.81</ele>
        <time>2026-09-01T00:00:00.0000000+00:00</time>
      </trkpt>
      <trkpt lat="48.817711" lon="10.646842">
        <ele>408.95</ele>
        <time>2026-09-01T00:00:00.0000000+00:00</time>
      </trkpt>
      <trkpt lat="48.817711" lon="10.646842">
        <ele>408.95</ele>
        <time>2026-09-01T00:00:00.0000000+00:00</time>
      </trkpt>
      <trkpt lat="48.817576" lon="10.646819">
        <ele>408.79</ele>
        <time>2026-09-01T00:00:00.0000000+00:00</time>
      </trkpt>
      <trkpt lat="48.817265" lon="10.646724">
        <ele>408.13</ele>
        <time>2026-09-01T00:00:00.0000000+00:00</time>
      </trkpt>
      <trkpt lat="48.816919" lon="10.646546">
        <ele>408.11</ele>
        <time>2026-09-01T00:00:00.0000000+00:00</time>
      </trkpt>
      <trkpt lat="48.816668" lon="10.646329">
        <ele>408.49</ele>
        <time>2026-09-01T00:00:00.0000000+00:00</time>
      </trkpt>
      <trkpt lat="48.816416" lon="10.646037">
        <ele>408.66</ele>
        <time>2026-09-01T00:00:00.0000000+00:00</time>
      </trkpt>
      <trkpt lat="48.816045" lon="10.645591">
        <ele>407.86</ele>
        <time>2026-09-01T00:00:00.0000000+00:00</time>
      </trkpt>
      <trkpt lat="48.815725" lon="10.645186">
        <ele>407.19</ele>
        <time>2026-09-01T00:00:00.0000000+00:00</time>
      </trkpt>
      <trkpt lat="48.815508" lon="10.644894">
        <ele>406.76</ele>
        <time>2026-09-01T00:00:00.0000000+00:00</time>
      </trkpt>
      <trkpt lat="48.815262" lon="10.64449">
        <ele>406.36</ele>
        <time>2026-09-01T00:00:00.0000000+00:00</time>
      </trkpt>
      <trkpt lat="48.814997" lon="10.643819">
        <ele>405.77</ele>
        <time>2026-09-01T00:00:00.0000000+00:00</time>
      </trkpt>
      <trkpt lat="48.814737" lon="10.643095">
        <ele>405.82</ele>
        <time>2026-09-01T00:00:00.0000000+00:00</time>
      </trkpt>
      <trkpt lat="48.814546" lon="10.642565">
        <ele>405.97</ele>
        <time>2026-09-01T00:00:00.0000000+00:00</time>
      </trkpt>
      <trkpt lat="48.814287" lon="10.641849">
        <ele>406.41</ele>
        <time>2026-09-01T00:00:00.0000000+00:00</time>
      </trkpt>
      <trkpt lat="48.814182" lon="10.641556">
        <ele>407.31</ele>
        <time>2026-09-01T00:00:00.0000000+00:00</time>
      </trkpt>
      <trkpt lat="48.814182" lon="10.641556">
        <ele>407.31</ele>
        <time>2026-09-01T00:00:00.0000000+00:00</time>
      </trkpt>
      <trkpt lat="48.814148" lon="10.641461">
        <ele>407.56</ele>
        <time>2026-09-01T00:00:00.0000000+00:00</time>
      </trkpt>
      <trkpt lat="48.81402" lon="10.641098">
        <ele>408.29</ele>
        <time>2026-09-01T00:00:00.0000000+00:00</time>
      </trkpt>
      <trkpt lat="48.81402" lon="10.641098">
        <ele>408.29</ele>
        <time>2026-09-01T00:00:00.0000000+00:00</time>
      </trkpt>
      <trkpt lat="48.813997" lon="10.641035">
        <ele>408.27</ele>
        <time>2026-09-01T00:00:00.0000000+00:00</time>
      </trkpt>
      <trkpt lat="48.813966" lon="10.640945">
        <ele>408.24</ele>
        <time>2026-09-01T00:00:00.0000000+00:00</time>
      </trkpt>
      <trkpt lat="48.813629" lon="10.641004">
        <ele>407.47</ele>
        <time>2026-09-01T00:00:00.0000000+00:00</time>
      </trkpt>
      <trkpt lat="48.813066" lon="10.64121">
        <ele>406.49</ele>
        <time>2026-09-01T00:00:00.0000000+00:00</time>
      </trkpt>
      <trkpt lat="48.812769" lon="10.641367">
        <ele>406.34</ele>
        <time>2026-09-01T00:00:00.0000000+00:00</time>
      </trkpt>
      <trkpt lat="48.812458" lon="10.641571">
        <ele>406.43</ele>
        <time>2026-09-01T00:00:00.0000000+00:00</time>
      </trkpt>
      <trkpt lat="48.812218" lon="10.641772">
        <ele>406.93</ele>
        <time>2026-09-01T00:00:00.0000000+00:00</time>
      </trkpt>
      <trkpt lat="48.812218" lon="10.641772">
        <ele>406.93</ele>
        <time>2026-09-01T00:00:00.0000000+00:00</time>
      </trkpt>
      <trkpt lat="48.812218" lon="10.641772">
        <ele>406.93</ele>
        <time>2026-09-01T00:00:00.0000000+00:00</time>
      </trkpt>
      <trkpt lat="48.812218" lon="10.641772">
        <ele>406.93</ele>
        <time>2026-09-01T00:00:00.0000000+00:00</time>
      </trkpt>
      <trkpt lat="48.812218" lon="10.641772">
        <ele>406.93</ele>
        <time>2026-09-01T00:00:00.0000000+00:00</time>
      </trkpt>
      <trkpt lat="48.812218" lon="10.641772">
        <ele>406.93</ele>
        <time>2026-09-01T00:00:00.0000000+00:00</time>
      </trkpt>
      <trkpt lat="48.812218" lon="10.641772">
        <ele>406.93</ele>
        <time>2026-09-01T00:00:00.0000000+00:00</time>
      </trkpt>
      <trkpt lat="48.812218" lon="10.641772">
        <ele>406.93</ele>
        <time>2026-09-01T00:00:00.0000000+00:00</time>
      </trkpt>
      <trkpt lat="48.812218" lon="10.641772">
        <ele>406.93</ele>
        <time>2026-09-01T00:00:00.0000000+00:00</time>
      </trkpt>
      <trkpt lat="48.812218" lon="10.641772">
        <ele>406.93</ele>
        <time>2026-09-01T00:00:00.0000000+00:00</time>
      </trkpt>
      <trkpt lat="48.811927" lon="10.642046">
        <ele>407.99</ele>
        <time>2026-09-01T00:00:00.0000000+00:00</time>
      </trkpt>
      <trkpt lat="48.811668" lon="10.642363">
        <ele>409.79</ele>
        <time>2026-09-01T00:00:00.0000000+00:00</time>
      </trkpt>
      <trkpt lat="48.811372" lon="10.642726">
        <ele>412.49</ele>
        <time>2026-09-01T00:00:00.0000000+00:00</time>
      </trkpt>
      <trkpt lat="48.811372" lon="10.642726">
        <ele>412.49</ele>
        <time>2026-09-01T00:00:00.0000000+00:00</time>
      </trkpt>
      <trkpt lat="48.811372" lon="10.642726">
        <ele>412.49</ele>
        <time>2026-09-01T00:00:00.0000000+00:00</time>
      </trkpt>
      <trkpt lat="48.811284" lon="10.642865">
        <ele>413.59</ele>
        <time>2026-09-01T00:00:00.0000000+00:00</time>
      </trkpt>
      <trkpt lat="48.811284" lon="10.642865">
        <ele>413.59</ele>
        <time>2026-09-01T00:00:00.0000000+00:00</time>
      </trkpt>
      <trkpt lat="48.811284" lon="10.642865">
        <ele>413.59</ele>
        <time>2026-09-01T00:00:00.0000000+00:00</time>
      </trkpt>
      <trkpt lat="48.811162" lon="10.64301">
        <ele>415.14</ele>
        <time>2026-09-01T00:00:00.0000000+00:00</time>
      </trkpt>
      <trkpt lat="48.811162" lon="10.64301">
        <ele>415.14</ele>
        <time>2026-09-01T00:00:00.0000000+00:00</time>
      </trkpt>
      <trkpt lat="48.811041" lon="10.643119">
        <ele>416.58</ele>
        <time>2026-09-01T00:00:00.0000000+00:00</time>
      </trkpt>
      <trkpt lat="48.810944" lon="10.643196">
        <ele>417.56</ele>
        <time>2026-09-01T00:00:00.0000000+00:00</time>
      </trkpt>
      <trkpt lat="48.810944" lon="10.643196">
        <ele>417.56</ele>
        <time>2026-09-01T00:00:00.0000000+00:00</time>
      </trkpt>
      <trkpt lat="48.810867" lon="10.643256">
        <ele>418.21</ele>
        <time>2026-09-01T00:00:00.0000000+00:00</time>
      </trkpt>
      <trkpt lat="48.810679" lon="10.643384">
        <ele>419.8</ele>
        <time>2026-09-01T00:00:00.0000000+00:00</time>
      </trkpt>
      <trkpt lat="48.81052" lon="10.643525">
        <ele>421.49</ele>
        <time>2026-09-01T00:00:00.0000000+00:00</time>
      </trkpt>
      <trkpt lat="48.810124" lon="10.643892">
        <ele>425.46</ele>
        <time>2026-09-01T00:00:00.0000000+00:00</time>
      </trkpt>
      <trkpt lat="48.809746" lon="10.644285">
        <ele>426.16</ele>
        <time>2026-09-01T00:00:00.0000000+00:00</time>
      </trkpt>
      <trkpt lat="48.809447" lon="10.64458">
        <ele>426.1</ele>
        <time>2026-09-01T00:00:00.0000000+00:00</time>
      </trkpt>
      <trkpt lat="48.809447" lon="10.64458">
        <ele>426.1</ele>
        <time>2026-09-01T00:00:00.0000000+00:00</time>
      </trkpt>
      <trkpt lat="48.809328" lon="10.64468">
        <ele>426.05</ele>
        <time>2026-09-01T00:00:00.0000000+00:00</time>
      </trkpt>
      <trkpt lat="48.809162" lon="10.644769">
        <ele>424.77</ele>
        <time>2026-09-01T00:00:00.0000000+00:00</time>
      </trkpt>
      <trkpt lat="48.809162" lon="10.644769">
        <ele>424.77</ele>
        <time>2026-09-01T00:00:00.0000000+00:00</time>
      </trkpt>
      <trkpt lat="48.809112" lon="10.644781">
        <ele>424.32</ele>
        <time>2026-09-01T00:00:00.0000000+00:00</time>
      </trkpt>
      <trkpt lat="48.809112" lon="10.644781">
        <ele>424.32</ele>
        <time>2026-09-01T00:00:00.0000000+00:00</time>
      </trkpt>
      <trkpt lat="48.809112" lon="10.644781">
        <ele>424.32</ele>
        <time>2026-09-01T00:00:00.0000000+00:00</time>
      </trkpt>
      <trkpt lat="48.809112" lon="10.644781">
        <ele>424.32</ele>
        <time>2026-09-01T00:00:00.0000000+00:00</time>
      </trkpt>
      <trkpt lat="48.809101" lon="10.644848">
        <ele>424.55</ele>
        <time>2026-09-01T00:00:00.0000000+00:00</time>
      </trkpt>
      <trkpt lat="48.809101" lon="10.644848">
        <ele>424.55</ele>
        <time>2026-09-01T00:00:00.0000000+00:00</time>
      </trkpt>
      <trkpt lat="48.809101" lon="10.644848">
        <ele>424.55</ele>
        <time>2026-09-01T00:00:00.0000000+00:00</time>
      </trkpt>
      <trkpt lat="48.809096" lon="10.644877">
        <ele>424.64</ele>
        <time>2026-09-01T00:00:00.0000000+00:00</time>
      </trkpt>
      <trkpt lat="48.809096" lon="10.644877">
        <ele>424.64</ele>
        <time>2026-09-01T00:00:00.0000000+00:00</time>
      </trkpt>
      <trkpt lat="48.80908" lon="10.644959">
        <ele>424.9</ele>
        <time>2026-09-01T00:00:00.0000000+00:00</time>
      </trkpt>
      <trkpt lat="48.80904" lon="10.645058">
        <ele>425.02</ele>
        <time>2026-09-01T00:00:00.0000000+00:00</time>
      </trkpt>
      <trkpt lat="48.808936" lon="10.645213">
        <ele>424.81</ele>
        <time>2026-09-01T00:00:00.0000000+00:00</time>
      </trkpt>
      <trkpt lat="48.808936" lon="10.645213">
        <ele>424.81</ele>
        <time>2026-09-01T00:00:00.0000000+00:00</time>
      </trkpt>
      <trkpt lat="48.808844" lon="10.645348">
        <ele>424.6</ele>
        <time>2026-09-01T00:00:00.0000000+00:00</time>
      </trkpt>
      <trkpt lat="48.808815" lon="10.64539">
        <ele>424.5</ele>
        <time>2026-09-01T00:00:00.0000000+00:00</time>
      </trkpt>
      <trkpt lat="48.808532" lon="10.645805">
        <ele>423.79</ele>
        <time>2026-09-01T00:00:00.0000000+00:00</time>
      </trkpt>
      <trkpt lat="48.808236" lon="10.646222">
        <ele>422.06</ele>
        <time>2026-09-01T00:00:00.0000000+00:00</time>
      </trkpt>
      <trkpt lat="48.808119" lon="10.646395">
        <ele>421.34</ele>
        <time>2026-09-01T00:00:00.0000000+00:00</time>
      </trkpt>
      <trkpt lat="48.807979" lon="10.646711">
        <ele>421.01</ele>
        <time>2026-09-01T00:00:00.0000000+00:00</time>
      </trkpt>
      <trkpt lat="48.807957" lon="10.646768">
        <ele>420.99</ele>
        <time>2026-09-01T00:00:00.0000000+00:00</time>
      </trkpt>
      <trkpt lat="48.807561" lon="10.647765">
        <ele>420.66</ele>
        <time>2026-09-01T00:00:00.0000000+00:00</time>
      </trkpt>
      <trkpt lat="48.807229" lon="10.648595">
        <ele>422.63</ele>
        <time>2026-09-01T00:00:00.0000000+00:00</time>
      </trkpt>
      <trkpt lat="48.806922" lon="10.649578">
        <ele>436.97</ele>
        <time>2026-09-01T00:00:00.0000000+00:00</time>
      </trkpt>
      <trkpt lat="48.806685" lon="10.650337">
        <ele>446.94</ele>
        <time>2026-09-01T00:00:00.0000000+00:00</time>
      </trkpt>
      <trkpt lat="48.806349" lon="10.651417">
        <ele>448.64</ele>
        <time>2026-09-01T00:00:00.0000000+00:00</time>
      </trkpt>
      <trkpt lat="48.806202" lon="10.651845">
        <ele>450.66</ele>
        <time>2026-09-01T00:00:00.0000000+00:00</time>
      </trkpt>
      <trkpt lat="48.805997" lon="10.65233">
        <ele>452.69</ele>
        <time>2026-09-01T00:00:00.0000000+00:00</time>
      </trkpt>
      <trkpt lat="48.805416" lon="10.653532">
        <ele>448.48</ele>
        <time>2026-09-01T00:00:00.0000000+00:00</time>
      </trkpt>
      <trkpt lat="48.805054" lon="10.654382">
        <ele>445.53</ele>
        <time>2026-09-01T00:00:00.0000000+00:00</time>
      </trkpt>
      <trkpt lat="48.804709" lon="10.655345">
        <ele>441.71</ele>
        <time>2026-09-01T00:00:00.0000000+00:00</time>
      </trkpt>
      <trkpt lat="48.80437" lon="10.656232">
        <ele>442.47</ele>
        <time>2026-09-01T00:00:00.0000000+00:00</time>
      </trkpt>
      <trkpt lat="48.803973" lon="10.656851">
        <ele>438.25</ele>
        <time>2026-09-01T00:00:00.0000000+00:00</time>
      </trkpt>
      <trkpt lat="48.803523" lon="10.657573">
        <ele>428.47</ele>
        <time>2026-09-01T00:00:00.0000000+00:00</time>
      </trkpt>
      <trkpt lat="48.803226" lon="10.658242">
        <ele>421.84</ele>
        <time>2026-09-01T00:00:00.0000000+00:00</time>
      </trkpt>
      <trkpt lat="48.803123" lon="10.65852">
        <ele>419.12</ele>
        <time>2026-09-01T00:00:00.0000000+00:00</time>
      </trkpt>
      <trkpt lat="48.802982" lon="10.659053">
        <ele>415.96</ele>
        <time>2026-09-01T00:00:00.0000000+00:00</time>
      </trkpt>
      <trkpt lat="48.802781" lon="10.659855">
        <ele>412.66</ele>
        <time>2026-09-01T00:00:00.0000000+00:00</time>
      </trkpt>
      <trkpt lat="48.802612" lon="10.660523">
        <ele>411.3</ele>
        <time>2026-09-01T00:00:00.0000000+00:00</time>
      </trkpt>
      <trkpt lat="48.80247" lon="10.661091">
        <ele>412.23</ele>
        <time>2026-09-01T00:00:00.0000000+00:00</time>
      </trkpt>
      <trkpt lat="48.802357" lon="10.661569">
        <ele>415.22</ele>
        <time>2026-09-01T00:00:00.0000000+00:00</time>
      </trkpt>
      <trkpt lat="48.802271" lon="10.66192">
        <ele>417.78</ele>
        <time>2026-09-01T00:00:00.0000000+00:00</time>
      </trkpt>
      <trkpt lat="48.802171" lon="10.662319">
        <ele>420.41</ele>
        <time>2026-09-01T00:00:00.0000000+00:00</time>
      </trkpt>
      <trkpt lat="48.802103" lon="10.662573">
        <ele>422</ele>
        <time>2026-09-01T00:00:00.0000000+00:00</time>
      </trkpt>
      <trkpt lat="48.802016" lon="10.662824">
        <ele>423.44</ele>
        <time>2026-09-01T00:00:00.0000000+00:00</time>
      </trkpt>
      <trkpt lat="48.801991" lon="10.662883">
        <ele>423.7</ele>
        <time>2026-09-01T00:00:00.0000000+00:00</time>
      </trkpt>
      <trkpt lat="48.80185" lon="10.663191">
        <ele>425</ele>
        <time>2026-09-01T00:00:00.0000000+00:00</time>
      </trkpt>
      <trkpt lat="48.801702" lon="10.663446">
        <ele>425.29</ele>
        <time>2026-09-01T00:00:00.0000000+00:00</time>
      </trkpt>
      <trkpt lat="48.801438" lon="10.66376">
        <ele>425.24</ele>
        <time>2026-09-01T00:00:00.0000000+00:00</time>
      </trkpt>
      <trkpt lat="48.801108" lon="10.664074">
        <ele>425.2</ele>
        <time>2026-09-01T00:00:00.0000000+00:00</time>
      </trkpt>
      <trkpt lat="48.800842" lon="10.664318">
        <ele>425.92</ele>
        <time>2026-09-01T00:00:00.0000000+00:00</time>
      </trkpt>
      <trkpt lat="48.800722" lon="10.664428">
        <ele>426.53</ele>
        <time>2026-09-01T00:00:00.0000000+00:00</time>
      </trkpt>
      <trkpt lat="48.800722" lon="10.664428">
        <ele>426.53</ele>
        <time>2026-09-01T00:00:00.0000000+00:00</time>
      </trkpt>
      <trkpt lat="48.800638" lon="10.664502">
        <ele>427.41</ele>
        <time>2026-09-01T00:00:00.0000000+00:00</time>
      </trkpt>
      <trkpt lat="48.800483" lon="10.664635">
        <ele>429.79</ele>
        <time>2026-09-01T00:00:00.0000000+00:00</time>
      </trkpt>
      <trkpt lat="48.800415" lon="10.664503">
        <ele>427.4</ele>
        <time>2026-09-01T00:00:00.0000000+00:00</time>
      </trkpt>
      <trkpt lat="48.800415" lon="10.664503">
        <ele>427.4</ele>
        <time>2026-09-01T00:00:00.0000000+00:00</time>
      </trkpt>
      <trkpt lat="48.800415" lon="10.664503">
        <ele>427.4</ele>
        <time>2026-09-01T00:00:00.0000000+00:00</time>
      </trkpt>
      <trkpt lat="48.800318" lon="10.664452">
        <ele>426.3</ele>
        <time>2026-09-01T00:00:00.0000000+00:00</time>
      </trkpt>
      <trkpt lat="48.800318" lon="10.664452">
        <ele>426.3</ele>
        <time>2026-09-01T00:00:00.0000000+00:00</time>
      </trkpt>
      <trkpt lat="48.800318" lon="10.664452">
        <ele>426.3</ele>
        <time>2026-09-01T00:00:00.0000000+00:00</time>
      </trkpt>
      <trkpt lat="48.800178" lon="10.664393">
        <ele>425.44</ele>
        <time>2026-09-01T00:00:00.0000000+00:00</time>
      </trkpt>
      <trkpt lat="48.79992" lon="10.664236">
        <ele>423.21</ele>
        <time>2026-09-01T00:00:00.0000000+00:00</time>
      </trkpt>
      <trkpt lat="48.79988" lon="10.6642">
        <ele>422.69</ele>
        <time>2026-09-01T00:00:00.0000000+00:00</time>
      </trkpt>
      <trkpt lat="48.799594" lon="10.663792">
        <ele>416.62</ele>
        <time>2026-09-01T00:00:00.0000000+00:00</time>
      </trkpt>
      <trkpt lat="48.799441" lon="10.663635">
        <ele>413.81</ele>
        <time>2026-09-01T00:00:00.0000000+00:00</time>
      </trkpt>
      <trkpt lat="48.799247" lon="10.663594">
        <ele>412.88</ele>
        <time>2026-09-01T00:00:00.0000000+00:00</time>
      </trkpt>
      <trkpt lat="48.799247" lon="10.663594">
        <ele>412.88</ele>
        <time>2026-09-01T00:00:00.0000000+00:00</time>
      </trkpt>
      <trkpt lat="48.799101" lon="10.663524">
        <ele>412.43</ele>
        <time>2026-09-01T00:00:00.0000000+00:00</time>
      </trkpt>
      <trkpt lat="48.798852" lon="10.663522">
        <ele>412.39</ele>
        <time>2026-09-01T00:00:00.0000000+00:00</time>
      </trkpt>
      <trkpt lat="48.7987" lon="10.66353">
        <ele>412.42</ele>
        <time>2026-09-01T00:00:00.0000000+00:00</time>
      </trkpt>
      <trkpt lat="48.798119" lon="10.663908">
        <ele>416.37</ele>
        <time>2026-09-01T00:00:00.0000000+00:00</time>
      </trkpt>
      <trkpt lat="48.797597" lon="10.664205">
        <ele>420.88</ele>
        <time>2026-09-01T00:00:00.0000000+00:00</time>
      </trkpt>
      <trkpt lat="48.797255" lon="10.664346">
        <ele>421.13</ele>
        <time>2026-09-01T00:00:00.0000000+00:00</time>
      </trkpt>
      <trkpt lat="48.797074" lon="10.664401">
        <ele>420.84</ele>
        <time>2026-09-01T00:00:00.0000000+00:00</time>
      </trkpt>
      <trkpt lat="48.796833" lon="10.664381">
        <ele>419.18</ele>
        <time>2026-09-01T00:00:00.0000000+00:00</time>
      </trkpt>
      <trkpt lat="48.796738" lon="10.664371">
        <ele>417.96</ele>
        <time>2026-09-01T00:00:00.0000000+00:00</time>
      </trkpt>
      <trkpt lat="48.796691" lon="10.664361">
        <ele>417.31</ele>
        <time>2026-09-01T00:00:00.0000000+00:00</time>
      </trkpt>
      <trkpt lat="48.796426" lon="10.664285">
        <ele>413.52</ele>
        <time>2026-09-01T00:00:00.0000000+00:00</time>
      </trkpt>
      <trkpt lat="48.796321" lon="10.664539">
        <ele>414.41</ele>
        <time>2026-09-01T00:00:00.0000000+00:00</time>
      </trkpt>
      <trkpt lat="48.796299" lon="10.664587">
        <ele>414.46</ele>
        <time>2026-09-01T00:00:00.0000000+00:00</time>
      </trkpt>
      <trkpt lat="48.796288" lon="10.664611">
        <ele>414.48</ele>
        <time>2026-09-01T00:00:00.0000000+00:00</time>
      </trkpt>
      <trkpt lat="48.796288" lon="10.664611">
        <ele>414.48</ele>
        <time>2026-09-01T00:00:00.0000000+00:00</time>
      </trkpt>
      <trkpt lat="48.796231" lon="10.664736">
        <ele>414.57</ele>
        <time>2026-09-01T00:00:00.0000000+00:00</time>
      </trkpt>
      <trkpt lat="48.796086" lon="10.665088">
        <ele>414.92</ele>
        <time>2026-09-01T00:00:00.0000000+00:00</time>
      </trkpt>
      <trkpt lat="48.795974" lon="10.665382">
        <ele>415.28</ele>
        <time>2026-09-01T00:00:00.0000000+00:00</time>
      </trkpt>
      <trkpt lat="48.795716" lon="10.665986">
        <ele>415.74</ele>
        <time>2026-09-01T00:00:00.0000000+00:00</time>
      </trkpt>
      <trkpt lat="48.795514" lon="10.666455">
        <ele>414.95</ele>
        <time>2026-09-01T00:00:00.0000000+00:00</time>
      </trkpt>
      <trkpt lat="48.79509" lon="10.667448">
        <ele>413.12</ele>
        <time>2026-09-01T00:00:00.0000000+00:00</time>
      </trkpt>
      <trkpt lat="48.794814" lon="10.668103">
        <ele>411.47</ele>
        <time>2026-09-01T00:00:00.0000000+00:00</time>
      </trkpt>
      <trkpt lat="48.794483" lon="10.668934">
        <ele>408.62</ele>
        <time>2026-09-01T00:00:00.0000000+00:00</time>
      </trkpt>
      <trkpt lat="48.794268" lon="10.669603">
        <ele>407.44</ele>
        <time>2026-09-01T00:00:00.0000000+00:00</time>
      </trkpt>
      <trkpt lat="48.794042" lon="10.670453">
        <ele>409.06</ele>
        <time>2026-09-01T00:00:00.0000000+00:00</time>
      </trkpt>
      <trkpt lat="48.793905" lon="10.671091">
        <ele>409.89</ele>
        <time>2026-09-01T00:00:00.0000000+00:00</time>
      </trkpt>
      <trkpt lat="48.793785" lon="10.67186">
        <ele>411.16</ele>
        <time>2026-09-01T00:00:00.0000000+00:00</time>
      </trkpt>
      <trkpt lat="48.793723" lon="10.672528">
        <ele>412.24</ele>
        <time>2026-09-01T00:00:00.0000000+00:00</time>
      </trkpt>
      <trkpt lat="48.793723" lon="10.672528">
        <ele>412.24</ele>
        <time>2026-09-01T00:00:00.0000000+00:00</time>
      </trkpt>
      <trkpt lat="48.793717" lon="10.672631">
        <ele>412.44</ele>
        <time>2026-09-01T00:00:00.0000000+00:00</time>
      </trkpt>
      <trkpt lat="48.793702" lon="10.67285">
        <ele>412.98</ele>
        <time>2026-09-01T00:00:00.0000000+00:00</time>
      </trkpt>
      <trkpt lat="48.7937" lon="10.672875">
        <ele>413.06</ele>
        <time>2026-09-01T00:00:00.0000000+00:00</time>
      </trkpt>
      <trkpt lat="48.7937" lon="10.672875">
        <ele>413.06</ele>
        <time>2026-09-01T00:00:00.0000000+00:00</time>
      </trkpt>
      <trkpt lat="48.793675" lon="10.672876">
        <ele>412.85</ele>
        <time>2026-09-01T00:00:00.0000000+00:00</time>
      </trkpt>
      <trkpt lat="48.793675" lon="10.672876">
        <ele>412.85</ele>
        <time>2026-09-01T00:00:00.0000000+00:00</time>
      </trkpt>
      <trkpt lat="48.793675" lon="10.672876">
        <ele>412.85</ele>
        <time>2026-09-01T00:00:00.0000000+00:00</time>
      </trkpt>
      <trkpt lat="48.793675" lon="10.672876">
        <ele>412.85</ele>
        <time>2026-09-01T00:00:00.0000000+00:00</time>
      </trkpt>
      <trkpt lat="48.793675" lon="10.672876">
        <ele>412.85</ele>
        <time>2026-09-01T00:00:00.0000000+00:00</time>
      </trkpt>
      <trkpt lat="48.793367" lon="10.672896">
        <ele>410.9</ele>
        <time>2026-09-01T00:00:00.0000000+00:00</time>
      </trkpt>
      <trkpt lat="48.793353" lon="10.672896">
        <ele>410.84</ele>
        <time>2026-09-01T00:00:00.0000000+00:00</time>
      </trkpt>
      <trkpt lat="48.793338" lon="10.672896">
        <ele>410.78</ele>
        <time>2026-09-01T00:00:00.0000000+00:00</time>
      </trkpt>
      <trkpt lat="48.793323" lon="10.672897">
        <ele>410.73</ele>
        <time>2026-09-01T00:00:00.0000000+00:00</time>
      </trkpt>
      <trkpt lat="48.793323" lon="10.672897">
        <ele>410.73</ele>
        <time>2026-09-01T00:00:00.0000000+00:00</time>
      </trkpt>
      <trkpt lat="48.793323" lon="10.672897">
        <ele>410.73</ele>
        <time>2026-09-01T00:00:00.0000000+00:00</time>
      </trkpt>
      <trkpt lat="48.793323" lon="10.672897">
        <ele>410.73</ele>
        <time>2026-09-01T00:00:00.0000000+00:00</time>
      </trkpt>
      <trkpt lat="48.793207" lon="10.672901">
        <ele>410.28</ele>
        <time>2026-09-01T00:00:00.0000000+00:00</time>
      </trkpt>
      <trkpt lat="48.793207" lon="10.672901">
        <ele>410.28</ele>
        <time>2026-09-01T00:00:00.0000000+00:00</time>
      </trkpt>
      <trkpt lat="48.793207" lon="10.672901">
        <ele>410.28</ele>
        <time>2026-09-01T00:00:00.0000000+00:00</time>
      </trkpt>
      <trkpt lat="48.793218" lon="10.673123">
        <ele>410.94</ele>
        <time>2026-09-01T00:00:00.0000000+00:00</time>
      </trkpt>
      <trkpt lat="48.793241" lon="10.673421">
        <ele>411.89</ele>
        <time>2026-09-01T00:00:00.0000000+00:00</time>
      </trkpt>
      <trkpt lat="48.793304" lon="10.67384">
        <ele>413.5</ele>
        <time>2026-09-01T00:00:00.0000000+00:00</time>
      </trkpt>
      <trkpt lat="48.79333" lon="10.674347">
        <ele>415.24</ele>
        <time>2026-09-01T00:00:00.0000000+00:00</time>
      </trkpt>
      <trkpt lat="48.793356" lon="10.675314">
        <ele>415.59</ele>
        <time>2026-09-01T00:00:00.0000000+00:00</time>
      </trkpt>
      <trkpt lat="48.79336" lon="10.675437">
        <ele>415.7</ele>
        <time>2026-09-01T00:00:00.0000000+00:00</time>
      </trkpt>
      <trkpt lat="48.79336" lon="10.675437">
        <ele>415.7</ele>
        <time>2026-09-01T00:00:00.0000000+00:00</time>
      </trkpt>
      <trkpt lat="48.79336" lon="10.675437">
        <ele>415.7</ele>
        <time>2026-09-01T00:00:00.0000000+00:00</time>
      </trkpt>
      <trkpt lat="48.793368" lon="10.675682">
        <ele>415.93</ele>
        <time>2026-09-01T00:00:00.0000000+00:00</time>
      </trkpt>
      <trkpt lat="48.793372" lon="10.675833">
        <ele>416.07</ele>
        <time>2026-09-01T00:00:00.0000000+00:00</time>
      </trkpt>
      <trkpt lat="48.793452" lon="10.676138">
        <ele>417.25</ele>
        <time>2026-09-01T00:00:00.0000000+00:00</time>
      </trkpt>
      <trkpt lat="48.793595" lon="10.676662">
        <ele>418.55</ele>
        <time>2026-09-01T00:00:00.0000000+00:00</time>
      </trkpt>
      <trkpt lat="48.79373" lon="10.677143">
        <ele>419.22</ele>
        <time>2026-09-01T00:00:00.0000000+00:00</time>
      </trkpt>
      <trkpt lat="48.793886" lon="10.677694">
        <ele>419.3</ele>
        <time>2026-09-01T00:00:00.0000000+00:00</time>
      </trkpt>
      <trkpt lat="48.793981" lon="10.678029">
        <ele>419.52</ele>
        <time>2026-09-01T00:00:00.0000000+00:00</time>
      </trkpt>
      <trkpt lat="48.79408" lon="10.678379">
        <ele>419.9</ele>
        <time>2026-09-01T00:00:00.0000000+00:00</time>
      </trkpt>
      <trkpt lat="48.794175" lon="10.678715">
        <ele>420.51</ele>
        <time>2026-09-01T00:00:00.0000000+00:00</time>
      </trkpt>
      <trkpt lat="48.79429" lon="10.679063">
        <ele>421.75</ele>
        <time>2026-09-01T00:00:00.0000000+00:00</time>
      </trkpt>
      <trkpt lat="48.794375" lon="10.679367">
        <ele>422.61</ele>
        <time>2026-09-01T00:00:00.0000000+00:00</time>
      </trkpt>
      <trkpt lat="48.794513" lon="10.679855">
        <ele>422.6</ele>
        <time>2026-09-01T00:00:00.0000000+00:00</time>
      </trkpt>
      <trkpt lat="48.794638" lon="10.680295">
        <ele>422.55</ele>
        <time>2026-09-01T00:00:00.0000000+00:00</time>
      </trkpt>
      <trkpt lat="48.794858" lon="10.681074">
        <ele>422.24</ele>
        <time>2026-09-01T00:00:00.0000000+00:00</time>
      </trkpt>
      <trkpt lat="48.795028" lon="10.681673">
        <ele>421.8</ele>
        <time>2026-09-01T00:00:00.0000000+00:00</time>
      </trkpt>
      <trkpt lat="48.795266" lon="10.682621">
        <ele>418.87</ele>
        <time>2026-09-01T00:00:00.0000000+00:00</time>
      </trkpt>
      <trkpt lat="48.795422" lon="10.683346">
        <ele>419.93</ele>
        <time>2026-09-01T00:00:00.0000000+00:00</time>
      </trkpt>
      <trkpt lat="48.795503" lon="10.683689">
        <ele>421.17</ele>
        <time>2026-09-01T00:00:00.0000000+00:00</time>
      </trkpt>
      <trkpt lat="48.795503" lon="10.683689">
        <ele>421.17</ele>
        <time>2026-09-01T00:00:00.0000000+00:00</time>
      </trkpt>
      <trkpt lat="48.795503" lon="10.683689">
        <ele>421.17</ele>
        <time>2026-09-01T00:00:00.0000000+00:00</time>
      </trkpt>
      <trkpt lat="48.79556" lon="10.684139">
        <ele>422.67</ele>
        <time>2026-09-01T00:00:00.0000000+00:00</time>
      </trkpt>
      <trkpt lat="48.795565" lon="10.684184">
        <ele>422.81</ele>
        <time>2026-09-01T00:00:00.0000000+00:00</time>
      </trkpt>
      <trkpt lat="48.795565" lon="10.684184">
        <ele>422.81</ele>
        <time>2026-09-01T00:00:00.0000000+00:00</time>
      </trkpt>
      <trkpt lat="48.795532" lon="10.684448">
        <ele>422.88</ele>
        <time>2026-09-01T00:00:00.0000000+00:00</time>
      </trkpt>
      <trkpt lat="48.795525" lon="10.684482">
        <ele>422.75</ele>
        <time>2026-09-01T00:00:00.0000000+00:00</time>
      </trkpt>
      <trkpt lat="48.795525" lon="10.684482">
        <ele>422.75</ele>
        <time>2026-09-01T00:00:00.0000000+00:00</time>
      </trkpt>
      <trkpt lat="48.795525" lon="10.684482">
        <ele>422.75</ele>
        <time>2026-09-01T00:00:00.0000000+00:00</time>
      </trkpt>
      <trkpt lat="48.795453" lon="10.684862">
        <ele>421.52</ele>
        <time>2026-09-01T00:00:00.0000000+00:00</time>
      </trkpt>
      <trkpt lat="48.795422" lon="10.685017">
        <ele>421.08</ele>
        <time>2026-09-01T00:00:00.0000000+00:00</time>
      </trkpt>
      <trkpt lat="48.795409" lon="10.685105">
        <ele>420.88</ele>
        <time>2026-09-01T00:00:00.0000000+00:00</time>
      </trkpt>
      <trkpt lat="48.795403" lon="10.685146">
        <ele>420.79</ele>
        <time>2026-09-01T00:00:00.0000000+00:00</time>
      </trkpt>
      <trkpt lat="48.795403" lon="10.685146">
        <ele>420.79</ele>
        <time>2026-09-01T00:00:00.0000000+00:00</time>
      </trkpt>
      <trkpt lat="48.795403" lon="10.685146">
        <ele>420.79</ele>
        <time>2026-09-01T00:00:00.0000000+00:00</time>
      </trkpt>
      <trkpt lat="48.795386" lon="10.685263">
        <ele>420.55</ele>
        <time>2026-09-01T00:00:00.0000000+00:00</time>
      </trkpt>
      <trkpt lat="48.79536" lon="10.685447">
        <ele>420.14</ele>
        <time>2026-09-01T00:00:00.0000000+00:00</time>
      </trkpt>
      <trkpt lat="48.795275" lon="10.686104">
        <ele>418.74</ele>
        <time>2026-09-01T00:00:00.0000000+00:00</time>
      </trkpt>
      <trkpt lat="48.795203" lon="10.686692">
        <ele>417.52</ele>
        <time>2026-09-01T00:00:00.0000000+00:00</time>
      </trkpt>
      <trkpt lat="48.795139" lon="10.686832">
        <ele>416.97</ele>
        <time>2026-09-01T00:00:00.0000000+00:00</time>
      </trkpt>
      <trkpt lat="48.794995" lon="10.686926">
        <ele>416.16</ele>
        <time>2026-09-01T00:00:00.0000000+00:00</time>
      </trkpt>
      <trkpt lat="48.794995" lon="10.686926">
        <ele>416.16</ele>
        <time>2026-09-01T00:00:00.0000000+00:00</time>
      </trkpt>
      <trkpt lat="48.794995" lon="10.686926">
        <ele>416.16</ele>
        <time>2026-09-01T00:00:00.0000000+00:00</time>
      </trkpt>
      <trkpt lat="48.794841" lon="10.687008">
        <ele>415.26</ele>
        <time>2026-09-01T00:00:00.0000000+00:00</time>
      </trkpt>
      <trkpt lat="48.794811" lon="10.687052">
        <ele>415.04</ele>
        <time>2026-09-01T00:00:00.0000000+00:00</time>
      </trkpt>
      <trkpt lat="48.794811" lon="10.687052">
        <ele>415.04</ele>
        <time>2026-09-01T00:00:00.0000000+00:00</time>
      </trkpt>
      <trkpt lat="48.794795" lon="10.68709">
        <ele>414.89</ele>
        <time>2026-09-01T00:00:00.0000000+00:00</time>
      </trkpt>
      <trkpt lat="48.794795" lon="10.68709">
        <ele>414.89</ele>
        <time>2026-09-01T00:00:00.0000000+00:00</time>
      </trkpt>
      <trkpt lat="48.794795" lon="10.68709">
        <ele>414.89</ele>
        <time>2026-09-01T00:00:00.0000000+00:00</time>
      </trkpt>
      <trkpt lat="48.794795" lon="10.68709">
        <ele>414.89</ele>
        <time>2026-09-01T00:00:00.0000000+00:00</time>
      </trkpt>
      <trkpt lat="48.794795" lon="10.68709">
        <ele>414.89</ele>
        <time>2026-09-01T00:00:00.0000000+00:00</time>
      </trkpt>
      <trkpt lat="48.794795" lon="10.68709">
        <ele>414.89</ele>
        <time>2026-09-01T00:00:00.0000000+00:00</time>
      </trkpt>
      <trkpt lat="48.79473" lon="10.687353">
        <ele>414.13</ele>
        <time>2026-09-01T00:00:00.0000000+00:00</time>
      </trkpt>
      <trkpt lat="48.794593" lon="10.687915">
        <ele>412.55</ele>
        <time>2026-09-01T00:00:00.0000000+00:00</time>
      </trkpt>
      <trkpt lat="48.794552" lon="10.688151">
        <ele>411.83</ele>
        <time>2026-09-01T00:00:00.0000000+00:00</time>
      </trkpt>
      <trkpt lat="48.794532" lon="10.688496">
        <ele>410.93</ele>
        <time>2026-09-01T00:00:00.0000000+00:00</time>
      </trkpt>
      <trkpt lat="48.794533" lon="10.688566">
        <ele>410.77</ele>
        <time>2026-09-01T00:00:00.0000000+00:00</time>
      </trkpt>
      <trkpt lat="48.794555" lon="10.689311">
        <ele>410.56</ele>
        <time>2026-09-01T00:00:00.0000000+00:00</time>
      </trkpt>
      <trkpt lat="48.794578" lon="10.689449">
        <ele>410.6</ele>
        <time>2026-09-01T00:00:00.0000000+00:00</time>
      </trkpt>
      <trkpt lat="48.79466" lon="10.689692">
        <ele>410.97</ele>
        <time>2026-09-01T00:00:00.0000000+00:00</time>
      </trkpt>
      <trkpt lat="48.794752" lon="10.689858">
        <ele>411.26</ele>
        <time>2026-09-01T00:00:00.0000000+00:00</time>
      </trkpt>
      <trkpt lat="48.794987" lon="10.690088">
        <ele>411.73</ele>
        <time>2026-09-01T00:00:00.0000000+00:00</time>
      </trkpt>
      <trkpt lat="48.795081" lon="10.690186">
        <ele>411.88</ele>
        <time>2026-09-01T00:00:00.0000000+00:00</time>
      </trkpt>
      <trkpt lat="48.795081" lon="10.690186">
        <ele>411.88</ele>
        <time>2026-09-01T00:00:00.0000000+00:00</time>
      </trkpt>
      <trkpt lat="48.795108" lon="10.690214">
        <ele>411.92</ele>
        <time>2026-09-01T00:00:00.0000000+00:00</time>
      </trkpt>
      <trkpt lat="48.795156" lon="10.690263">
        <ele>411.98</ele>
        <time>2026-09-01T00:00:00.0000000+00:00</time>
      </trkpt>
      <trkpt lat="48.795002" lon="10.690517">
        <ele>411.61</ele>
        <time>2026-09-01T00:00:00.0000000+00:00</time>
      </trkpt>
      <trkpt lat="48.794859" lon="10.69087">
        <ele>410.8</ele>
        <time>2026-09-01T00:00:00.0000000+00:00</time>
      </trkpt>
      <trkpt lat="48.794592" lon="10.691565">
        <ele>408.65</ele>
        <time>2026-09-01T00:00:00.0000000+00:00</time>
      </trkpt>
      <trkpt lat="48.794418" lon="10.692169">
        <ele>407.71</ele>
        <time>2026-09-01T00:00:00.0000000+00:00</time>
      </trkpt>
      <trkpt lat="48.794368" lon="10.692542">
        <ele>407.91</ele>
        <time>2026-09-01T00:00:00.0000000+00:00</time>
      </trkpt>
      <trkpt lat="48.794355" lon="10.692921">
        <ele>408.3</ele>
        <time>2026-09-01T00:00:00.0000000+00:00</time>
      </trkpt>
      <trkpt lat="48.794364" lon="10.693851">
        <ele>409.79</ele>
        <time>2026-09-01T00:00:00.0000000+00:00</time>
      </trkpt>
      <trkpt lat="48.794353" lon="10.694238">
        <ele>410.65</ele>
        <time>2026-09-01T00:00:00.0000000+00:00</time>
      </trkpt>
      <trkpt lat="48.794312" lon="10.694653">
        <ele>411.13</ele>
        <time>2026-09-01T00:00:00.0000000+00:00</time>
      </trkpt>
      <trkpt lat="48.794249" lon="10.694973">
        <ele>411.2</ele>
        <time>2026-09-01T00:00:00.0000000+00:00</time>
      </trkpt>
      <trkpt lat="48.794233" lon="10.695029">
        <ele>411.19</ele>
        <time>2026-09-01T00:00:00.0000000+00:00</time>
      </trkpt>
      <trkpt lat="48.794233" lon="10.695029">
        <ele>411.19</ele>
        <time>2026-09-01T00:00:00.0000000+00:00</time>
      </trkpt>
      <trkpt lat="48.794184" lon="10.695199">
        <ele>411.18</ele>
        <time>2026-09-01T00:00:00.0000000+00:00</time>
      </trkpt>
      <trkpt lat="48.794144" lon="10.695334">
        <ele>411.88</ele>
        <time>2026-09-01T00:00:00.0000000+00:00</time>
      </trkpt>
      <trkpt lat="48.794134" lon="10.695367">
        <ele>412.17</ele>
        <time>2026-09-01T00:00:00.0000000+00:00</time>
      </trkpt>
      <trkpt lat="48.794097" lon="10.695475">
        <ele>413.12</ele>
        <time>2026-09-01T00:00:00.0000000+00:00</time>
      </trkpt>
      <trkpt lat="48.794056" lon="10.695568">
        <ele>413.92</ele>
        <time>2026-09-01T00:00:00.0000000+00:00</time>
      </trkpt>
      <trkpt lat="48.794019" lon="10.695649">
        <ele>414.63</ele>
        <time>2026-09-01T00:00:00.0000000+00:00</time>
      </trkpt>
      <trkpt lat="48.793991" lon="10.695711">
        <ele>415.18</ele>
        <time>2026-09-01T00:00:00.0000000+00:00</time>
      </trkpt>
      <trkpt lat="48.79396" lon="10.695779">
        <ele>415.8</ele>
        <time>2026-09-01T00:00:00.0000000+00:00</time>
      </trkpt>
      <trkpt lat="48.793787" lon="10.69609">
        <ele>418.74</ele>
        <time>2026-09-01T00:00:00.0000000+00:00</time>
      </trkpt>
      <trkpt lat="48.793692" lon="10.696238">
        <ele>421.38</ele>
        <time>2026-09-01T00:00:00.0000000+00:00</time>
      </trkpt>
      <trkpt lat="48.793481" lon="10.696468">
        <ele>425.55</ele>
        <time>2026-09-01T00:00:00.0000000+00:00</time>
      </trkpt>
      <trkpt lat="48.793301" lon="10.696617">
        <ele>426.87</ele>
        <time>2026-09-01T00:00:00.0000000+00:00</time>
      </trkpt>
      <trkpt lat="48.79314" lon="10.696728">
        <ele>427.58</ele>
        <time>2026-09-01T00:00:00.0000000+00:00</time>
      </trkpt>
      <trkpt lat="48.792965" lon="10.696827">
        <ele>427.92</ele>
        <time>2026-09-01T00:00:00.0000000+00:00</time>
      </trkpt>
      <trkpt lat="48.792709" lon="10.69691">
        <ele>427.16</ele>
        <time>2026-09-01T00:00:00.0000000+00:00</time>
      </trkpt>
      <trkpt lat="48.792322" lon="10.696931">
        <ele>426.47</ele>
        <time>2026-09-01T00:00:00.0000000+00:00</time>
      </trkpt>
      <trkpt lat="48.791987" lon="10.696861">
        <ele>423.99</ele>
        <time>2026-09-01T00:00:00.0000000+00:00</time>
      </trkpt>
      <trkpt lat="48.791488" lon="10.696682">
        <ele>419.12</ele>
        <time>2026-09-01T00:00:00.0000000+00:00</time>
      </trkpt>
      <trkpt lat="48.791204" lon="10.696589">
        <ele>416.91</ele>
        <time>2026-09-01T00:00:00.0000000+00:00</time>
      </trkpt>
      <trkpt lat="48.790875" lon="10.696524">
        <ele>415.02</ele>
        <time>2026-09-01T00:00:00.0000000+00:00</time>
      </trkpt>
      <trkpt lat="48.790633" lon="10.69651">
        <ele>413.99</ele>
        <time>2026-09-01T00:00:00.0000000+00:00</time>
      </trkpt>
      <trkpt lat="48.790394" lon="10.696506">
        <ele>413.2</ele>
        <time>2026-09-01T00:00:00.0000000+00:00</time>
      </trkpt>
      <trkpt lat="48.790215" lon="10.696502">
        <ele>412.61</ele>
        <time>2026-09-01T00:00:00.0000000+00:00</time>
      </trkpt>
      <trkpt lat="48.790215" lon="10.696502">
        <ele>412.61</ele>
        <time>2026-09-01T00:00:00.0000000+00:00</time>
      </trkpt>
      <trkpt lat="48.790134" lon="10.6965">
        <ele>412.37</ele>
        <time>2026-09-01T00:00:00.0000000+00:00</time>
      </trkpt>
      <trkpt lat="48.790038" lon="10.696509">
        <ele>412.23</ele>
        <time>2026-09-01T00:00:00.0000000+00:00</time>
      </trkpt>
      <trkpt lat="48.789991" lon="10.696547">
        <ele>412.49</ele>
        <time>2026-09-01T00:00:00.0000000+00:00</time>
      </trkpt>
      <trkpt lat="48.789954" lon="10.69662">
        <ele>413.09</ele>
        <time>2026-09-01T00:00:00.0000000+00:00</time>
      </trkpt>
      <trkpt lat="48.789954" lon="10.69662">
        <ele>413.09</ele>
        <time>2026-09-01T00:00:00.0000000+00:00</time>
      </trkpt>
      <trkpt lat="48.789937" lon="10.696667">
        <ele>413.48</ele>
        <time>2026-09-01T00:00:00.0000000+00:00</time>
      </trkpt>
      <trkpt lat="48.789937" lon="10.696667">
        <ele>413.48</ele>
        <time>2026-09-01T00:00:00.0000000+00:00</time>
      </trkpt>
      <trkpt lat="48.789913" lon="10.696768">
        <ele>414.34</ele>
        <time>2026-09-01T00:00:00.0000000+00:00</time>
      </trkpt>
      <trkpt lat="48.789913" lon="10.696768">
        <ele>414.34</ele>
        <time>2026-09-01T00:00:00.0000000+00:00</time>
      </trkpt>
      <trkpt lat="48.789811" lon="10.696765">
        <ele>413.91</ele>
        <time>2026-09-01T00:00:00.0000000+00:00</time>
      </trkpt>
      <trkpt lat="48.789811" lon="10.696765">
        <ele>413.91</ele>
        <time>2026-09-01T00:00:00.0000000+00:00</time>
      </trkpt>
      <trkpt lat="48.789811" lon="10.696765">
        <ele>413.91</ele>
        <time>2026-09-01T00:00:00.0000000+00:00</time>
      </trkpt>
      <trkpt lat="48.789576" lon="10.696749">
        <ele>412.87</ele>
        <time>2026-09-01T00:00:00.0000000+00:00</time>
      </trkpt>
      <trkpt lat="48.789243" lon="10.696628">
        <ele>411.69</ele>
        <time>2026-09-01T00:00:00.0000000+00:00</time>
      </trkpt>
      <trkpt lat="48.789116" lon="10.69655">
        <ele>411.84</ele>
        <time>2026-09-01T00:00:00.0000000+00:00</time>
      </trkpt>
      <trkpt lat="48.789004" lon="10.696404">
        <ele>411.63</ele>
        <time>2026-09-01T00:00:00.0000000+00:00</time>
      </trkpt>
      <trkpt lat="48.788909" lon="10.696246">
        <ele>411.36</ele>
        <time>2026-09-01T00:00:00.0000000+00:00</time>
      </trkpt>
      <trkpt lat="48.788842" lon="10.696069">
        <ele>410.94</ele>
        <time>2026-09-01T00:00:00.0000000+00:00</time>
      </trkpt>
      <trkpt lat="48.788775" lon="10.695844">
        <ele>410.53</ele>
        <time>2026-09-01T00:00:00.0000000+00:00</time>
      </trkpt>
      <trkpt lat="48.788721" lon="10.695624">
        <ele>410.06</ele>
        <time>2026-09-01T00:00:00.0000000+00:00</time>
      </trkpt>
      <trkpt lat="48.788641" lon="10.695306">
        <ele>409.4</ele>
        <time>2026-09-01T00:00:00.0000000+00:00</time>
      </trkpt>
      <trkpt lat="48.788578" lon="10.695065">
        <ele>408.53</ele>
        <time>2026-09-01T00:00:00.0000000+00:00</time>
      </trkpt>
      <trkpt lat="48.788545" lon="10.694938">
        <ele>407.95</ele>
        <time>2026-09-01T00:00:00.0000000+00:00</time>
      </trkpt>
      <trkpt lat="48.788394" lon="10.694298">
        <ele>406.74</ele>
        <time>2026-09-01T00:00:00.0000000+00:00</time>
      </trkpt>
      <trkpt lat="48.788376" lon="10.694217">
        <ele>406.97</ele>
        <time>2026-09-01T00:00:00.0000000+00:00</time>
      </trkpt>
      <trkpt lat="48.788283" lon="10.693794">
        <ele>407.92</ele>
        <time>2026-09-01T00:00:00.0000000+00:00</time>
      </trkpt>
      <trkpt lat="48.788246" lon="10.693628">
        <ele>408.21</ele>
        <time>2026-09-01T00:00:00.0000000+00:00</time>
      </trkpt>
      <trkpt lat="48.788153" lon="10.693213">
        <ele>409.03</ele>
        <time>2026-09-01T00:00:00.0000000+00:00</time>
      </trkpt>
      <trkpt lat="48.788039" lon="10.6928">
        <ele>409.33</ele>
        <time>2026-09-01T00:00:00.0000000+00:00</time>
      </trkpt>
      <trkpt lat="48.787909" lon="10.692518">
        <ele>409.09</ele>
        <time>2026-09-01T00:00:00.0000000+00:00</time>
      </trkpt>
      <trkpt lat="48.787803" lon="10.692317">
        <ele>408.4</ele>
        <time>2026-09-01T00:00:00.0000000+00:00</time>
      </trkpt>
      <trkpt lat="48.787591" lon="10.692066">
        <ele>407.06</ele>
        <time>2026-09-01T00:00:00.0000000+00:00</time>
      </trkpt>
      <trkpt lat="48.787372" lon="10.691891">
        <ele>406.72</ele>
        <time>2026-09-01T00:00:00.0000000+00:00</time>
      </trkpt>
      <trkpt lat="48.787173" lon="10.691772">
        <ele>407.1</ele>
        <time>2026-09-01T00:00:00.0000000+00:00</time>
      </trkpt>
      <trkpt lat="48.787173" lon="10.691772">
        <ele>407.1</ele>
        <time>2026-09-01T00:00:00.0000000+00:00</time>
      </trkpt>
      <trkpt lat="48.787173" lon="10.691772">
        <ele>407.1</ele>
        <time>2026-09-01T00:00:00.0000000+00:00</time>
      </trkpt>
      <trkpt lat="48.787113" lon="10.691752">
        <ele>407.22</ele>
        <time>2026-09-01T00:00:00.0000000+00:00</time>
      </trkpt>
      <trkpt lat="48.787099" lon="10.69175">
        <ele>407.24</ele>
        <time>2026-09-01T00:00:00.0000000+00:00</time>
      </trkpt>
      <trkpt lat="48.786925" lon="10.691736">
        <ele>407.6</ele>
        <time>2026-09-01T00:00:00.0000000+00:00</time>
      </trkpt>
      <trkpt lat="48.78678" lon="10.691741">
        <ele>407.76</ele>
        <time>2026-09-01T00:00:00.0000000+00:00</time>
      </trkpt>
      <trkpt lat="48.78678" lon="10.691741">
        <ele>407.76</ele>
        <time>2026-09-01T00:00:00.0000000+00:00</time>
      </trkpt>
      <trkpt lat="48.78678" lon="10.691741">
        <ele>407.76</ele>
        <time>2026-09-01T00:00:00.0000000+00:00</time>
      </trkpt>
      <trkpt lat="48.78678" lon="10.691741">
        <ele>407.76</ele>
        <time>2026-09-01T00:00:00.0000000+00:00</time>
      </trkpt>
      <trkpt lat="48.78678" lon="10.691741">
        <ele>407.76</ele>
        <time>2026-09-01T00:00:00.0000000+00:00</time>
      </trkpt>
      <trkpt lat="48.78678" lon="10.691741">
        <ele>407.76</ele>
        <time>2026-09-01T00:00:00.0000000+00:00</time>
      </trkpt>
      <trkpt lat="48.78678" lon="10.691741">
        <ele>407.76</ele>
        <time>2026-09-01T00:00:00.0000000+00:00</time>
      </trkpt>
      <trkpt lat="48.78678" lon="10.691741">
        <ele>407.76</ele>
        <time>2026-09-01T00:00:00.0000000+00:00</time>
      </trkpt>
      <trkpt lat="48.78678" lon="10.691741">
        <ele>407.76</ele>
        <time>2026-09-01T00:00:00.0000000+00:00</time>
      </trkpt>
      <trkpt lat="48.78678" lon="10.691741">
        <ele>407.76</ele>
        <time>2026-09-01T00:00:00.0000000+00:00</time>
      </trkpt>
      <trkpt lat="48.78678" lon="10.691741">
        <ele>407.76</ele>
        <time>2026-09-01T00:00:00.0000000+00:00</time>
      </trkpt>
      <trkpt lat="48.78678" lon="10.691741">
        <ele>407.76</ele>
        <time>2026-09-01T00:00:00.0000000+00:00</time>
      </trkpt>
      <trkpt lat="48.78678" lon="10.691741">
        <ele>407.76</ele>
        <time>2026-09-01T00:00:00.0000000+00:00</time>
      </trkpt>
      <trkpt lat="48.78678" lon="10.691741">
        <ele>407.76</ele>
        <time>2026-09-01T00:00:00.0000000+00:00</time>
      </trkpt>
      <trkpt lat="48.78678" lon="10.691741">
        <ele>407.76</ele>
        <time>2026-09-01T00:00:00.0000000+00:00</time>
      </trkpt>
      <trkpt lat="48.78678" lon="10.691741">
        <ele>407.76</ele>
        <time>2026-09-01T00:00:00.0000000+00:00</time>
      </trkpt>
      <trkpt lat="48.78678" lon="10.691741">
        <ele>407.76</ele>
        <time>2026-09-01T00:00:00.0000000+00:00</time>
      </trkpt>
      <trkpt lat="48.78678" lon="10.691741">
        <ele>407.76</ele>
        <time>2026-09-01T00:00:00.0000000+00:00</time>
      </trkpt>
      <trkpt lat="48.78678" lon="10.691741">
        <ele>407.76</ele>
        <time>2026-09-01T00:00:00.0000000+00:00</time>
      </trkpt>
      <trkpt lat="48.78678" lon="10.691741">
        <ele>407.76</ele>
        <time>2026-09-01T00:00:00.0000000+00:00</time>
      </trkpt>
      <trkpt lat="48.78663" lon="10.691752">
        <ele>407.74</ele>
        <time>2026-09-01T00:00:00.0000000+00:00</time>
      </trkpt>
      <trkpt lat="48.786633" lon="10.691785">
        <ele>407.79</ele>
        <time>2026-09-01T00:00:00.0000000+00:00</time>
      </trkpt>
      <trkpt lat="48.786652" lon="10.691965">
        <ele>408.24</ele>
        <time>2026-09-01T00:00:00.0000000+00:00</time>
      </trkpt>
      <trkpt lat="48.786676" lon="10.692201">
        <ele>409.6</ele>
        <time>2026-09-01T00:00:00.0000000+00:00</time>
      </trkpt>
      <trkpt lat="48.786681" lon="10.69225">
        <ele>409.88</ele>
        <time>2026-09-01T00:00:00.0000000+00:00</time>
      </trkpt>
      <trkpt lat="48.786679" lon="10.692931">
        <ele>413.26</ele>
        <time>2026-09-01T00:00:00.0000000+00:00</time>
      </trkpt>
      <trkpt lat="48.786583" lon="10.693617">
        <ele>415.16</ele>
        <time>2026-09-01T00:00:00.0000000+00:00</time>
      </trkpt>
      <trkpt lat="48.786553" lon="10.693738">
        <ele>415.83</ele>
        <time>2026-09-01T00:00:00.0000000+00:00</time>
      </trkpt>
      <trkpt lat="48.786487" lon="10.693808">
        <ele>416.2</ele>
        <time>2026-09-01T00:00:00.0000000+00:00</time>
      </trkpt>
      <trkpt lat="48.786487" lon="10.693808">
        <ele>416.2</ele>
        <time>2026-09-01T00:00:00.0000000+00:00</time>
      </trkpt>
      <trkpt lat="48.786363" lon="10.693855">
        <ele>416.41</ele>
        <time>2026-09-01T00:00:00.0000000+00:00</time>
      </trkpt>
      <trkpt lat="48.786278" lon="10.693879">
        <ele>416.51</ele>
        <time>2026-09-01T00:00:00.0000000+00:00</time>
      </trkpt>
      <trkpt lat="48.786126" lon="10.693914">
        <ele>416.62</ele>
        <time>2026-09-01T00:00:00.0000000+00:00</time>
      </trkpt>
      <trkpt lat="48.786008" lon="10.693943">
        <ele>416.69</ele>
        <time>2026-09-01T00:00:00.0000000+00:00</time>
      </trkpt>
      <trkpt lat="48.785794" lon="10.694026">
        <ele>416.17</ele>
        <time>2026-09-01T00:00:00.0000000+00:00</time>
      </trkpt>
      <trkpt lat="48.785606" lon="10.694142">
        <ele>415.71</ele>
        <time>2026-09-01T00:00:00.0000000+00:00</time>
      </trkpt>
      <trkpt lat="48.785606" lon="10.694142">
        <ele>415.71</ele>
        <time>2026-09-01T00:00:00.0000000+00:00</time>
      </trkpt>
      <trkpt lat="48.785597" lon="10.694148">
        <ele>415.69</ele>
        <time>2026-09-01T00:00:00.0000000+00:00</time>
      </trkpt>
      <trkpt lat="48.785514" lon="10.694248">
        <ele>415.55</ele>
        <time>2026-09-01T00:00:00.0000000+00:00</time>
      </trkpt>
      <trkpt lat="48.785475" lon="10.694367">
        <ele>415.64</ele>
        <time>2026-09-01T00:00:00.0000000+00:00</time>
      </trkpt>
      <trkpt lat="48.785475" lon="10.694367">
        <ele>415.64</ele>
        <time>2026-09-01T00:00:00.0000000+00:00</time>
      </trkpt>
      <trkpt lat="48.785471" lon="10.694591">
        <ele>416.36</ele>
        <time>2026-09-01T00:00:00.0000000+00:00</time>
      </trkpt>
      <trkpt lat="48.785478" lon="10.694699">
        <ele>416.8</ele>
        <time>2026-09-01T00:00:00.0000000+00:00</time>
      </trkpt>
      <trkpt lat="48.785478" lon="10.694699">
        <ele>416.8</ele>
        <time>2026-09-01T00:00:00.0000000+00:00</time>
      </trkpt>
      <trkpt lat="48.785487" lon="10.694817">
        <ele>417.28</ele>
        <time>2026-09-01T00:00:00.0000000+00:00</time>
      </trkpt>
      <trkpt lat="48.785488" lon="10.694835">
        <ele>417.35</ele>
        <time>2026-09-01T00:00:00.0000000+00:00</time>
      </trkpt>
      <trkpt lat="48.785496" lon="10.695182">
        <ele>418.64</ele>
        <time>2026-09-01T00:00:00.0000000+00:00</time>
      </trkpt>
      <trkpt lat="48.785496" lon="10.695182">
        <ele>418.64</ele>
        <time>2026-09-01T00:00:00.0000000+00:00</time>
      </trkpt>
      <trkpt lat="48.785496" lon="10.695182">
        <ele>418.64</ele>
        <time>2026-09-01T00:00:00.0000000+00:00</time>
      </trkpt>
      <trkpt lat="48.78544" lon="10.695195">
        <ele>418.35</ele>
        <time>2026-09-01T00:00:00.0000000+00:00</time>
      </trkpt>
      <trkpt lat="48.785316" lon="10.695225">
        <ele>417.72</ele>
        <time>2026-09-01T00:00:00.0000000+00:00</time>
      </trkpt>
      <trkpt lat="48.785316" lon="10.695225">
        <ele>417.72</ele>
        <time>2026-09-01T00:00:00.0000000+00:00</time>
      </trkpt>
      <trkpt lat="48.784929" lon="10.695338">
        <ele>417.02</ele>
        <time>2026-09-01T00:00:00.0000000+00:00</time>
      </trkpt>
      <trkpt lat="48.784879" lon="10.695357">
        <ele>417.07</ele>
        <time>2026-09-01T00:00:00.0000000+00:00</time>
      </trkpt>
      <trkpt lat="48.784879" lon="10.695357">
        <ele>417.07</ele>
        <time>2026-09-01T00:00:00.0000000+00:00</time>
      </trkpt>
      <trkpt lat="48.784831" lon="10.695376">
        <ele>417.12</ele>
        <time>2026-09-01T00:00:00.0000000+00:00</time>
      </trkpt>
      <trkpt lat="48.784719" lon="10.695423">
        <ele>417.3</ele>
        <time>2026-09-01T00:00:00.0000000+00:00</time>
      </trkpt>
      <trkpt lat="48.784577" lon="10.695493">
        <ele>417.68</ele>
        <time>2026-09-01T00:00:00.0000000+00:00</time>
      </trkpt>
      <trkpt lat="48.784534" lon="10.695515">
        <ele>417.82</ele>
        <time>2026-09-01T00:00:00.0000000+00:00</time>
      </trkpt>
      <trkpt lat="48.784534" lon="10.695515">
        <ele>417.82</ele>
        <time>2026-09-01T00:00:00.0000000+00:00</time>
      </trkpt>
      <trkpt lat="48.784336" lon="10.69562">
        <ele>418.61</ele>
        <time>2026-09-01T00:00:00.0000000+00:00</time>
      </trkpt>
      <trkpt lat="48.784188" lon="10.695702">
        <ele>418.83</ele>
        <time>2026-09-01T00:00:00.0000000+00:00</time>
      </trkpt>
      <trkpt lat="48.78402" lon="10.695794">
        <ele>418.99</ele>
        <time>2026-09-01T00:00:00.0000000+00:00</time>
      </trkpt>
      <trkpt lat="48.78402" lon="10.695794">
        <ele>418.99</ele>
        <time>2026-09-01T00:00:00.0000000+00:00</time>
      </trkpt>
      <trkpt lat="48.78402" lon="10.695794">
        <ele>418.99</ele>
        <time>2026-09-01T00:00:00.0000000+00:00</time>
      </trkpt>
      <trkpt lat="48.783972" lon="10.69582">
        <ele>419.02</ele>
        <time>2026-09-01T00:00:00.0000000+00:00</time>
      </trkpt>
      <trkpt lat="48.783972" lon="10.69582">
        <ele>419.02</ele>
        <time>2026-09-01T00:00:00.0000000+00:00</time>
      </trkpt>
      <trkpt lat="48.783904" lon="10.69586">
        <ele>419.06</ele>
        <time>2026-09-01T00:00:00.0000000+00:00</time>
      </trkpt>
      <trkpt lat="48.783704" lon="10.696013">
        <ele>419.29</ele>
        <time>2026-09-01T00:00:00.0000000+00:00</time>
      </trkpt>
      <trkpt lat="48.783626" lon="10.696389">
        <ele>421.12</ele>
        <time>2026-09-01T00:00:00.0000000+00:00</time>
      </trkpt>
      <trkpt lat="48.783548" lon="10.696885">
        <ele>423.84</ele>
        <time>2026-09-01T00:00:00.0000000+00:00</time>
      </trkpt>
      <trkpt lat="48.783508" lon="10.697149">
        <ele>426.09</ele>
        <time>2026-09-01T00:00:00.0000000+00:00</time>
      </trkpt>
      <trkpt lat="48.783508" lon="10.697149">
        <ele>426.09</ele>
        <time>2026-09-01T00:00:00.0000000+00:00</time>
      </trkpt>
      <trkpt lat="48.783472" lon="10.697384">
        <ele>427.59</ele>
        <time>2026-09-01T00:00:00.0000000+00:00</time>
      </trkpt>
      <trkpt lat="48.783449" lon="10.697497">
        <ele>428.18</ele>
        <time>2026-09-01T00:00:00.0000000+00:00</time>
      </trkpt>
      <trkpt lat="48.783449" lon="10.697497">
        <ele>428.18</ele>
        <time>2026-09-01T00:00:00.0000000+00:00</time>
      </trkpt>
      <trkpt lat="48.783449" lon="10.697497">
        <ele>428.18</ele>
        <time>2026-09-01T00:00:00.0000000+00:00</time>
      </trkpt>
      <trkpt lat="48.783221" lon="10.698054">
        <ele>428.61</ele>
        <time>2026-09-01T00:00:00.0000000+00:00</time>
      </trkpt>
      <trkpt lat="48.783121" lon="10.698181">
        <ele>428.06</ele>
        <time>2026-09-01T00:00:00.0000000+00:00</time>
      </trkpt>
      <trkpt lat="48.783121" lon="10.698181">
        <ele>428.06</ele>
        <time>2026-09-01T00:00:00.0000000+00:00</time>
      </trkpt>
      <trkpt lat="48.782654" lon="10.698842">
        <ele>427.74</ele>
        <time>2026-09-01T00:00:00.0000000+00:00</time>
      </trkpt>
      <trkpt lat="48.782221" lon="10.699579">
        <ele>426.44</ele>
        <time>2026-09-01T00:00:00.0000000+00:00</time>
      </trkpt>
      <trkpt lat="48.781773" lon="10.700546">
        <ele>428.86</ele>
        <time>2026-09-01T00:00:00.0000000+00:00</time>
      </trkpt>
      <trkpt lat="48.78161" lon="10.70091">
        <ele>431.51</ele>
        <time>2026-09-01T00:00:00.0000000+00:00</time>
      </trkpt>
      <trkpt lat="48.781511" lon="10.701122">
        <ele>432.93</ele>
        <time>2026-09-01T00:00:00.0000000+00:00</time>
      </trkpt>
      <trkpt lat="48.781291" lon="10.701535">
        <ele>434.53</ele>
        <time>2026-09-01T00:00:00.0000000+00:00</time>
      </trkpt>
      <trkpt lat="48.781184" lon="10.701704">
        <ele>435.23</ele>
        <time>2026-09-01T00:00:00.0000000+00:00</time>
      </trkpt>
      <trkpt lat="48.781028" lon="10.701914">
        <ele>436.1</ele>
        <time>2026-09-01T00:00:00.0000000+00:00</time>
      </trkpt>
      <trkpt lat="48.780809" lon="10.702146">
        <ele>436.29</ele>
        <time>2026-09-01T00:00:00.0000000+00:00</time>
      </trkpt>
      <trkpt lat="48.78063" lon="10.702313">
        <ele>436.55</ele>
        <time>2026-09-01T00:00:00.0000000+00:00</time>
      </trkpt>
      <trkpt lat="48.780381" lon="10.702536">
        <ele>437.36</ele>
        <time>2026-09-01T00:00:00.0000000+00:00</time>
      </trkpt>
      <trkpt lat="48.780092" lon="10.70278">
        <ele>438.21</ele>
        <time>2026-09-01T00:00:00.0000000+00:00</time>
      </trkpt>
      <trkpt lat="48.779683" lon="10.703009">
        <ele>436.89</ele>
        <time>2026-09-01T00:00:00.0000000+00:00</time>
      </trkpt>
      <trkpt lat="48.779256" lon="10.703218">
        <ele>438</ele>
        <time>2026-09-01T00:00:00.0000000+00:00</time>
      </trkpt>
      <trkpt lat="48.778872" lon="10.703433">
        <ele>443.45</ele>
        <time>2026-09-01T00:00:00.0000000+00:00</time>
      </trkpt>
      <trkpt lat="48.778555" lon="10.703712">
        <ele>451.15</ele>
        <time>2026-09-01T00:00:00.0000000+00:00</time>
      </trkpt>
      <trkpt lat="48.77829" lon="10.703998">
        <ele>453.24</ele>
        <time>2026-09-01T00:00:00.0000000+00:00</time>
      </trkpt>
      <trkpt lat="48.778" lon="10.704362">
        <ele>456.16</ele>
        <time>2026-09-01T00:00:00.0000000+00:00</time>
      </trkpt>
      <trkpt lat="48.777616" lon="10.704922">
        <ele>457.96</ele>
        <time>2026-09-01T00:00:00.0000000+00:00</time>
      </trkpt>
      <trkpt lat="48.777388" lon="10.705311">
        <ele>457.98</ele>
        <time>2026-09-01T00:00:00.0000000+00:00</time>
      </trkpt>
      <trkpt lat="48.777071" lon="10.705764">
        <ele>454.13</ele>
        <time>2026-09-01T00:00:00.0000000+00:00</time>
      </trkpt>
      <trkpt lat="48.776825" lon="10.706042">
        <ele>450.18</ele>
        <time>2026-09-01T00:00:00.0000000+00:00</time>
      </trkpt>
      <trkpt lat="48.776537" lon="10.706342">
        <ele>442.01</ele>
        <time>2026-09-01T00:00:00.0000000+00:00</time>
      </trkpt>
      <trkpt lat="48.776341" lon="10.706542">
        <ele>436.55</ele>
        <time>2026-09-01T00:00:00.0000000+00:00</time>
      </trkpt>
      <trkpt lat="48.776129" lon="10.706759">
        <ele>430.9</ele>
        <time>2026-09-01T00:00:00.0000000+00:00</time>
      </trkpt>
      <trkpt lat="48.775924" lon="10.706964">
        <ele>426.78</ele>
        <time>2026-09-01T00:00:00.0000000+00:00</time>
      </trkpt>
      <trkpt lat="48.775652" lon="10.707236">
        <ele>423.19</ele>
        <time>2026-09-01T00:00:00.0000000+00:00</time>
      </trkpt>
      <trkpt lat="48.775245" lon="10.707647">
        <ele>417.81</ele>
        <time>2026-09-01T00:00:00.0000000+00:00</time>
      </trkpt>
      <trkpt lat="48.77442" lon="10.708516">
        <ele>416.16</ele>
        <time>2026-09-01T00:00:00.0000000+00:00</time>
      </trkpt>
      <trkpt lat="48.773661" lon="10.709455">
        <ele>415.89</ele>
        <time>2026-09-01T00:00:00.0000000+00:00</time>
      </trkpt>
      <trkpt lat="48.773057" lon="10.710424">
        <ele>415.22</ele>
        <time>2026-09-01T00:00:00.0000000+00:00</time>
      </trkpt>
      <trkpt lat="48.772516" lon="10.711554">
        <ele>416.31</ele>
        <time>2026-09-01T00:00:00.0000000+00:00</time>
      </trkpt>
      <trkpt lat="48.772339" lon="10.71201">
        <ele>417.12</ele>
        <time>2026-09-01T00:00:00.0000000+00:00</time>
      </trkpt>
      <trkpt lat="48.772318" lon="10.712067">
        <ele>417.19</ele>
        <time>2026-09-01T00:00:00.0000000+00:00</time>
      </trkpt>
      <trkpt lat="48.772318" lon="10.712067">
        <ele>417.19</ele>
        <time>2026-09-01T00:00:00.0000000+00:00</time>
      </trkpt>
      <trkpt lat="48.772305" lon="10.712101">
        <ele>417.23</ele>
        <time>2026-09-01T00:00:00.0000000+00:00</time>
      </trkpt>
      <trkpt lat="48.772192" lon="10.712402">
        <ele>417.59</ele>
        <time>2026-09-01T00:00:00.0000000+00:00</time>
      </trkpt>
      <trkpt lat="48.772192" lon="10.712402">
        <ele>417.59</ele>
        <time>2026-09-01T00:00:00.0000000+00:00</time>
      </trkpt>
      <trkpt lat="48.772192" lon="10.712402">
        <ele>417.59</ele>
        <time>2026-09-01T00:00:00.0000000+00:00</time>
      </trkpt>
      <trkpt lat="48.772064" lon="10.712779">
        <ele>418.05</ele>
        <time>2026-09-01T00:00:00.0000000+00:00</time>
      </trkpt>
      <trkpt lat="48.772017" lon="10.71295">
        <ele>418.25</ele>
        <time>2026-09-01T00:00:00.0000000+00:00</time>
      </trkpt>
      <trkpt lat="48.772017" lon="10.71295">
        <ele>418.25</ele>
        <time>2026-09-01T00:00:00.0000000+00:00</time>
      </trkpt>
      <trkpt lat="48.772005" lon="10.712995">
        <ele>418.31</ele>
        <time>2026-09-01T00:00:00.0000000+00:00</time>
      </trkpt>
      <trkpt lat="48.771968" lon="10.713128">
        <ele>418.47</ele>
        <time>2026-09-01T00:00:00.0000000+00:00</time>
      </trkpt>
      <trkpt lat="48.771871" lon="10.713506">
        <ele>418.92</ele>
        <time>2026-09-01T00:00:00.0000000+00:00</time>
      </trkpt>
      <trkpt lat="48.771697" lon="10.714246">
        <ele>418</ele>
        <time>2026-09-01T00:00:00.0000000+00:00</time>
      </trkpt>
      <trkpt lat="48.771518" lon="10.715021">
        <ele>417.1</ele>
        <time>2026-09-01T00:00:00.0000000+00:00</time>
      </trkpt>
      <trkpt lat="48.771367" lon="10.715691">
        <ele>415.66</ele>
        <time>2026-09-01T00:00:00.0000000+00:00</time>
      </trkpt>
      <trkpt lat="48.771195" lon="10.716436">
        <ele>414.06</ele>
        <time>2026-09-01T00:00:00.0000000+00:00</time>
      </trkpt>
      <trkpt lat="48.771132" lon="10.71671">
        <ele>413.31</ele>
        <time>2026-09-01T00:00:00.0000000+00:00</time>
      </trkpt>
      <trkpt lat="48.771105" lon="10.716827">
        <ele>412.94</ele>
        <time>2026-09-01T00:00:00.0000000+00:00</time>
      </trkpt>
      <trkpt lat="48.771105" lon="10.716827">
        <ele>412.94</ele>
        <time>2026-09-01T00:00:00.0000000+00:00</time>
      </trkpt>
      <trkpt lat="48.771092" lon="10.716884">
        <ele>412.75</ele>
        <time>2026-09-01T00:00:00.0000000+00:00</time>
      </trkpt>
      <trkpt lat="48.771008" lon="10.717281">
        <ele>412.77</ele>
        <time>2026-09-01T00:00:00.0000000+00:00</time>
      </trkpt>
      <trkpt lat="48.771008" lon="10.717281">
        <ele>412.77</ele>
        <time>2026-09-01T00:00:00.0000000+00:00</time>
      </trkpt>
      <trkpt lat="48.770956" lon="10.717557">
        <ele>412.95</ele>
        <time>2026-09-01T00:00:00.0000000+00:00</time>
      </trkpt>
      <trkpt lat="48.770956" lon="10.717557">
        <ele>412.95</ele>
        <time>2026-09-01T00:00:00.0000000+00:00</time>
      </trkpt>
      <trkpt lat="48.770874" lon="10.71798">
        <ele>413.04</ele>
        <time>2026-09-01T00:00:00.0000000+00:00</time>
      </trkpt>
      <trkpt lat="48.770721" lon="10.719095">
        <ele>414.89</ele>
        <time>2026-09-01T00:00:00.0000000+00:00</time>
      </trkpt>
      <trkpt lat="48.770544" lon="10.72022">
        <ele>420.82</ele>
        <time>2026-09-01T00:00:00.0000000+00:00</time>
      </trkpt>
      <trkpt lat="48.770218" lon="10.72119">
        <ele>424.62</ele>
        <time>2026-09-01T00:00:00.0000000+00:00</time>
      </trkpt>
      <trkpt lat="48.770162" lon="10.721325">
        <ele>424.94</ele>
        <time>2026-09-01T00:00:00.0000000+00:00</time>
      </trkpt>
      <trkpt lat="48.769898" lon="10.721885">
        <ele>424.89</ele>
        <time>2026-09-01T00:00:00.0000000+00:00</time>
      </trkpt>
      <trkpt lat="48.769644" lon="10.722296">
        <ele>421.09</ele>
        <time>2026-09-01T00:00:00.0000000+00:00</time>
      </trkpt>
      <trkpt lat="48.768797" lon="10.723518">
        <ele>415.28</ele>
        <time>2026-09-01T00:00:00.0000000+00:00</time>
      </trkpt>
      <trkpt lat="48.767796" lon="10.724776">
        <ele>412.18</ele>
        <time>2026-09-01T00:00:00.0000000+00:00</time>
      </trkpt>
      <trkpt lat="48.767042" lon="10.725664">
        <ele>411.99</ele>
        <time>2026-09-01T00:00:00.0000000+00:00</time>
      </trkpt>
      <trkpt lat="48.766672" lon="10.726096">
        <ele>412.04</ele>
        <time>2026-09-01T00:00:00.0000000+00:00</time>
      </trkpt>
      <trkpt lat="48.766565" lon="10.726222">
        <ele>412.06</ele>
        <time>2026-09-01T00:00:00.0000000+00:00</time>
      </trkpt>
      <trkpt lat="48.766565" lon="10.726222">
        <ele>412.06</ele>
        <time>2026-09-01T00:00:00.0000000+00:00</time>
      </trkpt>
      <trkpt lat="48.766499" lon="10.7263">
        <ele>412.1</ele>
        <time>2026-09-01T00:00:00.0000000+00:00</time>
      </trkpt>
      <trkpt lat="48.766499" lon="10.7263">
        <ele>412.1</ele>
        <time>2026-09-01T00:00:00.0000000+00:00</time>
      </trkpt>
      <trkpt lat="48.76641" lon="10.726408">
        <ele>412.18</ele>
        <time>2026-09-01T00:00:00.0000000+00:00</time>
      </trkpt>
      <trkpt lat="48.766287" lon="10.726468">
        <ele>411.84</ele>
        <time>2026-09-01T00:00:00.0000000+00:00</time>
      </trkpt>
      <trkpt lat="48.766176" lon="10.726501">
        <ele>411.43</ele>
        <time>2026-09-01T00:00:00.0000000+00:00</time>
      </trkpt>
      <trkpt lat="48.766008" lon="10.726508">
        <ele>410.75</ele>
        <time>2026-09-01T00:00:00.0000000+00:00</time>
      </trkpt>
      <trkpt lat="48.765867" lon="10.726459">
        <ele>410.97</ele>
        <time>2026-09-01T00:00:00.0000000+00:00</time>
      </trkpt>
      <trkpt lat="48.765713" lon="10.726368">
        <ele>410.98</ele>
        <time>2026-09-01T00:00:00.0000000+00:00</time>
      </trkpt>
      <trkpt lat="48.765694" lon="10.726355999999999">
        <ele>410.97</ele>
        <time>2026-09-01T00:00:00.0000000+00:00</time>
      </trkpt>
      <trkpt lat="48.765363" lon="10.726121">
        <ele>410.75</ele>
        <time>2026-09-01T00:00:00.0000000+00:00</time>
      </trkpt>
      <trkpt lat="48.765194" lon="10.72598">
        <ele>410.32</ele>
        <time>2026-09-01T00:00:00.0000000+00:00</time>
      </trkpt>
      <trkpt lat="48.765194" lon="10.72598">
        <ele>410.32</ele>
        <time>2026-09-01T00:00:00.0000000+00:00</time>
      </trkpt>
      <trkpt lat="48.765025" lon="10.725821">
        <ele>409.59</ele>
        <time>2026-09-01T00:00:00.0000000+00:00</time>
      </trkpt>
      <trkpt lat="48.764834" lon="10.725631">
        <ele>408.68</ele>
        <time>2026-09-01T00:00:00.0000000+00:00</time>
      </trkpt>
      <trkpt lat="48.764834" lon="10.725631">
        <ele>408.68</ele>
        <time>2026-09-01T00:00:00.0000000+00:00</time>
      </trkpt>
      <trkpt lat="48.764834" lon="10.725631">
        <ele>408.68</ele>
        <time>2026-09-01T00:00:00.0000000+00:00</time>
      </trkpt>
      <trkpt lat="48.764608" lon="10.725325">
        <ele>406.92</ele>
        <time>2026-09-01T00:00:00.0000000+00:00</time>
      </trkpt>
      <trkpt lat="48.764007" lon="10.724486">
        <ele>405.53</ele>
        <time>2026-09-01T00:00:00.0000000+00:00</time>
      </trkpt>
      <trkpt lat="48.763279" lon="10.723444">
        <ele>406.14</ele>
        <time>2026-09-01T00:00:00.0000000+00:00</time>
      </trkpt>
      <trkpt lat="48.762501" lon="10.722385">
        <ele>403.88</ele>
        <time>2026-09-01T00:00:00.0000000+00:00</time>
      </trkpt>
      <trkpt lat="48.761873" lon="10.721628">
        <ele>405.67</ele>
        <time>2026-09-01T00:00:00.0000000+00:00</time>
      </trkpt>
      <trkpt lat="48.761454" lon="10.72119">
        <ele>404.93</ele>
        <time>2026-09-01T00:00:00.0000000+00:00</time>
      </trkpt>
      <trkpt lat="48.760231" lon="10.720392">
        <ele>403.75</ele>
        <time>2026-09-01T00:00:00.0000000+00:00</time>
      </trkpt>
      <trkpt lat="48.759325" lon="10.719823">
        <ele>403.14</ele>
        <time>2026-09-01T00:00:00.0000000+00:00</time>
      </trkpt>
      <trkpt lat="48.75907" lon="10.719642">
        <ele>403.25</ele>
        <time>2026-09-01T00:00:00.0000000+00:00</time>
      </trkpt>
      <trkpt lat="48.758826" lon="10.719373">
        <ele>402.64</ele>
        <time>2026-09-01T00:00:00.0000000+00:00</time>
      </trkpt>
      <trkpt lat="48.758786" lon="10.719323">
        <ele>402.67</ele>
        <time>2026-09-01T00:00:00.0000000+00:00</time>
      </trkpt>
      <trkpt lat="48.758786" lon="10.719323">
        <ele>402.67</ele>
        <time>2026-09-01T00:00:00.0000000+00:00</time>
      </trkpt>
      <trkpt lat="48.758698" lon="10.719181">
        <ele>402.75</ele>
        <time>2026-09-01T00:00:00.0000000+00:00</time>
      </trkpt>
      <trkpt lat="48.758698" lon="10.719181">
        <ele>402.75</ele>
        <time>2026-09-01T00:00:00.0000000+00:00</time>
      </trkpt>
      <trkpt lat="48.75866" lon="10.719118">
        <ele>402.8</ele>
        <time>2026-09-01T00:00:00.0000000+00:00</time>
      </trkpt>
      <trkpt lat="48.758606" lon="10.719031">
        <ele>402.88</ele>
        <time>2026-09-01T00:00:00.0000000+00:00</time>
      </trkpt>
      <trkpt lat="48.758454" lon="10.718701">
        <ele>402.84</ele>
        <time>2026-09-01T00:00:00.0000000+00:00</time>
      </trkpt>
      <trkpt lat="48.758454" lon="10.718701">
        <ele>402.84</ele>
        <time>2026-09-01T00:00:00.0000000+00:00</time>
      </trkpt>
      <trkpt lat="48.758385" lon="10.718534">
        <ele>402.64</ele>
        <time>2026-09-01T00:00:00.0000000+00:00</time>
      </trkpt>
      <trkpt lat="48.758326" lon="10.718377">
        <ele>402.5</ele>
        <time>2026-09-01T00:00:00.0000000+00:00</time>
      </trkpt>
      <trkpt lat="48.758268" lon="10.718227">
        <ele>402.36</ele>
        <time>2026-09-01T00:00:00.0000000+00:00</time>
      </trkpt>
      <trkpt lat="48.757983" lon="10.717614">
        <ele>401.48</ele>
        <time>2026-09-01T00:00:00.0000000+00:00</time>
      </trkpt>
      <trkpt lat="48.757783" lon="10.717397">
        <ele>401.04</ele>
        <time>2026-09-01T00:00:00.0000000+00:00</time>
      </trkpt>
      <trkpt lat="48.757303" lon="10.717045">
        <ele>402.04</ele>
        <time>2026-09-01T00:00:00.0000000+00:00</time>
      </trkpt>
      <trkpt lat="48.757242" lon="10.716983">
        <ele>402.16</ele>
        <time>2026-09-01T00:00:00.0000000+00:00</time>
      </trkpt>
      <trkpt lat="48.757119" lon="10.716858">
        <ele>402.45</ele>
        <time>2026-09-01T00:00:00.0000000+00:00</time>
      </trkpt>
      <trkpt lat="48.756966" lon="10.716677">
        <ele>402.86</ele>
        <time>2026-09-01T00:00:00.0000000+00:00</time>
      </trkpt>
      <trkpt lat="48.756848" lon="10.716491">
        <ele>402.95</ele>
        <time>2026-09-01T00:00:00.0000000+00:00</time>
      </trkpt>
      <trkpt lat="48.756848" lon="10.716491">
        <ele>402.95</ele>
        <time>2026-09-01T00:00:00.0000000+00:00</time>
      </trkpt>
      <trkpt lat="48.756848" lon="10.716491">
        <ele>402.95</ele>
        <time>2026-09-01T00:00:00.0000000+00:00</time>
      </trkpt>
      <trkpt lat="48.756848" lon="10.716491">
        <ele>402.95</ele>
        <time>2026-09-01T00:00:00.0000000+00:00</time>
      </trkpt>
      <trkpt lat="48.756848" lon="10.716491">
        <ele>402.95</ele>
        <time>2026-09-01T00:00:00.0000000+00:00</time>
      </trkpt>
      <trkpt lat="48.756822" lon="10.716446">
        <ele>402.9</ele>
        <time>2026-09-01T00:00:00.0000000+00:00</time>
      </trkpt>
      <trkpt lat="48.756557" lon="10.71599">
        <ele>403.04</ele>
        <time>2026-09-01T00:00:00.0000000+00:00</time>
      </trkpt>
      <trkpt lat="48.75631" lon="10.715565">
        <ele>403.41</ele>
        <time>2026-09-01T00:00:00.0000000+00:00</time>
      </trkpt>
      <trkpt lat="48.756012" lon="10.715012">
        <ele>404</ele>
        <time>2026-09-01T00:00:00.0000000+00:00</time>
      </trkpt>
      <trkpt lat="48.755951" lon="10.714953">
        <ele>404</ele>
        <time>2026-09-01T00:00:00.0000000+00:00</time>
      </trkpt>
      <trkpt lat="48.755951" lon="10.714953">
        <ele>404</ele>
        <time>2026-09-01T00:00:00.0000000+00:00</time>
      </trkpt>
      <trkpt lat="48.755951" lon="10.714953">
        <ele>404</ele>
        <time>2026-09-01T00:00:00.0000000+00:00</time>
      </trkpt>
      <trkpt lat="48.755951" lon="10.714953">
        <ele>404</ele>
        <time>2026-09-01T00:00:00.0000000+00:00</time>
      </trkpt>
      <trkpt lat="48.755908" lon="10.714923">
        <ele>404</ele>
        <time>2026-09-01T00:00:00.0000000+00:00</time>
      </trkpt>
      <trkpt lat="48.755765" lon="10.714866">
        <ele>404</ele>
        <time>2026-09-01T00:00:00.0000000+00:00</time>
      </trkpt>
      <trkpt lat="48.755765" lon="10.714866">
        <ele>404</ele>
        <time>2026-09-01T00:00:00.0000000+00:00</time>
      </trkpt>
      <trkpt lat="48.755765" lon="10.714866">
        <ele>404</ele>
        <time>2026-09-01T00:00:00.0000000+00:00</time>
      </trkpt>
      <trkpt lat="48.755765" lon="10.714866">
        <ele>404</ele>
        <time>2026-09-01T00:00:00.0000000+00:00</time>
      </trkpt>
      <trkpt lat="48.755709" lon="10.714844">
        <ele>404</ele>
        <time>2026-09-01T00:00:00.0000000+00:00</time>
      </trkpt>
      <trkpt lat="48.755709" lon="10.714844">
        <ele>404</ele>
        <time>2026-09-01T00:00:00.0000000+00:00</time>
      </trkpt>
      <trkpt lat="48.755709" lon="10.714844">
        <ele>404</ele>
        <time>2026-09-01T00:00:00.0000000+00:00</time>
      </trkpt>
      <trkpt lat="48.755609" lon="10.714805">
        <ele>404</ele>
        <time>2026-09-01T00:00:00.0000000+00:00</time>
      </trkpt>
      <trkpt lat="48.755437" lon="10.714756">
        <ele>404</ele>
        <time>2026-09-01T00:00:00.0000000+00:00</time>
      </trkpt>
      <trkpt lat="48.755258" lon="10.714762">
        <ele>404</ele>
        <time>2026-09-01T00:00:00.0000000+00:00</time>
      </trkpt>
      <trkpt lat="48.755045" lon="10.714827">
        <ele>404.19</ele>
        <time>2026-09-01T00:00:00.0000000+00:00</time>
      </trkpt>
      <trkpt lat="48.754964" lon="10.714869">
        <ele>404.29</ele>
        <time>2026-09-01T00:00:00.0000000+00:00</time>
      </trkpt>
      <trkpt lat="48.754964" lon="10.715085">
        <ele>404.29</ele>
        <time>2026-09-01T00:00:00.0000000+00:00</time>
      </trkpt>
      <trkpt lat="48.754964" lon="10.715085">
        <ele>404.29</ele>
        <time>2026-09-01T00:00:00.0000000+00:00</time>
      </trkpt>
      <trkpt lat="48.754951" lon="10.715263">
        <ele>404.23</ele>
        <time>2026-09-01T00:00:00.0000000+00:00</time>
      </trkpt>
      <trkpt lat="48.754897" lon="10.71541">
        <ele>403.9</ele>
        <time>2026-09-01T00:00:00.0000000+00:00</time>
      </trkpt>
      <trkpt lat="48.754781" lon="10.715564">
        <ele>403.73</ele>
        <time>2026-09-01T00:00:00.0000000+00:00</time>
      </trkpt>
      <trkpt lat="48.754781" lon="10.715564">
        <ele>403.73</ele>
        <time>2026-09-01T00:00:00.0000000+00:00</time>
      </trkpt>
      <trkpt lat="48.754781" lon="10.715564">
        <ele>403.73</ele>
        <time>2026-09-01T00:00:00.0000000+00:00</time>
      </trkpt>
      <trkpt lat="48.754781" lon="10.715564">
        <ele>403.73</ele>
        <time>2026-09-01T00:00:00.0000000+00:00</time>
      </trkpt>
      <trkpt lat="48.754781" lon="10.715564">
        <ele>403.73</ele>
        <time>2026-09-01T00:00:00.0000000+00:00</time>
      </trkpt>
      <trkpt lat="48.754092" lon="10.716354">
        <ele>403.88</ele>
        <time>2026-09-01T00:00:00.0000000+00:00</time>
      </trkpt>
      <trkpt lat="48.753902" lon="10.716436">
        <ele>404.18</ele>
        <time>2026-09-01T00:00:00.0000000+00:00</time>
      </trkpt>
      <trkpt lat="48.7537" lon="10.716439">
        <ele>404.63</ele>
        <time>2026-09-01T00:00:00.0000000+00:00</time>
      </trkpt>
      <trkpt lat="48.753221" lon="10.716173">
        <ele>406.43</ele>
        <time>2026-09-01T00:00:00.0000000+00:00</time>
      </trkpt>
      <trkpt lat="48.752888" lon="10.716144">
        <ele>407.99</ele>
        <time>2026-09-01T00:00:00.0000000+00:00</time>
      </trkpt>
      <trkpt lat="48.751929" lon="10.716638">
        <ele>409.8</ele>
        <time>2026-09-01T00:00:00.0000000+00:00</time>
      </trkpt>
      <trkpt lat="48.751476" lon="10.716662">
        <ele>410.62</ele>
        <time>2026-09-01T00:00:00.0000000+00:00</time>
      </trkpt>
      <trkpt lat="48.751102" lon="10.716634">
        <ele>411.49</ele>
        <time>2026-09-01T00:00:00.0000000+00:00</time>
      </trkpt>
      <trkpt lat="48.751082" lon="10.716631">
        <ele>411.55</ele>
        <time>2026-09-01T00:00:00.0000000+00:00</time>
      </trkpt>
      <trkpt lat="48.75061" lon="10.716526">
        <ele>410.99</ele>
        <time>2026-09-01T00:00:00.0000000+00:00</time>
      </trkpt>
      <trkpt lat="48.750474" lon="10.716485">
        <ele>410.8</ele>
        <time>2026-09-01T00:00:00.0000000+00:00</time>
      </trkpt>
      <trkpt lat="48.750474" lon="10.716485">
        <ele>410.8</ele>
        <time>2026-09-01T00:00:00.0000000+00:00</time>
      </trkpt>
      <trkpt lat="48.750419" lon="10.716466">
        <ele>410.74</ele>
        <time>2026-09-01T00:00:00.0000000+00:00</time>
      </trkpt>
      <trkpt lat="48.750293" lon="10.716424">
        <ele>410.56</ele>
        <time>2026-09-01T00:00:00.0000000+00:00</time>
      </trkpt>
      <trkpt lat="48.75024" lon="10.716406">
        <ele>410.48</ele>
        <time>2026-09-01T00:00:00.0000000+00:00</time>
      </trkpt>
      <trkpt lat="48.749868" lon="10.716278">
        <ele>410.69</ele>
        <time>2026-09-01T00:00:00.0000000+00:00</time>
      </trkpt>
      <trkpt lat="48.748292" lon="10.715831">
        <ele>410.05</ele>
        <time>2026-09-01T00:00:00.0000000+00:00</time>
      </trkpt>
      <trkpt lat="48.747016" lon="10.71567">
        <ele>408.69</ele>
        <time>2026-09-01T00:00:00.0000000+00:00</time>
      </trkpt>
      <trkpt lat="48.746204" lon="10.715362">
        <ele>407.93</ele>
        <time>2026-09-01T00:00:00.0000000+00:00</time>
      </trkpt>
      <trkpt lat="48.744745" lon="10.714474">
        <ele>407.08</ele>
        <time>2026-09-01T00:00:00.0000000+00:00</time>
      </trkpt>
      <trkpt lat="48.744172" lon="10.7143">
        <ele>405.94</ele>
        <time>2026-09-01T00:00:00.0000000+00:00</time>
      </trkpt>
      <trkpt lat="48.743758" lon="10.714281">
        <ele>404.43</ele>
        <time>2026-09-01T00:00:00.0000000+00:00</time>
      </trkpt>
      <trkpt lat="48.741974" lon="10.714545">
        <ele>402.83</ele>
        <time>2026-09-01T00:00:00.0000000+00:00</time>
      </trkpt>
      <trkpt lat="48.741081" lon="10.714709">
        <ele>400.97</ele>
        <time>2026-09-01T00:00:00.0000000+00:00</time>
      </trkpt>
      <trkpt lat="48.73982" lon="10.714668">
        <ele>401.36</ele>
        <time>2026-09-01T00:00:00.0000000+00:00</time>
      </trkpt>
      <trkpt lat="48.739316" lon="10.714731">
        <ele>400.94</ele>
        <time>2026-09-01T00:00:00.0000000+00:00</time>
      </trkpt>
      <trkpt lat="48.737129" lon="10.715704">
        <ele>401.44</ele>
        <time>2026-09-01T00:00:00.0000000+00:00</time>
      </trkpt>
      <trkpt lat="48.736044" lon="10.716272">
        <ele>401.78</ele>
        <time>2026-09-01T00:00:00.0000000+00:00</time>
      </trkpt>
      <trkpt lat="48.734681" lon="10.717037">
        <ele>401.9</ele>
        <time>2026-09-01T00:00:00.0000000+00:00</time>
      </trkpt>
      <trkpt lat="48.733374" lon="10.71782">
        <ele>400.39</ele>
        <time>2026-09-01T00:00:00.0000000+00:00</time>
      </trkpt>
      <trkpt lat="48.732643" lon="10.718184">
        <ele>401.02</ele>
        <time>2026-09-01T00:00:00.0000000+00:00</time>
      </trkpt>
      <trkpt lat="48.732372" lon="10.718242">
        <ele>401.2</ele>
        <time>2026-09-01T00:00:00.0000000+00:00</time>
      </trkpt>
      <trkpt lat="48.731928" lon="10.718249">
        <ele>401.72</ele>
        <time>2026-09-01T00:00:00.0000000+00:00</time>
      </trkpt>
      <trkpt lat="48.731825" lon="10.718247">
        <ele>401.91</ele>
        <time>2026-09-01T00:00:00.0000000+00:00</time>
      </trkpt>
      <trkpt lat="48.731749" lon="10.718253">
        <ele>402.05</ele>
        <time>2026-09-01T00:00:00.0000000+00:00</time>
      </trkpt>
      <trkpt lat="48.73179" lon="10.718247">
        <ele>401.98</ele>
        <time>2026-09-01T00:00:00.0000000+00:00</time>
      </trkpt>
      <trkpt lat="48.73179" lon="10.718247">
        <ele>401.98</ele>
        <time>2026-09-01T00:00:00.0000000+00:00</time>
      </trkpt>
      <trkpt lat="48.73179" lon="10.718247">
        <ele>401.98</ele>
        <time>2026-09-01T00:00:00.0000000+00:00</time>
      </trkpt>
      <trkpt lat="48.73179" lon="10.718247">
        <ele>401.98</ele>
        <time>2026-09-01T00:00:00.0000000+00:00</time>
      </trkpt>
      <trkpt lat="48.73179" lon="10.718247">
        <ele>401.98</ele>
        <time>2026-09-01T00:00:00.0000000+00:00</time>
      </trkpt>
      <trkpt lat="48.731694" lon="10.718297">
        <ele>402.04</ele>
        <time>2026-09-01T00:00:00.0000000+00:00</time>
      </trkpt>
      <trkpt lat="48.731694" lon="10.718297">
        <ele>402.04</ele>
        <time>2026-09-01T00:00:00.0000000+00:00</time>
      </trkpt>
      <trkpt lat="48.731694" lon="10.718297">
        <ele>402.04</ele>
        <time>2026-09-01T00:00:00.0000000+00:00</time>
      </trkpt>
      <trkpt lat="48.731694" lon="10.718297">
        <ele>402.04</ele>
        <time>2026-09-01T00:00:00.0000000+00:00</time>
      </trkpt>
      <trkpt lat="48.731586" lon="10.718384">
        <ele>401.97</ele>
        <time>2026-09-01T00:00:00.0000000+00:00</time>
      </trkpt>
      <trkpt lat="48.731586" lon="10.718384">
        <ele>401.97</ele>
        <time>2026-09-01T00:00:00.0000000+00:00</time>
      </trkpt>
      <trkpt lat="48.731348" lon="10.718635">
        <ele>401.57</ele>
        <time>2026-09-01T00:00:00.0000000+00:00</time>
      </trkpt>
      <trkpt lat="48.731081" lon="10.719069">
        <ele>401.37</ele>
        <time>2026-09-01T00:00:00.0000000+00:00</time>
      </trkpt>
      <trkpt lat="48.730756" lon="10.719764">
        <ele>402.36</ele>
        <time>2026-09-01T00:00:00.0000000+00:00</time>
      </trkpt>
      <trkpt lat="48.730631" lon="10.720188">
        <ele>403</ele>
        <time>2026-09-01T00:00:00.0000000+00:00</time>
      </trkpt>
      <trkpt lat="48.730567" lon="10.72071">
        <ele>402.97</ele>
        <time>2026-09-01T00:00:00.0000000+00:00</time>
      </trkpt>
      <trkpt lat="48.73062" lon="10.721621">
        <ele>404.6</ele>
        <time>2026-09-01T00:00:00.0000000+00:00</time>
      </trkpt>
      <trkpt lat="48.730667" lon="10.722365">
        <ele>408.17</ele>
        <time>2026-09-01T00:00:00.0000000+00:00</time>
      </trkpt>
      <trkpt lat="48.73067" lon="10.722484">
        <ele>408.84</ele>
        <time>2026-09-01T00:00:00.0000000+00:00</time>
      </trkpt>
      <trkpt lat="48.73067" lon="10.722484">
        <ele>408.84</ele>
        <time>2026-09-01T00:00:00.0000000+00:00</time>
      </trkpt>
      <trkpt lat="48.730673" lon="10.722571">
        <ele>409.34</ele>
        <time>2026-09-01T00:00:00.0000000+00:00</time>
      </trkpt>
      <trkpt lat="48.730674" lon="10.722653">
        <ele>409.8</ele>
        <time>2026-09-01T00:00:00.0000000+00:00</time>
      </trkpt>
      <trkpt lat="48.730672" lon="10.722701">
        <ele>410.06</ele>
        <time>2026-09-01T00:00:00.0000000+00:00</time>
      </trkpt>
      <trkpt lat="48.730672" lon="10.72272">
        <ele>410.16</ele>
        <time>2026-09-01T00:00:00.0000000+00:00</time>
      </trkpt>
      <trkpt lat="48.730681" lon="10.722771">
        <ele>410.6</ele>
        <time>2026-09-01T00:00:00.0000000+00:00</time>
      </trkpt>
      <trkpt lat="48.730677" lon="10.722831">
        <ele>411.03</ele>
        <time>2026-09-01T00:00:00.0000000+00:00</time>
      </trkpt>
      <trkpt lat="48.730674" lon="10.722833">
        <ele>411.03</ele>
        <time>2026-09-01T00:00:00.0000000+00:00</time>
      </trkpt>
      <trkpt lat="48.730614" lon="10.72284">
        <ele>410.66</ele>
        <time>2026-09-01T00:00:00.0000000+00:00</time>
      </trkpt>
      <trkpt lat="48.730614" lon="10.72284">
        <ele>410.66</ele>
        <time>2026-09-01T00:00:00.0000000+00:00</time>
      </trkpt>
      <trkpt lat="48.730614" lon="10.72284">
        <ele>410.66</ele>
        <time>2026-09-01T00:00:00.0000000+00:00</time>
      </trkpt>
      <trkpt lat="48.730614" lon="10.72284">
        <ele>410.66</ele>
        <time>2026-09-01T00:00:00.0000000+00:00</time>
      </trkpt>
      <trkpt lat="48.730468" lon="10.722844">
        <ele>409.66</ele>
        <time>2026-09-01T00:00:00.0000000+00:00</time>
      </trkpt>
      <trkpt lat="48.730218" lon="10.722867">
        <ele>408.13</ele>
        <time>2026-09-01T00:00:00.0000000+00:00</time>
      </trkpt>
      <trkpt lat="48.730218" lon="10.722867">
        <ele>408.13</ele>
        <time>2026-09-01T00:00:00.0000000+00:00</time>
      </trkpt>
      <trkpt lat="48.730159" lon="10.722873">
        <ele>408.11</ele>
        <time>2026-09-01T00:00:00.0000000+00:00</time>
      </trkpt>
      <trkpt lat="48.729749" lon="10.722914">
        <ele>407.97</ele>
        <time>2026-09-01T00:00:00.0000000+00:00</time>
      </trkpt>
      <trkpt lat="48.729117" lon="10.722975">
        <ele>409.99</ele>
        <time>2026-09-01T00:00:00.0000000+00:00</time>
      </trkpt>
      <trkpt lat="48.728922" lon="10.722931">
        <ele>410.91</ele>
        <time>2026-09-01T00:00:00.0000000+00:00</time>
      </trkpt>
      <trkpt lat="48.728597" lon="10.722802">
        <ele>411.62</ele>
        <time>2026-09-01T00:00:00.0000000+00:00</time>
      </trkpt>
      <trkpt lat="48.728276" lon="10.722672">
        <ele>411.09</ele>
        <time>2026-09-01T00:00:00.0000000+00:00</time>
      </trkpt>
      <trkpt lat="48.728092" lon="10.722617">
        <ele>410.95</ele>
        <time>2026-09-01T00:00:00.0000000+00:00</time>
      </trkpt>
      <trkpt lat="48.728092" lon="10.722617">
        <ele>410.95</ele>
        <time>2026-09-01T00:00:00.0000000+00:00</time>
      </trkpt>
      <trkpt lat="48.72777" lon="10.72256">
        <ele>411.06</ele>
        <time>2026-09-01T00:00:00.0000000+00:00</time>
      </trkpt>
      <trkpt lat="48.72777" lon="10.72256">
        <ele>411.06</ele>
        <time>2026-09-01T00:00:00.0000000+00:00</time>
      </trkpt>
      <trkpt lat="48.72777" lon="10.72256">
        <ele>411.06</ele>
        <time>2026-09-01T00:00:00.0000000+00:00</time>
      </trkpt>
      <trkpt lat="48.72777" lon="10.72256">
        <ele>411.06</ele>
        <time>2026-09-01T00:00:00.0000000+00:00</time>
      </trkpt>
      <trkpt lat="48.727687" lon="10.722547">
        <ele>410.99</ele>
        <time>2026-09-01T00:00:00.0000000+00:00</time>
      </trkpt>
      <trkpt lat="48.727336" lon="10.722495">
        <ele>410.38</ele>
        <time>2026-09-01T00:00:00.0000000+00:00</time>
      </trkpt>
      <trkpt lat="48.727336" lon="10.722495">
        <ele>410.38</ele>
        <time>2026-09-01T00:00:00.0000000+00:00</time>
      </trkpt>
      <trkpt lat="48.727253" lon="10.722481">
        <ele>410.24</ele>
        <time>2026-09-01T00:00:00.0000000+00:00</time>
      </trkpt>
      <trkpt lat="48.727253" lon="10.722481">
        <ele>410.24</ele>
        <time>2026-09-01T00:00:00.0000000+00:00</time>
      </trkpt>
      <trkpt lat="48.72704" lon="10.722439">
        <ele>409.89</ele>
        <time>2026-09-01T00:00:00.0000000+00:00</time>
      </trkpt>
      <trkpt lat="48.726697" lon="10.722339">
        <ele>410.12</ele>
        <time>2026-09-01T00:00:00.0000000+00:00</time>
      </trkpt>
      <trkpt lat="48.726602" lon="10.722317">
        <ele>410.42</ele>
        <time>2026-09-01T00:00:00.0000000+00:00</time>
      </trkpt>
      <trkpt lat="48.726434" lon="10.722305">
        <ele>411.14</ele>
        <time>2026-09-01T00:00:00.0000000+00:00</time>
      </trkpt>
      <trkpt lat="48.726342" lon="10.722312">
        <ele>411.63</ele>
        <time>2026-09-01T00:00:00.0000000+00:00</time>
      </trkpt>
      <trkpt lat="48.726128" lon="10.722382">
        <ele>413.17</ele>
        <time>2026-09-01T00:00:00.0000000+00:00</time>
      </trkpt>
      <trkpt lat="48.725885" lon="10.722602">
        <ele>413.86</ele>
        <time>2026-09-01T00:00:00.0000000+00:00</time>
      </trkpt>
      <trkpt lat="48.725754" lon="10.72285">
        <ele>414.07</ele>
        <time>2026-09-01T00:00:00.0000000+00:00</time>
      </trkpt>
      <trkpt lat="48.725754" lon="10.72285">
        <ele>414.07</ele>
        <time>2026-09-01T00:00:00.0000000+00:00</time>
      </trkpt>
      <trkpt lat="48.725754" lon="10.72285">
        <ele>414.07</ele>
        <time>2026-09-01T00:00:00.0000000+00:00</time>
      </trkpt>
      <trkpt lat="48.725732" lon="10.722895">
        <ele>414.02</ele>
        <time>2026-09-01T00:00:00.0000000+00:00</time>
      </trkpt>
      <trkpt lat="48.725732" lon="10.722895">
        <ele>414.02</ele>
        <time>2026-09-01T00:00:00.0000000+00:00</time>
      </trkpt>
      <trkpt lat="48.725732" lon="10.722895">
        <ele>414.02</ele>
        <time>2026-09-01T00:00:00.0000000+00:00</time>
      </trkpt>
      <trkpt lat="48.725616" lon="10.723173">
        <ele>413.85</ele>
        <time>2026-09-01T00:00:00.0000000+00:00</time>
      </trkpt>
      <trkpt lat="48.725616" lon="10.723173">
        <ele>413.85</ele>
        <time>2026-09-01T00:00:00.0000000+00:00</time>
      </trkpt>
      <trkpt lat="48.725596" lon="10.723241">
        <ele>413.87</ele>
        <time>2026-09-01T00:00:00.0000000+00:00</time>
      </trkpt>
      <trkpt lat="48.725525" lon="10.723477">
        <ele>413.92</ele>
        <time>2026-09-01T00:00:00.0000000+00:00</time>
      </trkpt>
      <trkpt lat="48.725486" lon="10.723607">
        <ele>414.1</ele>
        <time>2026-09-01T00:00:00.0000000+00:00</time>
      </trkpt>
      <trkpt lat="48.725486" lon="10.723607">
        <ele>414.1</ele>
        <time>2026-09-01T00:00:00.0000000+00:00</time>
      </trkpt>
      <trkpt lat="48.725454" lon="10.723713">
        <ele>414.47</ele>
        <time>2026-09-01T00:00:00.0000000+00:00</time>
      </trkpt>
      <trkpt lat="48.725454" lon="10.723713">
        <ele>414.47</ele>
        <time>2026-09-01T00:00:00.0000000+00:00</time>
      </trkpt>
      <trkpt lat="48.725381" lon="10.723958">
        <ele>415.38</ele>
        <time>2026-09-01T00:00:00.0000000+00:00</time>
      </trkpt>
      <trkpt lat="48.725381" lon="10.723958">
        <ele>415.38</ele>
        <time>2026-09-01T00:00:00.0000000+00:00</time>
      </trkpt>
      <trkpt lat="48.725381" lon="10.723958">
        <ele>415.38</ele>
        <time>2026-09-01T00:00:00.0000000+00:00</time>
      </trkpt>
      <trkpt lat="48.725261" lon="10.724362">
        <ele>416.99</ele>
        <time>2026-09-01T00:00:00.0000000+00:00</time>
      </trkpt>
      <trkpt lat="48.725261" lon="10.724362">
        <ele>416.99</ele>
        <time>2026-09-01T00:00:00.0000000+00:00</time>
      </trkpt>
      <trkpt lat="48.725261" lon="10.724362">
        <ele>416.99</ele>
        <time>2026-09-01T00:00:00.0000000+00:00</time>
      </trkpt>
      <trkpt lat="48.725261" lon="10.724362">
        <ele>416.99</ele>
        <time>2026-09-01T00:00:00.0000000+00:00</time>
      </trkpt>
      <trkpt lat="48.725229" lon="10.724488">
        <ele>416.89</ele>
        <time>2026-09-01T00:00:00.0000000+00:00</time>
      </trkpt>
      <trkpt lat="48.725064" lon="10.725133">
        <ele>414.48</ele>
        <time>2026-09-01T00:00:00.0000000+00:00</time>
      </trkpt>
      <trkpt lat="48.724815" lon="10.726329">
        <ele>412.86</ele>
        <time>2026-09-01T00:00:00.0000000+00:00</time>
      </trkpt>
      <trkpt lat="48.724661" lon="10.727828">
        <ele>412.15</ele>
        <time>2026-09-01T00:00:00.0000000+00:00</time>
      </trkpt>
      <trkpt lat="48.724667" lon="10.729279">
        <ele>411.34</ele>
        <time>2026-09-01T00:00:00.0000000+00:00</time>
      </trkpt>
      <trkpt lat="48.724772" lon="10.730475">
        <ele>409.5</ele>
        <time>2026-09-01T00:00:00.0000000+00:00</time>
      </trkpt>
      <trkpt lat="48.725046" lon="10.731985">
        <ele>409.07</ele>
        <time>2026-09-01T00:00:00.0000000+00:00</time>
      </trkpt>
      <trkpt lat="48.725201" lon="10.732548">
        <ele>409.81</ele>
        <time>2026-09-01T00:00:00.0000000+00:00</time>
      </trkpt>
      <trkpt lat="48.725223" lon="10.732616">
        <ele>409.96</ele>
        <time>2026-09-01T00:00:00.0000000+00:00</time>
      </trkpt>
      <trkpt lat="48.725223" lon="10.732616">
        <ele>409.96</ele>
        <time>2026-09-01T00:00:00.0000000+00:00</time>
      </trkpt>
      <trkpt lat="48.725223" lon="10.732616">
        <ele>409.96</ele>
        <time>2026-09-01T00:00:00.0000000+00:00</time>
      </trkpt>
      <trkpt lat="48.725359" lon="10.733023">
        <ele>409.9</ele>
        <time>2026-09-01T00:00:00.0000000+00:00</time>
      </trkpt>
      <trkpt lat="48.725359" lon="10.733023">
        <ele>409.9</ele>
        <time>2026-09-01T00:00:00.0000000+00:00</time>
      </trkpt>
      <trkpt lat="48.725411" lon="10.733171">
        <ele>409.8</ele>
        <time>2026-09-01T00:00:00.0000000+00:00</time>
      </trkpt>
      <trkpt lat="48.725411" lon="10.733171">
        <ele>409.8</ele>
        <time>2026-09-01T00:00:00.0000000+00:00</time>
      </trkpt>
      <trkpt lat="48.725579" lon="10.733651">
        <ele>409.58</ele>
        <time>2026-09-01T00:00:00.0000000+00:00</time>
      </trkpt>
      <trkpt lat="48.725755" lon="10.734146">
        <ele>409.63</ele>
        <time>2026-09-01T00:00:00.0000000+00:00</time>
      </trkpt>
      <trkpt lat="48.725968" lon="10.73477">
        <ele>409.21</ele>
        <time>2026-09-01T00:00:00.0000000+00:00</time>
      </trkpt>
      <trkpt lat="48.726098" lon="10.735166">
        <ele>409.24</ele>
        <time>2026-09-01T00:00:00.0000000+00:00</time>
      </trkpt>
      <trkpt lat="48.726098" lon="10.735166">
        <ele>409.24</ele>
        <time>2026-09-01T00:00:00.0000000+00:00</time>
      </trkpt>
      <trkpt lat="48.726123" lon="10.735253">
        <ele>409.33</ele>
        <time>2026-09-01T00:00:00.0000000+00:00</time>
      </trkpt>
      <trkpt lat="48.726187" lon="10.735477">
        <ele>409.82</ele>
        <time>2026-09-01T00:00:00.0000000+00:00</time>
      </trkpt>
      <trkpt lat="48.726234" lon="10.735638">
        <ele>410.12</ele>
        <time>2026-09-01T00:00:00.0000000+00:00</time>
      </trkpt>
      <trkpt lat="48.726234" lon="10.735638">
        <ele>410.12</ele>
        <time>2026-09-01T00:00:00.0000000+00:00</time>
      </trkpt>
      <trkpt lat="48.726306" lon="10.735889">
        <ele>410.51</ele>
        <time>2026-09-01T00:00:00.0000000+00:00</time>
      </trkpt>
      <trkpt lat="48.726359" lon="10.736082">
        <ele>410.67</ele>
        <time>2026-09-01T00:00:00.0000000+00:00</time>
      </trkpt>
      <trkpt lat="48.726368" lon="10.736116">
        <ele>410.64</ele>
        <time>2026-09-01T00:00:00.0000000+00:00</time>
      </trkpt>
      <trkpt lat="48.726524" lon="10.736716">
        <ele>410.4</ele>
        <time>2026-09-01T00:00:00.0000000+00:00</time>
      </trkpt>
      <trkpt lat="48.726586" lon="10.736968">
        <ele>410.42</ele>
        <time>2026-09-01T00:00:00.0000000+00:00</time>
      </trkpt>
      <trkpt lat="48.726615" lon="10.737093">
        <ele>410.41</ele>
        <time>2026-09-01T00:00:00.0000000+00:00</time>
      </trkpt>
      <trkpt lat="48.726615" lon="10.737093">
        <ele>410.41</ele>
        <time>2026-09-01T00:00:00.0000000+00:00</time>
      </trkpt>
      <trkpt lat="48.726684" lon="10.737428">
        <ele>410.34</ele>
        <time>2026-09-01T00:00:00.0000000+00:00</time>
      </trkpt>
      <trkpt lat="48.726766" lon="10.737649">
        <ele>410.47</ele>
        <time>2026-09-01T00:00:00.0000000+00:00</time>
      </trkpt>
      <trkpt lat="48.726874" lon="10.737805">
        <ele>410.39</ele>
        <time>2026-09-01T00:00:00.0000000+00:00</time>
      </trkpt>
      <trkpt lat="48.726874" lon="10.737805">
        <ele>410.39</ele>
        <time>2026-09-01T00:00:00.0000000+00:00</time>
      </trkpt>
      <trkpt lat="48.727006" lon="10.737948">
        <ele>409.6</ele>
        <time>2026-09-01T00:00:00.0000000+00:00</time>
      </trkpt>
      <trkpt lat="48.727021" lon="10.737964">
        <ele>409.51</ele>
        <time>2026-09-01T00:00:00.0000000+00:00</time>
      </trkpt>
      <trkpt lat="48.727038" lon="10.737981">
        <ele>409.41</ele>
        <time>2026-09-01T00:00:00.0000000+00:00</time>
      </trkpt>
      <trkpt lat="48.727144" lon="10.738087">
        <ele>408.89</ele>
        <time>2026-09-01T00:00:00.0000000+00:00</time>
      </trkpt>
      <trkpt lat="48.727144" lon="10.738087">
        <ele>408.89</ele>
        <time>2026-09-01T00:00:00.0000000+00:00</time>
      </trkpt>
      <trkpt lat="48.727603" lon="10.738415">
        <ele>408.1</ele>
        <time>2026-09-01T00:00:00.0000000+00:00</time>
      </trkpt>
      <trkpt lat="48.727909" lon="10.738834">
        <ele>410.3</ele>
        <time>2026-09-01T00:00:00.0000000+00:00</time>
      </trkpt>
      <trkpt lat="48.728175" lon="10.739286">
        <ele>413.27</ele>
        <time>2026-09-01T00:00:00.0000000+00:00</time>
      </trkpt>
      <trkpt lat="48.728699" lon="10.739545">
        <ele>414.54</ele>
        <time>2026-09-01T00:00:00.0000000+00:00</time>
      </trkpt>
      <trkpt lat="48.728991" lon="10.73961">
        <ele>413.4</ele>
        <time>2026-09-01T00:00:00.0000000+00:00</time>
      </trkpt>
      <trkpt lat="48.728991" lon="10.73961">
        <ele>413.4</ele>
        <time>2026-09-01T00:00:00.0000000+00:00</time>
      </trkpt>
      <trkpt lat="48.729209" lon="10.739602">
        <ele>412.62</ele>
        <time>2026-09-01T00:00:00.0000000+00:00</time>
      </trkpt>
      <trkpt lat="48.729209" lon="10.739602">
        <ele>412.62</ele>
        <time>2026-09-01T00:00:00.0000000+00:00</time>
      </trkpt>
      <trkpt lat="48.729209" lon="10.739602">
        <ele>412.62</ele>
        <time>2026-09-01T00:00:00.0000000+00:00</time>
      </trkpt>
      <trkpt lat="48.729209" lon="10.739602">
        <ele>412.62</ele>
        <time>2026-09-01T00:00:00.0000000+00:00</time>
      </trkpt>
      <trkpt lat="48.729209" lon="10.739602">
        <ele>412.62</ele>
        <time>2026-09-01T00:00:00.0000000+00:00</time>
      </trkpt>
      <trkpt lat="48.729209" lon="10.739602">
        <ele>412.62</ele>
        <time>2026-09-01T00:00:00.0000000+00:00</time>
      </trkpt>
      <trkpt lat="48.729233" lon="10.739644">
        <ele>412.37</ele>
        <time>2026-09-01T00:00:00.0000000+00:00</time>
      </trkpt>
      <trkpt lat="48.729233" lon="10.739644">
        <ele>412.37</ele>
        <time>2026-09-01T00:00:00.0000000+00:00</time>
      </trkpt>
      <trkpt lat="48.72939" lon="10.739924">
        <ele>410.42</ele>
        <time>2026-09-01T00:00:00.0000000+00:00</time>
      </trkpt>
      <trkpt lat="48.729437" lon="10.740013">
        <ele>410.11</ele>
        <time>2026-09-01T00:00:00.0000000+00:00</time>
      </trkpt>
      <trkpt lat="48.729429" lon="10.739999">
        <ele>410.15</ele>
        <time>2026-09-01T00:00:00.0000000+00:00</time>
      </trkpt>
      <trkpt lat="48.729438" lon="10.740016">
        <ele>410.1</ele>
        <time>2026-09-01T00:00:00.0000000+00:00</time>
      </trkpt>
      <trkpt lat="48.729438" lon="10.740016">
        <ele>410.1</ele>
        <time>2026-09-01T00:00:00.0000000+00:00</time>
      </trkpt>
      <trkpt lat="48.729802" lon="10.7407">
        <ele>409.6</ele>
        <time>2026-09-01T00:00:00.0000000+00:00</time>
      </trkpt>
      <trkpt lat="48.729899" lon="10.74089">
        <ele>409.7</ele>
        <time>2026-09-01T00:00:00.0000000+00:00</time>
      </trkpt>
      <trkpt lat="48.730124" lon="10.741345">
        <ele>409.72</ele>
        <time>2026-09-01T00:00:00.0000000+00:00</time>
      </trkpt>
      <trkpt lat="48.730405" lon="10.741974">
        <ele>409.19</ele>
        <time>2026-09-01T00:00:00.0000000+00:00</time>
      </trkpt>
      <trkpt lat="48.730602" lon="10.74247">
        <ele>408.17</ele>
        <time>2026-09-01T00:00:00.0000000+00:00</time>
      </trkpt>
      <trkpt lat="48.730888" lon="10.743162">
        <ele>407.04</ele>
        <time>2026-09-01T00:00:00.0000000+00:00</time>
      </trkpt>
      <trkpt lat="48.731079" lon="10.743649">
        <ele>407.59</ele>
        <time>2026-09-01T00:00:00.0000000+00:00</time>
      </trkpt>
      <trkpt lat="48.731278" lon="10.744226">
        <ele>412.43</ele>
        <time>2026-09-01T00:00:00.0000000+00:00</time>
      </trkpt>
      <trkpt lat="48.731389" lon="10.744553">
        <ele>415.36</ele>
        <time>2026-09-01T00:00:00.0000000+00:00</time>
      </trkpt>
      <trkpt lat="48.731487" lon="10.744866">
        <ele>417.96</ele>
        <time>2026-09-01T00:00:00.0000000+00:00</time>
      </trkpt>
      <trkpt lat="48.731593" lon="10.745204">
        <ele>420.97</ele>
        <time>2026-09-01T00:00:00.0000000+00:00</time>
      </trkpt>
      <trkpt lat="48.731593" lon="10.745204">
        <ele>420.97</ele>
        <time>2026-09-01T00:00:00.0000000+00:00</time>
      </trkpt>
      <trkpt lat="48.731651" lon="10.745414">
        <ele>421.18</ele>
        <time>2026-09-01T00:00:00.0000000+00:00</time>
      </trkpt>
      <trkpt lat="48.731651" lon="10.745414">
        <ele>421.18</ele>
        <time>2026-09-01T00:00:00.0000000+00:00</time>
      </trkpt>
      <trkpt lat="48.731651" lon="10.745414">
        <ele>421.18</ele>
        <time>2026-09-01T00:00:00.0000000+00:00</time>
      </trkpt>
      <trkpt lat="48.731691" lon="10.745563">
        <ele>421.29</ele>
        <time>2026-09-01T00:00:00.0000000+00:00</time>
      </trkpt>
      <trkpt lat="48.731732" lon="10.745714">
        <ele>421.42</ele>
        <time>2026-09-01T00:00:00.0000000+00:00</time>
      </trkpt>
      <trkpt lat="48.731732" lon="10.745714">
        <ele>421.42</ele>
        <time>2026-09-01T00:00:00.0000000+00:00</time>
      </trkpt>
      <trkpt lat="48.731732" lon="10.745714">
        <ele>421.42</ele>
        <time>2026-09-01T00:00:00.0000000+00:00</time>
      </trkpt>
      <trkpt lat="48.731742" lon="10.74575">
        <ele>421.46</ele>
        <time>2026-09-01T00:00:00.0000000+00:00</time>
      </trkpt>
      <trkpt lat="48.7319" lon="10.746338">
        <ele>422.1</ele>
        <time>2026-09-01T00:00:00.0000000+00:00</time>
      </trkpt>
      <trkpt lat="48.731956" lon="10.746549">
        <ele>422.29</ele>
        <time>2026-09-01T00:00:00.0000000+00:00</time>
      </trkpt>
      <trkpt lat="48.732036" lon="10.746845">
        <ele>422.89</ele>
        <time>2026-09-01T00:00:00.0000000+00:00</time>
      </trkpt>
      <trkpt lat="48.732174" lon="10.747545">
        <ele>421.45</ele>
        <time>2026-09-01T00:00:00.0000000+00:00</time>
      </trkpt>
      <trkpt lat="48.732277" lon="10.74817">
        <ele>419.63</ele>
        <time>2026-09-01T00:00:00.0000000+00:00</time>
      </trkpt>
      <trkpt lat="48.732428" lon="10.749178">
        <ele>421.17</ele>
        <time>2026-09-01T00:00:00.0000000+00:00</time>
      </trkpt>
      <trkpt lat="48.732428" lon="10.749178">
        <ele>421.17</ele>
        <time>2026-09-01T00:00:00.0000000+00:00</time>
      </trkpt>
      <trkpt lat="48.732428" lon="10.749178">
        <ele>421.17</ele>
        <time>2026-09-01T00:00:00.0000000+00:00</time>
      </trkpt>
      <trkpt lat="48.732468" lon="10.749699">
        <ele>421.21</ele>
        <time>2026-09-01T00:00:00.0000000+00:00</time>
      </trkpt>
      <trkpt lat="48.732506" lon="10.750263">
        <ele>420.41</ele>
        <time>2026-09-01T00:00:00.0000000+00:00</time>
      </trkpt>
      <trkpt lat="48.732528" lon="10.75093">
        <ele>418.83</ele>
        <time>2026-09-01T00:00:00.0000000+00:00</time>
      </trkpt>
      <trkpt lat="48.732552" lon="10.75166">
        <ele>417.74</ele>
        <time>2026-09-01T00:00:00.0000000+00:00</time>
      </trkpt>
      <trkpt lat="48.732559" lon="10.752421">
        <ele>418.5</ele>
        <time>2026-09-01T00:00:00.0000000+00:00</time>
      </trkpt>
      <trkpt lat="48.732555" lon="10.752898">
        <ele>419.58</ele>
        <time>2026-09-01T00:00:00.0000000+00:00</time>
      </trkpt>
      <trkpt lat="48.732547" lon="10.753482">
        <ele>421.24</ele>
        <time>2026-09-01T00:00:00.0000000+00:00</time>
      </trkpt>
      <trkpt lat="48.732524" lon="10.754028">
        <ele>420.92</ele>
        <time>2026-09-01T00:00:00.0000000+00:00</time>
      </trkpt>
      <trkpt lat="48.732478" lon="10.754703">
        <ele>419.45</ele>
        <time>2026-09-01T00:00:00.0000000+00:00</time>
      </trkpt>
      <trkpt lat="48.732433" lon="10.755151">
        <ele>417.97</ele>
        <time>2026-09-01T00:00:00.0000000+00:00</time>
      </trkpt>
      <trkpt lat="48.732404" lon="10.755389">
        <ele>416.97</ele>
        <time>2026-09-01T00:00:00.0000000+00:00</time>
      </trkpt>
      <trkpt lat="48.732404" lon="10.755389">
        <ele>416.97</ele>
        <time>2026-09-01T00:00:00.0000000+00:00</time>
      </trkpt>
      <trkpt lat="48.732395" lon="10.755449">
        <ele>416.69</ele>
        <time>2026-09-01T00:00:00.0000000+00:00</time>
      </trkpt>
      <trkpt lat="48.732315" lon="10.755959">
        <ele>414.32</ele>
        <time>2026-09-01T00:00:00.0000000+00:00</time>
      </trkpt>
      <trkpt lat="48.732282" lon="10.756157">
        <ele>413.98</ele>
        <time>2026-09-01T00:00:00.0000000+00:00</time>
      </trkpt>
      <trkpt lat="48.732282" lon="10.756157">
        <ele>413.98</ele>
        <time>2026-09-01T00:00:00.0000000+00:00</time>
      </trkpt>
      <trkpt lat="48.732224" lon="10.756469">
        <ele>413.94</ele>
        <time>2026-09-01T00:00:00.0000000+00:00</time>
      </trkpt>
      <trkpt lat="48.732224" lon="10.756469">
        <ele>413.94</ele>
        <time>2026-09-01T00:00:00.0000000+00:00</time>
      </trkpt>
      <trkpt lat="48.732151" lon="10.756912">
        <ele>414.04</ele>
        <time>2026-09-01T00:00:00.0000000+00:00</time>
      </trkpt>
      <trkpt lat="48.732104" lon="10.757175">
        <ele>414.88</ele>
        <time>2026-09-01T00:00:00.0000000+00:00</time>
      </trkpt>
      <trkpt lat="48.732104" lon="10.757175">
        <ele>414.88</ele>
        <time>2026-09-01T00:00:00.0000000+00:00</time>
      </trkpt>
      <trkpt lat="48.732104" lon="10.757175">
        <ele>414.88</ele>
        <time>2026-09-01T00:00:00.0000000+00:00</time>
      </trkpt>
      <trkpt lat="48.732039" lon="10.757455">
        <ele>415.55</ele>
        <time>2026-09-01T00:00:00.0000000+00:00</time>
      </trkpt>
      <trkpt lat="48.732007" lon="10.757592">
        <ele>415.86</ele>
        <time>2026-09-01T00:00:00.0000000+00:00</time>
      </trkpt>
      <trkpt lat="48.732007" lon="10.757592">
        <ele>415.86</ele>
        <time>2026-09-01T00:00:00.0000000+00:00</time>
      </trkpt>
      <trkpt lat="48.732007" lon="10.757592">
        <ele>415.86</ele>
        <time>2026-09-01T00:00:00.0000000+00:00</time>
      </trkpt>
      <trkpt lat="48.731964" lon="10.757789">
        <ele>416.31</ele>
        <time>2026-09-01T00:00:00.0000000+00:00</time>
      </trkpt>
      <trkpt lat="48.731894" lon="10.75812">
        <ele>417.06</ele>
        <time>2026-09-01T00:00:00.0000000+00:00</time>
      </trkpt>
      <trkpt lat="48.731874" lon="10.758204">
        <ele>417.2</ele>
        <time>2026-09-01T00:00:00.0000000+00:00</time>
      </trkpt>
      <trkpt lat="48.731874" lon="10.758204">
        <ele>417.2</ele>
        <time>2026-09-01T00:00:00.0000000+00:00</time>
      </trkpt>
      <trkpt lat="48.731771" lon="10.758617">
        <ele>417.57</ele>
        <time>2026-09-01T00:00:00.0000000+00:00</time>
      </trkpt>
      <trkpt lat="48.731645" lon="10.759061">
        <ele>416.95</ele>
        <time>2026-09-01T00:00:00.0000000+00:00</time>
      </trkpt>
      <trkpt lat="48.731498" lon="10.759565">
        <ele>417.64</ele>
        <time>2026-09-01T00:00:00.0000000+00:00</time>
      </trkpt>
      <trkpt lat="48.731338" lon="10.760101">
        <ele>420.27</ele>
        <time>2026-09-01T00:00:00.0000000+00:00</time>
      </trkpt>
      <trkpt lat="48.731183" lon="10.760536">
        <ele>423.2</ele>
        <time>2026-09-01T00:00:00.0000000+00:00</time>
      </trkpt>
      <trkpt lat="48.730946" lon="10.761149">
        <ele>425.34</ele>
        <time>2026-09-01T00:00:00.0000000+00:00</time>
      </trkpt>
      <trkpt lat="48.730699" lon="10.76178">
        <ele>424.43</ele>
        <time>2026-09-01T00:00:00.0000000+00:00</time>
      </trkpt>
      <trkpt lat="48.730401" lon="10.762504">
        <ele>423.31</ele>
        <time>2026-09-01T00:00:00.0000000+00:00</time>
      </trkpt>
      <trkpt lat="48.730062" lon="10.763431">
        <ele>416.75</ele>
        <time>2026-09-01T00:00:00.0000000+00:00</time>
      </trkpt>
      <trkpt lat="48.730002" lon="10.763596">
        <ele>415.21</ele>
        <time>2026-09-01T00:00:00.0000000+00:00</time>
      </trkpt>
      <trkpt lat="48.729896" lon="10.763926">
        <ele>412.24</ele>
        <time>2026-09-01T00:00:00.0000000+00:00</time>
      </trkpt>
      <trkpt lat="48.729783" lon="10.764268">
        <ele>409.55</ele>
        <time>2026-09-01T00:00:00.0000000+00:00</time>
      </trkpt>
      <trkpt lat="48.729594" lon="10.764783">
        <ele>405.81</ele>
        <time>2026-09-01T00:00:00.0000000+00:00</time>
      </trkpt>
      <trkpt lat="48.729386" lon="10.765346">
        <ele>403.74</ele>
        <time>2026-09-01T00:00:00.0000000+00:00</time>
      </trkpt>
      <trkpt lat="48.729294" lon="10.765579">
        <ele>404.92</ele>
        <time>2026-09-01T00:00:00.0000000+00:00</time>
      </trkpt>
      <trkpt lat="48.729102" lon="10.766085">
        <ele>406.74</ele>
        <time>2026-09-01T00:00:00.0000000+00:00</time>
      </trkpt>
      <trkpt lat="48.728933" lon="10.766499">
        <ele>409.6</ele>
        <time>2026-09-01T00:00:00.0000000+00:00</time>
      </trkpt>
      <trkpt lat="48.728777" lon="10.766882">
        <ele>412.38</ele>
        <time>2026-09-01T00:00:00.0000000+00:00</time>
      </trkpt>
      <trkpt lat="48.728634" lon="10.767163">
        <ele>413.64</ele>
        <time>2026-09-01T00:00:00.0000000+00:00</time>
      </trkpt>
      <trkpt lat="48.72841" lon="10.767382">
        <ele>413.18</ele>
        <time>2026-09-01T00:00:00.0000000+00:00</time>
      </trkpt>
      <trkpt lat="48.728271" lon="10.767508">
        <ele>412.61</ele>
        <time>2026-09-01T00:00:00.0000000+00:00</time>
      </trkpt>
      <trkpt lat="48.728171" lon="10.76758">
        <ele>412.12</ele>
        <time>2026-09-01T00:00:00.0000000+00:00</time>
      </trkpt>
      <trkpt lat="48.727992" lon="10.767774">
        <ele>411.55</ele>
        <time>2026-09-01T00:00:00.0000000+00:00</time>
      </trkpt>
      <trkpt lat="48.72794" lon="10.767856">
        <ele>411.43</ele>
        <time>2026-09-01T00:00:00.0000000+00:00</time>
      </trkpt>
      <trkpt lat="48.727822" lon="10.768119">
        <ele>411.39</ele>
        <time>2026-09-01T00:00:00.0000000+00:00</time>
      </trkpt>
      <trkpt lat="48.727573" lon="10.768569">
        <ele>411.2</ele>
        <time>2026-09-01T00:00:00.0000000+00:00</time>
      </trkpt>
      <trkpt lat="48.727372" lon="10.768956">
        <ele>410.76</ele>
        <time>2026-09-01T00:00:00.0000000+00:00</time>
      </trkpt>
      <trkpt lat="48.727148" lon="10.769385">
        <ele>409.45</ele>
        <time>2026-09-01T00:00:00.0000000+00:00</time>
      </trkpt>
      <trkpt lat="48.726891" lon="10.769874">
        <ele>406.99</ele>
        <time>2026-09-01T00:00:00.0000000+00:00</time>
      </trkpt>
      <trkpt lat="48.726531" lon="10.770563">
        <ele>407.46</ele>
        <time>2026-09-01T00:00:00.0000000+00:00</time>
      </trkpt>
      <trkpt lat="48.726314" lon="10.771115">
        <ele>408.45</ele>
        <time>2026-09-01T00:00:00.0000000+00:00</time>
      </trkpt>
      <trkpt lat="48.726261" lon="10.771612">
        <ele>409.11</ele>
        <time>2026-09-01T00:00:00.0000000+00:00</time>
      </trkpt>
      <trkpt lat="48.726261" lon="10.771612">
        <ele>409.11</ele>
        <time>2026-09-01T00:00:00.0000000+00:00</time>
      </trkpt>
      <trkpt lat="48.726261" lon="10.771612">
        <ele>409.11</ele>
        <time>2026-09-01T00:00:00.0000000+00:00</time>
      </trkpt>
      <trkpt lat="48.726261" lon="10.771612">
        <ele>409.11</ele>
        <time>2026-09-01T00:00:00.0000000+00:00</time>
      </trkpt>
      <trkpt lat="48.726261" lon="10.771612">
        <ele>409.11</ele>
        <time>2026-09-01T00:00:00.0000000+00:00</time>
      </trkpt>
      <trkpt lat="48.726261" lon="10.771612">
        <ele>409.11</ele>
        <time>2026-09-01T00:00:00.0000000+00:00</time>
      </trkpt>
      <trkpt lat="48.726261" lon="10.771612">
        <ele>409.11</ele>
        <time>2026-09-01T00:00:00.0000000+00:00</time>
      </trkpt>
      <trkpt lat="48.726261" lon="10.771612">
        <ele>409.11</ele>
        <time>2026-09-01T00:00:00.0000000+00:00</time>
      </trkpt>
      <trkpt lat="48.726072" lon="10.771799">
        <ele>408.95</ele>
        <time>2026-09-01T00:00:00.0000000+00:00</time>
      </trkpt>
      <trkpt lat="48.726072" lon="10.771799">
        <ele>408.95</ele>
        <time>2026-09-01T00:00:00.0000000+00:00</time>
      </trkpt>
      <trkpt lat="48.726072" lon="10.771799">
        <ele>408.95</ele>
        <time>2026-09-01T00:00:00.0000000+00:00</time>
      </trkpt>
      <trkpt lat="48.726036" lon="10.771835">
        <ele>408.88</ele>
        <time>2026-09-01T00:00:00.0000000+00:00</time>
      </trkpt>
      <trkpt lat="48.725904" lon="10.771972">
        <ele>408.35</ele>
        <time>2026-09-01T00:00:00.0000000+00:00</time>
      </trkpt>
      <trkpt lat="48.725594" lon="10.772216">
        <ele>407.37</ele>
        <time>2026-09-01T00:00:00.0000000+00:00</time>
      </trkpt>
      <trkpt lat="48.725354" lon="10.772399">
        <ele>406.91</ele>
        <time>2026-09-01T00:00:00.0000000+00:00</time>
      </trkpt>
      <trkpt lat="48.725354" lon="10.772399">
        <ele>406.91</ele>
        <time>2026-09-01T00:00:00.0000000+00:00</time>
      </trkpt>
      <trkpt lat="48.725354" lon="10.772399">
        <ele>406.91</ele>
        <time>2026-09-01T00:00:00.0000000+00:00</time>
      </trkpt>
      <trkpt lat="48.725354" lon="10.772399">
        <ele>406.91</ele>
        <time>2026-09-01T00:00:00.0000000+00:00</time>
      </trkpt>
      <trkpt lat="48.725354" lon="10.772399">
        <ele>406.91</ele>
        <time>2026-09-01T00:00:00.0000000+00:00</time>
      </trkpt>
      <trkpt lat="48.725304" lon="10.772438">
        <ele>406.84</ele>
        <time>2026-09-01T00:00:00.0000000+00:00</time>
      </trkpt>
      <trkpt lat="48.724998" lon="10.772819">
        <ele>407.19</ele>
        <time>2026-09-01T00:00:00.0000000+00:00</time>
      </trkpt>
      <trkpt lat="48.724998" lon="10.772819">
        <ele>407.19</ele>
        <time>2026-09-01T00:00:00.0000000+00:00</time>
      </trkpt>
      <trkpt lat="48.724998" lon="10.772819">
        <ele>407.19</ele>
        <time>2026-09-01T00:00:00.0000000+00:00</time>
      </trkpt>
      <trkpt lat="48.724998" lon="10.772819">
        <ele>407.19</ele>
        <time>2026-09-01T00:00:00.0000000+00:00</time>
      </trkpt>
      <trkpt lat="48.724998" lon="10.772819">
        <ele>407.19</ele>
        <time>2026-09-01T00:00:00.0000000+00:00</time>
      </trkpt>
      <trkpt lat="48.724846" lon="10.77277">
        <ele>406.83</ele>
        <time>2026-09-01T00:00:00.0000000+00:00</time>
      </trkpt>
      <trkpt lat="48.724766" lon="10.772788">
        <ele>406.8</ele>
        <time>2026-09-01T00:00:00.0000000+00:00</time>
      </trkpt>
      <trkpt lat="48.724766" lon="10.772788">
        <ele>406.8</ele>
        <time>2026-09-01T00:00:00.0000000+00:00</time>
      </trkpt>
      <trkpt lat="48.724766" lon="10.772788">
        <ele>406.8</ele>
        <time>2026-09-01T00:00:00.0000000+00:00</time>
      </trkpt>
      <trkpt lat="48.724766" lon="10.772788">
        <ele>406.8</ele>
        <time>2026-09-01T00:00:00.0000000+00:00</time>
      </trkpt>
      <trkpt lat="48.724602" lon="10.772893">
        <ele>406.98</ele>
        <time>2026-09-01T00:00:00.0000000+00:00</time>
      </trkpt>
      <trkpt lat="48.724233" lon="10.77313">
        <ele>407.38</ele>
        <time>2026-09-01T00:00:00.0000000+00:00</time>
      </trkpt>
      <trkpt lat="48.724233" lon="10.77313">
        <ele>407.38</ele>
        <time>2026-09-01T00:00:00.0000000+00:00</time>
      </trkpt>
      <trkpt lat="48.724233" lon="10.77313">
        <ele>407.38</ele>
        <time>2026-09-01T00:00:00.0000000+00:00</time>
      </trkpt>
      <trkpt lat="48.724233" lon="10.77313">
        <ele>407.38</ele>
        <time>2026-09-01T00:00:00.0000000+00:00</time>
      </trkpt>
      <trkpt lat="48.724116" lon="10.773326">
        <ele>407.78</ele>
        <time>2026-09-01T00:00:00.0000000+00:00</time>
      </trkpt>
      <trkpt lat="48.724116" lon="10.773326">
        <ele>407.78</ele>
        <time>2026-09-01T00:00:00.0000000+00:00</time>
      </trkpt>
      <trkpt lat="48.724116" lon="10.773326">
        <ele>407.78</ele>
        <time>2026-09-01T00:00:00.0000000+00:00</time>
      </trkpt>
      <trkpt lat="48.724039" lon="10.773441">
        <ele>407.93</ele>
        <time>2026-09-01T00:00:00.0000000+00:00</time>
      </trkpt>
      <trkpt lat="48.724039" lon="10.773441">
        <ele>407.93</ele>
        <time>2026-09-01T00:00:00.0000000+00:00</time>
      </trkpt>
      <trkpt lat="48.723946" lon="10.773548">
        <ele>408.01</ele>
        <time>2026-09-01T00:00:00.0000000+00:00</time>
      </trkpt>
      <trkpt lat="48.723678" lon="10.773829">
        <ele>408.38</ele>
        <time>2026-09-01T00:00:00.0000000+00:00</time>
      </trkpt>
      <trkpt lat="48.72337" lon="10.774187">
        <ele>408.05</ele>
        <time>2026-09-01T00:00:00.0000000+00:00</time>
      </trkpt>
      <trkpt lat="48.72302" lon="10.774606">
        <ele>407.7</ele>
        <time>2026-09-01T00:00:00.0000000+00:00</time>
      </trkpt>
      <trkpt lat="48.722694" lon="10.775118">
        <ele>408.54</ele>
        <time>2026-09-01T00:00:00.0000000+00:00</time>
      </trkpt>
      <trkpt lat="48.722637" lon="10.775214">
        <ele>409.05</ele>
        <time>2026-09-01T00:00:00.0000000+00:00</time>
      </trkpt>
      <trkpt lat="48.722615" lon="10.775257999999999">
        <ele>409.28</ele>
        <time>2026-09-01T00:00:00.0000000+00:00</time>
      </trkpt>
      <trkpt lat="48.722529" lon="10.775411">
        <ele>410.1</ele>
        <time>2026-09-01T00:00:00.0000000+00:00</time>
      </trkpt>
      <trkpt lat="48.722351" lon="10.775821">
        <ele>412.35</ele>
        <time>2026-09-01T00:00:00.0000000+00:00</time>
      </trkpt>
      <trkpt lat="48.722291" lon="10.775968">
        <ele>413.16</ele>
        <time>2026-09-01T00:00:00.0000000+00:00</time>
      </trkpt>
      <trkpt lat="48.722122" lon="10.776408">
        <ele>414.2</ele>
        <time>2026-09-01T00:00:00.0000000+00:00</time>
      </trkpt>
      <trkpt lat="48.721987" lon="10.776936">
        <ele>415.11</ele>
        <time>2026-09-01T00:00:00.0000000+00:00</time>
      </trkpt>
      <trkpt lat="48.721882" lon="10.777383">
        <ele>414.96</ele>
        <time>2026-09-01T00:00:00.0000000+00:00</time>
      </trkpt>
      <trkpt lat="48.721763" lon="10.777924">
        <ele>414.67</ele>
        <time>2026-09-01T00:00:00.0000000+00:00</time>
      </trkpt>
      <trkpt lat="48.721667" lon="10.778425">
        <ele>414.44</ele>
        <time>2026-09-01T00:00:00.0000000+00:00</time>
      </trkpt>
      <trkpt lat="48.721667" lon="10.778425">
        <ele>414.44</ele>
        <time>2026-09-01T00:00:00.0000000+00:00</time>
      </trkpt>
      <trkpt lat="48.721563" lon="10.778649">
        <ele>413.98</ele>
        <time>2026-09-01T00:00:00.0000000+00:00</time>
      </trkpt>
      <trkpt lat="48.721366" lon="10.779197">
        <ele>413.36</ele>
        <time>2026-09-01T00:00:00.0000000+00:00</time>
      </trkpt>
      <trkpt lat="48.721161" lon="10.779689">
        <ele>413.41</ele>
        <time>2026-09-01T00:00:00.0000000+00:00</time>
      </trkpt>
      <trkpt lat="48.720996" lon="10.780013">
        <ele>413.17</ele>
        <time>2026-09-01T00:00:00.0000000+00:00</time>
      </trkpt>
      <trkpt lat="48.720996" lon="10.780013">
        <ele>413.17</ele>
        <time>2026-09-01T00:00:00.0000000+00:00</time>
      </trkpt>
      <trkpt lat="48.720996" lon="10.780013">
        <ele>413.17</ele>
        <time>2026-09-01T00:00:00.0000000+00:00</time>
      </trkpt>
      <trkpt lat="48.720939" lon="10.78005">
        <ele>413.11</ele>
        <time>2026-09-01T00:00:00.0000000+00:00</time>
      </trkpt>
      <trkpt lat="48.720939" lon="10.78005">
        <ele>413.11</ele>
        <time>2026-09-01T00:00:00.0000000+00:00</time>
      </trkpt>
      <trkpt lat="48.720939" lon="10.78005">
        <ele>413.11</ele>
        <time>2026-09-01T00:00:00.0000000+00:00</time>
      </trkpt>
      <trkpt lat="48.720939" lon="10.78005">
        <ele>413.11</ele>
        <time>2026-09-01T00:00:00.0000000+00:00</time>
      </trkpt>
      <trkpt lat="48.720939" lon="10.78005">
        <ele>413.11</ele>
        <time>2026-09-01T00:00:00.0000000+00:00</time>
      </trkpt>
      <trkpt lat="48.720878" lon="10.780091">
        <ele>413.06</ele>
        <time>2026-09-01T00:00:00.0000000+00:00</time>
      </trkpt>
      <trkpt lat="48.720712" lon="10.7802">
        <ele>413.13</ele>
        <time>2026-09-01T00:00:00.0000000+00:00</time>
      </trkpt>
      <trkpt lat="48.720449" lon="10.780367">
        <ele>414.49</ele>
        <time>2026-09-01T00:00:00.0000000+00:00</time>
      </trkpt>
      <trkpt lat="48.720294" lon="10.780442">
        <ele>415.15</ele>
        <time>2026-09-01T00:00:00.0000000+00:00</time>
      </trkpt>
      <trkpt lat="48.720294" lon="10.780442">
        <ele>415.15</ele>
        <time>2026-09-01T00:00:00.0000000+00:00</time>
      </trkpt>
      <trkpt lat="48.720123" lon="10.780551">
        <ele>415.58</ele>
        <time>2026-09-01T00:00:00.0000000+00:00</time>
      </trkpt>
      <trkpt lat="48.72008" lon="10.780578">
        <ele>415.59</ele>
        <time>2026-09-01T00:00:00.0000000+00:00</time>
      </trkpt>
      <trkpt lat="48.720032" lon="10.780608">
        <ele>415.6</ele>
        <time>2026-09-01T00:00:00.0000000+00:00</time>
      </trkpt>
      <trkpt lat="48.719724" lon="10.780801">
        <ele>415.45</ele>
        <time>2026-09-01T00:00:00.0000000+00:00</time>
      </trkpt>
      <trkpt lat="48.71947" lon="10.780976">
        <ele>415.17</ele>
        <time>2026-09-01T00:00:00.0000000+00:00</time>
      </trkpt>
      <trkpt lat="48.719233" lon="10.781162">
        <ele>415.19</ele>
        <time>2026-09-01T00:00:00.0000000+00:00</time>
      </trkpt>
      <trkpt lat="48.718836" lon="10.781516">
        <ele>415.41</ele>
        <time>2026-09-01T00:00:00.0000000+00:00</time>
      </trkpt>
      <trkpt lat="48.718656" lon="10.781646">
        <ele>415.15</ele>
        <time>2026-09-01T00:00:00.0000000+00:00</time>
      </trkpt>
    </trkseg>
  </trk>
</gpx>